<?xml version="1.0" encoding="UTF-8"?>
<gpx version="1.1" creator="https://www.www-youtrack-es.amenigma.com" xsi:schemaLocation="http://www.topografix.com/GPX/1/1 http://www.topografix.com/GPX/1/1/gpx.xsd http://www.garmin.com/xmlschemas/GpxExtensions/v3 http://www.garmin.com/xmlschemas/GpxExtensionsv3.xsd http://www.garmin.com/xmlschemas/TrackPointExtension/v1 http://www.garmin.com/xmlschemas/TrackPointExtensionv1.xsd" xmlns:gpxtpx="http://www.garmin.com/xmlschemas/TrackPointExtension/v1" xmlns:gpxx="http://www.garmin.com/xmlschemas/GpxExtensions/v3" xmlns:xsi="http://www.w3.org/2001/XMLSchema-instance">
  <metadata>
    <link href="https://www.www-youtrack-es.amenigma.com">
      <text>YouTrack.es</text>
    </link>
    <time>2026-08-31T02:56:11Z</time>
  </metadata>
  <trk>
    <src>https://www.www-youtrack-es.amenigma.com</src>
    <link href="https://www.www-youtrack-es.amenigma.com/ruta/38572-capellanias-chopos">
      <text>YouTrack.es</text>
    </link>
    <trkseg>
      <trkpt lat="38.03655" lon="-4.05096">
        <ele>111.6</ele>
        <time>2022-11-26 08:36:59</time>
      </trkpt>
      <trkpt lat="38.03657" lon="-4.05082">
        <ele>111.2</ele>
        <time>2022-11-26 08:37:03</time>
      </trkpt>
      <trkpt lat="38.03661" lon="-4.05067">
        <ele>111.4</ele>
        <time>2022-11-26 08:37:07</time>
      </trkpt>
      <trkpt lat="38.03664" lon="-4.0505">
        <ele>110.8</ele>
        <time>2022-11-26 08:37:11</time>
      </trkpt>
      <trkpt lat="38.03663" lon="-4.05038">
        <ele>111.4</ele>
        <time>2022-11-26 08:37:15</time>
      </trkpt>
      <trkpt lat="38.03669" lon="-4.05001">
        <ele>111.2</ele>
        <time>2022-11-26 08:37:19</time>
      </trkpt>
      <trkpt lat="38.03682" lon="-4.04984">
        <ele>111.4</ele>
        <time>2022-11-26 08:37:23</time>
      </trkpt>
      <trkpt lat="38.0369" lon="-4.04965">
        <ele>111.6</ele>
        <time>2022-11-26 08:37:27</time>
      </trkpt>
      <trkpt lat="38.03708" lon="-4.04959">
        <ele>111.4</ele>
        <time>2022-11-26 08:37:31</time>
      </trkpt>
      <trkpt lat="38.03718" lon="-4.04947">
        <ele>112</ele>
        <time>2022-11-26 08:37:35</time>
      </trkpt>
      <trkpt lat="38.03728" lon="-4.04936">
        <ele>111.6</ele>
        <time>2022-11-26 08:37:39</time>
      </trkpt>
      <trkpt lat="38.0374" lon="-4.04925">
        <ele>111.2</ele>
        <time>2022-11-26 08:37:43</time>
      </trkpt>
      <trkpt lat="38.03753" lon="-4.04914">
        <ele>111.8</ele>
        <time>2022-11-26 08:37:47</time>
      </trkpt>
      <trkpt lat="38.0376" lon="-4.04899">
        <ele>111.6</ele>
        <time>2022-11-26 08:37:51</time>
      </trkpt>
      <trkpt lat="38.03776" lon="-4.04896">
        <ele>111.6</ele>
        <time>2022-11-26 08:37:55</time>
      </trkpt>
      <trkpt lat="38.03787" lon="-4.04889">
        <ele>112</ele>
        <time>2022-11-26 08:37:59</time>
      </trkpt>
      <trkpt lat="38.03797" lon="-4.04881">
        <ele>112.6</ele>
        <time>2022-11-26 08:38:03</time>
      </trkpt>
      <trkpt lat="38.03808" lon="-4.04875">
        <ele>112.6</ele>
        <time>2022-11-26 08:38:07</time>
      </trkpt>
      <trkpt lat="38.03818" lon="-4.04869">
        <ele>112.4</ele>
        <time>2022-11-26 08:38:11</time>
      </trkpt>
      <trkpt lat="38.03825" lon="-4.04866">
        <ele>112.6</ele>
        <time>2022-11-26 08:38:15</time>
      </trkpt>
      <trkpt lat="38.03833" lon="-4.04845">
        <ele>112.2</ele>
        <time>2022-11-26 08:38:19</time>
      </trkpt>
      <trkpt lat="38.03835" lon="-4.04833">
        <ele>112.2</ele>
        <time>2022-11-26 08:38:23</time>
      </trkpt>
      <trkpt lat="38.0384" lon="-4.04826">
        <ele>111.8</ele>
        <time>2022-11-26 08:38:27</time>
      </trkpt>
      <trkpt lat="38.03845" lon="-4.04828">
        <ele>112.6</ele>
        <time>2022-11-26 08:38:31</time>
      </trkpt>
      <trkpt lat="38.0387" lon="-4.04829">
        <ele>112.8</ele>
        <time>2022-11-26 08:38:35</time>
      </trkpt>
      <trkpt lat="38.03884" lon="-4.04835">
        <ele>112.8</ele>
        <time>2022-11-26 08:38:39</time>
      </trkpt>
      <trkpt lat="38.03894" lon="-4.04845">
        <ele>112.6</ele>
        <time>2022-11-26 08:38:43</time>
      </trkpt>
      <trkpt lat="38.03917" lon="-4.04833">
        <ele>112.8</ele>
        <time>2022-11-26 08:38:47</time>
      </trkpt>
      <trkpt lat="38.03936" lon="-4.04827">
        <ele>112.4</ele>
        <time>2022-11-26 08:38:51</time>
      </trkpt>
      <trkpt lat="38.03945" lon="-4.04831">
        <ele>112.2</ele>
        <time>2022-11-26 08:38:55</time>
      </trkpt>
      <trkpt lat="38.03962" lon="-4.04828">
        <ele>112.2</ele>
        <time>2022-11-26 08:38:59</time>
      </trkpt>
      <trkpt lat="38.03978" lon="-4.04827">
        <ele>112</ele>
        <time>2022-11-26 08:39:03</time>
      </trkpt>
      <trkpt lat="38.03993" lon="-4.04828">
        <ele>112.4</ele>
        <time>2022-11-26 08:39:07</time>
      </trkpt>
      <trkpt lat="38.04006" lon="-4.04831">
        <ele>111.8</ele>
        <time>2022-11-26 08:39:11</time>
      </trkpt>
      <trkpt lat="38.04021" lon="-4.04828">
        <ele>112.2</ele>
        <time>2022-11-26 08:39:15</time>
      </trkpt>
      <trkpt lat="38.04033" lon="-4.04818">
        <ele>111.8</ele>
        <time>2022-11-26 08:39:19</time>
      </trkpt>
      <trkpt lat="38.04042" lon="-4.04798">
        <ele>111.8</ele>
        <time>2022-11-26 08:39:23</time>
      </trkpt>
      <trkpt lat="38.0405" lon="-4.04776">
        <ele>112.2</ele>
        <time>2022-11-26 08:39:27</time>
      </trkpt>
      <trkpt lat="38.04067" lon="-4.04769">
        <ele>112.2</ele>
        <time>2022-11-26 08:39:31</time>
      </trkpt>
      <trkpt lat="38.04086" lon="-4.04772">
        <ele>112.4</ele>
        <time>2022-11-26 08:39:35</time>
      </trkpt>
      <trkpt lat="38.0409" lon="-4.04772">
        <ele>112.2</ele>
        <time>2022-11-26 08:39:39</time>
      </trkpt>
      <trkpt lat="38.04122" lon="-4.04776">
        <ele>112.8</ele>
        <time>2022-11-26 08:39:43</time>
      </trkpt>
      <trkpt lat="38.04148" lon="-4.04774">
        <ele>112</ele>
        <time>2022-11-26 08:39:47</time>
      </trkpt>
      <trkpt lat="38.04167" lon="-4.04776">
        <ele>111.8</ele>
        <time>2022-11-26 08:39:51</time>
      </trkpt>
      <trkpt lat="38.0418" lon="-4.04777">
        <ele>112.8</ele>
        <time>2022-11-26 08:39:55</time>
      </trkpt>
      <trkpt lat="38.04201" lon="-4.04776">
        <ele>112.4</ele>
        <time>2022-11-26 08:39:59</time>
      </trkpt>
      <trkpt lat="38.04219" lon="-4.04775">
        <ele>112.2</ele>
        <time>2022-11-26 08:40:03</time>
      </trkpt>
      <trkpt lat="38.04232" lon="-4.04772">
        <ele>111.6</ele>
        <time>2022-11-26 08:40:07</time>
      </trkpt>
      <trkpt lat="38.04251" lon="-4.04782">
        <ele>111.8</ele>
        <time>2022-11-26 08:40:11</time>
      </trkpt>
      <trkpt lat="38.04249" lon="-4.04803">
        <ele>111.2</ele>
        <time>2022-11-26 08:40:15</time>
      </trkpt>
      <trkpt lat="38.04252" lon="-4.04828">
        <ele>111.2</ele>
        <time>2022-11-26 08:40:19</time>
      </trkpt>
      <trkpt lat="38.04267" lon="-4.04837">
        <ele>110.6</ele>
        <time>2022-11-26 08:40:23</time>
      </trkpt>
      <trkpt lat="38.04284" lon="-4.04837">
        <ele>111.2</ele>
        <time>2022-11-26 08:40:27</time>
      </trkpt>
      <trkpt lat="38.04301" lon="-4.04843">
        <ele>111.2</ele>
        <time>2022-11-26 08:40:31</time>
      </trkpt>
      <trkpt lat="38.04318" lon="-4.04844">
        <ele>111.2</ele>
        <time>2022-11-26 08:40:35</time>
      </trkpt>
      <trkpt lat="38.04318" lon="-4.04844">
        <ele>110.8</ele>
        <time>2022-11-26 08:40:39</time>
      </trkpt>
      <trkpt lat="38.04345" lon="-4.04839">
        <ele>111.2</ele>
        <time>2022-11-26 08:40:43</time>
      </trkpt>
      <trkpt lat="38.04362" lon="-4.04841">
        <ele>110.8</ele>
        <time>2022-11-26 08:40:47</time>
      </trkpt>
      <trkpt lat="38.04383" lon="-4.04837">
        <ele>110.2</ele>
        <time>2022-11-26 08:40:51</time>
      </trkpt>
      <trkpt lat="38.04405" lon="-4.04832">
        <ele>111.2</ele>
        <time>2022-11-26 08:40:55</time>
      </trkpt>
      <trkpt lat="38.04425" lon="-4.04817">
        <ele>110.8</ele>
        <time>2022-11-26 08:40:59</time>
      </trkpt>
      <trkpt lat="38.04441" lon="-4.048">
        <ele>111.2</ele>
        <time>2022-11-26 08:41:03</time>
      </trkpt>
      <trkpt lat="38.04456" lon="-4.04783">
        <ele>111</ele>
        <time>2022-11-26 08:41:07</time>
      </trkpt>
      <trkpt lat="38.04471" lon="-4.04766">
        <ele>111.4</ele>
        <time>2022-11-26 08:41:11</time>
      </trkpt>
      <trkpt lat="38.04485" lon="-4.04745">
        <ele>111.8</ele>
        <time>2022-11-26 08:41:15</time>
      </trkpt>
      <trkpt lat="38.0449" lon="-4.04734">
        <ele>112.4</ele>
        <time>2022-11-26 08:41:19</time>
      </trkpt>
      <trkpt lat="38.04504" lon="-4.04702">
        <ele>112.8</ele>
        <time>2022-11-26 08:41:23</time>
      </trkpt>
      <trkpt lat="38.04511" lon="-4.04679">
        <ele>113.2</ele>
        <time>2022-11-26 08:41:27</time>
      </trkpt>
      <trkpt lat="38.04519" lon="-4.04659">
        <ele>114.2</ele>
        <time>2022-11-26 08:41:31</time>
      </trkpt>
      <trkpt lat="38.0453" lon="-4.0464">
        <ele>113.8</ele>
        <time>2022-11-26 08:41:35</time>
      </trkpt>
      <trkpt lat="38.04546" lon="-4.04622">
        <ele>113.6</ele>
        <time>2022-11-26 08:41:39</time>
      </trkpt>
      <trkpt lat="38.04564" lon="-4.04603">
        <ele>114</ele>
        <time>2022-11-26 08:41:43</time>
      </trkpt>
      <trkpt lat="38.04578" lon="-4.04586">
        <ele>113.6</ele>
        <time>2022-11-26 08:41:47</time>
      </trkpt>
      <trkpt lat="38.04589" lon="-4.04566">
        <ele>113.2</ele>
        <time>2022-11-26 08:41:51</time>
      </trkpt>
      <trkpt lat="38.04597" lon="-4.04545">
        <ele>113</ele>
        <time>2022-11-26 08:41:55</time>
      </trkpt>
      <trkpt lat="38.04605" lon="-4.04523">
        <ele>113</ele>
        <time>2022-11-26 08:41:59</time>
      </trkpt>
      <trkpt lat="38.04615" lon="-4.04499">
        <ele>112.4</ele>
        <time>2022-11-26 08:42:03</time>
      </trkpt>
      <trkpt lat="38.04624" lon="-4.04476">
        <ele>111</ele>
        <time>2022-11-26 08:42:07</time>
      </trkpt>
      <trkpt lat="38.04639" lon="-4.04452">
        <ele>111.4</ele>
        <time>2022-11-26 08:42:11</time>
      </trkpt>
      <trkpt lat="38.04655" lon="-4.04434">
        <ele>112</ele>
        <time>2022-11-26 08:42:15</time>
      </trkpt>
      <trkpt lat="38.04671" lon="-4.0442">
        <ele>112.8</ele>
        <time>2022-11-26 08:42:19</time>
      </trkpt>
      <trkpt lat="38.04689" lon="-4.04407">
        <ele>112.4</ele>
        <time>2022-11-26 08:42:23</time>
      </trkpt>
      <trkpt lat="38.04707" lon="-4.04392">
        <ele>112.8</ele>
        <time>2022-11-26 08:42:27</time>
      </trkpt>
      <trkpt lat="38.04723" lon="-4.04381">
        <ele>113.2</ele>
        <time>2022-11-26 08:42:31</time>
      </trkpt>
      <trkpt lat="38.04736" lon="-4.0437">
        <ele>114.8</ele>
        <time>2022-11-26 08:42:35</time>
      </trkpt>
      <trkpt lat="38.04751" lon="-4.04359">
        <ele>114.6</ele>
        <time>2022-11-26 08:42:39</time>
      </trkpt>
      <trkpt lat="38.04765" lon="-4.04349">
        <ele>115.6</ele>
        <time>2022-11-26 08:42:43</time>
      </trkpt>
      <trkpt lat="38.0478" lon="-4.04338">
        <ele>116</ele>
        <time>2022-11-26 08:42:47</time>
      </trkpt>
      <trkpt lat="38.04796" lon="-4.04325">
        <ele>116.6</ele>
        <time>2022-11-26 08:42:51</time>
      </trkpt>
      <trkpt lat="38.04811" lon="-4.04311">
        <ele>117.4</ele>
        <time>2022-11-26 08:42:55</time>
      </trkpt>
      <trkpt lat="38.04826" lon="-4.04299">
        <ele>117.6</ele>
        <time>2022-11-26 08:42:59</time>
      </trkpt>
      <trkpt lat="38.04841" lon="-4.04287">
        <ele>118.4</ele>
        <time>2022-11-26 08:43:03</time>
      </trkpt>
      <trkpt lat="38.04855" lon="-4.04275">
        <ele>119.8</ele>
        <time>2022-11-26 08:43:07</time>
      </trkpt>
      <trkpt lat="38.04871" lon="-4.04264">
        <ele>120.6</ele>
        <time>2022-11-26 08:43:11</time>
      </trkpt>
      <trkpt lat="38.04889" lon="-4.04255">
        <ele>120.4</ele>
        <time>2022-11-26 08:43:15</time>
      </trkpt>
      <trkpt lat="38.04907" lon="-4.04248">
        <ele>121.2</ele>
        <time>2022-11-26 08:43:19</time>
      </trkpt>
      <trkpt lat="38.04925" lon="-4.0424">
        <ele>121.4</ele>
        <time>2022-11-26 08:43:23</time>
      </trkpt>
      <trkpt lat="38.04943" lon="-4.04232">
        <ele>121.8</ele>
        <time>2022-11-26 08:43:27</time>
      </trkpt>
      <trkpt lat="38.04962" lon="-4.04223">
        <ele>121.6</ele>
        <time>2022-11-26 08:43:31</time>
      </trkpt>
      <trkpt lat="38.0498" lon="-4.04215">
        <ele>122.4</ele>
        <time>2022-11-26 08:43:35</time>
      </trkpt>
      <trkpt lat="38.04997" lon="-4.04208">
        <ele>122.4</ele>
        <time>2022-11-26 08:43:39</time>
      </trkpt>
      <trkpt lat="38.05015" lon="-4.042">
        <ele>122.4</ele>
        <time>2022-11-26 08:43:43</time>
      </trkpt>
      <trkpt lat="38.05034" lon="-4.04192">
        <ele>123</ele>
        <time>2022-11-26 08:43:47</time>
      </trkpt>
      <trkpt lat="38.05052" lon="-4.04184">
        <ele>123.2</ele>
        <time>2022-11-26 08:43:51</time>
      </trkpt>
      <trkpt lat="38.05071" lon="-4.04175">
        <ele>123</ele>
        <time>2022-11-26 08:43:55</time>
      </trkpt>
      <trkpt lat="38.05091" lon="-4.04167">
        <ele>123.8</ele>
        <time>2022-11-26 08:43:59</time>
      </trkpt>
      <trkpt lat="38.0511" lon="-4.04159">
        <ele>123.6</ele>
        <time>2022-11-26 08:44:03</time>
      </trkpt>
      <trkpt lat="38.05129" lon="-4.04151">
        <ele>124.2</ele>
        <time>2022-11-26 08:44:07</time>
      </trkpt>
      <trkpt lat="38.05148" lon="-4.04143">
        <ele>124.2</ele>
        <time>2022-11-26 08:44:11</time>
      </trkpt>
      <trkpt lat="38.05168" lon="-4.04135">
        <ele>124.4</ele>
        <time>2022-11-26 08:44:15</time>
      </trkpt>
      <trkpt lat="38.05187" lon="-4.04126">
        <ele>124</ele>
        <time>2022-11-26 08:44:19</time>
      </trkpt>
      <trkpt lat="38.05207" lon="-4.04118">
        <ele>124</ele>
        <time>2022-11-26 08:44:23</time>
      </trkpt>
      <trkpt lat="38.05227" lon="-4.0411">
        <ele>125</ele>
        <time>2022-11-26 08:44:27</time>
      </trkpt>
      <trkpt lat="38.05246" lon="-4.04103">
        <ele>125</ele>
        <time>2022-11-26 08:44:31</time>
      </trkpt>
      <trkpt lat="38.05265" lon="-4.04095">
        <ele>125.4</ele>
        <time>2022-11-26 08:44:35</time>
      </trkpt>
      <trkpt lat="38.05283" lon="-4.04087">
        <ele>125.6</ele>
        <time>2022-11-26 08:44:39</time>
      </trkpt>
      <trkpt lat="38.05302" lon="-4.04079">
        <ele>126</ele>
        <time>2022-11-26 08:44:43</time>
      </trkpt>
      <trkpt lat="38.05321" lon="-4.04071">
        <ele>126.2</ele>
        <time>2022-11-26 08:44:47</time>
      </trkpt>
      <trkpt lat="38.05341" lon="-4.04063">
        <ele>126.2</ele>
        <time>2022-11-26 08:44:51</time>
      </trkpt>
      <trkpt lat="38.0536" lon="-4.04055">
        <ele>126.6</ele>
        <time>2022-11-26 08:44:55</time>
      </trkpt>
      <trkpt lat="38.0538" lon="-4.04047">
        <ele>127.2</ele>
        <time>2022-11-26 08:44:59</time>
      </trkpt>
      <trkpt lat="38.054" lon="-4.04039">
        <ele>127.4</ele>
        <time>2022-11-26 08:45:03</time>
      </trkpt>
      <trkpt lat="38.05419" lon="-4.04033">
        <ele>127.8</ele>
        <time>2022-11-26 08:45:07</time>
      </trkpt>
      <trkpt lat="38.05438" lon="-4.04029">
        <ele>129</ele>
        <time>2022-11-26 08:45:11</time>
      </trkpt>
      <trkpt lat="38.05457" lon="-4.04025">
        <ele>128.6</ele>
        <time>2022-11-26 08:45:15</time>
      </trkpt>
      <trkpt lat="38.05475" lon="-4.0402">
        <ele>129.6</ele>
        <time>2022-11-26 08:45:19</time>
      </trkpt>
      <trkpt lat="38.05494" lon="-4.04012">
        <ele>129.6</ele>
        <time>2022-11-26 08:45:23</time>
      </trkpt>
      <trkpt lat="38.05513" lon="-4.04005">
        <ele>130</ele>
        <time>2022-11-26 08:45:27</time>
      </trkpt>
      <trkpt lat="38.05532" lon="-4.03999">
        <ele>130</ele>
        <time>2022-11-26 08:45:31</time>
      </trkpt>
      <trkpt lat="38.05551" lon="-4.03993">
        <ele>130.2</ele>
        <time>2022-11-26 08:45:35</time>
      </trkpt>
      <trkpt lat="38.0557" lon="-4.03986">
        <ele>130.2</ele>
        <time>2022-11-26 08:45:39</time>
      </trkpt>
      <trkpt lat="38.05589" lon="-4.0398">
        <ele>129.6</ele>
        <time>2022-11-26 08:45:43</time>
      </trkpt>
      <trkpt lat="38.05609" lon="-4.03974">
        <ele>130.6</ele>
        <time>2022-11-26 08:45:47</time>
      </trkpt>
      <trkpt lat="38.05628" lon="-4.03967">
        <ele>130.4</ele>
        <time>2022-11-26 08:45:51</time>
      </trkpt>
      <trkpt lat="38.05648" lon="-4.03961">
        <ele>129.4</ele>
        <time>2022-11-26 08:45:55</time>
      </trkpt>
      <trkpt lat="38.0567" lon="-4.03955">
        <ele>129.6</ele>
        <time>2022-11-26 08:45:59</time>
      </trkpt>
      <trkpt lat="38.05692" lon="-4.03946">
        <ele>129.4</ele>
        <time>2022-11-26 08:46:03</time>
      </trkpt>
      <trkpt lat="38.05712" lon="-4.03932">
        <ele>129.6</ele>
        <time>2022-11-26 08:46:07</time>
      </trkpt>
      <trkpt lat="38.0573" lon="-4.03917">
        <ele>129.6</ele>
        <time>2022-11-26 08:46:11</time>
      </trkpt>
      <trkpt lat="38.0575" lon="-4.03905">
        <ele>129.6</ele>
        <time>2022-11-26 08:46:15</time>
      </trkpt>
      <trkpt lat="38.05772" lon="-4.03895">
        <ele>129.6</ele>
        <time>2022-11-26 08:46:19</time>
      </trkpt>
      <trkpt lat="38.05794" lon="-4.03887">
        <ele>129.2</ele>
        <time>2022-11-26 08:46:23</time>
      </trkpt>
      <trkpt lat="38.05815" lon="-4.03875">
        <ele>129.6</ele>
        <time>2022-11-26 08:46:27</time>
      </trkpt>
      <trkpt lat="38.05834" lon="-4.0386">
        <ele>128.8</ele>
        <time>2022-11-26 08:46:31</time>
      </trkpt>
      <trkpt lat="38.05852" lon="-4.03845">
        <ele>129.6</ele>
        <time>2022-11-26 08:46:35</time>
      </trkpt>
      <trkpt lat="38.05871" lon="-4.0383">
        <ele>130</ele>
        <time>2022-11-26 08:46:39</time>
      </trkpt>
      <trkpt lat="38.05889" lon="-4.03817">
        <ele>130.2</ele>
        <time>2022-11-26 08:46:43</time>
      </trkpt>
      <trkpt lat="38.05909" lon="-4.03805">
        <ele>130.6</ele>
        <time>2022-11-26 08:46:47</time>
      </trkpt>
      <trkpt lat="38.05928" lon="-4.03794">
        <ele>131.2</ele>
        <time>2022-11-26 08:46:51</time>
      </trkpt>
      <trkpt lat="38.05948" lon="-4.03785">
        <ele>131.2</ele>
        <time>2022-11-26 08:46:55</time>
      </trkpt>
      <trkpt lat="38.05967" lon="-4.03775">
        <ele>131.2</ele>
        <time>2022-11-26 08:46:59</time>
      </trkpt>
      <trkpt lat="38.05986" lon="-4.03765">
        <ele>132.2</ele>
        <time>2022-11-26 08:47:03</time>
      </trkpt>
      <trkpt lat="38.06005" lon="-4.03756">
        <ele>132.2</ele>
        <time>2022-11-26 08:47:07</time>
      </trkpt>
      <trkpt lat="38.06025" lon="-4.03747">
        <ele>132.2</ele>
        <time>2022-11-26 08:47:11</time>
      </trkpt>
      <trkpt lat="38.06045" lon="-4.0374">
        <ele>132.2</ele>
        <time>2022-11-26 08:47:15</time>
      </trkpt>
      <trkpt lat="38.06065" lon="-4.03735">
        <ele>133.6</ele>
        <time>2022-11-26 08:47:19</time>
      </trkpt>
      <trkpt lat="38.06084" lon="-4.03733">
        <ele>133.4</ele>
        <time>2022-11-26 08:47:23</time>
      </trkpt>
      <trkpt lat="38.06103" lon="-4.03733">
        <ele>133.4</ele>
        <time>2022-11-26 08:47:27</time>
      </trkpt>
      <trkpt lat="38.06124" lon="-4.03733">
        <ele>133.2</ele>
        <time>2022-11-26 08:47:31</time>
      </trkpt>
      <trkpt lat="38.06146" lon="-4.03733">
        <ele>133.4</ele>
        <time>2022-11-26 08:47:35</time>
      </trkpt>
      <trkpt lat="38.06168" lon="-4.0373">
        <ele>133.6</ele>
        <time>2022-11-26 08:47:39</time>
      </trkpt>
      <trkpt lat="38.0619" lon="-4.03725">
        <ele>134.2</ele>
        <time>2022-11-26 08:47:43</time>
      </trkpt>
      <trkpt lat="38.06212" lon="-4.0372">
        <ele>134</ele>
        <time>2022-11-26 08:47:47</time>
      </trkpt>
      <trkpt lat="38.06233" lon="-4.03714">
        <ele>134</ele>
        <time>2022-11-26 08:47:51</time>
      </trkpt>
      <trkpt lat="38.06254" lon="-4.03707">
        <ele>135</ele>
        <time>2022-11-26 08:47:55</time>
      </trkpt>
      <trkpt lat="38.06275" lon="-4.037">
        <ele>135.2</ele>
        <time>2022-11-26 08:47:59</time>
      </trkpt>
      <trkpt lat="38.06294" lon="-4.03691">
        <ele>135.2</ele>
        <time>2022-11-26 08:48:03</time>
      </trkpt>
      <trkpt lat="38.06314" lon="-4.03681">
        <ele>135.8</ele>
        <time>2022-11-26 08:48:07</time>
      </trkpt>
      <trkpt lat="38.06334" lon="-4.03674">
        <ele>135.8</ele>
        <time>2022-11-26 08:48:11</time>
      </trkpt>
      <trkpt lat="38.06355" lon="-4.03669">
        <ele>136</ele>
        <time>2022-11-26 08:48:15</time>
      </trkpt>
      <trkpt lat="38.06375" lon="-4.03666">
        <ele>136.4</ele>
        <time>2022-11-26 08:48:19</time>
      </trkpt>
      <trkpt lat="38.06396" lon="-4.03666">
        <ele>136.6</ele>
        <time>2022-11-26 08:48:23</time>
      </trkpt>
      <trkpt lat="38.06417" lon="-4.03668">
        <ele>136.6</ele>
        <time>2022-11-26 08:48:27</time>
      </trkpt>
      <trkpt lat="38.06437" lon="-4.03663">
        <ele>136.8</ele>
        <time>2022-11-26 08:48:31</time>
      </trkpt>
      <trkpt lat="38.06458" lon="-4.03658">
        <ele>137.4</ele>
        <time>2022-11-26 08:48:35</time>
      </trkpt>
      <trkpt lat="38.06479" lon="-4.03652">
        <ele>138.2</ele>
        <time>2022-11-26 08:48:39</time>
      </trkpt>
      <trkpt lat="38.06498" lon="-4.03647">
        <ele>138.2</ele>
        <time>2022-11-26 08:48:43</time>
      </trkpt>
      <trkpt lat="38.06517" lon="-4.03643">
        <ele>138.4</ele>
        <time>2022-11-26 08:48:47</time>
      </trkpt>
      <trkpt lat="38.06538" lon="-4.03637">
        <ele>138.8</ele>
        <time>2022-11-26 08:48:51</time>
      </trkpt>
      <trkpt lat="38.06558" lon="-4.03632">
        <ele>139.2</ele>
        <time>2022-11-26 08:48:55</time>
      </trkpt>
      <trkpt lat="38.06579" lon="-4.03628">
        <ele>139.2</ele>
        <time>2022-11-26 08:48:59</time>
      </trkpt>
      <trkpt lat="38.066" lon="-4.03626">
        <ele>139.4</ele>
        <time>2022-11-26 08:49:03</time>
      </trkpt>
      <trkpt lat="38.06621" lon="-4.03625">
        <ele>139.4</ele>
        <time>2022-11-26 08:49:07</time>
      </trkpt>
      <trkpt lat="38.06643" lon="-4.03624">
        <ele>139.4</ele>
        <time>2022-11-26 08:49:11</time>
      </trkpt>
      <trkpt lat="38.06664" lon="-4.03624">
        <ele>140.2</ele>
        <time>2022-11-26 08:49:15</time>
      </trkpt>
      <trkpt lat="38.06686" lon="-4.03622">
        <ele>140.6</ele>
        <time>2022-11-26 08:49:19</time>
      </trkpt>
      <trkpt lat="38.06706" lon="-4.03619">
        <ele>140.8</ele>
        <time>2022-11-26 08:49:23</time>
      </trkpt>
      <trkpt lat="38.06726" lon="-4.03619">
        <ele>141.8</ele>
        <time>2022-11-26 08:49:27</time>
      </trkpt>
      <trkpt lat="38.06747" lon="-4.03621">
        <ele>141.8</ele>
        <time>2022-11-26 08:49:31</time>
      </trkpt>
      <trkpt lat="38.06766" lon="-4.03622">
        <ele>142.8</ele>
        <time>2022-11-26 08:49:35</time>
      </trkpt>
      <trkpt lat="38.06785" lon="-4.03624">
        <ele>143.2</ele>
        <time>2022-11-26 08:49:39</time>
      </trkpt>
      <trkpt lat="38.06804" lon="-4.03626">
        <ele>143.6</ele>
        <time>2022-11-26 08:49:43</time>
      </trkpt>
      <trkpt lat="38.06823" lon="-4.03628">
        <ele>144</ele>
        <time>2022-11-26 08:49:47</time>
      </trkpt>
      <trkpt lat="38.06841" lon="-4.03629">
        <ele>144.6</ele>
        <time>2022-11-26 08:49:51</time>
      </trkpt>
      <trkpt lat="38.06859" lon="-4.03631">
        <ele>145.6</ele>
        <time>2022-11-26 08:49:55</time>
      </trkpt>
      <trkpt lat="38.06876" lon="-4.03632">
        <ele>146.4</ele>
        <time>2022-11-26 08:49:59</time>
      </trkpt>
      <trkpt lat="38.06893" lon="-4.03633">
        <ele>146.6</ele>
        <time>2022-11-26 08:50:03</time>
      </trkpt>
      <trkpt lat="38.0691" lon="-4.03631">
        <ele>146.6</ele>
        <time>2022-11-26 08:50:07</time>
      </trkpt>
      <trkpt lat="38.06926" lon="-4.03624">
        <ele>148</ele>
        <time>2022-11-26 08:50:11</time>
      </trkpt>
      <trkpt lat="38.06942" lon="-4.03619">
        <ele>147.8</ele>
        <time>2022-11-26 08:50:15</time>
      </trkpt>
      <trkpt lat="38.06959" lon="-4.03616">
        <ele>147.8</ele>
        <time>2022-11-26 08:50:19</time>
      </trkpt>
      <trkpt lat="38.06977" lon="-4.03615">
        <ele>148.4</ele>
        <time>2022-11-26 08:50:23</time>
      </trkpt>
      <trkpt lat="38.06994" lon="-4.03615">
        <ele>148.8</ele>
        <time>2022-11-26 08:50:27</time>
      </trkpt>
      <trkpt lat="38.07011" lon="-4.03617">
        <ele>149.6</ele>
        <time>2022-11-26 08:50:31</time>
      </trkpt>
      <trkpt lat="38.07027" lon="-4.03621">
        <ele>150</ele>
        <time>2022-11-26 08:50:35</time>
      </trkpt>
      <trkpt lat="38.07042" lon="-4.03631">
        <ele>149.6</ele>
        <time>2022-11-26 08:50:39</time>
      </trkpt>
      <trkpt lat="38.07058" lon="-4.03643">
        <ele>150.2</ele>
        <time>2022-11-26 08:50:43</time>
      </trkpt>
      <trkpt lat="38.07074" lon="-4.03653">
        <ele>149.2</ele>
        <time>2022-11-26 08:50:47</time>
      </trkpt>
      <trkpt lat="38.07092" lon="-4.0366">
        <ele>149.8</ele>
        <time>2022-11-26 08:50:51</time>
      </trkpt>
      <trkpt lat="38.07111" lon="-4.03666">
        <ele>149</ele>
        <time>2022-11-26 08:50:55</time>
      </trkpt>
      <trkpt lat="38.0713" lon="-4.03661">
        <ele>149.6</ele>
        <time>2022-11-26 08:50:59</time>
      </trkpt>
      <trkpt lat="38.07147" lon="-4.03653">
        <ele>150.8</ele>
        <time>2022-11-26 08:51:03</time>
      </trkpt>
      <trkpt lat="38.07164" lon="-4.03648">
        <ele>151.6</ele>
        <time>2022-11-26 08:51:07</time>
      </trkpt>
      <trkpt lat="38.0718" lon="-4.03647">
        <ele>152.2</ele>
        <time>2022-11-26 08:51:11</time>
      </trkpt>
      <trkpt lat="38.07194" lon="-4.03648">
        <ele>153.2</ele>
        <time>2022-11-26 08:51:15</time>
      </trkpt>
      <trkpt lat="38.07206" lon="-4.03649">
        <ele>154.4</ele>
        <time>2022-11-26 08:51:19</time>
      </trkpt>
      <trkpt lat="38.07219" lon="-4.03651">
        <ele>155</ele>
        <time>2022-11-26 08:51:23</time>
      </trkpt>
      <trkpt lat="38.07232" lon="-4.03652">
        <ele>156</ele>
        <time>2022-11-26 08:51:27</time>
      </trkpt>
      <trkpt lat="38.07245" lon="-4.03654">
        <ele>157</ele>
        <time>2022-11-26 08:51:31</time>
      </trkpt>
      <trkpt lat="38.07257" lon="-4.03655">
        <ele>158.4</ele>
        <time>2022-11-26 08:51:35</time>
      </trkpt>
      <trkpt lat="38.0727" lon="-4.03656">
        <ele>159.6</ele>
        <time>2022-11-26 08:51:39</time>
      </trkpt>
      <trkpt lat="38.07283" lon="-4.03658">
        <ele>160.8</ele>
        <time>2022-11-26 08:51:43</time>
      </trkpt>
      <trkpt lat="38.07296" lon="-4.03659">
        <ele>161.8</ele>
        <time>2022-11-26 08:51:47</time>
      </trkpt>
      <trkpt lat="38.07308" lon="-4.03661">
        <ele>163.6</ele>
        <time>2022-11-26 08:51:51</time>
      </trkpt>
      <trkpt lat="38.07321" lon="-4.03662">
        <ele>164.6</ele>
        <time>2022-11-26 08:51:55</time>
      </trkpt>
      <trkpt lat="38.07334" lon="-4.03664">
        <ele>165.4</ele>
        <time>2022-11-26 08:51:59</time>
      </trkpt>
      <trkpt lat="38.07346" lon="-4.03664">
        <ele>165.8</ele>
        <time>2022-11-26 08:52:03</time>
      </trkpt>
      <trkpt lat="38.0736" lon="-4.03665">
        <ele>165</ele>
        <time>2022-11-26 08:52:07</time>
      </trkpt>
      <trkpt lat="38.07375" lon="-4.03666">
        <ele>164.4</ele>
        <time>2022-11-26 08:52:11</time>
      </trkpt>
      <trkpt lat="38.07397" lon="-4.03665">
        <ele>162.2</ele>
        <time>2022-11-26 08:52:15</time>
      </trkpt>
      <trkpt lat="38.07421" lon="-4.03658">
        <ele>162.4</ele>
        <time>2022-11-26 08:52:19</time>
      </trkpt>
      <trkpt lat="38.0744" lon="-4.03651">
        <ele>163.4</ele>
        <time>2022-11-26 08:52:23</time>
      </trkpt>
      <trkpt lat="38.07457" lon="-4.03648">
        <ele>164.4</ele>
        <time>2022-11-26 08:52:27</time>
      </trkpt>
      <trkpt lat="38.07473" lon="-4.03647">
        <ele>164.2</ele>
        <time>2022-11-26 08:52:31</time>
      </trkpt>
      <trkpt lat="38.07488" lon="-4.03648">
        <ele>164.2</ele>
        <time>2022-11-26 08:52:35</time>
      </trkpt>
      <trkpt lat="38.07504" lon="-4.03649">
        <ele>163.8</ele>
        <time>2022-11-26 08:52:39</time>
      </trkpt>
      <trkpt lat="38.0752" lon="-4.03649">
        <ele>164.8</ele>
        <time>2022-11-26 08:52:43</time>
      </trkpt>
      <trkpt lat="38.07535" lon="-4.0365">
        <ele>164.8</ele>
        <time>2022-11-26 08:52:47</time>
      </trkpt>
      <trkpt lat="38.0755" lon="-4.03649">
        <ele>166</ele>
        <time>2022-11-26 08:52:51</time>
      </trkpt>
      <trkpt lat="38.07564" lon="-4.03646">
        <ele>167</ele>
        <time>2022-11-26 08:52:55</time>
      </trkpt>
      <trkpt lat="38.07578" lon="-4.03645">
        <ele>167.4</ele>
        <time>2022-11-26 08:52:59</time>
      </trkpt>
      <trkpt lat="38.07592" lon="-4.03644">
        <ele>167.8</ele>
        <time>2022-11-26 08:53:03</time>
      </trkpt>
      <trkpt lat="38.07606" lon="-4.03643">
        <ele>168.4</ele>
        <time>2022-11-26 08:53:07</time>
      </trkpt>
      <trkpt lat="38.07619" lon="-4.03643">
        <ele>169.6</ele>
        <time>2022-11-26 08:53:11</time>
      </trkpt>
      <trkpt lat="38.07632" lon="-4.03643">
        <ele>170.8</ele>
        <time>2022-11-26 08:53:15</time>
      </trkpt>
      <trkpt lat="38.07645" lon="-4.03642">
        <ele>172.2</ele>
        <time>2022-11-26 08:53:19</time>
      </trkpt>
      <trkpt lat="38.07656" lon="-4.03642">
        <ele>173.4</ele>
        <time>2022-11-26 08:53:23</time>
      </trkpt>
      <trkpt lat="38.07667" lon="-4.03645">
        <ele>173.8</ele>
        <time>2022-11-26 08:53:27</time>
      </trkpt>
      <trkpt lat="38.07677" lon="-4.03651">
        <ele>174.2</ele>
        <time>2022-11-26 08:53:31</time>
      </trkpt>
      <trkpt lat="38.07688" lon="-4.0366">
        <ele>174.2</ele>
        <time>2022-11-26 08:53:35</time>
      </trkpt>
      <trkpt lat="38.07702" lon="-4.03666">
        <ele>173.6</ele>
        <time>2022-11-26 08:53:39</time>
      </trkpt>
      <trkpt lat="38.07716" lon="-4.03665">
        <ele>173</ele>
        <time>2022-11-26 08:53:43</time>
      </trkpt>
      <trkpt lat="38.07733" lon="-4.03661">
        <ele>172.6</ele>
        <time>2022-11-26 08:53:47</time>
      </trkpt>
      <trkpt lat="38.07754" lon="-4.03655">
        <ele>171.2</ele>
        <time>2022-11-26 08:53:51</time>
      </trkpt>
      <trkpt lat="38.07777" lon="-4.03648">
        <ele>170</ele>
        <time>2022-11-26 08:53:55</time>
      </trkpt>
      <trkpt lat="38.07799" lon="-4.03638">
        <ele>170.6</ele>
        <time>2022-11-26 08:53:59</time>
      </trkpt>
      <trkpt lat="38.07819" lon="-4.03625">
        <ele>171.4</ele>
        <time>2022-11-26 08:54:03</time>
      </trkpt>
      <trkpt lat="38.07834" lon="-4.03614">
        <ele>172.8</ele>
        <time>2022-11-26 08:54:07</time>
      </trkpt>
      <trkpt lat="38.07846" lon="-4.03605">
        <ele>174.4</ele>
        <time>2022-11-26 08:54:11</time>
      </trkpt>
      <trkpt lat="38.07858" lon="-4.03598">
        <ele>175.6</ele>
        <time>2022-11-26 08:54:15</time>
      </trkpt>
      <trkpt lat="38.07869" lon="-4.0359">
        <ele>176.6</ele>
        <time>2022-11-26 08:54:19</time>
      </trkpt>
      <trkpt lat="38.0788" lon="-4.03582">
        <ele>178</ele>
        <time>2022-11-26 08:54:23</time>
      </trkpt>
      <trkpt lat="38.07891" lon="-4.03572">
        <ele>179.6</ele>
        <time>2022-11-26 08:54:27</time>
      </trkpt>
      <trkpt lat="38.07902" lon="-4.03567">
        <ele>179.6</ele>
        <time>2022-11-26 08:54:31</time>
      </trkpt>
      <trkpt lat="38.07913" lon="-4.03563">
        <ele>181</ele>
        <time>2022-11-26 08:54:35</time>
      </trkpt>
      <trkpt lat="38.07925" lon="-4.03562">
        <ele>182.4</ele>
        <time>2022-11-26 08:54:39</time>
      </trkpt>
      <trkpt lat="38.07937" lon="-4.03564">
        <ele>183</ele>
        <time>2022-11-26 08:54:43</time>
      </trkpt>
      <trkpt lat="38.07947" lon="-4.03568">
        <ele>183.6</ele>
        <time>2022-11-26 08:54:47</time>
      </trkpt>
      <trkpt lat="38.07958" lon="-4.03576">
        <ele>184.4</ele>
        <time>2022-11-26 08:54:51</time>
      </trkpt>
      <trkpt lat="38.07968" lon="-4.03583">
        <ele>185</ele>
        <time>2022-11-26 08:54:55</time>
      </trkpt>
      <trkpt lat="38.0798" lon="-4.03587">
        <ele>185.4</ele>
        <time>2022-11-26 08:54:59</time>
      </trkpt>
      <trkpt lat="38.07993" lon="-4.03589">
        <ele>185.6</ele>
        <time>2022-11-26 08:55:03</time>
      </trkpt>
      <trkpt lat="38.08007" lon="-4.03588">
        <ele>185.6</ele>
        <time>2022-11-26 08:55:07</time>
      </trkpt>
      <trkpt lat="38.0802" lon="-4.03583">
        <ele>185.6</ele>
        <time>2022-11-26 08:55:11</time>
      </trkpt>
      <trkpt lat="38.08034" lon="-4.03575">
        <ele>185.2</ele>
        <time>2022-11-26 08:55:15</time>
      </trkpt>
      <trkpt lat="38.08045" lon="-4.03563">
        <ele>186.6</ele>
        <time>2022-11-26 08:55:19</time>
      </trkpt>
      <trkpt lat="38.08055" lon="-4.03549">
        <ele>186.6</ele>
        <time>2022-11-26 08:55:23</time>
      </trkpt>
      <trkpt lat="38.08063" lon="-4.03537">
        <ele>188</ele>
        <time>2022-11-26 08:55:27</time>
      </trkpt>
      <trkpt lat="38.08073" lon="-4.03526">
        <ele>188.2</ele>
        <time>2022-11-26 08:55:31</time>
      </trkpt>
      <trkpt lat="38.08086" lon="-4.03519">
        <ele>188.8</ele>
        <time>2022-11-26 08:55:35</time>
      </trkpt>
      <trkpt lat="38.08099" lon="-4.03517">
        <ele>189.2</ele>
        <time>2022-11-26 08:55:39</time>
      </trkpt>
      <trkpt lat="38.08113" lon="-4.03523">
        <ele>188.2</ele>
        <time>2022-11-26 08:55:43</time>
      </trkpt>
      <trkpt lat="38.08128" lon="-4.03533">
        <ele>188</ele>
        <time>2022-11-26 08:55:47</time>
      </trkpt>
      <trkpt lat="38.08144" lon="-4.03542">
        <ele>188.4</ele>
        <time>2022-11-26 08:55:51</time>
      </trkpt>
      <trkpt lat="38.08161" lon="-4.03547">
        <ele>188.8</ele>
        <time>2022-11-26 08:55:55</time>
      </trkpt>
      <trkpt lat="38.08178" lon="-4.03547">
        <ele>188.8</ele>
        <time>2022-11-26 08:55:59</time>
      </trkpt>
      <trkpt lat="38.08193" lon="-4.03546">
        <ele>189.2</ele>
        <time>2022-11-26 08:56:03</time>
      </trkpt>
      <trkpt lat="38.08208" lon="-4.03546">
        <ele>189.8</ele>
        <time>2022-11-26 08:56:07</time>
      </trkpt>
      <trkpt lat="38.08223" lon="-4.03546">
        <ele>190.6</ele>
        <time>2022-11-26 08:56:11</time>
      </trkpt>
      <trkpt lat="38.08239" lon="-4.03547">
        <ele>191.2</ele>
        <time>2022-11-26 08:56:15</time>
      </trkpt>
      <trkpt lat="38.08254" lon="-4.03547">
        <ele>192</ele>
        <time>2022-11-26 08:56:19</time>
      </trkpt>
      <trkpt lat="38.08268" lon="-4.03547">
        <ele>192.6</ele>
        <time>2022-11-26 08:56:23</time>
      </trkpt>
      <trkpt lat="38.08281" lon="-4.03548">
        <ele>192.6</ele>
        <time>2022-11-26 08:56:27</time>
      </trkpt>
      <trkpt lat="38.08295" lon="-4.03548">
        <ele>193.8</ele>
        <time>2022-11-26 08:56:31</time>
      </trkpt>
      <trkpt lat="38.08309" lon="-4.03548">
        <ele>194.8</ele>
        <time>2022-11-26 08:56:35</time>
      </trkpt>
      <trkpt lat="38.08322" lon="-4.03548">
        <ele>195.2</ele>
        <time>2022-11-26 08:56:39</time>
      </trkpt>
      <trkpt lat="38.08335" lon="-4.03548">
        <ele>196.8</ele>
        <time>2022-11-26 08:56:43</time>
      </trkpt>
      <trkpt lat="38.08346" lon="-4.03548">
        <ele>197.8</ele>
        <time>2022-11-26 08:56:47</time>
      </trkpt>
      <trkpt lat="38.08358" lon="-4.03549">
        <ele>198.6</ele>
        <time>2022-11-26 08:56:51</time>
      </trkpt>
      <trkpt lat="38.08369" lon="-4.0355">
        <ele>199.8</ele>
        <time>2022-11-26 08:56:55</time>
      </trkpt>
      <trkpt lat="38.0838" lon="-4.03553">
        <ele>200</ele>
        <time>2022-11-26 08:56:59</time>
      </trkpt>
      <trkpt lat="38.0839" lon="-4.03559">
        <ele>200.8</ele>
        <time>2022-11-26 08:57:03</time>
      </trkpt>
      <trkpt lat="38.08398" lon="-4.03567">
        <ele>202</ele>
        <time>2022-11-26 08:57:07</time>
      </trkpt>
      <trkpt lat="38.08405" lon="-4.03577">
        <ele>202.8</ele>
        <time>2022-11-26 08:57:11</time>
      </trkpt>
      <trkpt lat="38.0841" lon="-4.03587">
        <ele>203.8</ele>
        <time>2022-11-26 08:57:15</time>
      </trkpt>
      <trkpt lat="38.08414" lon="-4.03597">
        <ele>204.8</ele>
        <time>2022-11-26 08:57:19</time>
      </trkpt>
      <trkpt lat="38.08418" lon="-4.03607">
        <ele>206.2</ele>
        <time>2022-11-26 08:57:23</time>
      </trkpt>
      <trkpt lat="38.08423" lon="-4.03617">
        <ele>207</ele>
        <time>2022-11-26 08:57:27</time>
      </trkpt>
      <trkpt lat="38.08427" lon="-4.03626">
        <ele>208.4</ele>
        <time>2022-11-26 08:57:31</time>
      </trkpt>
      <trkpt lat="38.08431" lon="-4.03635">
        <ele>209.4</ele>
        <time>2022-11-26 08:57:35</time>
      </trkpt>
      <trkpt lat="38.08435" lon="-4.03644">
        <ele>209.4</ele>
        <time>2022-11-26 08:57:39</time>
      </trkpt>
      <trkpt lat="38.08438" lon="-4.03653">
        <ele>210.8</ele>
        <time>2022-11-26 08:57:43</time>
      </trkpt>
      <trkpt lat="38.08442" lon="-4.03662">
        <ele>211.4</ele>
        <time>2022-11-26 08:57:47</time>
      </trkpt>
      <trkpt lat="38.08446" lon="-4.03671">
        <ele>212.8</ele>
        <time>2022-11-26 08:57:51</time>
      </trkpt>
      <trkpt lat="38.08449" lon="-4.0368">
        <ele>213.4</ele>
        <time>2022-11-26 08:57:55</time>
      </trkpt>
      <trkpt lat="38.08453" lon="-4.0369">
        <ele>214.4</ele>
        <time>2022-11-26 08:57:59</time>
      </trkpt>
      <trkpt lat="38.08457" lon="-4.037">
        <ele>215.6</ele>
        <time>2022-11-26 08:58:03</time>
      </trkpt>
      <trkpt lat="38.0846" lon="-4.0371">
        <ele>216.6</ele>
        <time>2022-11-26 08:58:07</time>
      </trkpt>
      <trkpt lat="38.08464" lon="-4.03719">
        <ele>217.4</ele>
        <time>2022-11-26 08:58:11</time>
      </trkpt>
      <trkpt lat="38.08467" lon="-4.03728">
        <ele>218</ele>
        <time>2022-11-26 08:58:15</time>
      </trkpt>
      <trkpt lat="38.08472" lon="-4.03736">
        <ele>219.2</ele>
        <time>2022-11-26 08:58:19</time>
      </trkpt>
      <trkpt lat="38.08478" lon="-4.03743">
        <ele>220.2</ele>
        <time>2022-11-26 08:58:23</time>
      </trkpt>
      <trkpt lat="38.08485" lon="-4.03747">
        <ele>220.8</ele>
        <time>2022-11-26 08:58:27</time>
      </trkpt>
      <trkpt lat="38.08493" lon="-4.0375">
        <ele>221.6</ele>
        <time>2022-11-26 08:58:31</time>
      </trkpt>
      <trkpt lat="38.08503" lon="-4.03751">
        <ele>222</ele>
        <time>2022-11-26 08:58:35</time>
      </trkpt>
      <trkpt lat="38.08513" lon="-4.03751">
        <ele>222.8</ele>
        <time>2022-11-26 08:58:39</time>
      </trkpt>
      <trkpt lat="38.08522" lon="-4.03751">
        <ele>223.4</ele>
        <time>2022-11-26 08:58:43</time>
      </trkpt>
      <trkpt lat="38.08531" lon="-4.03751">
        <ele>224.2</ele>
        <time>2022-11-26 08:58:47</time>
      </trkpt>
      <trkpt lat="38.08539" lon="-4.0375">
        <ele>225.4</ele>
        <time>2022-11-26 08:58:51</time>
      </trkpt>
      <trkpt lat="38.08548" lon="-4.03748">
        <ele>226</ele>
        <time>2022-11-26 08:58:55</time>
      </trkpt>
      <trkpt lat="38.08556" lon="-4.03745">
        <ele>227.4</ele>
        <time>2022-11-26 08:58:59</time>
      </trkpt>
      <trkpt lat="38.08564" lon="-4.03738">
        <ele>228.4</ele>
        <time>2022-11-26 08:59:03</time>
      </trkpt>
      <trkpt lat="38.0857" lon="-4.03731">
        <ele>229.2</ele>
        <time>2022-11-26 08:59:07</time>
      </trkpt>
      <trkpt lat="38.08574" lon="-4.0372">
        <ele>229.2</ele>
        <time>2022-11-26 08:59:11</time>
      </trkpt>
      <trkpt lat="38.08576" lon="-4.03709">
        <ele>230.4</ele>
        <time>2022-11-26 08:59:15</time>
      </trkpt>
      <trkpt lat="38.08578" lon="-4.03698">
        <ele>231.2</ele>
        <time>2022-11-26 08:59:19</time>
      </trkpt>
      <trkpt lat="38.08581" lon="-4.03687">
        <ele>231.4</ele>
        <time>2022-11-26 08:59:23</time>
      </trkpt>
      <trkpt lat="38.08585" lon="-4.03677">
        <ele>232.2</ele>
        <time>2022-11-26 08:59:27</time>
      </trkpt>
      <trkpt lat="38.08589" lon="-4.03668">
        <ele>233.4</ele>
        <time>2022-11-26 08:59:31</time>
      </trkpt>
      <trkpt lat="38.08596" lon="-4.03661">
        <ele>234</ele>
        <time>2022-11-26 08:59:35</time>
      </trkpt>
      <trkpt lat="38.08603" lon="-4.03653">
        <ele>235.2</ele>
        <time>2022-11-26 08:59:39</time>
      </trkpt>
      <trkpt lat="38.0861" lon="-4.03644">
        <ele>236.2</ele>
        <time>2022-11-26 08:59:43</time>
      </trkpt>
      <trkpt lat="38.08617" lon="-4.03636">
        <ele>236.8</ele>
        <time>2022-11-26 08:59:47</time>
      </trkpt>
      <trkpt lat="38.08624" lon="-4.03628">
        <ele>237.8</ele>
        <time>2022-11-26 08:59:51</time>
      </trkpt>
      <trkpt lat="38.08629" lon="-4.03618">
        <ele>238.6</ele>
        <time>2022-11-26 08:59:55</time>
      </trkpt>
      <trkpt lat="38.08631" lon="-4.03606">
        <ele>238.6</ele>
        <time>2022-11-26 08:59:59</time>
      </trkpt>
      <trkpt lat="38.0863" lon="-4.03594">
        <ele>240</ele>
        <time>2022-11-26 09:00:03</time>
      </trkpt>
      <trkpt lat="38.08628" lon="-4.03582">
        <ele>240.8</ele>
        <time>2022-11-26 09:00:07</time>
      </trkpt>
      <trkpt lat="38.08625" lon="-4.0357">
        <ele>241.2</ele>
        <time>2022-11-26 09:00:11</time>
      </trkpt>
      <trkpt lat="38.08624" lon="-4.03558">
        <ele>242.4</ele>
        <time>2022-11-26 09:00:15</time>
      </trkpt>
      <trkpt lat="38.08624" lon="-4.03546">
        <ele>243.2</ele>
        <time>2022-11-26 09:00:19</time>
      </trkpt>
      <trkpt lat="38.08626" lon="-4.03535">
        <ele>243.8</ele>
        <time>2022-11-26 09:00:23</time>
      </trkpt>
      <trkpt lat="38.08631" lon="-4.03525">
        <ele>245.2</ele>
        <time>2022-11-26 09:00:27</time>
      </trkpt>
      <trkpt lat="38.08636" lon="-4.03515">
        <ele>246.2</ele>
        <time>2022-11-26 09:00:31</time>
      </trkpt>
      <trkpt lat="38.08642" lon="-4.03506">
        <ele>246.8</ele>
        <time>2022-11-26 09:00:35</time>
      </trkpt>
      <trkpt lat="38.08648" lon="-4.03498">
        <ele>247.4</ele>
        <time>2022-11-26 09:00:39</time>
      </trkpt>
      <trkpt lat="38.08656" lon="-4.03491">
        <ele>248.4</ele>
        <time>2022-11-26 09:00:43</time>
      </trkpt>
      <trkpt lat="38.08665" lon="-4.03486">
        <ele>249.4</ele>
        <time>2022-11-26 09:00:47</time>
      </trkpt>
      <trkpt lat="38.08674" lon="-4.03481">
        <ele>249.8</ele>
        <time>2022-11-26 09:00:51</time>
      </trkpt>
      <trkpt lat="38.08683" lon="-4.03478">
        <ele>250.4</ele>
        <time>2022-11-26 09:00:55</time>
      </trkpt>
      <trkpt lat="38.08694" lon="-4.03476">
        <ele>251.2</ele>
        <time>2022-11-26 09:00:59</time>
      </trkpt>
      <trkpt lat="38.08705" lon="-4.03474">
        <ele>252</ele>
        <time>2022-11-26 09:01:03</time>
      </trkpt>
      <trkpt lat="38.08714" lon="-4.0347">
        <ele>252.8</ele>
        <time>2022-11-26 09:01:07</time>
      </trkpt>
      <trkpt lat="38.08723" lon="-4.03466">
        <ele>253.6</ele>
        <time>2022-11-26 09:01:11</time>
      </trkpt>
      <trkpt lat="38.08732" lon="-4.03461">
        <ele>254.4</ele>
        <time>2022-11-26 09:01:15</time>
      </trkpt>
      <trkpt lat="38.08742" lon="-4.03458">
        <ele>255</ele>
        <time>2022-11-26 09:01:19</time>
      </trkpt>
      <trkpt lat="38.08751" lon="-4.03453">
        <ele>255.6</ele>
        <time>2022-11-26 09:01:23</time>
      </trkpt>
      <trkpt lat="38.0876" lon="-4.0345">
        <ele>256.6</ele>
        <time>2022-11-26 09:01:27</time>
      </trkpt>
      <trkpt lat="38.08769" lon="-4.03444">
        <ele>257.4</ele>
        <time>2022-11-26 09:01:31</time>
      </trkpt>
      <trkpt lat="38.08778" lon="-4.03439">
        <ele>258</ele>
        <time>2022-11-26 09:01:35</time>
      </trkpt>
      <trkpt lat="38.08788" lon="-4.03433">
        <ele>258.8</ele>
        <time>2022-11-26 09:01:39</time>
      </trkpt>
      <trkpt lat="38.08797" lon="-4.03427">
        <ele>259</ele>
        <time>2022-11-26 09:01:43</time>
      </trkpt>
      <trkpt lat="38.08807" lon="-4.03421">
        <ele>259.6</ele>
        <time>2022-11-26 09:01:47</time>
      </trkpt>
      <trkpt lat="38.08816" lon="-4.03413">
        <ele>260</ele>
        <time>2022-11-26 09:01:51</time>
      </trkpt>
      <trkpt lat="38.08823" lon="-4.03402">
        <ele>260.6</ele>
        <time>2022-11-26 09:01:55</time>
      </trkpt>
      <trkpt lat="38.08825" lon="-4.03387">
        <ele>261.6</ele>
        <time>2022-11-26 09:01:59</time>
      </trkpt>
      <trkpt lat="38.08823" lon="-4.03373">
        <ele>262.4</ele>
        <time>2022-11-26 09:02:03</time>
      </trkpt>
      <trkpt lat="38.0882" lon="-4.03361">
        <ele>263.6</ele>
        <time>2022-11-26 09:02:07</time>
      </trkpt>
      <trkpt lat="38.0882" lon="-4.03349">
        <ele>264</ele>
        <time>2022-11-26 09:02:11</time>
      </trkpt>
      <trkpt lat="38.08825" lon="-4.03336">
        <ele>264.4</ele>
        <time>2022-11-26 09:02:15</time>
      </trkpt>
      <trkpt lat="38.08834" lon="-4.03327">
        <ele>264.8</ele>
        <time>2022-11-26 09:02:19</time>
      </trkpt>
      <trkpt lat="38.08844" lon="-4.03318">
        <ele>265.6</ele>
        <time>2022-11-26 09:02:23</time>
      </trkpt>
      <trkpt lat="38.08855" lon="-4.03311">
        <ele>264.6</ele>
        <time>2022-11-26 09:02:27</time>
      </trkpt>
      <trkpt lat="38.08865" lon="-4.03301">
        <ele>264.6</ele>
        <time>2022-11-26 09:02:31</time>
      </trkpt>
      <trkpt lat="38.08869" lon="-4.03285">
        <ele>265.6</ele>
        <time>2022-11-26 09:02:35</time>
      </trkpt>
      <trkpt lat="38.08871" lon="-4.03269">
        <ele>265.6</ele>
        <time>2022-11-26 09:02:39</time>
      </trkpt>
      <trkpt lat="38.08876" lon="-4.03254">
        <ele>265.8</ele>
        <time>2022-11-26 09:02:43</time>
      </trkpt>
      <trkpt lat="38.08883" lon="-4.03239">
        <ele>266</ele>
        <time>2022-11-26 09:02:47</time>
      </trkpt>
      <trkpt lat="38.08885" lon="-4.03224">
        <ele>266.4</ele>
        <time>2022-11-26 09:02:51</time>
      </trkpt>
      <trkpt lat="38.08883" lon="-4.03209">
        <ele>267.8</ele>
        <time>2022-11-26 09:02:55</time>
      </trkpt>
      <trkpt lat="38.08882" lon="-4.03193">
        <ele>268.4</ele>
        <time>2022-11-26 09:02:59</time>
      </trkpt>
      <trkpt lat="38.08884" lon="-4.03177">
        <ele>268.6</ele>
        <time>2022-11-26 09:03:03</time>
      </trkpt>
      <trkpt lat="38.08892" lon="-4.03163">
        <ele>268.4</ele>
        <time>2022-11-26 09:03:07</time>
      </trkpt>
      <trkpt lat="38.08905" lon="-4.03153">
        <ele>267.6</ele>
        <time>2022-11-26 09:03:11</time>
      </trkpt>
      <trkpt lat="38.08921" lon="-4.03143">
        <ele>268.2</ele>
        <time>2022-11-26 09:03:15</time>
      </trkpt>
      <trkpt lat="38.08934" lon="-4.03129">
        <ele>269</ele>
        <time>2022-11-26 09:03:19</time>
      </trkpt>
      <trkpt lat="38.08944" lon="-4.03116">
        <ele>270</ele>
        <time>2022-11-26 09:03:23</time>
      </trkpt>
      <trkpt lat="38.08951" lon="-4.03104">
        <ele>271.8</ele>
        <time>2022-11-26 09:03:27</time>
      </trkpt>
      <trkpt lat="38.08959" lon="-4.03094">
        <ele>272.4</ele>
        <time>2022-11-26 09:03:31</time>
      </trkpt>
      <trkpt lat="38.08967" lon="-4.03083">
        <ele>273</ele>
        <time>2022-11-26 09:03:35</time>
      </trkpt>
      <trkpt lat="38.08976" lon="-4.03074">
        <ele>274.4</ele>
        <time>2022-11-26 09:03:39</time>
      </trkpt>
      <trkpt lat="38.08986" lon="-4.03066">
        <ele>274.2</ele>
        <time>2022-11-26 09:03:43</time>
      </trkpt>
      <trkpt lat="38.08998" lon="-4.03059">
        <ele>274.6</ele>
        <time>2022-11-26 09:03:47</time>
      </trkpt>
      <trkpt lat="38.09011" lon="-4.03053">
        <ele>275</ele>
        <time>2022-11-26 09:03:51</time>
      </trkpt>
      <trkpt lat="38.09022" lon="-4.03043">
        <ele>275.4</ele>
        <time>2022-11-26 09:03:55</time>
      </trkpt>
      <trkpt lat="38.09029" lon="-4.03027">
        <ele>275.8</ele>
        <time>2022-11-26 09:03:59</time>
      </trkpt>
      <trkpt lat="38.09027" lon="-4.03009">
        <ele>276.8</ele>
        <time>2022-11-26 09:04:03</time>
      </trkpt>
      <trkpt lat="38.09024" lon="-4.02992">
        <ele>277.8</ele>
        <time>2022-11-26 09:04:07</time>
      </trkpt>
      <trkpt lat="38.09023" lon="-4.02975">
        <ele>277.8</ele>
        <time>2022-11-26 09:04:11</time>
      </trkpt>
      <trkpt lat="38.09029" lon="-4.0296">
        <ele>279.6</ele>
        <time>2022-11-26 09:04:15</time>
      </trkpt>
      <trkpt lat="38.09034" lon="-4.02947">
        <ele>280.4</ele>
        <time>2022-11-26 09:04:19</time>
      </trkpt>
      <trkpt lat="38.09039" lon="-4.02935">
        <ele>281</ele>
        <time>2022-11-26 09:04:23</time>
      </trkpt>
      <trkpt lat="38.09042" lon="-4.02923">
        <ele>282</ele>
        <time>2022-11-26 09:04:27</time>
      </trkpt>
      <trkpt lat="38.09046" lon="-4.0291">
        <ele>283</ele>
        <time>2022-11-26 09:04:31</time>
      </trkpt>
      <trkpt lat="38.09049" lon="-4.02897">
        <ele>283.4</ele>
        <time>2022-11-26 09:04:35</time>
      </trkpt>
      <trkpt lat="38.09052" lon="-4.02883">
        <ele>284.6</ele>
        <time>2022-11-26 09:04:39</time>
      </trkpt>
      <trkpt lat="38.09053" lon="-4.0287">
        <ele>284.8</ele>
        <time>2022-11-26 09:04:43</time>
      </trkpt>
      <trkpt lat="38.09051" lon="-4.02855">
        <ele>284.6</ele>
        <time>2022-11-26 09:04:47</time>
      </trkpt>
      <trkpt lat="38.09051" lon="-4.02838">
        <ele>285.2</ele>
        <time>2022-11-26 09:04:51</time>
      </trkpt>
      <trkpt lat="38.09053" lon="-4.02821">
        <ele>286.2</ele>
        <time>2022-11-26 09:04:55</time>
      </trkpt>
      <trkpt lat="38.09058" lon="-4.02807">
        <ele>287.4</ele>
        <time>2022-11-26 09:04:59</time>
      </trkpt>
      <trkpt lat="38.09063" lon="-4.02795">
        <ele>287.8</ele>
        <time>2022-11-26 09:05:03</time>
      </trkpt>
      <trkpt lat="38.09067" lon="-4.02783">
        <ele>289.2</ele>
        <time>2022-11-26 09:05:07</time>
      </trkpt>
      <trkpt lat="38.09071" lon="-4.02772">
        <ele>290.2</ele>
        <time>2022-11-26 09:05:11</time>
      </trkpt>
      <trkpt lat="38.09075" lon="-4.02762">
        <ele>290.4</ele>
        <time>2022-11-26 09:05:15</time>
      </trkpt>
      <trkpt lat="38.09079" lon="-4.02752">
        <ele>291.6</ele>
        <time>2022-11-26 09:05:19</time>
      </trkpt>
      <trkpt lat="38.09083" lon="-4.02743">
        <ele>292.6</ele>
        <time>2022-11-26 09:05:23</time>
      </trkpt>
      <trkpt lat="38.09087" lon="-4.02733">
        <ele>294.4</ele>
        <time>2022-11-26 09:05:27</time>
      </trkpt>
      <trkpt lat="38.09091" lon="-4.02723">
        <ele>295</ele>
        <time>2022-11-26 09:05:31</time>
      </trkpt>
      <trkpt lat="38.09095" lon="-4.02714">
        <ele>296.4</ele>
        <time>2022-11-26 09:05:35</time>
      </trkpt>
      <trkpt lat="38.09098" lon="-4.02704">
        <ele>297.4</ele>
        <time>2022-11-26 09:05:39</time>
      </trkpt>
      <trkpt lat="38.09102" lon="-4.02694">
        <ele>298.4</ele>
        <time>2022-11-26 09:05:43</time>
      </trkpt>
      <trkpt lat="38.09106" lon="-4.02685">
        <ele>299.6</ele>
        <time>2022-11-26 09:05:47</time>
      </trkpt>
      <trkpt lat="38.09109" lon="-4.02676">
        <ele>299.6</ele>
        <time>2022-11-26 09:05:51</time>
      </trkpt>
      <trkpt lat="38.09113" lon="-4.02667">
        <ele>300.6</ele>
        <time>2022-11-26 09:05:55</time>
      </trkpt>
      <trkpt lat="38.09116" lon="-4.02657">
        <ele>301.2</ele>
        <time>2022-11-26 09:05:59</time>
      </trkpt>
      <trkpt lat="38.09119" lon="-4.02647">
        <ele>301.4</ele>
        <time>2022-11-26 09:06:03</time>
      </trkpt>
      <trkpt lat="38.09122" lon="-4.02635">
        <ele>302.4</ele>
        <time>2022-11-26 09:06:07</time>
      </trkpt>
      <trkpt lat="38.09124" lon="-4.02623">
        <ele>302.8</ele>
        <time>2022-11-26 09:06:11</time>
      </trkpt>
      <trkpt lat="38.09126" lon="-4.02611">
        <ele>303.4</ele>
        <time>2022-11-26 09:06:15</time>
      </trkpt>
      <trkpt lat="38.09127" lon="-4.026">
        <ele>304</ele>
        <time>2022-11-26 09:06:19</time>
      </trkpt>
      <trkpt lat="38.09129" lon="-4.02587">
        <ele>304.2</ele>
        <time>2022-11-26 09:06:23</time>
      </trkpt>
      <trkpt lat="38.0913" lon="-4.02574">
        <ele>305.2</ele>
        <time>2022-11-26 09:06:27</time>
      </trkpt>
      <trkpt lat="38.09131" lon="-4.02561">
        <ele>305.8</ele>
        <time>2022-11-26 09:06:31</time>
      </trkpt>
      <trkpt lat="38.09132" lon="-4.02549">
        <ele>306.4</ele>
        <time>2022-11-26 09:06:35</time>
      </trkpt>
      <trkpt lat="38.09132" lon="-4.02536">
        <ele>306.6</ele>
        <time>2022-11-26 09:06:39</time>
      </trkpt>
      <trkpt lat="38.09132" lon="-4.02522">
        <ele>306.6</ele>
        <time>2022-11-26 09:06:43</time>
      </trkpt>
      <trkpt lat="38.09131" lon="-4.02509">
        <ele>307.8</ele>
        <time>2022-11-26 09:06:47</time>
      </trkpt>
      <trkpt lat="38.0913" lon="-4.02496">
        <ele>308.2</ele>
        <time>2022-11-26 09:06:51</time>
      </trkpt>
      <trkpt lat="38.09127" lon="-4.02484">
        <ele>308.6</ele>
        <time>2022-11-26 09:06:55</time>
      </trkpt>
      <trkpt lat="38.09126" lon="-4.02472">
        <ele>309.6</ele>
        <time>2022-11-26 09:06:59</time>
      </trkpt>
      <trkpt lat="38.09126" lon="-4.02459">
        <ele>310.4</ele>
        <time>2022-11-26 09:07:03</time>
      </trkpt>
      <trkpt lat="38.09131" lon="-4.02449">
        <ele>311.4</ele>
        <time>2022-11-26 09:07:07</time>
      </trkpt>
      <trkpt lat="38.09139" lon="-4.0244">
        <ele>311.8</ele>
        <time>2022-11-26 09:07:11</time>
      </trkpt>
      <trkpt lat="38.09147" lon="-4.02434">
        <ele>312</ele>
        <time>2022-11-26 09:07:15</time>
      </trkpt>
      <trkpt lat="38.09156" lon="-4.02426">
        <ele>312.8</ele>
        <time>2022-11-26 09:07:19</time>
      </trkpt>
      <trkpt lat="38.09163" lon="-4.02417">
        <ele>313.4</ele>
        <time>2022-11-26 09:07:23</time>
      </trkpt>
      <trkpt lat="38.09168" lon="-4.02406">
        <ele>314.2</ele>
        <time>2022-11-26 09:07:27</time>
      </trkpt>
      <trkpt lat="38.09173" lon="-4.02394">
        <ele>315</ele>
        <time>2022-11-26 09:07:31</time>
      </trkpt>
      <trkpt lat="38.09178" lon="-4.02383">
        <ele>315.4</ele>
        <time>2022-11-26 09:07:35</time>
      </trkpt>
      <trkpt lat="38.09182" lon="-4.02373">
        <ele>315.8</ele>
        <time>2022-11-26 09:07:39</time>
      </trkpt>
      <trkpt lat="38.09185" lon="-4.02364">
        <ele>316.4</ele>
        <time>2022-11-26 09:07:43</time>
      </trkpt>
      <trkpt lat="38.09192" lon="-4.02343">
        <ele>318.8</ele>
        <time>2022-11-26 09:07:47</time>
      </trkpt>
      <trkpt lat="38.09193" lon="-4.02335">
        <ele>320.8</ele>
        <time>2022-11-26 09:07:51</time>
      </trkpt>
      <trkpt lat="38.09195" lon="-4.02327">
        <ele>321.4</ele>
        <time>2022-11-26 09:09:06</time>
      </trkpt>
      <trkpt lat="38.09197" lon="-4.02318">
        <ele>322.2</ele>
        <time>2022-11-26 09:09:10</time>
      </trkpt>
      <trkpt lat="38.09199" lon="-4.02308">
        <ele>323.2</ele>
        <time>2022-11-26 09:09:14</time>
      </trkpt>
      <trkpt lat="38.09202" lon="-4.02297">
        <ele>323.8</ele>
        <time>2022-11-26 09:09:18</time>
      </trkpt>
      <trkpt lat="38.09203" lon="-4.02279">
        <ele>322</ele>
        <time>2022-11-26 09:09:22</time>
      </trkpt>
      <trkpt lat="38.092" lon="-4.02256">
        <ele>321.4</ele>
        <time>2022-11-26 09:09:26</time>
      </trkpt>
      <trkpt lat="38.09197" lon="-4.02237">
        <ele>322</ele>
        <time>2022-11-26 09:09:30</time>
      </trkpt>
      <trkpt lat="38.09195" lon="-4.02221">
        <ele>322</ele>
        <time>2022-11-26 09:09:34</time>
      </trkpt>
      <trkpt lat="38.09198" lon="-4.02206">
        <ele>321.8</ele>
        <time>2022-11-26 09:09:38</time>
      </trkpt>
      <trkpt lat="38.09199" lon="-4.02191">
        <ele>322.6</ele>
        <time>2022-11-26 09:09:42</time>
      </trkpt>
      <trkpt lat="38.09199" lon="-4.02179">
        <ele>323.2</ele>
        <time>2022-11-26 09:09:46</time>
      </trkpt>
      <trkpt lat="38.09198" lon="-4.02166">
        <ele>324.2</ele>
        <time>2022-11-26 09:09:50</time>
      </trkpt>
      <trkpt lat="38.09197" lon="-4.02156">
        <ele>325.2</ele>
        <time>2022-11-26 09:09:54</time>
      </trkpt>
      <trkpt lat="38.09195" lon="-4.02146">
        <ele>326</ele>
        <time>2022-11-26 09:09:58</time>
      </trkpt>
      <trkpt lat="38.09194" lon="-4.02136">
        <ele>327.6</ele>
        <time>2022-11-26 09:10:02</time>
      </trkpt>
      <trkpt lat="38.09194" lon="-4.02126">
        <ele>329</ele>
        <time>2022-11-26 09:10:06</time>
      </trkpt>
      <trkpt lat="38.09198" lon="-4.0212">
        <ele>330</ele>
        <time>2022-11-26 09:10:10</time>
      </trkpt>
      <trkpt lat="38.09204" lon="-4.02117">
        <ele>331.2</ele>
        <time>2022-11-26 09:10:14</time>
      </trkpt>
      <trkpt lat="38.0921" lon="-4.02116">
        <ele>332.6</ele>
        <time>2022-11-26 09:10:18</time>
      </trkpt>
      <trkpt lat="38.09216" lon="-4.02116">
        <ele>333.6</ele>
        <time>2022-11-26 09:10:22</time>
      </trkpt>
      <trkpt lat="38.09222" lon="-4.02113">
        <ele>334.6</ele>
        <time>2022-11-26 09:10:26</time>
      </trkpt>
      <trkpt lat="38.09227" lon="-4.02109">
        <ele>335.6</ele>
        <time>2022-11-26 09:10:30</time>
      </trkpt>
      <trkpt lat="38.09232" lon="-4.021">
        <ele>336.8</ele>
        <time>2022-11-26 09:10:34</time>
      </trkpt>
      <trkpt lat="38.09234" lon="-4.02093">
        <ele>336.8</ele>
        <time>2022-11-26 09:10:38</time>
      </trkpt>
      <trkpt lat="38.09235" lon="-4.02085">
        <ele>337.8</ele>
        <time>2022-11-26 09:10:42</time>
      </trkpt>
      <trkpt lat="38.09235" lon="-4.02077">
        <ele>338.8</ele>
        <time>2022-11-26 09:10:46</time>
      </trkpt>
      <trkpt lat="38.09235" lon="-4.02069">
        <ele>339.8</ele>
        <time>2022-11-26 09:10:50</time>
      </trkpt>
      <trkpt lat="38.09236" lon="-4.0206">
        <ele>340.6</ele>
        <time>2022-11-26 09:10:54</time>
      </trkpt>
      <trkpt lat="38.09237" lon="-4.02051">
        <ele>341.6</ele>
        <time>2022-11-26 09:10:58</time>
      </trkpt>
      <trkpt lat="38.0924" lon="-4.02043">
        <ele>342.6</ele>
        <time>2022-11-26 09:11:02</time>
      </trkpt>
      <trkpt lat="38.09244" lon="-4.02035">
        <ele>343.8</ele>
        <time>2022-11-26 09:11:06</time>
      </trkpt>
      <trkpt lat="38.0925" lon="-4.02029">
        <ele>344.8</ele>
        <time>2022-11-26 09:11:10</time>
      </trkpt>
      <trkpt lat="38.09257" lon="-4.02026">
        <ele>345.8</ele>
        <time>2022-11-26 09:11:14</time>
      </trkpt>
      <trkpt lat="38.09265" lon="-4.02025">
        <ele>345.8</ele>
        <time>2022-11-26 09:11:18</time>
      </trkpt>
      <trkpt lat="38.09273" lon="-4.02028">
        <ele>346.2</ele>
        <time>2022-11-26 09:11:22</time>
      </trkpt>
      <trkpt lat="38.0928" lon="-4.02033">
        <ele>347</ele>
        <time>2022-11-26 09:11:26</time>
      </trkpt>
      <trkpt lat="38.09287" lon="-4.02037">
        <ele>346.6</ele>
        <time>2022-11-26 09:11:30</time>
      </trkpt>
      <trkpt lat="38.09295" lon="-4.02042">
        <ele>347.4</ele>
        <time>2022-11-26 09:11:34</time>
      </trkpt>
      <trkpt lat="38.09302" lon="-4.02047">
        <ele>347.8</ele>
        <time>2022-11-26 09:11:38</time>
      </trkpt>
      <trkpt lat="38.0931" lon="-4.02051">
        <ele>348.4</ele>
        <time>2022-11-26 09:11:42</time>
      </trkpt>
      <trkpt lat="38.09318" lon="-4.02056">
        <ele>349.2</ele>
        <time>2022-11-26 09:11:46</time>
      </trkpt>
      <trkpt lat="38.09325" lon="-4.02057">
        <ele>350.2</ele>
        <time>2022-11-26 09:11:50</time>
      </trkpt>
      <trkpt lat="38.09333" lon="-4.02057">
        <ele>351.2</ele>
        <time>2022-11-26 09:11:54</time>
      </trkpt>
      <trkpt lat="38.09341" lon="-4.02055">
        <ele>352.4</ele>
        <time>2022-11-26 09:11:58</time>
      </trkpt>
      <trkpt lat="38.09349" lon="-4.02053">
        <ele>353.6</ele>
        <time>2022-11-26 09:12:02</time>
      </trkpt>
      <trkpt lat="38.09357" lon="-4.02053">
        <ele>354</ele>
        <time>2022-11-26 09:12:06</time>
      </trkpt>
      <trkpt lat="38.09364" lon="-4.02052">
        <ele>355</ele>
        <time>2022-11-26 09:12:10</time>
      </trkpt>
      <trkpt lat="38.09372" lon="-4.02051">
        <ele>355</ele>
        <time>2022-11-26 09:12:14</time>
      </trkpt>
      <trkpt lat="38.0938" lon="-4.0205">
        <ele>355.8</ele>
        <time>2022-11-26 09:12:18</time>
      </trkpt>
      <trkpt lat="38.09389" lon="-4.02049">
        <ele>355.6</ele>
        <time>2022-11-26 09:12:22</time>
      </trkpt>
      <trkpt lat="38.094" lon="-4.02051">
        <ele>356.2</ele>
        <time>2022-11-26 09:12:26</time>
      </trkpt>
      <trkpt lat="38.09409" lon="-4.02052">
        <ele>356.4</ele>
        <time>2022-11-26 09:12:30</time>
      </trkpt>
      <trkpt lat="38.09419" lon="-4.02053">
        <ele>357.2</ele>
        <time>2022-11-26 09:12:34</time>
      </trkpt>
      <trkpt lat="38.09429" lon="-4.02052">
        <ele>357.6</ele>
        <time>2022-11-26 09:12:38</time>
      </trkpt>
      <trkpt lat="38.09439" lon="-4.02051">
        <ele>357.4</ele>
        <time>2022-11-26 09:12:42</time>
      </trkpt>
      <trkpt lat="38.0945" lon="-4.02049">
        <ele>357.2</ele>
        <time>2022-11-26 09:12:46</time>
      </trkpt>
      <trkpt lat="38.09459" lon="-4.02048">
        <ele>357.6</ele>
        <time>2022-11-26 09:12:50</time>
      </trkpt>
      <trkpt lat="38.09469" lon="-4.02046">
        <ele>358</ele>
        <time>2022-11-26 09:12:54</time>
      </trkpt>
      <trkpt lat="38.09479" lon="-4.02044">
        <ele>359</ele>
        <time>2022-11-26 09:12:58</time>
      </trkpt>
      <trkpt lat="38.09488" lon="-4.02041">
        <ele>360</ele>
        <time>2022-11-26 09:13:02</time>
      </trkpt>
      <trkpt lat="38.09496" lon="-4.02039">
        <ele>360.8</ele>
        <time>2022-11-26 09:13:06</time>
      </trkpt>
      <trkpt lat="38.09504" lon="-4.02035">
        <ele>362</ele>
        <time>2022-11-26 09:13:10</time>
      </trkpt>
      <trkpt lat="38.09512" lon="-4.02031">
        <ele>362.2</ele>
        <time>2022-11-26 09:13:14</time>
      </trkpt>
      <trkpt lat="38.09521" lon="-4.02029">
        <ele>364</ele>
        <time>2022-11-26 09:13:18</time>
      </trkpt>
      <trkpt lat="38.09529" lon="-4.02026">
        <ele>364.8</ele>
        <time>2022-11-26 09:13:22</time>
      </trkpt>
      <trkpt lat="38.09536" lon="-4.02024">
        <ele>366</ele>
        <time>2022-11-26 09:13:26</time>
      </trkpt>
      <trkpt lat="38.09543" lon="-4.02021">
        <ele>368</ele>
        <time>2022-11-26 09:13:30</time>
      </trkpt>
      <trkpt lat="38.0955" lon="-4.0202">
        <ele>369.4</ele>
        <time>2022-11-26 09:13:34</time>
      </trkpt>
      <trkpt lat="38.09558" lon="-4.02017">
        <ele>369.8</ele>
        <time>2022-11-26 09:13:38</time>
      </trkpt>
      <trkpt lat="38.09566" lon="-4.02015">
        <ele>370.2</ele>
        <time>2022-11-26 09:13:42</time>
      </trkpt>
      <trkpt lat="38.09575" lon="-4.02014">
        <ele>370.2</ele>
        <time>2022-11-26 09:13:46</time>
      </trkpt>
      <trkpt lat="38.09583" lon="-4.02013">
        <ele>370.8</ele>
        <time>2022-11-26 09:13:50</time>
      </trkpt>
      <trkpt lat="38.09592" lon="-4.02014">
        <ele>370.6</ele>
        <time>2022-11-26 09:13:54</time>
      </trkpt>
      <trkpt lat="38.09602" lon="-4.02015">
        <ele>371</ele>
        <time>2022-11-26 09:13:58</time>
      </trkpt>
      <trkpt lat="38.09611" lon="-4.02016">
        <ele>371.6</ele>
        <time>2022-11-26 09:14:02</time>
      </trkpt>
      <trkpt lat="38.0962" lon="-4.02017">
        <ele>372</ele>
        <time>2022-11-26 09:14:06</time>
      </trkpt>
      <trkpt lat="38.09629" lon="-4.02018">
        <ele>373</ele>
        <time>2022-11-26 09:14:10</time>
      </trkpt>
      <trkpt lat="38.09638" lon="-4.02019">
        <ele>373.6</ele>
        <time>2022-11-26 09:14:14</time>
      </trkpt>
      <trkpt lat="38.09646" lon="-4.02022">
        <ele>374.4</ele>
        <time>2022-11-26 09:14:18</time>
      </trkpt>
      <trkpt lat="38.09655" lon="-4.02025">
        <ele>375.4</ele>
        <time>2022-11-26 09:14:22</time>
      </trkpt>
      <trkpt lat="38.09664" lon="-4.02029">
        <ele>376.2</ele>
        <time>2022-11-26 09:14:26</time>
      </trkpt>
      <trkpt lat="38.09672" lon="-4.02033">
        <ele>377.2</ele>
        <time>2022-11-26 09:14:30</time>
      </trkpt>
      <trkpt lat="38.0968" lon="-4.02038">
        <ele>378.4</ele>
        <time>2022-11-26 09:14:34</time>
      </trkpt>
      <trkpt lat="38.09687" lon="-4.02043">
        <ele>379.2</ele>
        <time>2022-11-26 09:14:38</time>
      </trkpt>
      <trkpt lat="38.09694" lon="-4.02047">
        <ele>380</ele>
        <time>2022-11-26 09:14:42</time>
      </trkpt>
      <trkpt lat="38.09701" lon="-4.02052">
        <ele>381</ele>
        <time>2022-11-26 09:14:46</time>
      </trkpt>
      <trkpt lat="38.09708" lon="-4.02057">
        <ele>382.2</ele>
        <time>2022-11-26 09:14:50</time>
      </trkpt>
      <trkpt lat="38.09714" lon="-4.02062">
        <ele>382.8</ele>
        <time>2022-11-26 09:14:54</time>
      </trkpt>
      <trkpt lat="38.09721" lon="-4.02066">
        <ele>383.6</ele>
        <time>2022-11-26 09:14:58</time>
      </trkpt>
      <trkpt lat="38.09728" lon="-4.0207">
        <ele>384.2</ele>
        <time>2022-11-26 09:15:02</time>
      </trkpt>
      <trkpt lat="38.09735" lon="-4.02072">
        <ele>385.6</ele>
        <time>2022-11-26 09:15:06</time>
      </trkpt>
      <trkpt lat="38.09743" lon="-4.02074">
        <ele>387</ele>
        <time>2022-11-26 09:15:10</time>
      </trkpt>
      <trkpt lat="38.09749" lon="-4.02072">
        <ele>388.4</ele>
        <time>2022-11-26 09:15:14</time>
      </trkpt>
      <trkpt lat="38.09755" lon="-4.0207">
        <ele>389.6</ele>
        <time>2022-11-26 09:15:18</time>
      </trkpt>
      <trkpt lat="38.09761" lon="-4.02066">
        <ele>390.6</ele>
        <time>2022-11-26 09:15:22</time>
      </trkpt>
      <trkpt lat="38.09767" lon="-4.02061">
        <ele>391.6</ele>
        <time>2022-11-26 09:15:26</time>
      </trkpt>
      <trkpt lat="38.09773" lon="-4.02057">
        <ele>392</ele>
        <time>2022-11-26 09:15:30</time>
      </trkpt>
      <trkpt lat="38.09779" lon="-4.02051">
        <ele>392.8</ele>
        <time>2022-11-26 09:15:34</time>
      </trkpt>
      <trkpt lat="38.09785" lon="-4.02045">
        <ele>392.6</ele>
        <time>2022-11-26 09:15:38</time>
      </trkpt>
      <trkpt lat="38.09794" lon="-4.02041">
        <ele>392.6</ele>
        <time>2022-11-26 09:15:42</time>
      </trkpt>
      <trkpt lat="38.09803" lon="-4.02037">
        <ele>392.8</ele>
        <time>2022-11-26 09:15:46</time>
      </trkpt>
      <trkpt lat="38.09811" lon="-4.02032">
        <ele>392.8</ele>
        <time>2022-11-26 09:15:50</time>
      </trkpt>
      <trkpt lat="38.0982" lon="-4.02028">
        <ele>392.4</ele>
        <time>2022-11-26 09:15:54</time>
      </trkpt>
      <trkpt lat="38.0983" lon="-4.0202">
        <ele>392</ele>
        <time>2022-11-26 09:15:58</time>
      </trkpt>
      <trkpt lat="38.0984" lon="-4.02012">
        <ele>392.4</ele>
        <time>2022-11-26 09:16:02</time>
      </trkpt>
      <trkpt lat="38.09848" lon="-4.02002">
        <ele>392.2</ele>
        <time>2022-11-26 09:16:06</time>
      </trkpt>
      <trkpt lat="38.09855" lon="-4.0199">
        <ele>393</ele>
        <time>2022-11-26 09:16:10</time>
      </trkpt>
      <trkpt lat="38.09858" lon="-4.01978">
        <ele>392.2</ele>
        <time>2022-11-26 09:16:14</time>
      </trkpt>
      <trkpt lat="38.09861" lon="-4.01967">
        <ele>392.2</ele>
        <time>2022-11-26 09:16:18</time>
      </trkpt>
      <trkpt lat="38.09862" lon="-4.01955">
        <ele>393</ele>
        <time>2022-11-26 09:16:22</time>
      </trkpt>
      <trkpt lat="38.09861" lon="-4.01944">
        <ele>393.2</ele>
        <time>2022-11-26 09:16:26</time>
      </trkpt>
      <trkpt lat="38.09858" lon="-4.01934">
        <ele>393.8</ele>
        <time>2022-11-26 09:16:30</time>
      </trkpt>
      <trkpt lat="38.09857" lon="-4.01924">
        <ele>395.8</ele>
        <time>2022-11-26 09:16:34</time>
      </trkpt>
      <trkpt lat="38.09855" lon="-4.01913">
        <ele>397.6</ele>
        <time>2022-11-26 09:16:38</time>
      </trkpt>
      <trkpt lat="38.09852" lon="-4.01903">
        <ele>398</ele>
        <time>2022-11-26 09:16:42</time>
      </trkpt>
      <trkpt lat="38.09851" lon="-4.01893">
        <ele>399.4</ele>
        <time>2022-11-26 09:16:46</time>
      </trkpt>
      <trkpt lat="38.09849" lon="-4.01882">
        <ele>400.2</ele>
        <time>2022-11-26 09:16:50</time>
      </trkpt>
      <trkpt lat="38.09849" lon="-4.01872">
        <ele>401.2</ele>
        <time>2022-11-26 09:16:54</time>
      </trkpt>
      <trkpt lat="38.0985" lon="-4.01861">
        <ele>402</ele>
        <time>2022-11-26 09:16:58</time>
      </trkpt>
      <trkpt lat="38.09852" lon="-4.01851">
        <ele>403</ele>
        <time>2022-11-26 09:17:02</time>
      </trkpt>
      <trkpt lat="38.09853" lon="-4.01839">
        <ele>403.2</ele>
        <time>2022-11-26 09:17:06</time>
      </trkpt>
      <trkpt lat="38.09851" lon="-4.01828">
        <ele>404.2</ele>
        <time>2022-11-26 09:17:10</time>
      </trkpt>
      <trkpt lat="38.09849" lon="-4.01819">
        <ele>404.8</ele>
        <time>2022-11-26 09:17:14</time>
      </trkpt>
      <trkpt lat="38.09847" lon="-4.01809">
        <ele>405.8</ele>
        <time>2022-11-26 09:17:18</time>
      </trkpt>
      <trkpt lat="38.09844" lon="-4.018">
        <ele>406</ele>
        <time>2022-11-26 09:17:22</time>
      </trkpt>
      <trkpt lat="38.09843" lon="-4.0179">
        <ele>407</ele>
        <time>2022-11-26 09:17:26</time>
      </trkpt>
      <trkpt lat="38.09841" lon="-4.01779">
        <ele>406.8</ele>
        <time>2022-11-26 09:17:30</time>
      </trkpt>
      <trkpt lat="38.0984" lon="-4.01764">
        <ele>406.6</ele>
        <time>2022-11-26 09:17:34</time>
      </trkpt>
      <trkpt lat="38.0984" lon="-4.01745">
        <ele>406</ele>
        <time>2022-11-26 09:17:38</time>
      </trkpt>
      <trkpt lat="38.09839" lon="-4.01726">
        <ele>406</ele>
        <time>2022-11-26 09:17:42</time>
      </trkpt>
      <trkpt lat="38.09839" lon="-4.01709">
        <ele>405.6</ele>
        <time>2022-11-26 09:17:46</time>
      </trkpt>
      <trkpt lat="38.09845" lon="-4.01693">
        <ele>405.4</ele>
        <time>2022-11-26 09:17:50</time>
      </trkpt>
      <trkpt lat="38.09855" lon="-4.01681">
        <ele>406</ele>
        <time>2022-11-26 09:17:54</time>
      </trkpt>
      <trkpt lat="38.09863" lon="-4.01674">
        <ele>407.2</ele>
        <time>2022-11-26 09:17:58</time>
      </trkpt>
      <trkpt lat="38.09871" lon="-4.01667">
        <ele>407.2</ele>
        <time>2022-11-26 09:18:02</time>
      </trkpt>
      <trkpt lat="38.09878" lon="-4.01658">
        <ele>409</ele>
        <time>2022-11-26 09:18:06</time>
      </trkpt>
      <trkpt lat="38.09884" lon="-4.01648">
        <ele>410</ele>
        <time>2022-11-26 09:18:10</time>
      </trkpt>
      <trkpt lat="38.09889" lon="-4.01637">
        <ele>410.6</ele>
        <time>2022-11-26 09:18:14</time>
      </trkpt>
      <trkpt lat="38.09891" lon="-4.01626">
        <ele>411.4</ele>
        <time>2022-11-26 09:18:18</time>
      </trkpt>
      <trkpt lat="38.09893" lon="-4.01613">
        <ele>412.2</ele>
        <time>2022-11-26 09:18:22</time>
      </trkpt>
      <trkpt lat="38.09894" lon="-4.016">
        <ele>412.8</ele>
        <time>2022-11-26 09:18:26</time>
      </trkpt>
      <trkpt lat="38.09895" lon="-4.01589">
        <ele>413.6</ele>
        <time>2022-11-26 09:18:30</time>
      </trkpt>
      <trkpt lat="38.09896" lon="-4.01577">
        <ele>414.6</ele>
        <time>2022-11-26 09:18:34</time>
      </trkpt>
      <trkpt lat="38.09897" lon="-4.01567">
        <ele>415.8</ele>
        <time>2022-11-26 09:18:38</time>
      </trkpt>
      <trkpt lat="38.09899" lon="-4.01556">
        <ele>416.6</ele>
        <time>2022-11-26 09:18:42</time>
      </trkpt>
      <trkpt lat="38.09902" lon="-4.01545">
        <ele>418</ele>
        <time>2022-11-26 09:18:46</time>
      </trkpt>
      <trkpt lat="38.09907" lon="-4.01535">
        <ele>418</ele>
        <time>2022-11-26 09:18:50</time>
      </trkpt>
      <trkpt lat="38.09911" lon="-4.01524">
        <ele>418.6</ele>
        <time>2022-11-26 09:18:54</time>
      </trkpt>
      <trkpt lat="38.09916" lon="-4.01515">
        <ele>419.6</ele>
        <time>2022-11-26 09:18:58</time>
      </trkpt>
      <trkpt lat="38.09921" lon="-4.01506">
        <ele>420</ele>
        <time>2022-11-26 09:19:02</time>
      </trkpt>
      <trkpt lat="38.09925" lon="-4.01496">
        <ele>420.6</ele>
        <time>2022-11-26 09:19:06</time>
      </trkpt>
      <trkpt lat="38.09931" lon="-4.01487">
        <ele>421.6</ele>
        <time>2022-11-26 09:19:10</time>
      </trkpt>
      <trkpt lat="38.09936" lon="-4.01479">
        <ele>422.8</ele>
        <time>2022-11-26 09:19:14</time>
      </trkpt>
      <trkpt lat="38.09941" lon="-4.01473">
        <ele>424.4</ele>
        <time>2022-11-26 09:19:18</time>
      </trkpt>
      <trkpt lat="38.09947" lon="-4.01468">
        <ele>425.8</ele>
        <time>2022-11-26 09:19:22</time>
      </trkpt>
      <trkpt lat="38.09956" lon="-4.01468">
        <ele>427</ele>
        <time>2022-11-26 09:19:26</time>
      </trkpt>
      <trkpt lat="38.09964" lon="-4.0147">
        <ele>427.8</ele>
        <time>2022-11-26 09:19:30</time>
      </trkpt>
      <trkpt lat="38.09972" lon="-4.01471">
        <ele>429</ele>
        <time>2022-11-26 09:19:34</time>
      </trkpt>
      <trkpt lat="38.0998" lon="-4.01472">
        <ele>430</ele>
        <time>2022-11-26 09:19:38</time>
      </trkpt>
      <trkpt lat="38.09987" lon="-4.01473">
        <ele>430.8</ele>
        <time>2022-11-26 09:19:42</time>
      </trkpt>
      <trkpt lat="38.09995" lon="-4.01474">
        <ele>431.8</ele>
        <time>2022-11-26 09:19:46</time>
      </trkpt>
      <trkpt lat="38.10002" lon="-4.01476">
        <ele>432.6</ele>
        <time>2022-11-26 09:19:50</time>
      </trkpt>
      <trkpt lat="38.1001" lon="-4.01479">
        <ele>432.6</ele>
        <time>2022-11-26 09:19:54</time>
      </trkpt>
      <trkpt lat="38.10017" lon="-4.01482">
        <ele>434</ele>
        <time>2022-11-26 09:19:58</time>
      </trkpt>
      <trkpt lat="38.10025" lon="-4.01483">
        <ele>434.2</ele>
        <time>2022-11-26 09:20:02</time>
      </trkpt>
      <trkpt lat="38.10032" lon="-4.01481">
        <ele>435.2</ele>
        <time>2022-11-26 09:20:06</time>
      </trkpt>
      <trkpt lat="38.10038" lon="-4.01475">
        <ele>436.4</ele>
        <time>2022-11-26 09:20:10</time>
      </trkpt>
      <trkpt lat="38.10041" lon="-4.01466">
        <ele>436.6</ele>
        <time>2022-11-26 09:20:14</time>
      </trkpt>
      <trkpt lat="38.10043" lon="-4.01458">
        <ele>437.6</ele>
        <time>2022-11-26 09:20:18</time>
      </trkpt>
      <trkpt lat="38.10045" lon="-4.01449">
        <ele>438.6</ele>
        <time>2022-11-26 09:20:22</time>
      </trkpt>
      <trkpt lat="38.10047" lon="-4.01442">
        <ele>439.6</ele>
        <time>2022-11-26 09:20:26</time>
      </trkpt>
      <trkpt lat="38.10048" lon="-4.01434">
        <ele>439.6</ele>
        <time>2022-11-26 09:20:30</time>
      </trkpt>
      <trkpt lat="38.1005" lon="-4.01426">
        <ele>441.2</ele>
        <time>2022-11-26 09:20:34</time>
      </trkpt>
      <trkpt lat="38.10051" lon="-4.01417">
        <ele>441.4</ele>
        <time>2022-11-26 09:20:38</time>
      </trkpt>
      <trkpt lat="38.10053" lon="-4.01408">
        <ele>442.4</ele>
        <time>2022-11-26 09:20:42</time>
      </trkpt>
      <trkpt lat="38.10055" lon="-4.01399">
        <ele>443.6</ele>
        <time>2022-11-26 09:20:46</time>
      </trkpt>
      <trkpt lat="38.10056" lon="-4.01389">
        <ele>444.6</ele>
        <time>2022-11-26 09:20:50</time>
      </trkpt>
      <trkpt lat="38.10058" lon="-4.0138">
        <ele>445.2</ele>
        <time>2022-11-26 09:20:54</time>
      </trkpt>
      <trkpt lat="38.10059" lon="-4.01371">
        <ele>446</ele>
        <time>2022-11-26 09:20:58</time>
      </trkpt>
      <trkpt lat="38.10061" lon="-4.01361">
        <ele>447</ele>
        <time>2022-11-26 09:21:02</time>
      </trkpt>
      <trkpt lat="38.10062" lon="-4.01352">
        <ele>448.2</ele>
        <time>2022-11-26 09:21:06</time>
      </trkpt>
      <trkpt lat="38.10066" lon="-4.01344">
        <ele>449.2</ele>
        <time>2022-11-26 09:21:10</time>
      </trkpt>
      <trkpt lat="38.1007" lon="-4.01336">
        <ele>450.2</ele>
        <time>2022-11-26 09:21:14</time>
      </trkpt>
      <trkpt lat="38.10076" lon="-4.0133">
        <ele>451</ele>
        <time>2022-11-26 09:21:18</time>
      </trkpt>
      <trkpt lat="38.10082" lon="-4.01326">
        <ele>451.8</ele>
        <time>2022-11-26 09:21:22</time>
      </trkpt>
      <trkpt lat="38.1009" lon="-4.01324">
        <ele>452</ele>
        <time>2022-11-26 09:21:26</time>
      </trkpt>
      <trkpt lat="38.10098" lon="-4.01326">
        <ele>452.6</ele>
        <time>2022-11-26 09:21:30</time>
      </trkpt>
      <trkpt lat="38.10106" lon="-4.01329">
        <ele>453</ele>
        <time>2022-11-26 09:21:34</time>
      </trkpt>
      <trkpt lat="38.10114" lon="-4.01329">
        <ele>453.8</ele>
        <time>2022-11-26 09:21:38</time>
      </trkpt>
      <trkpt lat="38.10121" lon="-4.01326">
        <ele>454.2</ele>
        <time>2022-11-26 09:21:42</time>
      </trkpt>
      <trkpt lat="38.10125" lon="-4.01318">
        <ele>455.6</ele>
        <time>2022-11-26 09:21:46</time>
      </trkpt>
      <trkpt lat="38.10128" lon="-4.01311">
        <ele>456.2</ele>
        <time>2022-11-26 09:21:50</time>
      </trkpt>
      <trkpt lat="38.10131" lon="-4.01302">
        <ele>457.6</ele>
        <time>2022-11-26 09:21:54</time>
      </trkpt>
      <trkpt lat="38.10135" lon="-4.01296">
        <ele>458.2</ele>
        <time>2022-11-26 09:21:58</time>
      </trkpt>
      <trkpt lat="38.1014" lon="-4.01291">
        <ele>459.2</ele>
        <time>2022-11-26 09:22:02</time>
      </trkpt>
      <trkpt lat="38.10147" lon="-4.01289">
        <ele>459.4</ele>
        <time>2022-11-26 09:22:06</time>
      </trkpt>
      <trkpt lat="38.10155" lon="-4.01288">
        <ele>460.6</ele>
        <time>2022-11-26 09:22:10</time>
      </trkpt>
      <trkpt lat="38.10163" lon="-4.01289">
        <ele>460.4</ele>
        <time>2022-11-26 09:22:14</time>
      </trkpt>
      <trkpt lat="38.1017" lon="-4.0129">
        <ele>461.2</ele>
        <time>2022-11-26 09:22:18</time>
      </trkpt>
      <trkpt lat="38.10177" lon="-4.01291">
        <ele>462</ele>
        <time>2022-11-26 09:22:22</time>
      </trkpt>
      <trkpt lat="38.10185" lon="-4.01289">
        <ele>463</ele>
        <time>2022-11-26 09:22:26</time>
      </trkpt>
      <trkpt lat="38.10192" lon="-4.01287">
        <ele>463.6</ele>
        <time>2022-11-26 09:22:30</time>
      </trkpt>
      <trkpt lat="38.10199" lon="-4.01283">
        <ele>464.2</ele>
        <time>2022-11-26 09:22:34</time>
      </trkpt>
      <trkpt lat="38.10206" lon="-4.01279">
        <ele>464.2</ele>
        <time>2022-11-26 09:22:38</time>
      </trkpt>
      <trkpt lat="38.10213" lon="-4.01275">
        <ele>465.6</ele>
        <time>2022-11-26 09:22:42</time>
      </trkpt>
      <trkpt lat="38.10219" lon="-4.0127">
        <ele>465.8</ele>
        <time>2022-11-26 09:22:46</time>
      </trkpt>
      <trkpt lat="38.10226" lon="-4.01265">
        <ele>466.4</ele>
        <time>2022-11-26 09:22:50</time>
      </trkpt>
      <trkpt lat="38.10234" lon="-4.0126">
        <ele>466.2</ele>
        <time>2022-11-26 09:22:54</time>
      </trkpt>
      <trkpt lat="38.10242" lon="-4.01255">
        <ele>466.8</ele>
        <time>2022-11-26 09:22:58</time>
      </trkpt>
      <trkpt lat="38.1025" lon="-4.01251">
        <ele>467.2</ele>
        <time>2022-11-26 09:23:02</time>
      </trkpt>
      <trkpt lat="38.10258" lon="-4.01247">
        <ele>467.4</ele>
        <time>2022-11-26 09:23:06</time>
      </trkpt>
      <trkpt lat="38.10266" lon="-4.01242">
        <ele>467.8</ele>
        <time>2022-11-26 09:23:10</time>
      </trkpt>
      <trkpt lat="38.10275" lon="-4.01235">
        <ele>467.2</ele>
        <time>2022-11-26 09:23:14</time>
      </trkpt>
      <trkpt lat="38.10284" lon="-4.01232">
        <ele>467.2</ele>
        <time>2022-11-26 09:23:18</time>
      </trkpt>
      <trkpt lat="38.10293" lon="-4.01227">
        <ele>467.6</ele>
        <time>2022-11-26 09:23:22</time>
      </trkpt>
      <trkpt lat="38.103" lon="-4.01221">
        <ele>468.6</ele>
        <time>2022-11-26 09:23:26</time>
      </trkpt>
      <trkpt lat="38.10309" lon="-4.01214">
        <ele>469.6</ele>
        <time>2022-11-26 09:23:30</time>
      </trkpt>
      <trkpt lat="38.10314" lon="-4.01205">
        <ele>470.6</ele>
        <time>2022-11-26 09:23:34</time>
      </trkpt>
      <trkpt lat="38.10318" lon="-4.01195">
        <ele>471.6</ele>
        <time>2022-11-26 09:23:38</time>
      </trkpt>
      <trkpt lat="38.10321" lon="-4.01186">
        <ele>472.2</ele>
        <time>2022-11-26 09:23:42</time>
      </trkpt>
      <trkpt lat="38.10326" lon="-4.01173">
        <ele>473.2</ele>
        <time>2022-11-26 09:23:46</time>
      </trkpt>
      <trkpt lat="38.10331" lon="-4.0116">
        <ele>474</ele>
        <time>2022-11-26 09:23:50</time>
      </trkpt>
      <trkpt lat="38.10335" lon="-4.0115">
        <ele>474.6</ele>
        <time>2022-11-26 09:23:54</time>
      </trkpt>
      <trkpt lat="38.10338" lon="-4.01139">
        <ele>474.8</ele>
        <time>2022-11-26 09:23:58</time>
      </trkpt>
      <trkpt lat="38.10341" lon="-4.01123">
        <ele>474.6</ele>
        <time>2022-11-26 09:24:02</time>
      </trkpt>
      <trkpt lat="38.10345" lon="-4.01107">
        <ele>475</ele>
        <time>2022-11-26 09:24:06</time>
      </trkpt>
      <trkpt lat="38.10348" lon="-4.01093">
        <ele>475.2</ele>
        <time>2022-11-26 09:24:10</time>
      </trkpt>
      <trkpt lat="38.10351" lon="-4.01078">
        <ele>474.6</ele>
        <time>2022-11-26 09:24:14</time>
      </trkpt>
      <trkpt lat="38.10352" lon="-4.01056">
        <ele>473.2</ele>
        <time>2022-11-26 09:24:18</time>
      </trkpt>
      <trkpt lat="38.10352" lon="-4.01036">
        <ele>474.2</ele>
        <time>2022-11-26 09:24:22</time>
      </trkpt>
      <trkpt lat="38.10354" lon="-4.01017">
        <ele>474.6</ele>
        <time>2022-11-26 09:24:26</time>
      </trkpt>
      <trkpt lat="38.10355" lon="-4.01001">
        <ele>475.6</ele>
        <time>2022-11-26 09:24:30</time>
      </trkpt>
      <trkpt lat="38.10358" lon="-4.00985">
        <ele>475.6</ele>
        <time>2022-11-26 09:24:34</time>
      </trkpt>
      <trkpt lat="38.10361" lon="-4.0097">
        <ele>475.6</ele>
        <time>2022-11-26 09:24:38</time>
      </trkpt>
      <trkpt lat="38.10365" lon="-4.00954">
        <ele>476.2</ele>
        <time>2022-11-26 09:24:42</time>
      </trkpt>
      <trkpt lat="38.10368" lon="-4.00939">
        <ele>477.6</ele>
        <time>2022-11-26 09:24:46</time>
      </trkpt>
      <trkpt lat="38.10369" lon="-4.00926">
        <ele>478</ele>
        <time>2022-11-26 09:24:50</time>
      </trkpt>
      <trkpt lat="38.10371" lon="-4.0091">
        <ele>479</ele>
        <time>2022-11-26 09:24:54</time>
      </trkpt>
      <trkpt lat="38.10372" lon="-4.00894">
        <ele>478.8</ele>
        <time>2022-11-26 09:24:58</time>
      </trkpt>
      <trkpt lat="38.10372" lon="-4.00879">
        <ele>479.6</ele>
        <time>2022-11-26 09:25:02</time>
      </trkpt>
      <trkpt lat="38.10373" lon="-4.00864">
        <ele>480.2</ele>
        <time>2022-11-26 09:25:06</time>
      </trkpt>
      <trkpt lat="38.10378" lon="-4.00849">
        <ele>481</ele>
        <time>2022-11-26 09:25:10</time>
      </trkpt>
      <trkpt lat="38.10384" lon="-4.00836">
        <ele>482.2</ele>
        <time>2022-11-26 09:25:14</time>
      </trkpt>
      <trkpt lat="38.10393" lon="-4.00826">
        <ele>482.4</ele>
        <time>2022-11-26 09:25:18</time>
      </trkpt>
      <trkpt lat="38.10403" lon="-4.00821">
        <ele>482.8</ele>
        <time>2022-11-26 09:25:22</time>
      </trkpt>
      <trkpt lat="38.10415" lon="-4.00814">
        <ele>483.4</ele>
        <time>2022-11-26 09:25:26</time>
      </trkpt>
      <trkpt lat="38.10426" lon="-4.00806">
        <ele>484</ele>
        <time>2022-11-26 09:25:30</time>
      </trkpt>
      <trkpt lat="38.10435" lon="-4.00798">
        <ele>484.4</ele>
        <time>2022-11-26 09:25:34</time>
      </trkpt>
      <trkpt lat="38.10444" lon="-4.0079">
        <ele>484.4</ele>
        <time>2022-11-26 09:25:38</time>
      </trkpt>
      <trkpt lat="38.10452" lon="-4.00786">
        <ele>484.2</ele>
        <time>2022-11-26 09:25:42</time>
      </trkpt>
      <trkpt lat="38.10464" lon="-4.00779">
        <ele>484.4</ele>
        <time>2022-11-26 09:25:46</time>
      </trkpt>
      <trkpt lat="38.10478" lon="-4.00773">
        <ele>485.2</ele>
        <time>2022-11-26 09:25:50</time>
      </trkpt>
      <trkpt lat="38.10492" lon="-4.00766">
        <ele>485.6</ele>
        <time>2022-11-26 09:25:54</time>
      </trkpt>
      <trkpt lat="38.10505" lon="-4.00759">
        <ele>486.6</ele>
        <time>2022-11-26 09:25:58</time>
      </trkpt>
      <trkpt lat="38.10514" lon="-4.00749">
        <ele>487.4</ele>
        <time>2022-11-26 09:26:02</time>
      </trkpt>
      <trkpt lat="38.1052" lon="-4.00735">
        <ele>487.6</ele>
        <time>2022-11-26 09:26:06</time>
      </trkpt>
      <trkpt lat="38.1052" lon="-4.00719">
        <ele>488.2</ele>
        <time>2022-11-26 09:26:10</time>
      </trkpt>
      <trkpt lat="38.1052" lon="-4.00706">
        <ele>488</ele>
        <time>2022-11-26 09:26:14</time>
      </trkpt>
      <trkpt lat="38.10521" lon="-4.00691">
        <ele>489</ele>
        <time>2022-11-26 09:26:18</time>
      </trkpt>
      <trkpt lat="38.1052" lon="-4.00676">
        <ele>489</ele>
        <time>2022-11-26 09:26:22</time>
      </trkpt>
      <trkpt lat="38.10519" lon="-4.0066">
        <ele>489.8</ele>
        <time>2022-11-26 09:26:26</time>
      </trkpt>
      <trkpt lat="38.10518" lon="-4.00646">
        <ele>491.4</ele>
        <time>2022-11-26 09:26:30</time>
      </trkpt>
      <trkpt lat="38.10517" lon="-4.00631">
        <ele>492.2</ele>
        <time>2022-11-26 09:26:34</time>
      </trkpt>
      <trkpt lat="38.10516" lon="-4.00617">
        <ele>492.8</ele>
        <time>2022-11-26 09:26:38</time>
      </trkpt>
      <trkpt lat="38.10515" lon="-4.00603">
        <ele>494</ele>
        <time>2022-11-26 09:26:42</time>
      </trkpt>
      <trkpt lat="38.10514" lon="-4.00589">
        <ele>494.8</ele>
        <time>2022-11-26 09:26:46</time>
      </trkpt>
      <trkpt lat="38.10512" lon="-4.00575">
        <ele>495.6</ele>
        <time>2022-11-26 09:26:50</time>
      </trkpt>
      <trkpt lat="38.10511" lon="-4.00562">
        <ele>496.8</ele>
        <time>2022-11-26 09:26:54</time>
      </trkpt>
      <trkpt lat="38.10512" lon="-4.0055">
        <ele>498</ele>
        <time>2022-11-26 09:26:58</time>
      </trkpt>
      <trkpt lat="38.10515" lon="-4.00537">
        <ele>499</ele>
        <time>2022-11-26 09:27:02</time>
      </trkpt>
      <trkpt lat="38.10518" lon="-4.00526">
        <ele>499</ele>
        <time>2022-11-26 09:27:06</time>
      </trkpt>
      <trkpt lat="38.10521" lon="-4.00515">
        <ele>500.4</ele>
        <time>2022-11-26 09:27:10</time>
      </trkpt>
      <trkpt lat="38.10524" lon="-4.00504">
        <ele>501.4</ele>
        <time>2022-11-26 09:27:14</time>
      </trkpt>
      <trkpt lat="38.10527" lon="-4.00491">
        <ele>501.6</ele>
        <time>2022-11-26 09:27:18</time>
      </trkpt>
      <trkpt lat="38.10531" lon="-4.00478">
        <ele>502.4</ele>
        <time>2022-11-26 09:27:22</time>
      </trkpt>
      <trkpt lat="38.10535" lon="-4.00465">
        <ele>503.8</ele>
        <time>2022-11-26 09:27:26</time>
      </trkpt>
      <trkpt lat="38.10542" lon="-4.00454">
        <ele>504.4</ele>
        <time>2022-11-26 09:27:30</time>
      </trkpt>
      <trkpt lat="38.10548" lon="-4.00445">
        <ele>505.8</ele>
        <time>2022-11-26 09:27:34</time>
      </trkpt>
      <trkpt lat="38.10555" lon="-4.00437">
        <ele>507.4</ele>
        <time>2022-11-26 09:27:38</time>
      </trkpt>
      <trkpt lat="38.10562" lon="-4.00429">
        <ele>508</ele>
        <time>2022-11-26 09:27:42</time>
      </trkpt>
      <trkpt lat="38.10568" lon="-4.00421">
        <ele>508.8</ele>
        <time>2022-11-26 09:27:46</time>
      </trkpt>
      <trkpt lat="38.10575" lon="-4.00413">
        <ele>509.8</ele>
        <time>2022-11-26 09:27:50</time>
      </trkpt>
      <trkpt lat="38.10581" lon="-4.00405">
        <ele>511</ele>
        <time>2022-11-26 09:27:54</time>
      </trkpt>
      <trkpt lat="38.10587" lon="-4.00396">
        <ele>511.4</ele>
        <time>2022-11-26 09:27:58</time>
      </trkpt>
      <trkpt lat="38.10592" lon="-4.00388">
        <ele>512.2</ele>
        <time>2022-11-26 09:28:02</time>
      </trkpt>
      <trkpt lat="38.10596" lon="-4.00378">
        <ele>513.4</ele>
        <time>2022-11-26 09:28:06</time>
      </trkpt>
      <trkpt lat="38.10597" lon="-4.00367">
        <ele>513.8</ele>
        <time>2022-11-26 09:28:10</time>
      </trkpt>
      <trkpt lat="38.10598" lon="-4.00354">
        <ele>513</ele>
        <time>2022-11-26 09:28:14</time>
      </trkpt>
      <trkpt lat="38.10599" lon="-4.00337">
        <ele>513.4</ele>
        <time>2022-11-26 09:28:18</time>
      </trkpt>
      <trkpt lat="38.10604" lon="-4.00324">
        <ele>513.8</ele>
        <time>2022-11-26 09:28:22</time>
      </trkpt>
      <trkpt lat="38.10611" lon="-4.00315">
        <ele>513.8</ele>
        <time>2022-11-26 09:28:26</time>
      </trkpt>
      <trkpt lat="38.10619" lon="-4.00303">
        <ele>514.2</ele>
        <time>2022-11-26 09:28:30</time>
      </trkpt>
      <trkpt lat="38.1063" lon="-4.00294">
        <ele>514.4</ele>
        <time>2022-11-26 09:28:34</time>
      </trkpt>
      <trkpt lat="38.10643" lon="-4.00287">
        <ele>514.4</ele>
        <time>2022-11-26 09:28:38</time>
      </trkpt>
      <trkpt lat="38.10656" lon="-4.00283">
        <ele>515.6</ele>
        <time>2022-11-26 09:28:42</time>
      </trkpt>
      <trkpt lat="38.10669" lon="-4.0028">
        <ele>515.6</ele>
        <time>2022-11-26 09:28:46</time>
      </trkpt>
      <trkpt lat="38.1068" lon="-4.00278">
        <ele>516.8</ele>
        <time>2022-11-26 09:28:50</time>
      </trkpt>
      <trkpt lat="38.10689" lon="-4.00276">
        <ele>518.6</ele>
        <time>2022-11-26 09:28:54</time>
      </trkpt>
      <trkpt lat="38.10697" lon="-4.00274">
        <ele>519.8</ele>
        <time>2022-11-26 09:28:58</time>
      </trkpt>
      <trkpt lat="38.10705" lon="-4.00273">
        <ele>520.6</ele>
        <time>2022-11-26 09:29:02</time>
      </trkpt>
      <trkpt lat="38.10714" lon="-4.00271">
        <ele>521.8</ele>
        <time>2022-11-26 09:29:06</time>
      </trkpt>
      <trkpt lat="38.10721" lon="-4.0027">
        <ele>522.8</ele>
        <time>2022-11-26 09:29:10</time>
      </trkpt>
      <trkpt lat="38.10729" lon="-4.00271">
        <ele>523.8</ele>
        <time>2022-11-26 09:29:14</time>
      </trkpt>
      <trkpt lat="38.10738" lon="-4.00274">
        <ele>524.8</ele>
        <time>2022-11-26 09:29:18</time>
      </trkpt>
      <trkpt lat="38.10748" lon="-4.00275">
        <ele>524.6</ele>
        <time>2022-11-26 09:29:22</time>
      </trkpt>
      <trkpt lat="38.10757" lon="-4.00277">
        <ele>524.4</ele>
        <time>2022-11-26 09:29:26</time>
      </trkpt>
      <trkpt lat="38.10765" lon="-4.00281">
        <ele>525</ele>
        <time>2022-11-26 09:29:30</time>
      </trkpt>
      <trkpt lat="38.1077" lon="-4.00286">
        <ele>525.4</ele>
        <time>2022-11-26 09:29:34</time>
      </trkpt>
      <trkpt lat="38.10777" lon="-4.00292">
        <ele>525.4</ele>
        <time>2022-11-26 09:29:38</time>
      </trkpt>
      <trkpt lat="38.10785" lon="-4.00301">
        <ele>525</ele>
        <time>2022-11-26 09:29:42</time>
      </trkpt>
      <trkpt lat="38.10792" lon="-4.00313">
        <ele>525.2</ele>
        <time>2022-11-26 09:29:46</time>
      </trkpt>
      <trkpt lat="38.10799" lon="-4.00326">
        <ele>525</ele>
        <time>2022-11-26 09:29:50</time>
      </trkpt>
      <trkpt lat="38.10807" lon="-4.00345">
        <ele>524.4</ele>
        <time>2022-11-26 09:29:54</time>
      </trkpt>
      <trkpt lat="38.10827" lon="-4.00366">
        <ele>518.6</ele>
        <time>2022-11-26 09:29:58</time>
      </trkpt>
      <trkpt lat="38.1086" lon="-4.00387">
        <ele>514.2</ele>
        <time>2022-11-26 09:30:02</time>
      </trkpt>
      <trkpt lat="38.10887" lon="-4.00409">
        <ele>515.6</ele>
        <time>2022-11-26 09:30:06</time>
      </trkpt>
      <trkpt lat="38.10908" lon="-4.00431">
        <ele>517.6</ele>
        <time>2022-11-26 09:30:10</time>
      </trkpt>
      <trkpt lat="38.10914" lon="-4.00447">
        <ele>519.8</ele>
        <time>2022-11-26 09:30:14</time>
      </trkpt>
      <trkpt lat="38.10909" lon="-4.00462">
        <ele>520</ele>
        <time>2022-11-26 09:30:18</time>
      </trkpt>
      <trkpt lat="38.10907" lon="-4.00477">
        <ele>520</ele>
        <time>2022-11-26 09:30:22</time>
      </trkpt>
      <trkpt lat="38.10904" lon="-4.00495">
        <ele>519</ele>
        <time>2022-11-26 09:30:26</time>
      </trkpt>
      <trkpt lat="38.109" lon="-4.00516">
        <ele>517.6</ele>
        <time>2022-11-26 09:32:36</time>
      </trkpt>
      <trkpt lat="38.10892" lon="-4.00544">
        <ele>516.8</ele>
        <time>2022-11-26 09:32:40</time>
      </trkpt>
      <trkpt lat="38.1088" lon="-4.00576">
        <ele>514.8</ele>
        <time>2022-11-26 09:32:44</time>
      </trkpt>
      <trkpt lat="38.10866" lon="-4.00614">
        <ele>513.2</ele>
        <time>2022-11-26 09:32:48</time>
      </trkpt>
      <trkpt lat="38.10854" lon="-4.00642">
        <ele>510.6</ele>
        <time>2022-11-26 09:32:52</time>
      </trkpt>
      <trkpt lat="38.10842" lon="-4.00677">
        <ele>507.4</ele>
        <time>2022-11-26 09:32:56</time>
      </trkpt>
      <trkpt lat="38.10827" lon="-4.00716">
        <ele>508.4</ele>
        <time>2022-11-26 09:33:00</time>
      </trkpt>
      <trkpt lat="38.10812" lon="-4.00765">
        <ele>506.8</ele>
        <time>2022-11-26 09:33:04</time>
      </trkpt>
      <trkpt lat="38.10811" lon="-4.00814">
        <ele>505.6</ele>
        <time>2022-11-26 09:33:08</time>
      </trkpt>
      <trkpt lat="38.10818" lon="-4.00857">
        <ele>503.4</ele>
        <time>2022-11-26 09:33:12</time>
      </trkpt>
      <trkpt lat="38.10829" lon="-4.009">
        <ele>502.4</ele>
        <time>2022-11-26 09:33:16</time>
      </trkpt>
      <trkpt lat="38.10854" lon="-4.00937">
        <ele>498.8</ele>
        <time>2022-11-26 09:33:20</time>
      </trkpt>
      <trkpt lat="38.1088" lon="-4.00972">
        <ele>498.4</ele>
        <time>2022-11-26 09:33:24</time>
      </trkpt>
      <trkpt lat="38.10901" lon="-4.01002">
        <ele>499</ele>
        <time>2022-11-26 09:33:28</time>
      </trkpt>
      <trkpt lat="38.10916" lon="-4.01024">
        <ele>502.8</ele>
        <time>2022-11-26 09:33:32</time>
      </trkpt>
      <trkpt lat="38.1093" lon="-4.01039">
        <ele>504</ele>
        <time>2022-11-26 09:33:36</time>
      </trkpt>
      <trkpt lat="38.10941" lon="-4.0105">
        <ele>505.4</ele>
        <time>2022-11-26 09:33:40</time>
      </trkpt>
      <trkpt lat="38.10953" lon="-4.0106">
        <ele>507.2</ele>
        <time>2022-11-26 09:33:44</time>
      </trkpt>
      <trkpt lat="38.10963" lon="-4.01072">
        <ele>507.4</ele>
        <time>2022-11-26 09:33:48</time>
      </trkpt>
      <trkpt lat="38.10976" lon="-4.01085">
        <ele>508</ele>
        <time>2022-11-26 09:33:52</time>
      </trkpt>
      <trkpt lat="38.10985" lon="-4.01101">
        <ele>509.2</ele>
        <time>2022-11-26 09:33:56</time>
      </trkpt>
      <trkpt lat="38.10992" lon="-4.01117">
        <ele>509.6</ele>
        <time>2022-11-26 09:34:00</time>
      </trkpt>
      <trkpt lat="38.11" lon="-4.01132">
        <ele>510.2</ele>
        <time>2022-11-26 09:34:04</time>
      </trkpt>
      <trkpt lat="38.11008" lon="-4.01152">
        <ele>511</ele>
        <time>2022-11-26 09:34:08</time>
      </trkpt>
      <trkpt lat="38.11015" lon="-4.01169">
        <ele>512.2</ele>
        <time>2022-11-26 09:34:12</time>
      </trkpt>
      <trkpt lat="38.11022" lon="-4.01187">
        <ele>512.4</ele>
        <time>2022-11-26 09:34:16</time>
      </trkpt>
      <trkpt lat="38.11028" lon="-4.01204">
        <ele>513</ele>
        <time>2022-11-26 09:34:20</time>
      </trkpt>
      <trkpt lat="38.11034" lon="-4.01219">
        <ele>514.2</ele>
        <time>2022-11-26 09:34:24</time>
      </trkpt>
      <trkpt lat="38.1104" lon="-4.01233">
        <ele>515</ele>
        <time>2022-11-26 09:34:28</time>
      </trkpt>
      <trkpt lat="38.11046" lon="-4.01249">
        <ele>515.2</ele>
        <time>2022-11-26 09:34:32</time>
      </trkpt>
      <trkpt lat="38.11051" lon="-4.01262">
        <ele>517</ele>
        <time>2022-11-26 09:34:36</time>
      </trkpt>
      <trkpt lat="38.11055" lon="-4.01273">
        <ele>517.4</ele>
        <time>2022-11-26 09:34:40</time>
      </trkpt>
      <trkpt lat="38.11061" lon="-4.01286">
        <ele>518.6</ele>
        <time>2022-11-26 09:34:44</time>
      </trkpt>
      <trkpt lat="38.11067" lon="-4.013">
        <ele>519.6</ele>
        <time>2022-11-26 09:34:48</time>
      </trkpt>
      <trkpt lat="38.11072" lon="-4.01317">
        <ele>520.8</ele>
        <time>2022-11-26 09:34:52</time>
      </trkpt>
      <trkpt lat="38.11073" lon="-4.01332">
        <ele>520</ele>
        <time>2022-11-26 09:34:56</time>
      </trkpt>
      <trkpt lat="38.11078" lon="-4.01354">
        <ele>519</ele>
        <time>2022-11-26 09:35:00</time>
      </trkpt>
      <trkpt lat="38.1108" lon="-4.0138">
        <ele>516.6</ele>
        <time>2022-11-26 09:35:04</time>
      </trkpt>
      <trkpt lat="38.11083" lon="-4.01412">
        <ele>515</ele>
        <time>2022-11-26 09:35:08</time>
      </trkpt>
      <trkpt lat="38.11088" lon="-4.0144">
        <ele>514.4</ele>
        <time>2022-11-26 09:35:12</time>
      </trkpt>
      <trkpt lat="38.111" lon="-4.01428">
        <ele>512.4</ele>
        <time>2022-11-26 09:35:16</time>
      </trkpt>
      <trkpt lat="38.11117" lon="-4.0141">
        <ele>511.6</ele>
        <time>2022-11-26 09:35:20</time>
      </trkpt>
      <trkpt lat="38.11144" lon="-4.01404">
        <ele>503.2</ele>
        <time>2022-11-26 09:35:24</time>
      </trkpt>
      <trkpt lat="38.11175" lon="-4.01399">
        <ele>499.2</ele>
        <time>2022-11-26 09:35:28</time>
      </trkpt>
      <trkpt lat="38.11203" lon="-4.01389">
        <ele>496.4</ele>
        <time>2022-11-26 09:35:32</time>
      </trkpt>
      <trkpt lat="38.11229" lon="-4.0138">
        <ele>493.2</ele>
        <time>2022-11-26 09:35:36</time>
      </trkpt>
      <trkpt lat="38.11255" lon="-4.01376">
        <ele>490.4</ele>
        <time>2022-11-26 09:35:40</time>
      </trkpt>
      <trkpt lat="38.1127" lon="-4.01364">
        <ele>490</ele>
        <time>2022-11-26 09:35:44</time>
      </trkpt>
      <trkpt lat="38.11273" lon="-4.01356">
        <ele>489.6</ele>
        <time>2022-11-26 09:35:48</time>
      </trkpt>
      <trkpt lat="38.11278" lon="-4.01337">
        <ele>485</ele>
        <time>2022-11-26 09:35:52</time>
      </trkpt>
      <trkpt lat="38.11291" lon="-4.01319">
        <ele>484</ele>
        <time>2022-11-26 09:35:56</time>
      </trkpt>
      <trkpt lat="38.11306" lon="-4.01338">
        <ele>480.4</ele>
        <time>2022-11-26 09:36:00</time>
      </trkpt>
      <trkpt lat="38.11324" lon="-4.01341">
        <ele>477.4</ele>
        <time>2022-11-26 09:36:04</time>
      </trkpt>
      <trkpt lat="38.11345" lon="-4.01346">
        <ele>474.8</ele>
        <time>2022-11-26 09:36:22</time>
      </trkpt>
      <trkpt lat="38.11366" lon="-4.01347">
        <ele>472</ele>
        <time>2022-11-26 09:36:26</time>
      </trkpt>
      <trkpt lat="38.11385" lon="-4.01357">
        <ele>470</ele>
        <time>2022-11-26 09:36:30</time>
      </trkpt>
      <trkpt lat="38.11403" lon="-4.01371">
        <ele>467.4</ele>
        <time>2022-11-26 09:36:34</time>
      </trkpt>
      <trkpt lat="38.11427" lon="-4.01374">
        <ele>464.4</ele>
        <time>2022-11-26 09:36:38</time>
      </trkpt>
      <trkpt lat="38.1145" lon="-4.01368">
        <ele>463</ele>
        <time>2022-11-26 09:36:42</time>
      </trkpt>
      <trkpt lat="38.1147" lon="-4.01351">
        <ele>458.8</ele>
        <time>2022-11-26 09:36:46</time>
      </trkpt>
      <trkpt lat="38.11489" lon="-4.01326">
        <ele>455.6</ele>
        <time>2022-11-26 09:36:50</time>
      </trkpt>
      <trkpt lat="38.11508" lon="-4.01301">
        <ele>454</ele>
        <time>2022-11-26 09:36:54</time>
      </trkpt>
      <trkpt lat="38.11524" lon="-4.01278">
        <ele>454</ele>
        <time>2022-11-26 09:36:58</time>
      </trkpt>
      <trkpt lat="38.11525" lon="-4.01264">
        <ele>452.8</ele>
        <time>2022-11-26 09:37:02</time>
      </trkpt>
      <trkpt lat="38.11538" lon="-4.01238">
        <ele>450.4</ele>
        <time>2022-11-26 09:37:06</time>
      </trkpt>
      <trkpt lat="38.11552" lon="-4.01215">
        <ele>445.4</ele>
        <time>2022-11-26 09:37:10</time>
      </trkpt>
      <trkpt lat="38.11568" lon="-4.0119">
        <ele>439.8</ele>
        <time>2022-11-26 09:37:14</time>
      </trkpt>
      <trkpt lat="38.11584" lon="-4.01167">
        <ele>440.6</ele>
        <time>2022-11-26 09:37:18</time>
      </trkpt>
      <trkpt lat="38.11601" lon="-4.01132">
        <ele>435</ele>
        <time>2022-11-26 09:37:22</time>
      </trkpt>
      <trkpt lat="38.1162" lon="-4.01105">
        <ele>439.8</ele>
        <time>2022-11-26 09:37:26</time>
      </trkpt>
      <trkpt lat="38.11638" lon="-4.01092">
        <ele>441</ele>
        <time>2022-11-26 09:37:30</time>
      </trkpt>
      <trkpt lat="38.11652" lon="-4.01079">
        <ele>439</ele>
        <time>2022-11-26 09:37:34</time>
      </trkpt>
      <trkpt lat="38.11662" lon="-4.01055">
        <ele>434</ele>
        <time>2022-11-26 09:37:38</time>
      </trkpt>
      <trkpt lat="38.11679" lon="-4.01055">
        <ele>432.2</ele>
        <time>2022-11-26 09:37:42</time>
      </trkpt>
      <trkpt lat="38.11698" lon="-4.01044">
        <ele>430</ele>
        <time>2022-11-26 09:37:46</time>
      </trkpt>
      <trkpt lat="38.11702" lon="-4.01015">
        <ele>429</ele>
        <time>2022-11-26 09:37:50</time>
      </trkpt>
      <trkpt lat="38.11716" lon="-4.00975">
        <ele>425</ele>
        <time>2022-11-26 09:37:54</time>
      </trkpt>
      <trkpt lat="38.11745" lon="-4.00948">
        <ele>419.4</ele>
        <time>2022-11-26 09:37:58</time>
      </trkpt>
      <trkpt lat="38.11769" lon="-4.00942">
        <ele>418.8</ele>
        <time>2022-11-26 09:38:02</time>
      </trkpt>
      <trkpt lat="38.1178" lon="-4.00955">
        <ele>417.6</ele>
        <time>2022-11-26 09:38:06</time>
      </trkpt>
      <trkpt lat="38.11789" lon="-4.0097">
        <ele>418.4</ele>
        <time>2022-11-26 09:38:10</time>
      </trkpt>
      <trkpt lat="38.11796" lon="-4.00976">
        <ele>420</ele>
        <time>2022-11-26 09:38:14</time>
      </trkpt>
      <trkpt lat="38.11805" lon="-4.00984">
        <ele>420.8</ele>
        <time>2022-11-26 09:38:18</time>
      </trkpt>
      <trkpt lat="38.11814" lon="-4.00993">
        <ele>422.6</ele>
        <time>2022-11-26 09:38:22</time>
      </trkpt>
      <trkpt lat="38.11821" lon="-4.01002">
        <ele>423.4</ele>
        <time>2022-11-26 09:38:26</time>
      </trkpt>
      <trkpt lat="38.11824" lon="-4.0101">
        <ele>425.2</ele>
        <time>2022-11-26 09:38:30</time>
      </trkpt>
      <trkpt lat="38.11827" lon="-4.0102">
        <ele>426.4</ele>
        <time>2022-11-26 09:38:34</time>
      </trkpt>
      <trkpt lat="38.11833" lon="-4.01028">
        <ele>426.4</ele>
        <time>2022-11-26 09:38:38</time>
      </trkpt>
      <trkpt lat="38.1184" lon="-4.01036">
        <ele>427.6</ele>
        <time>2022-11-26 09:38:42</time>
      </trkpt>
      <trkpt lat="38.11846" lon="-4.0104">
        <ele>429.2</ele>
        <time>2022-11-26 09:38:46</time>
      </trkpt>
      <trkpt lat="38.11865" lon="-4.0105">
        <ele>430</ele>
        <time>2022-11-26 09:38:50</time>
      </trkpt>
      <trkpt lat="38.11872" lon="-4.01044">
        <ele>430.6</ele>
        <time>2022-11-26 09:38:54</time>
      </trkpt>
      <trkpt lat="38.11879" lon="-4.01046">
        <ele>429.4</ele>
        <time>2022-11-26 09:38:58</time>
      </trkpt>
      <trkpt lat="38.11887" lon="-4.01058">
        <ele>427.4</ele>
        <time>2022-11-26 09:39:02</time>
      </trkpt>
      <trkpt lat="38.11898" lon="-4.01056">
        <ele>426</ele>
        <time>2022-11-26 09:39:06</time>
      </trkpt>
      <trkpt lat="38.11907" lon="-4.01067">
        <ele>424.8</ele>
        <time>2022-11-26 09:39:39</time>
      </trkpt>
      <trkpt lat="38.11916" lon="-4.01078">
        <ele>420.8</ele>
        <time>2022-11-26 09:39:43</time>
      </trkpt>
      <trkpt lat="38.11924" lon="-4.01093">
        <ele>416.8</ele>
        <time>2022-11-26 09:39:47</time>
      </trkpt>
      <trkpt lat="38.11932" lon="-4.01097">
        <ele>412.8</ele>
        <time>2022-11-26 09:39:51</time>
      </trkpt>
      <trkpt lat="38.11942" lon="-4.01103">
        <ele>405.8</ele>
        <time>2022-11-26 09:40:49</time>
      </trkpt>
      <trkpt lat="38.11961" lon="-4.01104">
        <ele>405.4</ele>
        <time>2022-11-26 09:40:53</time>
      </trkpt>
      <trkpt lat="38.11966" lon="-4.01103">
        <ele>404.8</ele>
        <time>2022-11-26 09:40:57</time>
      </trkpt>
      <trkpt lat="38.11974" lon="-4.0111">
        <ele>404.4</ele>
        <time>2022-11-26 09:41:01</time>
      </trkpt>
      <trkpt lat="38.11993" lon="-4.01112">
        <ele>404</ele>
        <time>2022-11-26 09:41:05</time>
      </trkpt>
      <trkpt lat="38.12007" lon="-4.01135">
        <ele>403</ele>
        <time>2022-11-26 09:41:09</time>
      </trkpt>
      <trkpt lat="38.12006" lon="-4.01166">
        <ele>401.4</ele>
        <time>2022-11-26 09:41:13</time>
      </trkpt>
      <trkpt lat="38.12003" lon="-4.01195">
        <ele>400.6</ele>
        <time>2022-11-26 09:41:17</time>
      </trkpt>
      <trkpt lat="38.1202" lon="-4.01199">
        <ele>400.6</ele>
        <time>2022-11-26 09:41:21</time>
      </trkpt>
      <trkpt lat="38.12034" lon="-4.01198">
        <ele>400.6</ele>
        <time>2022-11-26 09:41:25</time>
      </trkpt>
      <trkpt lat="38.12043" lon="-4.01213">
        <ele>399.8</ele>
        <time>2022-11-26 09:41:29</time>
      </trkpt>
      <trkpt lat="38.12049" lon="-4.01231">
        <ele>399.6</ele>
        <time>2022-11-26 09:41:33</time>
      </trkpt>
      <trkpt lat="38.12053" lon="-4.01248">
        <ele>398.8</ele>
        <time>2022-11-26 09:41:37</time>
      </trkpt>
      <trkpt lat="38.12052" lon="-4.01269">
        <ele>398.2</ele>
        <time>2022-11-26 09:41:41</time>
      </trkpt>
      <trkpt lat="38.12059" lon="-4.01289">
        <ele>398.4</ele>
        <time>2022-11-26 09:41:45</time>
      </trkpt>
      <trkpt lat="38.12063" lon="-4.01307">
        <ele>396.4</ele>
        <time>2022-11-26 09:41:49</time>
      </trkpt>
      <trkpt lat="38.12072" lon="-4.01317">
        <ele>396.4</ele>
        <time>2022-11-26 09:41:53</time>
      </trkpt>
      <trkpt lat="38.12084" lon="-4.01322">
        <ele>397.4</ele>
        <time>2022-11-26 09:41:57</time>
      </trkpt>
      <trkpt lat="38.1209" lon="-4.01326">
        <ele>397.2</ele>
        <time>2022-11-26 09:42:01</time>
      </trkpt>
      <trkpt lat="38.121" lon="-4.0132">
        <ele>392.8</ele>
        <time>2022-11-26 09:42:05</time>
      </trkpt>
      <trkpt lat="38.12111" lon="-4.01315">
        <ele>388.4</ele>
        <time>2022-11-26 09:42:09</time>
      </trkpt>
      <trkpt lat="38.12122" lon="-4.01308">
        <ele>381.6</ele>
        <time>2022-11-26 09:42:13</time>
      </trkpt>
      <trkpt lat="38.12138" lon="-4.013">
        <ele>374.6</ele>
        <time>2022-11-26 09:42:17</time>
      </trkpt>
      <trkpt lat="38.12154" lon="-4.01291">
        <ele>370.2</ele>
        <time>2022-11-26 09:42:21</time>
      </trkpt>
      <trkpt lat="38.12179" lon="-4.0129">
        <ele>369.4</ele>
        <time>2022-11-26 09:42:25</time>
      </trkpt>
      <trkpt lat="38.12186" lon="-4.01286">
        <ele>366.8</ele>
        <time>2022-11-26 09:42:29</time>
      </trkpt>
      <trkpt lat="38.12192" lon="-4.0128">
        <ele>364.6</ele>
        <time>2022-11-26 09:42:33</time>
      </trkpt>
      <trkpt lat="38.122" lon="-4.01275">
        <ele>363.6</ele>
        <time>2022-11-26 09:42:37</time>
      </trkpt>
      <trkpt lat="38.12206" lon="-4.01266">
        <ele>358.4</ele>
        <time>2022-11-26 09:42:41</time>
      </trkpt>
      <trkpt lat="38.12221" lon="-4.0124">
        <ele>354.2</ele>
        <time>2022-11-26 09:42:45</time>
      </trkpt>
      <trkpt lat="38.1223" lon="-4.01227">
        <ele>349</ele>
        <time>2022-11-26 09:42:49</time>
      </trkpt>
      <trkpt lat="38.1224" lon="-4.01217">
        <ele>347.4</ele>
        <time>2022-11-26 09:42:53</time>
      </trkpt>
      <trkpt lat="38.12248" lon="-4.01217">
        <ele>344.6</ele>
        <time>2022-11-26 09:42:57</time>
      </trkpt>
      <trkpt lat="38.12256" lon="-4.01209">
        <ele>339.8</ele>
        <time>2022-11-26 09:43:01</time>
      </trkpt>
      <trkpt lat="38.12262" lon="-4.01214">
        <ele>337.4</ele>
        <time>2022-11-26 09:43:05</time>
      </trkpt>
      <trkpt lat="38.12269" lon="-4.01218">
        <ele>333.8</ele>
        <time>2022-11-26 09:43:09</time>
      </trkpt>
      <trkpt lat="38.1227" lon="-4.01226">
        <ele>331.4</ele>
        <time>2022-11-26 09:43:43</time>
      </trkpt>
      <trkpt lat="38.12273" lon="-4.01237">
        <ele>330.4</ele>
        <time>2022-11-26 09:43:47</time>
      </trkpt>
      <trkpt lat="38.12276" lon="-4.0126">
        <ele>326.6</ele>
        <time>2022-11-26 09:43:51</time>
      </trkpt>
      <trkpt lat="38.12279" lon="-4.01274">
        <ele>324.4</ele>
        <time>2022-11-26 09:43:55</time>
      </trkpt>
      <trkpt lat="38.1228" lon="-4.01282">
        <ele>322.8</ele>
        <time>2022-11-26 09:43:59</time>
      </trkpt>
      <trkpt lat="38.1228" lon="-4.01282">
        <ele>319.6</ele>
        <time>2022-11-26 09:44:03</time>
      </trkpt>
      <trkpt lat="38.12282" lon="-4.01287">
        <ele>317.2</ele>
        <time>2022-11-26 09:44:07</time>
      </trkpt>
      <trkpt lat="38.12289" lon="-4.01279">
        <ele>312.4</ele>
        <time>2022-11-26 09:44:11</time>
      </trkpt>
      <trkpt lat="38.12304" lon="-4.01264">
        <ele>309.2</ele>
        <time>2022-11-26 09:44:15</time>
      </trkpt>
      <trkpt lat="38.12319" lon="-4.01257">
        <ele>304.4</ele>
        <time>2022-11-26 09:44:19</time>
      </trkpt>
      <trkpt lat="38.12334" lon="-4.01247">
        <ele>303.8</ele>
        <time>2022-11-26 09:44:23</time>
      </trkpt>
      <trkpt lat="38.12347" lon="-4.01231">
        <ele>302</ele>
        <time>2022-11-26 09:44:27</time>
      </trkpt>
      <trkpt lat="38.12355" lon="-4.0122">
        <ele>298.8</ele>
        <time>2022-11-26 09:44:31</time>
      </trkpt>
      <trkpt lat="38.12363" lon="-4.01214">
        <ele>296</ele>
        <time>2022-11-26 09:44:35</time>
      </trkpt>
      <trkpt lat="38.12367" lon="-4.012">
        <ele>293.6</ele>
        <time>2022-11-26 09:44:38</time>
      </trkpt>
      <trkpt lat="38.1237" lon="-4.01183">
        <ele>289.8</ele>
        <time>2022-11-26 09:44:42</time>
      </trkpt>
      <trkpt lat="38.12372" lon="-4.01172">
        <ele>288.4</ele>
        <time>2022-11-26 09:44:46</time>
      </trkpt>
      <trkpt lat="38.12371" lon="-4.01157">
        <ele>286.2</ele>
        <time>2022-11-26 09:44:50</time>
      </trkpt>
      <trkpt lat="38.12365" lon="-4.01138">
        <ele>282.8</ele>
        <time>2022-11-26 09:44:54</time>
      </trkpt>
      <trkpt lat="38.12368" lon="-4.01116">
        <ele>280.6</ele>
        <time>2022-11-26 09:44:58</time>
      </trkpt>
      <trkpt lat="38.12367" lon="-4.01101">
        <ele>280.4</ele>
        <time>2022-11-26 09:45:02</time>
      </trkpt>
      <trkpt lat="38.12364" lon="-4.01091">
        <ele>279</ele>
        <time>2022-11-26 09:45:06</time>
      </trkpt>
      <trkpt lat="38.12363" lon="-4.01075">
        <ele>278.4</ele>
        <time>2022-11-26 09:45:10</time>
      </trkpt>
      <trkpt lat="38.12358" lon="-4.01064">
        <ele>275.8</ele>
        <time>2022-11-26 09:45:14</time>
      </trkpt>
      <trkpt lat="38.12355" lon="-4.01048">
        <ele>274.8</ele>
        <time>2022-11-26 09:45:18</time>
      </trkpt>
      <trkpt lat="38.12356" lon="-4.01036">
        <ele>274.8</ele>
        <time>2022-11-26 09:45:22</time>
      </trkpt>
      <trkpt lat="38.12353" lon="-4.01013">
        <ele>273.4</ele>
        <time>2022-11-26 09:45:26</time>
      </trkpt>
      <trkpt lat="38.12353" lon="-4.00998">
        <ele>271.2</ele>
        <time>2022-11-26 09:45:30</time>
      </trkpt>
      <trkpt lat="38.12352" lon="-4.00988">
        <ele>270.6</ele>
        <time>2022-11-26 09:45:34</time>
      </trkpt>
      <trkpt lat="38.1235" lon="-4.00976">
        <ele>269.8</ele>
        <time>2022-11-26 09:45:38</time>
      </trkpt>
      <trkpt lat="38.12352" lon="-4.0096">
        <ele>268.6</ele>
        <time>2022-11-26 09:45:42</time>
      </trkpt>
      <trkpt lat="38.12359" lon="-4.00939">
        <ele>267.8</ele>
        <time>2022-11-26 09:45:46</time>
      </trkpt>
      <trkpt lat="38.12366" lon="-4.00924">
        <ele>267.4</ele>
        <time>2022-11-26 09:45:50</time>
      </trkpt>
      <trkpt lat="38.1238" lon="-4.00905">
        <ele>266.4</ele>
        <time>2022-11-26 09:45:54</time>
      </trkpt>
      <trkpt lat="38.12396" lon="-4.00884">
        <ele>262.4</ele>
        <time>2022-11-26 09:45:58</time>
      </trkpt>
      <trkpt lat="38.12409" lon="-4.00861">
        <ele>261.8</ele>
        <time>2022-11-26 09:46:21</time>
      </trkpt>
      <trkpt lat="38.1241" lon="-4.00839">
        <ele>259.4</ele>
        <time>2022-11-26 09:46:25</time>
      </trkpt>
      <trkpt lat="38.12417" lon="-4.00816">
        <ele>257.6</ele>
        <time>2022-11-26 09:46:29</time>
      </trkpt>
      <trkpt lat="38.12422" lon="-4.00795">
        <ele>256.6</ele>
        <time>2022-11-26 09:46:33</time>
      </trkpt>
      <trkpt lat="38.12426" lon="-4.00769">
        <ele>254</ele>
        <time>2022-11-26 09:46:37</time>
      </trkpt>
      <trkpt lat="38.12429" lon="-4.00744">
        <ele>252.8</ele>
        <time>2022-11-26 09:46:41</time>
      </trkpt>
      <trkpt lat="38.12433" lon="-4.00712">
        <ele>251.8</ele>
        <time>2022-11-26 09:46:45</time>
      </trkpt>
      <trkpt lat="38.12436" lon="-4.00682">
        <ele>250.2</ele>
        <time>2022-11-26 09:46:49</time>
      </trkpt>
      <trkpt lat="38.12433" lon="-4.00653">
        <ele>248.6</ele>
        <time>2022-11-26 09:46:53</time>
      </trkpt>
      <trkpt lat="38.12432" lon="-4.00632">
        <ele>247.4</ele>
        <time>2022-11-26 09:46:57</time>
      </trkpt>
      <trkpt lat="38.12436" lon="-4.00612">
        <ele>246.4</ele>
        <time>2022-11-26 09:47:01</time>
      </trkpt>
      <trkpt lat="38.12444" lon="-4.00594">
        <ele>245.6</ele>
        <time>2022-11-26 09:47:05</time>
      </trkpt>
      <trkpt lat="38.12451" lon="-4.00575">
        <ele>243.4</ele>
        <time>2022-11-26 09:47:09</time>
      </trkpt>
      <trkpt lat="38.12462" lon="-4.00531">
        <ele>239.2</ele>
        <time>2022-11-26 09:47:13</time>
      </trkpt>
      <trkpt lat="38.1247" lon="-4.00518">
        <ele>239.2</ele>
        <time>2022-11-26 09:47:17</time>
      </trkpt>
      <trkpt lat="38.1248" lon="-4.00509">
        <ele>239</ele>
        <time>2022-11-26 09:47:21</time>
      </trkpt>
      <trkpt lat="38.12492" lon="-4.00493">
        <ele>239.4</ele>
        <time>2022-11-26 09:47:25</time>
      </trkpt>
      <trkpt lat="38.125" lon="-4.00481">
        <ele>239.6</ele>
        <time>2022-11-26 09:47:29</time>
      </trkpt>
      <trkpt lat="38.12516" lon="-4.00482">
        <ele>236.8</ele>
        <time>2022-11-26 09:47:33</time>
      </trkpt>
      <trkpt lat="38.12537" lon="-4.00497">
        <ele>236.4</ele>
        <time>2022-11-26 09:47:37</time>
      </trkpt>
      <trkpt lat="38.12554" lon="-4.00509">
        <ele>237.8</ele>
        <time>2022-11-26 09:47:41</time>
      </trkpt>
      <trkpt lat="38.12566" lon="-4.00519">
        <ele>239.4</ele>
        <time>2022-11-26 09:47:45</time>
      </trkpt>
      <trkpt lat="38.12579" lon="-4.00513">
        <ele>240.6</ele>
        <time>2022-11-26 09:47:49</time>
      </trkpt>
      <trkpt lat="38.12588" lon="-4.00504">
        <ele>239.4</ele>
        <time>2022-11-26 09:48:32</time>
      </trkpt>
      <trkpt lat="38.12601" lon="-4.00495">
        <ele>238.8</ele>
        <time>2022-11-26 09:48:36</time>
      </trkpt>
      <trkpt lat="38.12611" lon="-4.00488">
        <ele>239</ele>
        <time>2022-11-26 09:48:40</time>
      </trkpt>
      <trkpt lat="38.12618" lon="-4.00485">
        <ele>238.4</ele>
        <time>2022-11-26 09:48:44</time>
      </trkpt>
      <trkpt lat="38.12624" lon="-4.00491">
        <ele>235.2</ele>
        <time>2022-11-26 09:48:48</time>
      </trkpt>
      <trkpt lat="38.12629" lon="-4.00489">
        <ele>234.6</ele>
        <time>2022-11-26 09:48:52</time>
      </trkpt>
      <trkpt lat="38.12636" lon="-4.00487">
        <ele>233.6</ele>
        <time>2022-11-26 09:48:56</time>
      </trkpt>
      <trkpt lat="38.12646" lon="-4.00476">
        <ele>233.6</ele>
        <time>2022-11-26 09:49:00</time>
      </trkpt>
      <trkpt lat="38.12656" lon="-4.00471">
        <ele>231.4</ele>
        <time>2022-11-26 09:49:04</time>
      </trkpt>
      <trkpt lat="38.12665" lon="-4.00467">
        <ele>228</ele>
        <time>2022-11-26 09:49:08</time>
      </trkpt>
      <trkpt lat="38.12672" lon="-4.00457">
        <ele>227.4</ele>
        <time>2022-11-26 09:49:12</time>
      </trkpt>
      <trkpt lat="38.1268" lon="-4.00452">
        <ele>224</ele>
        <time>2022-11-26 09:49:16</time>
      </trkpt>
      <trkpt lat="38.1269" lon="-4.00448">
        <ele>223.4</ele>
        <time>2022-11-26 09:49:20</time>
      </trkpt>
      <trkpt lat="38.12701" lon="-4.00439">
        <ele>222.6</ele>
        <time>2022-11-26 09:49:24</time>
      </trkpt>
      <trkpt lat="38.12714" lon="-4.00435">
        <ele>219.8</ele>
        <time>2022-11-26 09:49:28</time>
      </trkpt>
      <trkpt lat="38.12728" lon="-4.00434">
        <ele>219</ele>
        <time>2022-11-26 09:49:32</time>
      </trkpt>
      <trkpt lat="38.12739" lon="-4.00427">
        <ele>218.8</ele>
        <time>2022-11-26 09:49:36</time>
      </trkpt>
      <trkpt lat="38.12748" lon="-4.00422">
        <ele>218.6</ele>
        <time>2022-11-26 09:49:40</time>
      </trkpt>
      <trkpt lat="38.12757" lon="-4.00413">
        <ele>217.8</ele>
        <time>2022-11-26 09:49:44</time>
      </trkpt>
      <trkpt lat="38.12785" lon="-4.00413">
        <ele>217.4</ele>
        <time>2022-11-26 09:49:48</time>
      </trkpt>
      <trkpt lat="38.12792" lon="-4.00413">
        <ele>218.4</ele>
        <time>2022-11-26 09:49:52</time>
      </trkpt>
      <trkpt lat="38.12801" lon="-4.0041">
        <ele>218.8</ele>
        <time>2022-11-26 09:49:56</time>
      </trkpt>
      <trkpt lat="38.12821" lon="-4.00403">
        <ele>217.4</ele>
        <time>2022-11-26 09:50:00</time>
      </trkpt>
      <trkpt lat="38.12829" lon="-4.00398">
        <ele>218.4</ele>
        <time>2022-11-26 09:50:04</time>
      </trkpt>
      <trkpt lat="38.12834" lon="-4.00393">
        <ele>218.2</ele>
        <time>2022-11-26 09:50:08</time>
      </trkpt>
      <trkpt lat="38.12845" lon="-4.00374">
        <ele>215.8</ele>
        <time>2022-11-26 09:50:12</time>
      </trkpt>
      <trkpt lat="38.12857" lon="-4.00357">
        <ele>215.6</ele>
        <time>2022-11-26 09:50:16</time>
      </trkpt>
      <trkpt lat="38.12866" lon="-4.00352">
        <ele>216.6</ele>
        <time>2022-11-26 09:50:20</time>
      </trkpt>
      <trkpt lat="38.12877" lon="-4.00341">
        <ele>216.6</ele>
        <time>2022-11-26 09:50:24</time>
      </trkpt>
      <trkpt lat="38.12898" lon="-4.00333">
        <ele>214.4</ele>
        <time>2022-11-26 09:50:28</time>
      </trkpt>
      <trkpt lat="38.12914" lon="-4.0033">
        <ele>216.4</ele>
        <time>2022-11-26 09:51:16</time>
      </trkpt>
      <trkpt lat="38.12929" lon="-4.0032">
        <ele>218.8</ele>
        <time>2022-11-26 09:51:20</time>
      </trkpt>
      <trkpt lat="38.12939" lon="-4.00304">
        <ele>218.4</ele>
        <time>2022-11-26 09:51:24</time>
      </trkpt>
      <trkpt lat="38.12945" lon="-4.00289">
        <ele>219.6</ele>
        <time>2022-11-26 09:51:28</time>
      </trkpt>
      <trkpt lat="38.12959" lon="-4.00279">
        <ele>220.4</ele>
        <time>2022-11-26 09:51:49</time>
      </trkpt>
      <trkpt lat="38.12975" lon="-4.00277">
        <ele>220.8</ele>
        <time>2022-11-26 09:51:53</time>
      </trkpt>
      <trkpt lat="38.12991" lon="-4.00278">
        <ele>220</ele>
        <time>2022-11-26 09:51:57</time>
      </trkpt>
      <trkpt lat="38.13004" lon="-4.0029">
        <ele>217.6</ele>
        <time>2022-11-26 09:52:01</time>
      </trkpt>
      <trkpt lat="38.13017" lon="-4.00297">
        <ele>213.4</ele>
        <time>2022-11-26 09:52:05</time>
      </trkpt>
      <trkpt lat="38.13032" lon="-4.00313">
        <ele>209.6</ele>
        <time>2022-11-26 09:52:09</time>
      </trkpt>
      <trkpt lat="38.13047" lon="-4.0033">
        <ele>208.6</ele>
        <time>2022-11-26 09:52:13</time>
      </trkpt>
      <trkpt lat="38.13067" lon="-4.0034">
        <ele>205.2</ele>
        <time>2022-11-26 09:52:17</time>
      </trkpt>
      <trkpt lat="38.13086" lon="-4.00351">
        <ele>201.2</ele>
        <time>2022-11-26 09:52:21</time>
      </trkpt>
      <trkpt lat="38.13097" lon="-4.00366">
        <ele>200.4</ele>
        <time>2022-11-26 09:52:25</time>
      </trkpt>
      <trkpt lat="38.13115" lon="-4.00359">
        <ele>197.4</ele>
        <time>2022-11-26 09:52:29</time>
      </trkpt>
      <trkpt lat="38.13131" lon="-4.00338">
        <ele>196.8</ele>
        <time>2022-11-26 09:52:33</time>
      </trkpt>
      <trkpt lat="38.13152" lon="-4.0032">
        <ele>195.6</ele>
        <time>2022-11-26 09:52:37</time>
      </trkpt>
      <trkpt lat="38.13176" lon="-4.00312">
        <ele>195.2</ele>
        <time>2022-11-26 09:52:41</time>
      </trkpt>
      <trkpt lat="38.13199" lon="-4.00309">
        <ele>194</ele>
        <time>2022-11-26 09:52:45</time>
      </trkpt>
      <trkpt lat="38.13224" lon="-4.00306">
        <ele>190.6</ele>
        <time>2022-11-26 09:52:49</time>
      </trkpt>
      <trkpt lat="38.13237" lon="-4.00283">
        <ele>187.6</ele>
        <time>2022-11-26 09:52:53</time>
      </trkpt>
      <trkpt lat="38.13247" lon="-4.00261">
        <ele>188.2</ele>
        <time>2022-11-26 09:52:57</time>
      </trkpt>
      <trkpt lat="38.13254" lon="-4.00247">
        <ele>189.2</ele>
        <time>2022-11-26 09:53:01</time>
      </trkpt>
      <trkpt lat="38.13266" lon="-4.00253">
        <ele>189.4</ele>
        <time>2022-11-26 09:53:05</time>
      </trkpt>
      <trkpt lat="38.13283" lon="-4.00255">
        <ele>188</ele>
        <time>2022-11-26 09:53:09</time>
      </trkpt>
      <trkpt lat="38.13303" lon="-4.00252">
        <ele>187</ele>
        <time>2022-11-26 09:53:13</time>
      </trkpt>
      <trkpt lat="38.13326" lon="-4.00247">
        <ele>186</ele>
        <time>2022-11-26 09:53:17</time>
      </trkpt>
      <trkpt lat="38.13352" lon="-4.00242">
        <ele>183.4</ele>
        <time>2022-11-26 09:53:21</time>
      </trkpt>
      <trkpt lat="38.13376" lon="-4.00248">
        <ele>184.6</ele>
        <time>2022-11-26 09:53:25</time>
      </trkpt>
      <trkpt lat="38.13394" lon="-4.0026">
        <ele>185</ele>
        <time>2022-11-26 09:53:29</time>
      </trkpt>
      <trkpt lat="38.13413" lon="-4.00275">
        <ele>184.4</ele>
        <time>2022-11-26 09:53:33</time>
      </trkpt>
      <trkpt lat="38.13434" lon="-4.00289">
        <ele>182.8</ele>
        <time>2022-11-26 09:53:37</time>
      </trkpt>
      <trkpt lat="38.13445" lon="-4.00288">
        <ele>183.8</ele>
        <time>2022-11-26 09:53:41</time>
      </trkpt>
      <trkpt lat="38.13455" lon="-4.0029">
        <ele>183.8</ele>
        <time>2022-11-26 09:53:45</time>
      </trkpt>
      <trkpt lat="38.13469" lon="-4.003">
        <ele>182.8</ele>
        <time>2022-11-26 09:53:49</time>
      </trkpt>
      <trkpt lat="38.13489" lon="-4.00311">
        <ele>181.2</ele>
        <time>2022-11-26 09:53:53</time>
      </trkpt>
      <trkpt lat="38.13507" lon="-4.00318">
        <ele>181.4</ele>
        <time>2022-11-26 09:53:57</time>
      </trkpt>
      <trkpt lat="38.13525" lon="-4.00325">
        <ele>180.8</ele>
        <time>2022-11-26 09:54:01</time>
      </trkpt>
      <trkpt lat="38.13546" lon="-4.00337">
        <ele>179.6</ele>
        <time>2022-11-26 09:54:05</time>
      </trkpt>
      <trkpt lat="38.13567" lon="-4.00354">
        <ele>178.6</ele>
        <time>2022-11-26 09:54:09</time>
      </trkpt>
      <trkpt lat="38.1359" lon="-4.00368">
        <ele>178.2</ele>
        <time>2022-11-26 09:54:13</time>
      </trkpt>
      <trkpt lat="38.13614" lon="-4.00382">
        <ele>177</ele>
        <time>2022-11-26 09:54:17</time>
      </trkpt>
      <trkpt lat="38.13633" lon="-4.00402">
        <ele>177.2</ele>
        <time>2022-11-26 09:54:21</time>
      </trkpt>
      <trkpt lat="38.13653" lon="-4.0042">
        <ele>178.2</ele>
        <time>2022-11-26 09:54:25</time>
      </trkpt>
      <trkpt lat="38.13673" lon="-4.00429">
        <ele>178.6</ele>
        <time>2022-11-26 09:54:29</time>
      </trkpt>
      <trkpt lat="38.13694" lon="-4.00427">
        <ele>179</ele>
        <time>2022-11-26 09:54:33</time>
      </trkpt>
      <trkpt lat="38.13713" lon="-4.00425">
        <ele>180</ele>
        <time>2022-11-26 09:54:37</time>
      </trkpt>
      <trkpt lat="38.13732" lon="-4.00425">
        <ele>180.8</ele>
        <time>2022-11-26 09:54:41</time>
      </trkpt>
      <trkpt lat="38.1374" lon="-4.00416">
        <ele>181.8</ele>
        <time>2022-11-26 09:54:45</time>
      </trkpt>
      <trkpt lat="38.13752" lon="-4.00419">
        <ele>181.8</ele>
        <time>2022-11-26 09:54:49</time>
      </trkpt>
      <trkpt lat="38.13763" lon="-4.00428">
        <ele>181.2</ele>
        <time>2022-11-26 09:54:53</time>
      </trkpt>
      <trkpt lat="38.1378" lon="-4.00441">
        <ele>179.8</ele>
        <time>2022-11-26 09:54:57</time>
      </trkpt>
      <trkpt lat="38.13798" lon="-4.00456">
        <ele>179.2</ele>
        <time>2022-11-26 09:55:01</time>
      </trkpt>
      <trkpt lat="38.13819" lon="-4.00471">
        <ele>178</ele>
        <time>2022-11-26 09:55:05</time>
      </trkpt>
      <trkpt lat="38.1384" lon="-4.00488">
        <ele>177.4</ele>
        <time>2022-11-26 09:55:09</time>
      </trkpt>
      <trkpt lat="38.13861" lon="-4.00501">
        <ele>176</ele>
        <time>2022-11-26 09:55:13</time>
      </trkpt>
      <trkpt lat="38.13888" lon="-4.00514">
        <ele>174.4</ele>
        <time>2022-11-26 09:55:17</time>
      </trkpt>
      <trkpt lat="38.13918" lon="-4.00526">
        <ele>173.4</ele>
        <time>2022-11-26 09:55:21</time>
      </trkpt>
      <trkpt lat="38.13946" lon="-4.00539">
        <ele>170.8</ele>
        <time>2022-11-26 09:55:25</time>
      </trkpt>
      <trkpt lat="38.13975" lon="-4.00562">
        <ele>168.4</ele>
        <time>2022-11-26 09:55:29</time>
      </trkpt>
      <trkpt lat="38.14004" lon="-4.0058">
        <ele>166.8</ele>
        <time>2022-11-26 09:55:33</time>
      </trkpt>
      <trkpt lat="38.14036" lon="-4.006">
        <ele>165.4</ele>
        <time>2022-11-26 09:55:37</time>
      </trkpt>
      <trkpt lat="38.14059" lon="-4.00628">
        <ele>165.8</ele>
        <time>2022-11-26 10:00:54</time>
      </trkpt>
      <trkpt lat="38.1408" lon="-4.00657">
        <ele>164.8</ele>
        <time>2022-11-26 10:00:58</time>
      </trkpt>
      <trkpt lat="38.14102" lon="-4.00685">
        <ele>164.2</ele>
        <time>2022-11-26 10:01:02</time>
      </trkpt>
      <trkpt lat="38.14127" lon="-4.00704">
        <ele>163.6</ele>
        <time>2022-11-26 10:01:06</time>
      </trkpt>
      <trkpt lat="38.14155" lon="-4.00716">
        <ele>161.8</ele>
        <time>2022-11-26 10:01:10</time>
      </trkpt>
      <trkpt lat="38.14181" lon="-4.00727">
        <ele>161.4</ele>
        <time>2022-11-26 10:01:14</time>
      </trkpt>
      <trkpt lat="38.14211" lon="-4.00738">
        <ele>159.2</ele>
        <time>2022-11-26 10:01:18</time>
      </trkpt>
      <trkpt lat="38.14241" lon="-4.00748">
        <ele>158.2</ele>
        <time>2022-11-26 10:01:22</time>
      </trkpt>
      <trkpt lat="38.14272" lon="-4.00758">
        <ele>156.4</ele>
        <time>2022-11-26 10:01:26</time>
      </trkpt>
      <trkpt lat="38.14304" lon="-4.00762">
        <ele>156.6</ele>
        <time>2022-11-26 10:01:30</time>
      </trkpt>
      <trkpt lat="38.14334" lon="-4.00766">
        <ele>154</ele>
        <time>2022-11-26 10:01:34</time>
      </trkpt>
      <trkpt lat="38.14364" lon="-4.00773">
        <ele>153.8</ele>
        <time>2022-11-26 10:01:38</time>
      </trkpt>
      <trkpt lat="38.14393" lon="-4.0078">
        <ele>151.8</ele>
        <time>2022-11-26 10:01:42</time>
      </trkpt>
      <trkpt lat="38.14425" lon="-4.00791">
        <ele>150.8</ele>
        <time>2022-11-26 10:01:46</time>
      </trkpt>
      <trkpt lat="38.14452" lon="-4.00803">
        <ele>151.8</ele>
        <time>2022-11-26 10:01:50</time>
      </trkpt>
      <trkpt lat="38.14479" lon="-4.00812">
        <ele>150.4</ele>
        <time>2022-11-26 10:01:54</time>
      </trkpt>
      <trkpt lat="38.14512" lon="-4.00818">
        <ele>149.2</ele>
        <time>2022-11-26 10:01:58</time>
      </trkpt>
      <trkpt lat="38.14545" lon="-4.00825">
        <ele>146.8</ele>
        <time>2022-11-26 10:02:02</time>
      </trkpt>
      <trkpt lat="38.14573" lon="-4.00828">
        <ele>147.2</ele>
        <time>2022-11-26 10:02:06</time>
      </trkpt>
      <trkpt lat="38.14606" lon="-4.00841">
        <ele>146.2</ele>
        <time>2022-11-26 10:02:10</time>
      </trkpt>
      <trkpt lat="38.14635" lon="-4.00861">
        <ele>146</ele>
        <time>2022-11-26 10:02:14</time>
      </trkpt>
      <trkpt lat="38.1466" lon="-4.0088">
        <ele>146</ele>
        <time>2022-11-26 10:02:18</time>
      </trkpt>
      <trkpt lat="38.14685" lon="-4.00899">
        <ele>145.8</ele>
        <time>2022-11-26 10:02:22</time>
      </trkpt>
      <trkpt lat="38.1471" lon="-4.00922">
        <ele>145.8</ele>
        <time>2022-11-26 10:02:26</time>
      </trkpt>
      <trkpt lat="38.14734" lon="-4.00946">
        <ele>145</ele>
        <time>2022-11-26 10:02:30</time>
      </trkpt>
      <trkpt lat="38.14757" lon="-4.00965">
        <ele>145.2</ele>
        <time>2022-11-26 10:02:34</time>
      </trkpt>
      <trkpt lat="38.14777" lon="-4.00986">
        <ele>146.2</ele>
        <time>2022-11-26 10:02:38</time>
      </trkpt>
      <trkpt lat="38.14792" lon="-4.01008">
        <ele>147</ele>
        <time>2022-11-26 10:02:42</time>
      </trkpt>
      <trkpt lat="38.148" lon="-4.01029">
        <ele>147.8</ele>
        <time>2022-11-26 10:02:46</time>
      </trkpt>
      <trkpt lat="38.14808" lon="-4.01051">
        <ele>147.6</ele>
        <time>2022-11-26 10:02:50</time>
      </trkpt>
      <trkpt lat="38.14817" lon="-4.01075">
        <ele>147.2</ele>
        <time>2022-11-26 10:02:54</time>
      </trkpt>
      <trkpt lat="38.14826" lon="-4.01102">
        <ele>146.8</ele>
        <time>2022-11-26 10:02:58</time>
      </trkpt>
      <trkpt lat="38.14835" lon="-4.0113">
        <ele>146.8</ele>
        <time>2022-11-26 10:03:02</time>
      </trkpt>
      <trkpt lat="38.14842" lon="-4.01157">
        <ele>147.4</ele>
        <time>2022-11-26 10:03:06</time>
      </trkpt>
      <trkpt lat="38.14844" lon="-4.01183">
        <ele>147.2</ele>
        <time>2022-11-26 10:03:10</time>
      </trkpt>
      <trkpt lat="38.14844" lon="-4.0121">
        <ele>147.6</ele>
        <time>2022-11-26 10:03:14</time>
      </trkpt>
      <trkpt lat="38.14844" lon="-4.01237">
        <ele>147</ele>
        <time>2022-11-26 10:03:18</time>
      </trkpt>
      <trkpt lat="38.14846" lon="-4.01267">
        <ele>146.4</ele>
        <time>2022-11-26 10:03:22</time>
      </trkpt>
      <trkpt lat="38.1485" lon="-4.01299">
        <ele>145</ele>
        <time>2022-11-26 10:03:26</time>
      </trkpt>
      <trkpt lat="38.14853" lon="-4.01333">
        <ele>143.8</ele>
        <time>2022-11-26 10:03:30</time>
      </trkpt>
      <trkpt lat="38.14857" lon="-4.01366">
        <ele>143.6</ele>
        <time>2022-11-26 10:03:34</time>
      </trkpt>
      <trkpt lat="38.1486" lon="-4.01399">
        <ele>142.8</ele>
        <time>2022-11-26 10:03:38</time>
      </trkpt>
      <trkpt lat="38.14864" lon="-4.01428">
        <ele>142.8</ele>
        <time>2022-11-26 10:03:42</time>
      </trkpt>
      <trkpt lat="38.14876" lon="-4.01456">
        <ele>143.8</ele>
        <time>2022-11-26 10:03:46</time>
      </trkpt>
      <trkpt lat="38.14893" lon="-4.01472">
        <ele>143.8</ele>
        <time>2022-11-26 10:03:50</time>
      </trkpt>
      <trkpt lat="38.1491" lon="-4.01486">
        <ele>144.2</ele>
        <time>2022-11-26 10:03:54</time>
      </trkpt>
      <trkpt lat="38.14931" lon="-4.01492">
        <ele>143.8</ele>
        <time>2022-11-26 10:03:58</time>
      </trkpt>
      <trkpt lat="38.14954" lon="-4.01497">
        <ele>143.8</ele>
        <time>2022-11-26 10:04:02</time>
      </trkpt>
      <trkpt lat="38.14973" lon="-4.01508">
        <ele>143</ele>
        <time>2022-11-26 10:04:06</time>
      </trkpt>
      <trkpt lat="38.14986" lon="-4.01529">
        <ele>142.6</ele>
        <time>2022-11-26 10:04:10</time>
      </trkpt>
      <trkpt lat="38.14996" lon="-4.01555">
        <ele>142.4</ele>
        <time>2022-11-26 10:04:14</time>
      </trkpt>
      <trkpt lat="38.15007" lon="-4.0158">
        <ele>142.6</ele>
        <time>2022-11-26 10:04:18</time>
      </trkpt>
      <trkpt lat="38.15017" lon="-4.01604">
        <ele>142.2</ele>
        <time>2022-11-26 10:04:22</time>
      </trkpt>
      <trkpt lat="38.15026" lon="-4.01627">
        <ele>142.4</ele>
        <time>2022-11-26 10:04:26</time>
      </trkpt>
      <trkpt lat="38.15036" lon="-4.0165">
        <ele>142.8</ele>
        <time>2022-11-26 10:04:30</time>
      </trkpt>
      <trkpt lat="38.15045" lon="-4.01669">
        <ele>144.2</ele>
        <time>2022-11-26 10:04:34</time>
      </trkpt>
      <trkpt lat="38.15057" lon="-4.01685">
        <ele>144.8</ele>
        <time>2022-11-26 10:04:38</time>
      </trkpt>
      <trkpt lat="38.15071" lon="-4.01696">
        <ele>145</ele>
        <time>2022-11-26 10:04:42</time>
      </trkpt>
      <trkpt lat="38.15087" lon="-4.01698">
        <ele>146</ele>
        <time>2022-11-26 10:04:46</time>
      </trkpt>
      <trkpt lat="38.15102" lon="-4.01697">
        <ele>146.4</ele>
        <time>2022-11-26 10:04:50</time>
      </trkpt>
      <trkpt lat="38.15114" lon="-4.01701">
        <ele>147.2</ele>
        <time>2022-11-26 10:04:54</time>
      </trkpt>
      <trkpt lat="38.15127" lon="-4.01707">
        <ele>148.6</ele>
        <time>2022-11-26 10:04:58</time>
      </trkpt>
      <trkpt lat="38.15138" lon="-4.01716">
        <ele>149.6</ele>
        <time>2022-11-26 10:05:02</time>
      </trkpt>
      <trkpt lat="38.15148" lon="-4.01726">
        <ele>150.6</ele>
        <time>2022-11-26 10:05:06</time>
      </trkpt>
      <trkpt lat="38.15159" lon="-4.01738">
        <ele>149.8</ele>
        <time>2022-11-26 10:05:10</time>
      </trkpt>
      <trkpt lat="38.15169" lon="-4.01753">
        <ele>149.8</ele>
        <time>2022-11-26 10:05:14</time>
      </trkpt>
      <trkpt lat="38.15179" lon="-4.0177">
        <ele>149.8</ele>
        <time>2022-11-26 10:05:18</time>
      </trkpt>
      <trkpt lat="38.15189" lon="-4.01789">
        <ele>149.2</ele>
        <time>2022-11-26 10:05:22</time>
      </trkpt>
      <trkpt lat="38.15199" lon="-4.01808">
        <ele>149.2</ele>
        <time>2022-11-26 10:05:26</time>
      </trkpt>
      <trkpt lat="38.15208" lon="-4.01828">
        <ele>149.4</ele>
        <time>2022-11-26 10:05:30</time>
      </trkpt>
      <trkpt lat="38.15218" lon="-4.01846">
        <ele>148.8</ele>
        <time>2022-11-26 10:05:34</time>
      </trkpt>
      <trkpt lat="38.15229" lon="-4.01868">
        <ele>148.4</ele>
        <time>2022-11-26 10:05:38</time>
      </trkpt>
      <trkpt lat="38.15241" lon="-4.0189">
        <ele>147.6</ele>
        <time>2022-11-26 10:05:42</time>
      </trkpt>
      <trkpt lat="38.15252" lon="-4.01912">
        <ele>147.8</ele>
        <time>2022-11-26 10:05:46</time>
      </trkpt>
      <trkpt lat="38.15263" lon="-4.01933">
        <ele>147.6</ele>
        <time>2022-11-26 10:05:50</time>
      </trkpt>
      <trkpt lat="38.15273" lon="-4.01953">
        <ele>147.6</ele>
        <time>2022-11-26 10:05:54</time>
      </trkpt>
      <trkpt lat="38.15286" lon="-4.01972">
        <ele>147.8</ele>
        <time>2022-11-26 10:05:58</time>
      </trkpt>
      <trkpt lat="38.15303" lon="-4.01985">
        <ele>147.8</ele>
        <time>2022-11-26 10:06:02</time>
      </trkpt>
      <trkpt lat="38.15319" lon="-4.01997">
        <ele>148.2</ele>
        <time>2022-11-26 10:06:06</time>
      </trkpt>
      <trkpt lat="38.15333" lon="-4.02009">
        <ele>148.8</ele>
        <time>2022-11-26 10:06:10</time>
      </trkpt>
      <trkpt lat="38.15348" lon="-4.02019">
        <ele>149.6</ele>
        <time>2022-11-26 10:06:14</time>
      </trkpt>
      <trkpt lat="38.15362" lon="-4.0203">
        <ele>149.8</ele>
        <time>2022-11-26 10:06:18</time>
      </trkpt>
      <trkpt lat="38.15375" lon="-4.0204">
        <ele>150.4</ele>
        <time>2022-11-26 10:06:22</time>
      </trkpt>
      <trkpt lat="38.15389" lon="-4.0205">
        <ele>151.4</ele>
        <time>2022-11-26 10:06:26</time>
      </trkpt>
      <trkpt lat="38.15403" lon="-4.0206">
        <ele>151.6</ele>
        <time>2022-11-26 10:06:30</time>
      </trkpt>
      <trkpt lat="38.15416" lon="-4.0207">
        <ele>152.2</ele>
        <time>2022-11-26 10:06:34</time>
      </trkpt>
      <trkpt lat="38.15429" lon="-4.0208">
        <ele>152.8</ele>
        <time>2022-11-26 10:06:38</time>
      </trkpt>
      <trkpt lat="38.15442" lon="-4.0209">
        <ele>153.4</ele>
        <time>2022-11-26 10:06:42</time>
      </trkpt>
      <trkpt lat="38.15455" lon="-4.02099">
        <ele>154.4</ele>
        <time>2022-11-26 10:06:46</time>
      </trkpt>
      <trkpt lat="38.15469" lon="-4.02109">
        <ele>154.8</ele>
        <time>2022-11-26 10:06:50</time>
      </trkpt>
      <trkpt lat="38.15483" lon="-4.02114">
        <ele>155.2</ele>
        <time>2022-11-26 10:06:54</time>
      </trkpt>
      <trkpt lat="38.15496" lon="-4.02116">
        <ele>156.4</ele>
        <time>2022-11-26 10:06:58</time>
      </trkpt>
      <trkpt lat="38.1551" lon="-4.02112">
        <ele>156.8</ele>
        <time>2022-11-26 10:07:02</time>
      </trkpt>
      <trkpt lat="38.15523" lon="-4.02107">
        <ele>157.6</ele>
        <time>2022-11-26 10:07:06</time>
      </trkpt>
      <trkpt lat="38.15537" lon="-4.02102">
        <ele>158.4</ele>
        <time>2022-11-26 10:07:10</time>
      </trkpt>
      <trkpt lat="38.15549" lon="-4.021">
        <ele>158.8</ele>
        <time>2022-11-26 10:07:14</time>
      </trkpt>
      <trkpt lat="38.15563" lon="-4.02101">
        <ele>160</ele>
        <time>2022-11-26 10:07:18</time>
      </trkpt>
      <trkpt lat="38.15575" lon="-4.02106">
        <ele>160.2</ele>
        <time>2022-11-26 10:07:22</time>
      </trkpt>
      <trkpt lat="38.15587" lon="-4.0211">
        <ele>161.2</ele>
        <time>2022-11-26 10:07:26</time>
      </trkpt>
      <trkpt lat="38.15599" lon="-4.02113">
        <ele>161.8</ele>
        <time>2022-11-26 10:07:30</time>
      </trkpt>
      <trkpt lat="38.15612" lon="-4.02111">
        <ele>162.4</ele>
        <time>2022-11-26 10:07:34</time>
      </trkpt>
      <trkpt lat="38.15624" lon="-4.02105">
        <ele>163.4</ele>
        <time>2022-11-26 10:07:38</time>
      </trkpt>
      <trkpt lat="38.15632" lon="-4.02095">
        <ele>164.4</ele>
        <time>2022-11-26 10:07:42</time>
      </trkpt>
      <trkpt lat="38.15641" lon="-4.02084">
        <ele>164.8</ele>
        <time>2022-11-26 10:07:46</time>
      </trkpt>
      <trkpt lat="38.1565" lon="-4.02073">
        <ele>165.8</ele>
        <time>2022-11-26 10:07:50</time>
      </trkpt>
      <trkpt lat="38.1566" lon="-4.02064">
        <ele>167</ele>
        <time>2022-11-26 10:07:54</time>
      </trkpt>
      <trkpt lat="38.15672" lon="-4.0206">
        <ele>167</ele>
        <time>2022-11-26 10:07:58</time>
      </trkpt>
      <trkpt lat="38.15686" lon="-4.02063">
        <ele>167.2</ele>
        <time>2022-11-26 10:08:02</time>
      </trkpt>
      <trkpt lat="38.15698" lon="-4.02068">
        <ele>168</ele>
        <time>2022-11-26 10:08:06</time>
      </trkpt>
      <trkpt lat="38.15711" lon="-4.02073">
        <ele>168.2</ele>
        <time>2022-11-26 10:08:10</time>
      </trkpt>
      <trkpt lat="38.15724" lon="-4.02079">
        <ele>168.2</ele>
        <time>2022-11-26 10:08:14</time>
      </trkpt>
      <trkpt lat="38.15736" lon="-4.02085">
        <ele>169</ele>
        <time>2022-11-26 10:08:18</time>
      </trkpt>
      <trkpt lat="38.15749" lon="-4.0209">
        <ele>169.6</ele>
        <time>2022-11-26 10:08:22</time>
      </trkpt>
      <trkpt lat="38.15762" lon="-4.02095">
        <ele>169.8</ele>
        <time>2022-11-26 10:08:26</time>
      </trkpt>
      <trkpt lat="38.15774" lon="-4.021">
        <ele>170.2</ele>
        <time>2022-11-26 10:08:30</time>
      </trkpt>
      <trkpt lat="38.15786" lon="-4.02099">
        <ele>170.8</ele>
        <time>2022-11-26 10:08:34</time>
      </trkpt>
      <trkpt lat="38.15799" lon="-4.02092">
        <ele>171.4</ele>
        <time>2022-11-26 10:08:38</time>
      </trkpt>
      <trkpt lat="38.15809" lon="-4.02082">
        <ele>172.2</ele>
        <time>2022-11-26 10:08:42</time>
      </trkpt>
      <trkpt lat="38.15821" lon="-4.02073">
        <ele>173</ele>
        <time>2022-11-26 10:08:46</time>
      </trkpt>
      <trkpt lat="38.15832" lon="-4.02071">
        <ele>173</ele>
        <time>2022-11-26 10:08:50</time>
      </trkpt>
      <trkpt lat="38.15845" lon="-4.02072">
        <ele>173.8</ele>
        <time>2022-11-26 10:08:54</time>
      </trkpt>
      <trkpt lat="38.15858" lon="-4.02073">
        <ele>174.8</ele>
        <time>2022-11-26 10:08:58</time>
      </trkpt>
      <trkpt lat="38.1587" lon="-4.02068">
        <ele>175.8</ele>
        <time>2022-11-26 10:09:02</time>
      </trkpt>
      <trkpt lat="38.15882" lon="-4.0206">
        <ele>176.4</ele>
        <time>2022-11-26 10:09:06</time>
      </trkpt>
      <trkpt lat="38.15893" lon="-4.02052">
        <ele>177.4</ele>
        <time>2022-11-26 10:09:10</time>
      </trkpt>
      <trkpt lat="38.15904" lon="-4.02045">
        <ele>178.6</ele>
        <time>2022-11-26 10:09:14</time>
      </trkpt>
      <trkpt lat="38.15917" lon="-4.02042">
        <ele>178.6</ele>
        <time>2022-11-26 10:09:18</time>
      </trkpt>
      <trkpt lat="38.15929" lon="-4.02036">
        <ele>179.2</ele>
        <time>2022-11-26 10:09:22</time>
      </trkpt>
      <trkpt lat="38.15937" lon="-4.02023">
        <ele>180.4</ele>
        <time>2022-11-26 10:09:26</time>
      </trkpt>
      <trkpt lat="38.15942" lon="-4.0201">
        <ele>181.2</ele>
        <time>2022-11-26 10:09:30</time>
      </trkpt>
      <trkpt lat="38.1595" lon="-4.01997">
        <ele>182</ele>
        <time>2022-11-26 10:09:34</time>
      </trkpt>
      <trkpt lat="38.15961" lon="-4.01989">
        <ele>183.4</ele>
        <time>2022-11-26 10:09:38</time>
      </trkpt>
      <trkpt lat="38.15973" lon="-4.01989">
        <ele>184.4</ele>
        <time>2022-11-26 10:09:42</time>
      </trkpt>
      <trkpt lat="38.15985" lon="-4.01993">
        <ele>185.4</ele>
        <time>2022-11-26 10:09:46</time>
      </trkpt>
      <trkpt lat="38.15996" lon="-4.01999">
        <ele>185.8</ele>
        <time>2022-11-26 10:09:50</time>
      </trkpt>
      <trkpt lat="38.16006" lon="-4.02007">
        <ele>186.6</ele>
        <time>2022-11-26 10:09:54</time>
      </trkpt>
      <trkpt lat="38.16017" lon="-4.02016">
        <ele>187.4</ele>
        <time>2022-11-26 10:09:58</time>
      </trkpt>
      <trkpt lat="38.16027" lon="-4.02024">
        <ele>187.6</ele>
        <time>2022-11-26 10:10:02</time>
      </trkpt>
      <trkpt lat="38.16038" lon="-4.02031">
        <ele>188.8</ele>
        <time>2022-11-26 10:10:06</time>
      </trkpt>
      <trkpt lat="38.16049" lon="-4.02031">
        <ele>189.6</ele>
        <time>2022-11-26 10:10:10</time>
      </trkpt>
      <trkpt lat="38.16059" lon="-4.02026">
        <ele>190.6</ele>
        <time>2022-11-26 10:10:14</time>
      </trkpt>
      <trkpt lat="38.16069" lon="-4.0202">
        <ele>192.2</ele>
        <time>2022-11-26 10:10:18</time>
      </trkpt>
      <trkpt lat="38.16078" lon="-4.02012">
        <ele>192.6</ele>
        <time>2022-11-26 10:10:22</time>
      </trkpt>
      <trkpt lat="38.16084" lon="-4.02">
        <ele>193.6</ele>
        <time>2022-11-26 10:10:26</time>
      </trkpt>
      <trkpt lat="38.16086" lon="-4.01986">
        <ele>194.2</ele>
        <time>2022-11-26 10:10:30</time>
      </trkpt>
      <trkpt lat="38.16092" lon="-4.01973">
        <ele>195.4</ele>
        <time>2022-11-26 10:10:34</time>
      </trkpt>
      <trkpt lat="38.16102" lon="-4.01964">
        <ele>195.6</ele>
        <time>2022-11-26 10:10:38</time>
      </trkpt>
      <trkpt lat="38.16112" lon="-4.01958">
        <ele>196</ele>
        <time>2022-11-26 10:10:42</time>
      </trkpt>
      <trkpt lat="38.16121" lon="-4.01949">
        <ele>196.8</ele>
        <time>2022-11-26 10:10:46</time>
      </trkpt>
      <trkpt lat="38.16129" lon="-4.01938">
        <ele>197.8</ele>
        <time>2022-11-26 10:10:50</time>
      </trkpt>
      <trkpt lat="38.16135" lon="-4.01927">
        <ele>198.4</ele>
        <time>2022-11-26 10:10:54</time>
      </trkpt>
      <trkpt lat="38.16141" lon="-4.01918">
        <ele>199.2</ele>
        <time>2022-11-26 10:10:58</time>
      </trkpt>
      <trkpt lat="38.16146" lon="-4.0191">
        <ele>200.2</ele>
        <time>2022-11-26 10:11:02</time>
      </trkpt>
      <trkpt lat="38.16155" lon="-4.01902">
        <ele>201.2</ele>
        <time>2022-11-26 10:11:06</time>
      </trkpt>
      <trkpt lat="38.16165" lon="-4.01895">
        <ele>201.6</ele>
        <time>2022-11-26 10:11:10</time>
      </trkpt>
      <trkpt lat="38.16176" lon="-4.0189">
        <ele>202</ele>
        <time>2022-11-26 10:11:14</time>
      </trkpt>
      <trkpt lat="38.16186" lon="-4.01883">
        <ele>202.8</ele>
        <time>2022-11-26 10:11:18</time>
      </trkpt>
      <trkpt lat="38.16195" lon="-4.01876">
        <ele>203.8</ele>
        <time>2022-11-26 10:11:22</time>
      </trkpt>
      <trkpt lat="38.16202" lon="-4.01867">
        <ele>204.6</ele>
        <time>2022-11-26 10:11:26</time>
      </trkpt>
      <trkpt lat="38.16209" lon="-4.01857">
        <ele>204.8</ele>
        <time>2022-11-26 10:11:30</time>
      </trkpt>
      <trkpt lat="38.16215" lon="-4.01846">
        <ele>205.8</ele>
        <time>2022-11-26 10:11:34</time>
      </trkpt>
      <trkpt lat="38.16221" lon="-4.01834">
        <ele>206.6</ele>
        <time>2022-11-26 10:11:38</time>
      </trkpt>
      <trkpt lat="38.16225" lon="-4.01824">
        <ele>206.8</ele>
        <time>2022-11-26 10:11:42</time>
      </trkpt>
      <trkpt lat="38.1623" lon="-4.01812">
        <ele>207.8</ele>
        <time>2022-11-26 10:11:46</time>
      </trkpt>
      <trkpt lat="38.16237" lon="-4.01801">
        <ele>208.8</ele>
        <time>2022-11-26 10:11:50</time>
      </trkpt>
      <trkpt lat="38.16245" lon="-4.01793">
        <ele>209.4</ele>
        <time>2022-11-26 10:11:54</time>
      </trkpt>
      <trkpt lat="38.16256" lon="-4.01786">
        <ele>210</ele>
        <time>2022-11-26 10:11:58</time>
      </trkpt>
      <trkpt lat="38.16266" lon="-4.0178">
        <ele>210.4</ele>
        <time>2022-11-26 10:12:02</time>
      </trkpt>
      <trkpt lat="38.16277" lon="-4.01774">
        <ele>211.2</ele>
        <time>2022-11-26 10:12:06</time>
      </trkpt>
      <trkpt lat="38.16286" lon="-4.01768">
        <ele>211.8</ele>
        <time>2022-11-26 10:12:10</time>
      </trkpt>
      <trkpt lat="38.16296" lon="-4.01761">
        <ele>211.8</ele>
        <time>2022-11-26 10:12:14</time>
      </trkpt>
      <trkpt lat="38.16307" lon="-4.01754">
        <ele>212.8</ele>
        <time>2022-11-26 10:12:18</time>
      </trkpt>
      <trkpt lat="38.16317" lon="-4.01746">
        <ele>213.6</ele>
        <time>2022-11-26 10:12:22</time>
      </trkpt>
      <trkpt lat="38.16326" lon="-4.01738">
        <ele>214.2</ele>
        <time>2022-11-26 10:12:26</time>
      </trkpt>
      <trkpt lat="38.16336" lon="-4.0173">
        <ele>214.4</ele>
        <time>2022-11-26 10:12:30</time>
      </trkpt>
      <trkpt lat="38.16343" lon="-4.0172">
        <ele>215.6</ele>
        <time>2022-11-26 10:12:34</time>
      </trkpt>
      <trkpt lat="38.1635" lon="-4.01709">
        <ele>216.2</ele>
        <time>2022-11-26 10:12:38</time>
      </trkpt>
      <trkpt lat="38.16356" lon="-4.01698">
        <ele>216.8</ele>
        <time>2022-11-26 10:12:42</time>
      </trkpt>
      <trkpt lat="38.16361" lon="-4.01686">
        <ele>217.8</ele>
        <time>2022-11-26 10:12:46</time>
      </trkpt>
      <trkpt lat="38.16365" lon="-4.01673">
        <ele>219</ele>
        <time>2022-11-26 10:12:50</time>
      </trkpt>
      <trkpt lat="38.16368" lon="-4.01661">
        <ele>220</ele>
        <time>2022-11-26 10:12:54</time>
      </trkpt>
      <trkpt lat="38.16372" lon="-4.01648">
        <ele>220.4</ele>
        <time>2022-11-26 10:12:58</time>
      </trkpt>
      <trkpt lat="38.16375" lon="-4.01636">
        <ele>221.4</ele>
        <time>2022-11-26 10:13:02</time>
      </trkpt>
      <trkpt lat="38.16379" lon="-4.01624">
        <ele>221.8</ele>
        <time>2022-11-26 10:13:06</time>
      </trkpt>
      <trkpt lat="38.16381" lon="-4.01612">
        <ele>222.6</ele>
        <time>2022-11-26 10:13:10</time>
      </trkpt>
      <trkpt lat="38.16384" lon="-4.016">
        <ele>223.4</ele>
        <time>2022-11-26 10:13:14</time>
      </trkpt>
      <trkpt lat="38.16392" lon="-4.01587">
        <ele>224.2</ele>
        <time>2022-11-26 10:13:18</time>
      </trkpt>
      <trkpt lat="38.16402" lon="-4.01581">
        <ele>224.8</ele>
        <time>2022-11-26 10:13:22</time>
      </trkpt>
      <trkpt lat="38.16412" lon="-4.0158">
        <ele>225.6</ele>
        <time>2022-11-26 10:13:26</time>
      </trkpt>
      <trkpt lat="38.16422" lon="-4.01581">
        <ele>226.4</ele>
        <time>2022-11-26 10:13:30</time>
      </trkpt>
      <trkpt lat="38.1643" lon="-4.01579">
        <ele>227</ele>
        <time>2022-11-26 10:13:34</time>
      </trkpt>
      <trkpt lat="38.16441" lon="-4.01572">
        <ele>228</ele>
        <time>2022-11-26 10:13:38</time>
      </trkpt>
      <trkpt lat="38.16451" lon="-4.01566">
        <ele>228.6</ele>
        <time>2022-11-26 10:13:42</time>
      </trkpt>
      <trkpt lat="38.16461" lon="-4.01559">
        <ele>229.6</ele>
        <time>2022-11-26 10:13:46</time>
      </trkpt>
      <trkpt lat="38.16471" lon="-4.01551">
        <ele>230.4</ele>
        <time>2022-11-26 10:13:50</time>
      </trkpt>
      <trkpt lat="38.1648" lon="-4.01545">
        <ele>230.8</ele>
        <time>2022-11-26 10:13:54</time>
      </trkpt>
      <trkpt lat="38.1649" lon="-4.01538">
        <ele>231.4</ele>
        <time>2022-11-26 10:13:58</time>
      </trkpt>
      <trkpt lat="38.16499" lon="-4.01531">
        <ele>232.6</ele>
        <time>2022-11-26 10:14:02</time>
      </trkpt>
      <trkpt lat="38.16508" lon="-4.01523">
        <ele>232.4</ele>
        <time>2022-11-26 10:14:06</time>
      </trkpt>
      <trkpt lat="38.16511" lon="-4.01511">
        <ele>233.2</ele>
        <time>2022-11-26 10:14:10</time>
      </trkpt>
      <trkpt lat="38.16511" lon="-4.01498">
        <ele>234.2</ele>
        <time>2022-11-26 10:14:14</time>
      </trkpt>
      <trkpt lat="38.16514" lon="-4.01484">
        <ele>235.2</ele>
        <time>2022-11-26 10:14:18</time>
      </trkpt>
      <trkpt lat="38.16518" lon="-4.01472">
        <ele>235.8</ele>
        <time>2022-11-26 10:14:22</time>
      </trkpt>
      <trkpt lat="38.16526" lon="-4.01462">
        <ele>236.6</ele>
        <time>2022-11-26 10:14:26</time>
      </trkpt>
      <trkpt lat="38.16531" lon="-4.01459">
        <ele>237.6</ele>
        <time>2022-11-26 10:14:30</time>
      </trkpt>
      <trkpt lat="38.16539" lon="-4.01455">
        <ele>238.4</ele>
        <time>2022-11-26 10:14:34</time>
      </trkpt>
      <trkpt lat="38.16547" lon="-4.01449">
        <ele>239</ele>
        <time>2022-11-26 10:14:38</time>
      </trkpt>
      <trkpt lat="38.16554" lon="-4.01442">
        <ele>239.6</ele>
        <time>2022-11-26 10:14:42</time>
      </trkpt>
      <trkpt lat="38.1656" lon="-4.0143">
        <ele>240</ele>
        <time>2022-11-26 10:14:46</time>
      </trkpt>
      <trkpt lat="38.16559" lon="-4.01417">
        <ele>240.2</ele>
        <time>2022-11-26 10:14:50</time>
      </trkpt>
      <trkpt lat="38.16557" lon="-4.01403">
        <ele>241.2</ele>
        <time>2022-11-26 10:14:54</time>
      </trkpt>
      <trkpt lat="38.16559" lon="-4.01388">
        <ele>241.4</ele>
        <time>2022-11-26 10:14:58</time>
      </trkpt>
      <trkpt lat="38.16566" lon="-4.01375">
        <ele>241.6</ele>
        <time>2022-11-26 10:15:02</time>
      </trkpt>
      <trkpt lat="38.16575" lon="-4.01368">
        <ele>242.6</ele>
        <time>2022-11-26 10:15:06</time>
      </trkpt>
      <trkpt lat="38.16585" lon="-4.01367">
        <ele>242.8</ele>
        <time>2022-11-26 10:15:10</time>
      </trkpt>
      <trkpt lat="38.16596" lon="-4.01368">
        <ele>243.8</ele>
        <time>2022-11-26 10:15:14</time>
      </trkpt>
      <trkpt lat="38.16607" lon="-4.01365">
        <ele>244.2</ele>
        <time>2022-11-26 10:15:18</time>
      </trkpt>
      <trkpt lat="38.16612" lon="-4.01354">
        <ele>245</ele>
        <time>2022-11-26 10:15:22</time>
      </trkpt>
      <trkpt lat="38.16613" lon="-4.0134">
        <ele>246.4</ele>
        <time>2022-11-26 10:15:26</time>
      </trkpt>
      <trkpt lat="38.16611" lon="-4.01329">
        <ele>247.4</ele>
        <time>2022-11-26 10:15:30</time>
      </trkpt>
      <trkpt lat="38.16612" lon="-4.01318">
        <ele>248.6</ele>
        <time>2022-11-26 10:15:34</time>
      </trkpt>
      <trkpt lat="38.16615" lon="-4.01305">
        <ele>249</ele>
        <time>2022-11-26 10:15:38</time>
      </trkpt>
      <trkpt lat="38.1662" lon="-4.01295">
        <ele>249.8</ele>
        <time>2022-11-26 10:15:42</time>
      </trkpt>
      <trkpt lat="38.16631" lon="-4.0129">
        <ele>250.2</ele>
        <time>2022-11-26 10:15:46</time>
      </trkpt>
      <trkpt lat="38.16641" lon="-4.01295">
        <ele>250.8</ele>
        <time>2022-11-26 10:15:50</time>
      </trkpt>
      <trkpt lat="38.16649" lon="-4.01302">
        <ele>251.6</ele>
        <time>2022-11-26 10:15:54</time>
      </trkpt>
      <trkpt lat="38.16657" lon="-4.01311">
        <ele>252</ele>
        <time>2022-11-26 10:15:58</time>
      </trkpt>
      <trkpt lat="38.16666" lon="-4.01317">
        <ele>252.8</ele>
        <time>2022-11-26 10:16:02</time>
      </trkpt>
      <trkpt lat="38.16676" lon="-4.01317">
        <ele>253.8</ele>
        <time>2022-11-26 10:16:06</time>
      </trkpt>
      <trkpt lat="38.16686" lon="-4.01312">
        <ele>254.4</ele>
        <time>2022-11-26 10:16:10</time>
      </trkpt>
      <trkpt lat="38.16696" lon="-4.01305">
        <ele>254.4</ele>
        <time>2022-11-26 10:16:14</time>
      </trkpt>
      <trkpt lat="38.16705" lon="-4.01297">
        <ele>255</ele>
        <time>2022-11-26 10:16:18</time>
      </trkpt>
      <trkpt lat="38.16714" lon="-4.01288">
        <ele>256</ele>
        <time>2022-11-26 10:16:22</time>
      </trkpt>
      <trkpt lat="38.1672" lon="-4.01276">
        <ele>256.4</ele>
        <time>2022-11-26 10:16:26</time>
      </trkpt>
      <trkpt lat="38.1672" lon="-4.01265">
        <ele>257</ele>
        <time>2022-11-26 10:16:30</time>
      </trkpt>
      <trkpt lat="38.1672" lon="-4.01253">
        <ele>257.6</ele>
        <time>2022-11-26 10:16:34</time>
      </trkpt>
      <trkpt lat="38.16718" lon="-4.0124">
        <ele>257.8</ele>
        <time>2022-11-26 10:16:38</time>
      </trkpt>
      <trkpt lat="38.16715" lon="-4.01228">
        <ele>258.8</ele>
        <time>2022-11-26 10:16:42</time>
      </trkpt>
      <trkpt lat="38.16713" lon="-4.01216">
        <ele>259.2</ele>
        <time>2022-11-26 10:16:46</time>
      </trkpt>
      <trkpt lat="38.16712" lon="-4.01205">
        <ele>260</ele>
        <time>2022-11-26 10:16:50</time>
      </trkpt>
      <trkpt lat="38.16711" lon="-4.01192">
        <ele>260.6</ele>
        <time>2022-11-26 10:16:54</time>
      </trkpt>
      <trkpt lat="38.16712" lon="-4.0118">
        <ele>261</ele>
        <time>2022-11-26 10:16:58</time>
      </trkpt>
      <trkpt lat="38.16716" lon="-4.01168">
        <ele>261.6</ele>
        <time>2022-11-26 10:17:02</time>
      </trkpt>
      <trkpt lat="38.16723" lon="-4.01159">
        <ele>262.4</ele>
        <time>2022-11-26 10:17:06</time>
      </trkpt>
      <trkpt lat="38.16733" lon="-4.01154">
        <ele>263.2</ele>
        <time>2022-11-26 10:17:10</time>
      </trkpt>
      <trkpt lat="38.16743" lon="-4.01148">
        <ele>264</ele>
        <time>2022-11-26 10:17:14</time>
      </trkpt>
      <trkpt lat="38.16751" lon="-4.01139">
        <ele>264</ele>
        <time>2022-11-26 10:17:18</time>
      </trkpt>
      <trkpt lat="38.16756" lon="-4.01128">
        <ele>265.4</ele>
        <time>2022-11-26 10:17:22</time>
      </trkpt>
      <trkpt lat="38.16756" lon="-4.01116">
        <ele>266.2</ele>
        <time>2022-11-26 10:17:26</time>
      </trkpt>
      <trkpt lat="38.16755" lon="-4.01104">
        <ele>267.2</ele>
        <time>2022-11-26 10:17:30</time>
      </trkpt>
      <trkpt lat="38.16754" lon="-4.01096">
        <ele>267.4</ele>
        <time>2022-11-26 10:17:34</time>
      </trkpt>
      <trkpt lat="38.16756" lon="-4.01085">
        <ele>268</ele>
        <time>2022-11-26 10:17:38</time>
      </trkpt>
      <trkpt lat="38.16759" lon="-4.01072">
        <ele>269.2</ele>
        <time>2022-11-26 10:17:42</time>
      </trkpt>
      <trkpt lat="38.16764" lon="-4.01057">
        <ele>270.2</ele>
        <time>2022-11-26 10:17:46</time>
      </trkpt>
      <trkpt lat="38.16769" lon="-4.01045">
        <ele>271</ele>
        <time>2022-11-26 10:17:50</time>
      </trkpt>
      <trkpt lat="38.16776" lon="-4.01035">
        <ele>272.4</ele>
        <time>2022-11-26 10:17:54</time>
      </trkpt>
      <trkpt lat="38.16786" lon="-4.01027">
        <ele>273.2</ele>
        <time>2022-11-26 10:17:58</time>
      </trkpt>
      <trkpt lat="38.16796" lon="-4.01025">
        <ele>274</ele>
        <time>2022-11-26 10:18:02</time>
      </trkpt>
      <trkpt lat="38.16805" lon="-4.01027">
        <ele>274.6</ele>
        <time>2022-11-26 10:18:06</time>
      </trkpt>
      <trkpt lat="38.16813" lon="-4.01028">
        <ele>275.6</ele>
        <time>2022-11-26 10:18:10</time>
      </trkpt>
      <trkpt lat="38.16823" lon="-4.01032">
        <ele>275.8</ele>
        <time>2022-11-26 10:18:14</time>
      </trkpt>
      <trkpt lat="38.16832" lon="-4.01035">
        <ele>276.6</ele>
        <time>2022-11-26 10:18:18</time>
      </trkpt>
      <trkpt lat="38.16841" lon="-4.0104">
        <ele>277.8</ele>
        <time>2022-11-26 10:18:22</time>
      </trkpt>
      <trkpt lat="38.16851" lon="-4.01044">
        <ele>278.8</ele>
        <time>2022-11-26 10:18:26</time>
      </trkpt>
      <trkpt lat="38.1686" lon="-4.01049">
        <ele>279.6</ele>
        <time>2022-11-26 10:18:30</time>
      </trkpt>
      <trkpt lat="38.16869" lon="-4.01053">
        <ele>280.8</ele>
        <time>2022-11-26 10:18:34</time>
      </trkpt>
      <trkpt lat="38.16879" lon="-4.0106">
        <ele>281.4</ele>
        <time>2022-11-26 10:18:38</time>
      </trkpt>
      <trkpt lat="38.16887" lon="-4.0107">
        <ele>282</ele>
        <time>2022-11-26 10:18:42</time>
      </trkpt>
      <trkpt lat="38.16894" lon="-4.01081">
        <ele>283</ele>
        <time>2022-11-26 10:18:46</time>
      </trkpt>
      <trkpt lat="38.16899" lon="-4.01093">
        <ele>283</ele>
        <time>2022-11-26 10:18:50</time>
      </trkpt>
      <trkpt lat="38.16904" lon="-4.01106">
        <ele>283.8</ele>
        <time>2022-11-26 10:18:54</time>
      </trkpt>
      <trkpt lat="38.1691" lon="-4.01118">
        <ele>284.6</ele>
        <time>2022-11-26 10:18:58</time>
      </trkpt>
      <trkpt lat="38.16918" lon="-4.01126">
        <ele>284.8</ele>
        <time>2022-11-26 10:19:02</time>
      </trkpt>
      <trkpt lat="38.16928" lon="-4.0113">
        <ele>285.4</ele>
        <time>2022-11-26 10:19:06</time>
      </trkpt>
      <trkpt lat="38.16937" lon="-4.01133">
        <ele>286.8</ele>
        <time>2022-11-26 10:19:10</time>
      </trkpt>
      <trkpt lat="38.16945" lon="-4.01137">
        <ele>287.8</ele>
        <time>2022-11-26 10:19:14</time>
      </trkpt>
      <trkpt lat="38.16955" lon="-4.01142">
        <ele>288.2</ele>
        <time>2022-11-26 10:19:18</time>
      </trkpt>
      <trkpt lat="38.16966" lon="-4.0115">
        <ele>289.6</ele>
        <time>2022-11-26 10:19:22</time>
      </trkpt>
      <trkpt lat="38.16975" lon="-4.01159">
        <ele>290.4</ele>
        <time>2022-11-26 10:19:26</time>
      </trkpt>
      <trkpt lat="38.16983" lon="-4.01167">
        <ele>291.6</ele>
        <time>2022-11-26 10:19:30</time>
      </trkpt>
      <trkpt lat="38.16991" lon="-4.01177">
        <ele>292.2</ele>
        <time>2022-11-26 10:19:34</time>
      </trkpt>
      <trkpt lat="38.16995" lon="-4.01189">
        <ele>292.6</ele>
        <time>2022-11-26 10:19:38</time>
      </trkpt>
      <trkpt lat="38.17002" lon="-4.01201">
        <ele>293.2</ele>
        <time>2022-11-26 10:19:42</time>
      </trkpt>
      <trkpt lat="38.17007" lon="-4.01212">
        <ele>293.8</ele>
        <time>2022-11-26 10:19:46</time>
      </trkpt>
      <trkpt lat="38.17016" lon="-4.01221">
        <ele>295</ele>
        <time>2022-11-26 10:19:50</time>
      </trkpt>
      <trkpt lat="38.17026" lon="-4.01225">
        <ele>295</ele>
        <time>2022-11-26 10:19:54</time>
      </trkpt>
      <trkpt lat="38.17037" lon="-4.01227">
        <ele>296</ele>
        <time>2022-11-26 10:19:58</time>
      </trkpt>
      <trkpt lat="38.17046" lon="-4.01226">
        <ele>296.8</ele>
        <time>2022-11-26 10:20:02</time>
      </trkpt>
      <trkpt lat="38.17054" lon="-4.01227">
        <ele>297.8</ele>
        <time>2022-11-26 10:20:06</time>
      </trkpt>
      <trkpt lat="38.17063" lon="-4.01229">
        <ele>298.4</ele>
        <time>2022-11-26 10:20:10</time>
      </trkpt>
      <trkpt lat="38.17072" lon="-4.01233">
        <ele>298.4</ele>
        <time>2022-11-26 10:20:14</time>
      </trkpt>
      <trkpt lat="38.17081" lon="-4.01238">
        <ele>299.6</ele>
        <time>2022-11-26 10:20:18</time>
      </trkpt>
      <trkpt lat="38.1709" lon="-4.01242">
        <ele>300.2</ele>
        <time>2022-11-26 10:20:22</time>
      </trkpt>
      <trkpt lat="38.17099" lon="-4.01248">
        <ele>301.2</ele>
        <time>2022-11-26 10:20:26</time>
      </trkpt>
      <trkpt lat="38.17105" lon="-4.01257">
        <ele>301.8</ele>
        <time>2022-11-26 10:20:30</time>
      </trkpt>
      <trkpt lat="38.17109" lon="-4.01269">
        <ele>302</ele>
        <time>2022-11-26 10:20:34</time>
      </trkpt>
      <trkpt lat="38.17111" lon="-4.01282">
        <ele>302.6</ele>
        <time>2022-11-26 10:20:38</time>
      </trkpt>
      <trkpt lat="38.17112" lon="-4.01295">
        <ele>303</ele>
        <time>2022-11-26 10:20:42</time>
      </trkpt>
      <trkpt lat="38.17115" lon="-4.01308">
        <ele>303.4</ele>
        <time>2022-11-26 10:20:46</time>
      </trkpt>
      <trkpt lat="38.17122" lon="-4.01318">
        <ele>304</ele>
        <time>2022-11-26 10:20:50</time>
      </trkpt>
      <trkpt lat="38.17132" lon="-4.01319">
        <ele>304.6</ele>
        <time>2022-11-26 10:20:54</time>
      </trkpt>
      <trkpt lat="38.17141" lon="-4.01321">
        <ele>305.8</ele>
        <time>2022-11-26 10:20:58</time>
      </trkpt>
      <trkpt lat="38.17148" lon="-4.01319">
        <ele>305.8</ele>
        <time>2022-11-26 10:21:02</time>
      </trkpt>
      <trkpt lat="38.17158" lon="-4.01316">
        <ele>306.4</ele>
        <time>2022-11-26 10:21:06</time>
      </trkpt>
      <trkpt lat="38.17167" lon="-4.01317">
        <ele>307</ele>
        <time>2022-11-26 10:21:10</time>
      </trkpt>
      <trkpt lat="38.17179" lon="-4.01318">
        <ele>307.6</ele>
        <time>2022-11-26 10:21:14</time>
      </trkpt>
      <trkpt lat="38.17192" lon="-4.01321">
        <ele>307.6</ele>
        <time>2022-11-26 10:21:18</time>
      </trkpt>
      <trkpt lat="38.17203" lon="-4.01323">
        <ele>308.4</ele>
        <time>2022-11-26 10:21:22</time>
      </trkpt>
      <trkpt lat="38.17215" lon="-4.01325">
        <ele>309.2</ele>
        <time>2022-11-26 10:21:26</time>
      </trkpt>
      <trkpt lat="38.17226" lon="-4.01322">
        <ele>310.4</ele>
        <time>2022-11-26 10:21:30</time>
      </trkpt>
      <trkpt lat="38.17234" lon="-4.01313">
        <ele>310.4</ele>
        <time>2022-11-26 10:21:34</time>
      </trkpt>
      <trkpt lat="38.17239" lon="-4.01299">
        <ele>311</ele>
        <time>2022-11-26 10:21:38</time>
      </trkpt>
      <trkpt lat="38.1724" lon="-4.01284">
        <ele>311.4</ele>
        <time>2022-11-26 10:21:42</time>
      </trkpt>
      <trkpt lat="38.1724" lon="-4.01269">
        <ele>312.2</ele>
        <time>2022-11-26 10:21:46</time>
      </trkpt>
      <trkpt lat="38.17237" lon="-4.01255">
        <ele>313.4</ele>
        <time>2022-11-26 10:21:50</time>
      </trkpt>
      <trkpt lat="38.1723" lon="-4.01243">
        <ele>313.2</ele>
        <time>2022-11-26 10:21:54</time>
      </trkpt>
      <trkpt lat="38.17222" lon="-4.01234">
        <ele>314.4</ele>
        <time>2022-11-26 10:21:58</time>
      </trkpt>
      <trkpt lat="38.17216" lon="-4.01225">
        <ele>314.4</ele>
        <time>2022-11-26 10:22:02</time>
      </trkpt>
      <trkpt lat="38.17212" lon="-4.01215">
        <ele>316.2</ele>
        <time>2022-11-26 10:22:06</time>
      </trkpt>
      <trkpt lat="38.17211" lon="-4.01201">
        <ele>316.2</ele>
        <time>2022-11-26 10:22:10</time>
      </trkpt>
      <trkpt lat="38.17211" lon="-4.01188">
        <ele>317.2</ele>
        <time>2022-11-26 10:22:14</time>
      </trkpt>
      <trkpt lat="38.17213" lon="-4.01175">
        <ele>318.4</ele>
        <time>2022-11-26 10:22:18</time>
      </trkpt>
      <trkpt lat="38.17215" lon="-4.01162">
        <ele>318.6</ele>
        <time>2022-11-26 10:22:22</time>
      </trkpt>
      <trkpt lat="38.17217" lon="-4.0115">
        <ele>320</ele>
        <time>2022-11-26 10:22:26</time>
      </trkpt>
      <trkpt lat="38.17219" lon="-4.01137">
        <ele>319.8</ele>
        <time>2022-11-26 10:22:30</time>
      </trkpt>
      <trkpt lat="38.17221" lon="-4.01125">
        <ele>320.8</ele>
        <time>2022-11-26 10:22:34</time>
      </trkpt>
      <trkpt lat="38.17222" lon="-4.01113">
        <ele>321.8</ele>
        <time>2022-11-26 10:22:38</time>
      </trkpt>
      <trkpt lat="38.17225" lon="-4.011">
        <ele>322</ele>
        <time>2022-11-26 10:22:42</time>
      </trkpt>
      <trkpt lat="38.17228" lon="-4.01087">
        <ele>323</ele>
        <time>2022-11-26 10:22:46</time>
      </trkpt>
      <trkpt lat="38.17233" lon="-4.01076">
        <ele>324</ele>
        <time>2022-11-26 10:22:50</time>
      </trkpt>
      <trkpt lat="38.17242" lon="-4.0107">
        <ele>325</ele>
        <time>2022-11-26 10:22:54</time>
      </trkpt>
      <trkpt lat="38.17252" lon="-4.01071">
        <ele>324.8</ele>
        <time>2022-11-26 10:22:58</time>
      </trkpt>
      <trkpt lat="38.17261" lon="-4.01078">
        <ele>325</ele>
        <time>2022-11-26 10:23:02</time>
      </trkpt>
      <trkpt lat="38.1727" lon="-4.01084">
        <ele>326.4</ele>
        <time>2022-11-26 10:23:06</time>
      </trkpt>
      <trkpt lat="38.17278" lon="-4.01092">
        <ele>327</ele>
        <time>2022-11-26 10:23:10</time>
      </trkpt>
      <trkpt lat="38.17288" lon="-4.01095">
        <ele>328</ele>
        <time>2022-11-26 10:23:14</time>
      </trkpt>
      <trkpt lat="38.17299" lon="-4.01093">
        <ele>328.2</ele>
        <time>2022-11-26 10:23:18</time>
      </trkpt>
      <trkpt lat="38.17307" lon="-4.01086">
        <ele>329.8</ele>
        <time>2022-11-26 10:23:22</time>
      </trkpt>
      <trkpt lat="38.17313" lon="-4.01078">
        <ele>330</ele>
        <time>2022-11-26 10:23:26</time>
      </trkpt>
      <trkpt lat="38.17323" lon="-4.01073">
        <ele>331.2</ele>
        <time>2022-11-26 10:23:30</time>
      </trkpt>
      <trkpt lat="38.17333" lon="-4.01071">
        <ele>332</ele>
        <time>2022-11-26 10:23:34</time>
      </trkpt>
      <trkpt lat="38.17342" lon="-4.01071">
        <ele>332.4</ele>
        <time>2022-11-26 10:23:38</time>
      </trkpt>
      <trkpt lat="38.17353" lon="-4.01072">
        <ele>333.2</ele>
        <time>2022-11-26 10:23:42</time>
      </trkpt>
      <trkpt lat="38.17363" lon="-4.01073">
        <ele>334</ele>
        <time>2022-11-26 10:23:46</time>
      </trkpt>
      <trkpt lat="38.17374" lon="-4.01075">
        <ele>334.4</ele>
        <time>2022-11-26 10:23:50</time>
      </trkpt>
      <trkpt lat="38.17384" lon="-4.0108">
        <ele>334.6</ele>
        <time>2022-11-26 10:23:54</time>
      </trkpt>
      <trkpt lat="38.17393" lon="-4.01084">
        <ele>336</ele>
        <time>2022-11-26 10:23:58</time>
      </trkpt>
      <trkpt lat="38.17403" lon="-4.01087">
        <ele>336.6</ele>
        <time>2022-11-26 10:24:02</time>
      </trkpt>
      <trkpt lat="38.17413" lon="-4.01083">
        <ele>337.4</ele>
        <time>2022-11-26 10:24:06</time>
      </trkpt>
      <trkpt lat="38.17419" lon="-4.01073">
        <ele>338.4</ele>
        <time>2022-11-26 10:24:10</time>
      </trkpt>
      <trkpt lat="38.1742" lon="-4.01061">
        <ele>339.4</ele>
        <time>2022-11-26 10:24:14</time>
      </trkpt>
      <trkpt lat="38.17419" lon="-4.01048">
        <ele>340.4</ele>
        <time>2022-11-26 10:24:18</time>
      </trkpt>
      <trkpt lat="38.17418" lon="-4.01036">
        <ele>340.6</ele>
        <time>2022-11-26 10:24:22</time>
      </trkpt>
      <trkpt lat="38.17414" lon="-4.01023">
        <ele>341.6</ele>
        <time>2022-11-26 10:24:26</time>
      </trkpt>
      <trkpt lat="38.17409" lon="-4.01012">
        <ele>342.6</ele>
        <time>2022-11-26 10:24:30</time>
      </trkpt>
      <trkpt lat="38.17404" lon="-4.01002">
        <ele>343</ele>
        <time>2022-11-26 10:24:34</time>
      </trkpt>
      <trkpt lat="38.17398" lon="-4.00992">
        <ele>343.4</ele>
        <time>2022-11-26 10:24:38</time>
      </trkpt>
      <trkpt lat="38.17392" lon="-4.0098">
        <ele>343.6</ele>
        <time>2022-11-26 10:24:42</time>
      </trkpt>
      <trkpt lat="38.17388" lon="-4.00969">
        <ele>344.6</ele>
        <time>2022-11-26 10:24:46</time>
      </trkpt>
      <trkpt lat="38.17387" lon="-4.00956">
        <ele>345.2</ele>
        <time>2022-11-26 10:24:50</time>
      </trkpt>
      <trkpt lat="38.17387" lon="-4.00942">
        <ele>345.4</ele>
        <time>2022-11-26 10:24:54</time>
      </trkpt>
      <trkpt lat="38.17392" lon="-4.0093">
        <ele>345.2</ele>
        <time>2022-11-26 10:24:58</time>
      </trkpt>
      <trkpt lat="38.17405" lon="-4.00926">
        <ele>345.4</ele>
        <time>2022-11-26 10:25:02</time>
      </trkpt>
      <trkpt lat="38.17418" lon="-4.00928">
        <ele>345.4</ele>
        <time>2022-11-26 10:25:06</time>
      </trkpt>
      <trkpt lat="38.17433" lon="-4.00931">
        <ele>346</ele>
        <time>2022-11-26 10:25:10</time>
      </trkpt>
      <trkpt lat="38.17448" lon="-4.00936">
        <ele>346.2</ele>
        <time>2022-11-26 10:25:14</time>
      </trkpt>
      <trkpt lat="38.17462" lon="-4.00944">
        <ele>346.6</ele>
        <time>2022-11-26 10:25:18</time>
      </trkpt>
      <trkpt lat="38.17475" lon="-4.00953">
        <ele>347.4</ele>
        <time>2022-11-26 10:25:22</time>
      </trkpt>
      <trkpt lat="38.17485" lon="-4.00962">
        <ele>348.2</ele>
        <time>2022-11-26 10:25:26</time>
      </trkpt>
      <trkpt lat="38.17494" lon="-4.0097">
        <ele>348.6</ele>
        <time>2022-11-26 10:25:30</time>
      </trkpt>
      <trkpt lat="38.17504" lon="-4.00977">
        <ele>349.8</ele>
        <time>2022-11-26 10:25:34</time>
      </trkpt>
      <trkpt lat="38.17514" lon="-4.00979">
        <ele>350.6</ele>
        <time>2022-11-26 10:25:38</time>
      </trkpt>
      <trkpt lat="38.17525" lon="-4.00981">
        <ele>350.6</ele>
        <time>2022-11-26 10:25:42</time>
      </trkpt>
      <trkpt lat="38.17535" lon="-4.00981">
        <ele>351.6</ele>
        <time>2022-11-26 10:25:46</time>
      </trkpt>
      <trkpt lat="38.17546" lon="-4.0098">
        <ele>351.8</ele>
        <time>2022-11-26 10:25:50</time>
      </trkpt>
      <trkpt lat="38.17556" lon="-4.00981">
        <ele>353.2</ele>
        <time>2022-11-26 10:25:54</time>
      </trkpt>
      <trkpt lat="38.17567" lon="-4.00981">
        <ele>354.2</ele>
        <time>2022-11-26 10:25:58</time>
      </trkpt>
      <trkpt lat="38.17578" lon="-4.00983">
        <ele>354.8</ele>
        <time>2022-11-26 10:26:02</time>
      </trkpt>
      <trkpt lat="38.1759" lon="-4.00988">
        <ele>355.6</ele>
        <time>2022-11-26 10:26:06</time>
      </trkpt>
      <trkpt lat="38.176" lon="-4.00994">
        <ele>356.6</ele>
        <time>2022-11-26 10:26:10</time>
      </trkpt>
      <trkpt lat="38.17606" lon="-4.01004">
        <ele>357</ele>
        <time>2022-11-26 10:26:14</time>
      </trkpt>
      <trkpt lat="38.17609" lon="-4.01017">
        <ele>358</ele>
        <time>2022-11-26 10:26:18</time>
      </trkpt>
      <trkpt lat="38.17609" lon="-4.01031">
        <ele>358.4</ele>
        <time>2022-11-26 10:26:22</time>
      </trkpt>
      <trkpt lat="38.17607" lon="-4.01046">
        <ele>358.4</ele>
        <time>2022-11-26 10:26:26</time>
      </trkpt>
      <trkpt lat="38.17607" lon="-4.01062">
        <ele>358.6</ele>
        <time>2022-11-26 10:26:30</time>
      </trkpt>
      <trkpt lat="38.1761" lon="-4.01077">
        <ele>359.4</ele>
        <time>2022-11-26 10:26:34</time>
      </trkpt>
      <trkpt lat="38.17612" lon="-4.01091">
        <ele>360.2</ele>
        <time>2022-11-26 10:26:38</time>
      </trkpt>
      <trkpt lat="38.17615" lon="-4.01105">
        <ele>360.6</ele>
        <time>2022-11-26 10:26:42</time>
      </trkpt>
      <trkpt lat="38.17618" lon="-4.01119">
        <ele>360.8</ele>
        <time>2022-11-26 10:26:46</time>
      </trkpt>
      <trkpt lat="38.17623" lon="-4.01131">
        <ele>362</ele>
        <time>2022-11-26 10:26:50</time>
      </trkpt>
      <trkpt lat="38.1763" lon="-4.01142">
        <ele>362.4</ele>
        <time>2022-11-26 10:26:54</time>
      </trkpt>
      <trkpt lat="38.17635" lon="-4.01154">
        <ele>363.2</ele>
        <time>2022-11-26 10:26:58</time>
      </trkpt>
      <trkpt lat="38.17639" lon="-4.01165">
        <ele>363.8</ele>
        <time>2022-11-26 10:27:02</time>
      </trkpt>
      <trkpt lat="38.17642" lon="-4.01176">
        <ele>364.4</ele>
        <time>2022-11-26 10:27:06</time>
      </trkpt>
      <trkpt lat="38.17644" lon="-4.01187">
        <ele>364.4</ele>
        <time>2022-11-26 10:27:10</time>
      </trkpt>
      <trkpt lat="38.17647" lon="-4.01199">
        <ele>365.6</ele>
        <time>2022-11-26 10:27:14</time>
      </trkpt>
      <trkpt lat="38.17649" lon="-4.0121">
        <ele>366.2</ele>
        <time>2022-11-26 10:27:18</time>
      </trkpt>
      <trkpt lat="38.17647" lon="-4.01221">
        <ele>366.4</ele>
        <time>2022-11-26 10:27:22</time>
      </trkpt>
      <trkpt lat="38.17644" lon="-4.01232">
        <ele>367.2</ele>
        <time>2022-11-26 10:27:26</time>
      </trkpt>
      <trkpt lat="38.17643" lon="-4.01246">
        <ele>367.4</ele>
        <time>2022-11-26 10:27:30</time>
      </trkpt>
      <trkpt lat="38.17647" lon="-4.01259">
        <ele>368.4</ele>
        <time>2022-11-26 10:27:34</time>
      </trkpt>
      <trkpt lat="38.17655" lon="-4.01269">
        <ele>369.2</ele>
        <time>2022-11-26 10:27:38</time>
      </trkpt>
      <trkpt lat="38.17665" lon="-4.01275">
        <ele>369.4</ele>
        <time>2022-11-26 10:27:42</time>
      </trkpt>
      <trkpt lat="38.17676" lon="-4.0128">
        <ele>370.2</ele>
        <time>2022-11-26 10:27:46</time>
      </trkpt>
      <trkpt lat="38.17687" lon="-4.01283">
        <ele>371.4</ele>
        <time>2022-11-26 10:27:50</time>
      </trkpt>
      <trkpt lat="38.17698" lon="-4.01288">
        <ele>371.4</ele>
        <time>2022-11-26 10:27:54</time>
      </trkpt>
      <trkpt lat="38.17712" lon="-4.01294">
        <ele>371.4</ele>
        <time>2022-11-26 10:27:58</time>
      </trkpt>
      <trkpt lat="38.17725" lon="-4.01301">
        <ele>371.4</ele>
        <time>2022-11-26 10:28:02</time>
      </trkpt>
      <trkpt lat="38.1774" lon="-4.01309">
        <ele>371.4</ele>
        <time>2022-11-26 10:28:06</time>
      </trkpt>
      <trkpt lat="38.17755" lon="-4.01314">
        <ele>371.2</ele>
        <time>2022-11-26 10:28:10</time>
      </trkpt>
      <trkpt lat="38.17771" lon="-4.01317">
        <ele>371.4</ele>
        <time>2022-11-26 10:28:14</time>
      </trkpt>
      <trkpt lat="38.17786" lon="-4.01323">
        <ele>371.4</ele>
        <time>2022-11-26 10:28:18</time>
      </trkpt>
      <trkpt lat="38.178" lon="-4.01331">
        <ele>372.2</ele>
        <time>2022-11-26 10:28:22</time>
      </trkpt>
      <trkpt lat="38.17809" lon="-4.01347">
        <ele>372</ele>
        <time>2022-11-26 10:28:26</time>
      </trkpt>
      <trkpt lat="38.17813" lon="-4.01365">
        <ele>371.8</ele>
        <time>2022-11-26 10:28:30</time>
      </trkpt>
      <trkpt lat="38.17816" lon="-4.01387">
        <ele>372.4</ele>
        <time>2022-11-26 10:28:34</time>
      </trkpt>
      <trkpt lat="38.17824" lon="-4.01407">
        <ele>372.4</ele>
        <time>2022-11-26 10:28:38</time>
      </trkpt>
      <trkpt lat="38.17832" lon="-4.01425">
        <ele>373.6</ele>
        <time>2022-11-26 10:28:42</time>
      </trkpt>
      <trkpt lat="38.17839" lon="-4.01442">
        <ele>373.8</ele>
        <time>2022-11-26 10:28:46</time>
      </trkpt>
      <trkpt lat="38.17848" lon="-4.01457">
        <ele>373.6</ele>
        <time>2022-11-26 10:28:50</time>
      </trkpt>
      <trkpt lat="38.17864" lon="-4.01465">
        <ele>374.2</ele>
        <time>2022-11-26 10:28:54</time>
      </trkpt>
      <trkpt lat="38.1788" lon="-4.01467">
        <ele>374.8</ele>
        <time>2022-11-26 10:28:58</time>
      </trkpt>
      <trkpt lat="38.17893" lon="-4.01468">
        <ele>374.8</ele>
        <time>2022-11-26 10:29:02</time>
      </trkpt>
      <trkpt lat="38.17908" lon="-4.01469">
        <ele>375.4</ele>
        <time>2022-11-26 10:29:06</time>
      </trkpt>
      <trkpt lat="38.17922" lon="-4.01472">
        <ele>376.2</ele>
        <time>2022-11-26 10:29:10</time>
      </trkpt>
      <trkpt lat="38.17937" lon="-4.01472">
        <ele>376.4</ele>
        <time>2022-11-26 10:29:14</time>
      </trkpt>
      <trkpt lat="38.17954" lon="-4.01472">
        <ele>377.2</ele>
        <time>2022-11-26 10:29:18</time>
      </trkpt>
      <trkpt lat="38.17973" lon="-4.01466">
        <ele>376.2</ele>
        <time>2022-11-26 10:29:22</time>
      </trkpt>
      <trkpt lat="38.17991" lon="-4.01455">
        <ele>376.8</ele>
        <time>2022-11-26 10:29:26</time>
      </trkpt>
      <trkpt lat="38.18007" lon="-4.01447">
        <ele>376.4</ele>
        <time>2022-11-26 10:29:30</time>
      </trkpt>
      <trkpt lat="38.18023" lon="-4.01447">
        <ele>376.6</ele>
        <time>2022-11-26 10:29:34</time>
      </trkpt>
      <trkpt lat="38.1804" lon="-4.01453">
        <ele>375.2</ele>
        <time>2022-11-26 10:29:38</time>
      </trkpt>
      <trkpt lat="38.18062" lon="-4.01454">
        <ele>373.4</ele>
        <time>2022-11-26 10:29:42</time>
      </trkpt>
      <trkpt lat="38.18087" lon="-4.01445">
        <ele>372.6</ele>
        <time>2022-11-26 10:29:46</time>
      </trkpt>
      <trkpt lat="38.18113" lon="-4.01435">
        <ele>370.8</ele>
        <time>2022-11-26 10:29:50</time>
      </trkpt>
      <trkpt lat="38.18141" lon="-4.01452">
        <ele>370</ele>
        <time>2022-11-26 10:29:54</time>
      </trkpt>
      <trkpt lat="38.18166" lon="-4.01481">
        <ele>367.6</ele>
        <time>2022-11-26 10:29:58</time>
      </trkpt>
      <trkpt lat="38.18189" lon="-4.01501">
        <ele>368</ele>
        <time>2022-11-26 10:30:02</time>
      </trkpt>
      <trkpt lat="38.18219" lon="-4.01494">
        <ele>365.2</ele>
        <time>2022-11-26 10:30:06</time>
      </trkpt>
      <trkpt lat="38.18245" lon="-4.01486">
        <ele>363.8</ele>
        <time>2022-11-26 10:30:10</time>
      </trkpt>
      <trkpt lat="38.18257" lon="-4.01479">
        <ele>363.6</ele>
        <time>2022-11-26 10:30:14</time>
      </trkpt>
      <trkpt lat="38.18256" lon="-4.01476">
        <ele>363.6</ele>
        <time>2022-11-26 10:30:18</time>
      </trkpt>
      <trkpt lat="38.18253" lon="-4.01477">
        <ele>364</ele>
        <time>2022-11-26 10:30:22</time>
      </trkpt>
      <trkpt lat="38.1826" lon="-4.01478">
        <ele>363.6</ele>
        <time>2022-11-26 10:30:26</time>
      </trkpt>
      <trkpt lat="38.18271" lon="-4.01477">
        <ele>363.2</ele>
        <time>2022-11-26 10:30:30</time>
      </trkpt>
      <trkpt lat="38.18281" lon="-4.01485">
        <ele>362.2</ele>
        <time>2022-11-26 10:30:34</time>
      </trkpt>
      <trkpt lat="38.18291" lon="-4.01501">
        <ele>360.6</ele>
        <time>2022-11-26 10:30:38</time>
      </trkpt>
      <trkpt lat="38.18308" lon="-4.01524">
        <ele>358.2</ele>
        <time>2022-11-26 10:30:42</time>
      </trkpt>
      <trkpt lat="38.18322" lon="-4.01541">
        <ele>360.6</ele>
        <time>2022-11-26 10:30:46</time>
      </trkpt>
      <trkpt lat="38.18329" lon="-4.01551">
        <ele>362</ele>
        <time>2022-11-26 10:30:50</time>
      </trkpt>
      <trkpt lat="38.18331" lon="-4.01557">
        <ele>363</ele>
        <time>2022-11-26 10:30:54</time>
      </trkpt>
      <trkpt lat="38.18328" lon="-4.01563">
        <ele>363.2</ele>
        <time>2022-11-26 10:30:58</time>
      </trkpt>
      <trkpt lat="38.18323" lon="-4.01569">
        <ele>365</ele>
        <time>2022-11-26 10:31:02</time>
      </trkpt>
      <trkpt lat="38.18318" lon="-4.01574">
        <ele>366</ele>
        <time>2022-11-26 10:31:06</time>
      </trkpt>
      <trkpt lat="38.18313" lon="-4.01578">
        <ele>367.2</ele>
        <time>2022-11-26 10:31:10</time>
      </trkpt>
      <trkpt lat="38.18308" lon="-4.01582">
        <ele>368.2</ele>
        <time>2022-11-26 10:31:14</time>
      </trkpt>
      <trkpt lat="38.18316" lon="-4.01578">
        <ele>368.4</ele>
        <time>2022-11-26 10:31:18</time>
      </trkpt>
      <trkpt lat="38.18326" lon="-4.01573">
        <ele>367.2</ele>
        <time>2022-11-26 10:31:50</time>
      </trkpt>
      <trkpt lat="38.18334" lon="-4.01556">
        <ele>363</ele>
        <time>2022-11-26 10:31:54</time>
      </trkpt>
      <trkpt lat="38.18321" lon="-4.01536">
        <ele>359</ele>
        <time>2022-11-26 10:31:58</time>
      </trkpt>
      <trkpt lat="38.183" lon="-4.01511">
        <ele>359.8</ele>
        <time>2022-11-26 10:32:02</time>
      </trkpt>
      <trkpt lat="38.18288" lon="-4.015">
        <ele>362</ele>
        <time>2022-11-26 10:32:06</time>
      </trkpt>
      <trkpt lat="38.18284" lon="-4.01491">
        <ele>363</ele>
        <time>2022-11-26 10:32:10</time>
      </trkpt>
      <trkpt lat="38.18278" lon="-4.01485">
        <ele>363</ele>
        <time>2022-11-26 10:32:14</time>
      </trkpt>
      <trkpt lat="38.18271" lon="-4.01484">
        <ele>363.8</ele>
        <time>2022-11-26 10:32:18</time>
      </trkpt>
      <trkpt lat="38.18263" lon="-4.01481">
        <ele>364.6</ele>
        <time>2022-11-26 10:32:22</time>
      </trkpt>
      <trkpt lat="38.18254" lon="-4.0148">
        <ele>364</ele>
        <time>2022-11-26 10:32:26</time>
      </trkpt>
      <trkpt lat="38.18247" lon="-4.0148">
        <ele>364.6</ele>
        <time>2022-11-26 10:32:30</time>
      </trkpt>
      <trkpt lat="38.18236" lon="-4.0148">
        <ele>365.2</ele>
        <time>2022-11-26 10:32:34</time>
      </trkpt>
      <trkpt lat="38.18226" lon="-4.01479">
        <ele>366.6</ele>
        <time>2022-11-26 10:32:38</time>
      </trkpt>
      <trkpt lat="38.18219" lon="-4.01482">
        <ele>368.8</ele>
        <time>2022-11-26 10:32:42</time>
      </trkpt>
      <trkpt lat="38.18212" lon="-4.01482">
        <ele>371</ele>
        <time>2022-11-26 10:36:11</time>
      </trkpt>
      <trkpt lat="38.18204" lon="-4.01485">
        <ele>372</ele>
        <time>2022-11-26 10:36:15</time>
      </trkpt>
      <trkpt lat="38.18195" lon="-4.01489">
        <ele>372.4</ele>
        <time>2022-11-26 10:36:19</time>
      </trkpt>
      <trkpt lat="38.18185" lon="-4.01488">
        <ele>372.8</ele>
        <time>2022-11-26 10:36:23</time>
      </trkpt>
      <trkpt lat="38.18176" lon="-4.01478">
        <ele>372.6</ele>
        <time>2022-11-26 10:36:27</time>
      </trkpt>
      <trkpt lat="38.18167" lon="-4.0147">
        <ele>372.6</ele>
        <time>2022-11-26 10:36:31</time>
      </trkpt>
      <trkpt lat="38.18157" lon="-4.01459">
        <ele>371.6</ele>
        <time>2022-11-26 10:36:35</time>
      </trkpt>
      <trkpt lat="38.18145" lon="-4.01441">
        <ele>370.2</ele>
        <time>2022-11-26 10:36:39</time>
      </trkpt>
      <trkpt lat="38.18134" lon="-4.01432">
        <ele>370.8</ele>
        <time>2022-11-26 10:36:43</time>
      </trkpt>
      <trkpt lat="38.18124" lon="-4.01429">
        <ele>372.6</ele>
        <time>2022-11-26 10:36:47</time>
      </trkpt>
      <trkpt lat="38.18113" lon="-4.01427">
        <ele>374.4</ele>
        <time>2022-11-26 10:36:51</time>
      </trkpt>
      <trkpt lat="38.18095" lon="-4.0143">
        <ele>373.8</ele>
        <time>2022-11-26 10:36:55</time>
      </trkpt>
      <trkpt lat="38.18081" lon="-4.01434">
        <ele>375</ele>
        <time>2022-11-26 10:36:59</time>
      </trkpt>
      <trkpt lat="38.18072" lon="-4.01439">
        <ele>376.2</ele>
        <time>2022-11-26 10:37:03</time>
      </trkpt>
      <trkpt lat="38.1806" lon="-4.0144">
        <ele>378.2</ele>
        <time>2022-11-26 10:37:07</time>
      </trkpt>
      <trkpt lat="38.1805" lon="-4.0144">
        <ele>379.4</ele>
        <time>2022-11-26 10:37:11</time>
      </trkpt>
      <trkpt lat="38.1804" lon="-4.01438">
        <ele>380.2</ele>
        <time>2022-11-26 10:37:15</time>
      </trkpt>
      <trkpt lat="38.1803" lon="-4.01435">
        <ele>380.4</ele>
        <time>2022-11-26 10:37:19</time>
      </trkpt>
      <trkpt lat="38.18019" lon="-4.01432">
        <ele>380.4</ele>
        <time>2022-11-26 10:37:23</time>
      </trkpt>
      <trkpt lat="38.18006" lon="-4.01433">
        <ele>380.4</ele>
        <time>2022-11-26 10:37:27</time>
      </trkpt>
      <trkpt lat="38.17993" lon="-4.0144">
        <ele>380.6</ele>
        <time>2022-11-26 10:37:31</time>
      </trkpt>
      <trkpt lat="38.17979" lon="-4.0145">
        <ele>381.2</ele>
        <time>2022-11-26 10:37:35</time>
      </trkpt>
      <trkpt lat="38.17951" lon="-4.01454">
        <ele>375.6</ele>
        <time>2022-11-26 10:37:39</time>
      </trkpt>
      <trkpt lat="38.17916" lon="-4.01457">
        <ele>371.6</ele>
        <time>2022-11-26 10:37:43</time>
      </trkpt>
      <trkpt lat="38.17884" lon="-4.01456">
        <ele>372.2</ele>
        <time>2022-11-26 10:37:47</time>
      </trkpt>
      <trkpt lat="38.17857" lon="-4.01447">
        <ele>371.2</ele>
        <time>2022-11-26 10:37:51</time>
      </trkpt>
      <trkpt lat="38.1785" lon="-4.01425">
        <ele>370.8</ele>
        <time>2022-11-26 10:37:55</time>
      </trkpt>
      <trkpt lat="38.17838" lon="-4.01401">
        <ele>368.6</ele>
        <time>2022-11-26 10:37:59</time>
      </trkpt>
      <trkpt lat="38.17833" lon="-4.01369">
        <ele>368</ele>
        <time>2022-11-26 10:38:03</time>
      </trkpt>
      <trkpt lat="38.17827" lon="-4.0134">
        <ele>370.4</ele>
        <time>2022-11-26 10:38:07</time>
      </trkpt>
      <trkpt lat="38.17818" lon="-4.01326">
        <ele>369.6</ele>
        <time>2022-11-26 10:38:11</time>
      </trkpt>
      <trkpt lat="38.17792" lon="-4.01314">
        <ele>368.4</ele>
        <time>2022-11-26 10:38:15</time>
      </trkpt>
      <trkpt lat="38.1777" lon="-4.01304">
        <ele>368.4</ele>
        <time>2022-11-26 10:38:19</time>
      </trkpt>
      <trkpt lat="38.17746" lon="-4.01293">
        <ele>366.4</ele>
        <time>2022-11-26 10:38:23</time>
      </trkpt>
      <trkpt lat="38.1772" lon="-4.01285">
        <ele>366.2</ele>
        <time>2022-11-26 10:38:27</time>
      </trkpt>
      <trkpt lat="38.17701" lon="-4.01275">
        <ele>366.6</ele>
        <time>2022-11-26 10:38:31</time>
      </trkpt>
      <trkpt lat="38.17676" lon="-4.01263">
        <ele>360.4</ele>
        <time>2022-11-26 10:38:35</time>
      </trkpt>
      <trkpt lat="38.17661" lon="-4.01242">
        <ele>362.6</ele>
        <time>2022-11-26 10:38:39</time>
      </trkpt>
      <trkpt lat="38.17663" lon="-4.01216">
        <ele>363.8</ele>
        <time>2022-11-26 10:38:43</time>
      </trkpt>
      <trkpt lat="38.17664" lon="-4.01199">
        <ele>363.2</ele>
        <time>2022-11-26 10:38:47</time>
      </trkpt>
      <trkpt lat="38.17668" lon="-4.01174">
        <ele>359</ele>
        <time>2022-11-26 10:38:51</time>
      </trkpt>
      <trkpt lat="38.17671" lon="-4.01158">
        <ele>357.2</ele>
        <time>2022-11-26 10:38:55</time>
      </trkpt>
      <trkpt lat="38.17676" lon="-4.01137">
        <ele>354.6</ele>
        <time>2022-11-26 10:38:59</time>
      </trkpt>
      <trkpt lat="38.17684" lon="-4.01107">
        <ele>351</ele>
        <time>2022-11-26 10:39:03</time>
      </trkpt>
      <trkpt lat="38.17696" lon="-4.01072">
        <ele>345.4</ele>
        <time>2022-11-26 10:39:07</time>
      </trkpt>
      <trkpt lat="38.17705" lon="-4.01027">
        <ele>345</ele>
        <time>2022-11-26 10:39:11</time>
      </trkpt>
      <trkpt lat="38.1771" lon="-4.00985">
        <ele>341.8</ele>
        <time>2022-11-26 10:39:15</time>
      </trkpt>
      <trkpt lat="38.17712" lon="-4.00944">
        <ele>337</ele>
        <time>2022-11-26 10:39:19</time>
      </trkpt>
      <trkpt lat="38.17718" lon="-4.00909">
        <ele>327.4</ele>
        <time>2022-11-26 10:39:23</time>
      </trkpt>
      <trkpt lat="38.17724" lon="-4.00871">
        <ele>326.4</ele>
        <time>2022-11-26 10:39:27</time>
      </trkpt>
      <trkpt lat="38.17731" lon="-4.00825">
        <ele>321.2</ele>
        <time>2022-11-26 10:39:31</time>
      </trkpt>
      <trkpt lat="38.17733" lon="-4.00789">
        <ele>323.6</ele>
        <time>2022-11-26 10:39:35</time>
      </trkpt>
      <trkpt lat="38.17726" lon="-4.00777">
        <ele>322</ele>
        <time>2022-11-26 10:39:39</time>
      </trkpt>
      <trkpt lat="38.17709" lon="-4.00761">
        <ele>321.2</ele>
        <time>2022-11-26 10:39:43</time>
      </trkpt>
      <trkpt lat="38.17692" lon="-4.00743">
        <ele>321.6</ele>
        <time>2022-11-26 10:39:47</time>
      </trkpt>
      <trkpt lat="38.17671" lon="-4.00723">
        <ele>321.2</ele>
        <time>2022-11-26 10:39:51</time>
      </trkpt>
      <trkpt lat="38.1765" lon="-4.00716">
        <ele>320.6</ele>
        <time>2022-11-26 10:41:15</time>
      </trkpt>
      <trkpt lat="38.17627" lon="-4.00702">
        <ele>315.2</ele>
        <time>2022-11-26 10:41:19</time>
      </trkpt>
      <trkpt lat="38.17604" lon="-4.00682">
        <ele>308.6</ele>
        <time>2022-11-26 10:41:23</time>
      </trkpt>
      <trkpt lat="38.17578" lon="-4.00659">
        <ele>308.2</ele>
        <time>2022-11-26 10:41:27</time>
      </trkpt>
      <trkpt lat="38.17555" lon="-4.00655">
        <ele>306.4</ele>
        <time>2022-11-26 10:41:31</time>
      </trkpt>
      <trkpt lat="38.17531" lon="-4.00655">
        <ele>307</ele>
        <time>2022-11-26 10:41:35</time>
      </trkpt>
      <trkpt lat="38.17507" lon="-4.0066">
        <ele>308</ele>
        <time>2022-11-26 10:41:39</time>
      </trkpt>
      <trkpt lat="38.17489" lon="-4.00659">
        <ele>310.2</ele>
        <time>2022-11-26 10:41:43</time>
      </trkpt>
      <trkpt lat="38.17476" lon="-4.00651">
        <ele>309.4</ele>
        <time>2022-11-26 10:41:47</time>
      </trkpt>
      <trkpt lat="38.17467" lon="-4.00632">
        <ele>306.6</ele>
        <time>2022-11-26 10:41:51</time>
      </trkpt>
      <trkpt lat="38.17462" lon="-4.00605">
        <ele>307.2</ele>
        <time>2022-11-26 10:41:55</time>
      </trkpt>
      <trkpt lat="38.17449" lon="-4.00586">
        <ele>308.6</ele>
        <time>2022-11-26 10:41:59</time>
      </trkpt>
      <trkpt lat="38.17436" lon="-4.0057">
        <ele>310.4</ele>
        <time>2022-11-26 10:42:03</time>
      </trkpt>
      <trkpt lat="38.17427" lon="-4.0056">
        <ele>311.6</ele>
        <time>2022-11-26 10:42:07</time>
      </trkpt>
      <trkpt lat="38.17416" lon="-4.00551">
        <ele>312.4</ele>
        <time>2022-11-26 10:42:11</time>
      </trkpt>
      <trkpt lat="38.17409" lon="-4.00534">
        <ele>312.2</ele>
        <time>2022-11-26 10:42:15</time>
      </trkpt>
      <trkpt lat="38.17401" lon="-4.00517">
        <ele>309.6</ele>
        <time>2022-11-26 10:42:19</time>
      </trkpt>
      <trkpt lat="38.1739" lon="-4.00494">
        <ele>308.6</ele>
        <time>2022-11-26 10:42:23</time>
      </trkpt>
      <trkpt lat="38.17373" lon="-4.00489">
        <ele>305</ele>
        <time>2022-11-26 10:42:27</time>
      </trkpt>
      <trkpt lat="38.17352" lon="-4.0048">
        <ele>302.6</ele>
        <time>2022-11-26 10:42:31</time>
      </trkpt>
      <trkpt lat="38.17332" lon="-4.00459">
        <ele>301</ele>
        <time>2022-11-26 10:42:35</time>
      </trkpt>
      <trkpt lat="38.17316" lon="-4.00428">
        <ele>299.2</ele>
        <time>2022-11-26 10:42:39</time>
      </trkpt>
      <trkpt lat="38.17303" lon="-4.00399">
        <ele>297.4</ele>
        <time>2022-11-26 10:42:43</time>
      </trkpt>
      <trkpt lat="38.17277" lon="-4.00386">
        <ele>295</ele>
        <time>2022-11-26 10:42:47</time>
      </trkpt>
      <trkpt lat="38.1725" lon="-4.00371">
        <ele>292.2</ele>
        <time>2022-11-26 10:42:51</time>
      </trkpt>
      <trkpt lat="38.17236" lon="-4.00338">
        <ele>292.4</ele>
        <time>2022-11-26 10:42:55</time>
      </trkpt>
      <trkpt lat="38.17235" lon="-4.0031">
        <ele>292.2</ele>
        <time>2022-11-26 10:42:59</time>
      </trkpt>
      <trkpt lat="38.17221" lon="-4.00298">
        <ele>289.2</ele>
        <time>2022-11-26 10:43:03</time>
      </trkpt>
      <trkpt lat="38.17197" lon="-4.00288">
        <ele>290.6</ele>
        <time>2022-11-26 10:43:07</time>
      </trkpt>
      <trkpt lat="38.17174" lon="-4.00281">
        <ele>291.6</ele>
        <time>2022-11-26 10:43:11</time>
      </trkpt>
      <trkpt lat="38.17153" lon="-4.00274">
        <ele>292.8</ele>
        <time>2022-11-26 10:43:15</time>
      </trkpt>
      <trkpt lat="38.1714" lon="-4.00259">
        <ele>292.2</ele>
        <time>2022-11-26 10:43:19</time>
      </trkpt>
      <trkpt lat="38.17128" lon="-4.0024">
        <ele>289.4</ele>
        <time>2022-11-26 10:43:23</time>
      </trkpt>
      <trkpt lat="38.17118" lon="-4.00208">
        <ele>285.4</ele>
        <time>2022-11-26 10:43:27</time>
      </trkpt>
      <trkpt lat="38.1711" lon="-4.00181">
        <ele>284.4</ele>
        <time>2022-11-26 10:43:31</time>
      </trkpt>
      <trkpt lat="38.17101" lon="-4.00162">
        <ele>278.6</ele>
        <time>2022-11-26 10:43:35</time>
      </trkpt>
      <trkpt lat="38.17093" lon="-4.00147">
        <ele>274.8</ele>
        <time>2022-11-26 10:43:39</time>
      </trkpt>
      <trkpt lat="38.17071" lon="-4.00134">
        <ele>269.6</ele>
        <time>2022-11-26 10:43:43</time>
      </trkpt>
      <trkpt lat="38.17062" lon="-4.00114">
        <ele>266.4</ele>
        <time>2022-11-26 10:43:47</time>
      </trkpt>
      <trkpt lat="38.17051" lon="-4.0009">
        <ele>261.6</ele>
        <time>2022-11-26 10:43:51</time>
      </trkpt>
      <trkpt lat="38.17037" lon="-4.00064">
        <ele>260.4</ele>
        <time>2022-11-26 10:43:55</time>
      </trkpt>
      <trkpt lat="38.17025" lon="-4.00041">
        <ele>259.6</ele>
        <time>2022-11-26 10:43:59</time>
      </trkpt>
      <trkpt lat="38.17021" lon="-4.0001">
        <ele>258.6</ele>
        <time>2022-11-26 10:44:03</time>
      </trkpt>
      <trkpt lat="38.17005" lon="-3.99987">
        <ele>257</ele>
        <time>2022-11-26 10:44:07</time>
      </trkpt>
      <trkpt lat="38.16984" lon="-3.99976">
        <ele>255.4</ele>
        <time>2022-11-26 10:44:11</time>
      </trkpt>
      <trkpt lat="38.16975" lon="-3.99952">
        <ele>255.2</ele>
        <time>2022-11-26 10:44:15</time>
      </trkpt>
      <trkpt lat="38.16967" lon="-3.99929">
        <ele>251</ele>
        <time>2022-11-26 10:44:19</time>
      </trkpt>
      <trkpt lat="38.16955" lon="-3.99905">
        <ele>249.8</ele>
        <time>2022-11-26 10:44:23</time>
      </trkpt>
      <trkpt lat="38.16941" lon="-3.99891">
        <ele>247.8</ele>
        <time>2022-11-26 10:44:27</time>
      </trkpt>
      <trkpt lat="38.16919" lon="-3.99882">
        <ele>245.2</ele>
        <time>2022-11-26 10:44:31</time>
      </trkpt>
      <trkpt lat="38.16896" lon="-3.99867">
        <ele>244.8</ele>
        <time>2022-11-26 10:44:35</time>
      </trkpt>
      <trkpt lat="38.1688" lon="-3.99853">
        <ele>242.8</ele>
        <time>2022-11-26 10:44:39</time>
      </trkpt>
      <trkpt lat="38.16868" lon="-3.99849">
        <ele>242.6</ele>
        <time>2022-11-26 10:44:43</time>
      </trkpt>
      <trkpt lat="38.16855" lon="-3.99853">
        <ele>241.8</ele>
        <time>2022-11-26 10:44:47</time>
      </trkpt>
      <trkpt lat="38.16841" lon="-3.99863">
        <ele>240.6</ele>
        <time>2022-11-26 10:44:51</time>
      </trkpt>
      <trkpt lat="38.1683" lon="-3.99868">
        <ele>238.6</ele>
        <time>2022-11-26 10:44:55</time>
      </trkpt>
      <trkpt lat="38.16817" lon="-3.99882">
        <ele>237.4</ele>
        <time>2022-11-26 10:44:59</time>
      </trkpt>
      <trkpt lat="38.16803" lon="-3.99874">
        <ele>234.8</ele>
        <time>2022-11-26 10:45:03</time>
      </trkpt>
      <trkpt lat="38.16779" lon="-3.99865">
        <ele>232.4</ele>
        <time>2022-11-26 10:45:07</time>
      </trkpt>
      <trkpt lat="38.16763" lon="-3.99844">
        <ele>229.4</ele>
        <time>2022-11-26 10:45:11</time>
      </trkpt>
      <trkpt lat="38.16745" lon="-3.99837">
        <ele>227</ele>
        <time>2022-11-26 10:45:15</time>
      </trkpt>
      <trkpt lat="38.16732" lon="-3.99833">
        <ele>225.4</ele>
        <time>2022-11-26 10:45:19</time>
      </trkpt>
      <trkpt lat="38.16624" lon="-3.99812">
        <ele>192.4</ele>
        <time>2022-11-26 10:45:23</time>
      </trkpt>
      <trkpt lat="38.16614" lon="-3.99817">
        <ele>188.8</ele>
        <time>2022-11-26 10:45:27</time>
      </trkpt>
      <trkpt lat="38.16611" lon="-3.99811">
        <ele>186</ele>
        <time>2022-11-26 10:45:31</time>
      </trkpt>
      <trkpt lat="38.16606" lon="-3.99802">
        <ele>182.4</ele>
        <time>2022-11-26 10:45:35</time>
      </trkpt>
      <trkpt lat="38.16598" lon="-3.99794">
        <ele>177.6</ele>
        <time>2022-11-26 10:45:39</time>
      </trkpt>
      <trkpt lat="38.1659" lon="-3.9978">
        <ele>173.2</ele>
        <time>2022-11-26 10:45:43</time>
      </trkpt>
      <trkpt lat="38.16579" lon="-3.99767">
        <ele>169</ele>
        <time>2022-11-26 10:45:47</time>
      </trkpt>
      <trkpt lat="38.16574" lon="-3.9975">
        <ele>168.2</ele>
        <time>2022-11-26 10:45:51</time>
      </trkpt>
      <trkpt lat="38.16564" lon="-3.99737">
        <ele>167.6</ele>
        <time>2022-11-26 10:45:55</time>
      </trkpt>
      <trkpt lat="38.16552" lon="-3.99729">
        <ele>165.8</ele>
        <time>2022-11-26 10:45:59</time>
      </trkpt>
      <trkpt lat="38.16542" lon="-3.99723">
        <ele>164.2</ele>
        <time>2022-11-26 10:46:03</time>
      </trkpt>
      <trkpt lat="38.16533" lon="-3.99717">
        <ele>162.6</ele>
        <time>2022-11-26 10:46:07</time>
      </trkpt>
      <trkpt lat="38.16523" lon="-3.99705">
        <ele>159.6</ele>
        <time>2022-11-26 10:46:11</time>
      </trkpt>
      <trkpt lat="38.1651" lon="-3.99687">
        <ele>158</ele>
        <time>2022-11-26 10:46:15</time>
      </trkpt>
      <trkpt lat="38.165" lon="-3.99672">
        <ele>155.8</ele>
        <time>2022-11-26 10:46:19</time>
      </trkpt>
      <trkpt lat="38.16491" lon="-3.99656">
        <ele>154.8</ele>
        <time>2022-11-26 10:46:23</time>
      </trkpt>
      <trkpt lat="38.16481" lon="-3.99638">
        <ele>154.4</ele>
        <time>2022-11-26 10:46:27</time>
      </trkpt>
      <trkpt lat="38.16468" lon="-3.99621">
        <ele>153.6</ele>
        <time>2022-11-26 10:49:35</time>
      </trkpt>
      <trkpt lat="38.16454" lon="-3.99606">
        <ele>152</ele>
        <time>2022-11-26 10:49:39</time>
      </trkpt>
      <trkpt lat="38.16445" lon="-3.99589">
        <ele>152.6</ele>
        <time>2022-11-26 10:49:43</time>
      </trkpt>
      <trkpt lat="38.1645" lon="-3.99572">
        <ele>154.4</ele>
        <time>2022-11-26 10:49:47</time>
      </trkpt>
      <trkpt lat="38.1645" lon="-3.99558">
        <ele>155.2</ele>
        <time>2022-11-26 10:49:51</time>
      </trkpt>
      <trkpt lat="38.1645" lon="-3.99547">
        <ele>155.2</ele>
        <time>2022-11-26 10:49:55</time>
      </trkpt>
      <trkpt lat="38.16448" lon="-3.99534">
        <ele>154.4</ele>
        <time>2022-11-26 10:49:59</time>
      </trkpt>
      <trkpt lat="38.16443" lon="-3.99519">
        <ele>152.4</ele>
        <time>2022-11-26 10:50:03</time>
      </trkpt>
      <trkpt lat="38.16429" lon="-3.99498">
        <ele>152.6</ele>
        <time>2022-11-26 10:50:07</time>
      </trkpt>
      <trkpt lat="38.16412" lon="-3.99485">
        <ele>153.4</ele>
        <time>2022-11-26 10:51:32</time>
      </trkpt>
      <trkpt lat="38.16401" lon="-3.99471">
        <ele>153.4</ele>
        <time>2022-11-26 10:51:36</time>
      </trkpt>
      <trkpt lat="38.16389" lon="-3.99459">
        <ele>153.4</ele>
        <time>2022-11-26 10:51:40</time>
      </trkpt>
      <trkpt lat="38.16378" lon="-3.99446">
        <ele>153.4</ele>
        <time>2022-11-26 10:51:44</time>
      </trkpt>
      <trkpt lat="38.16368" lon="-3.99434">
        <ele>153.4</ele>
        <time>2022-11-26 10:51:48</time>
      </trkpt>
      <trkpt lat="38.16357" lon="-3.99422">
        <ele>154.2</ele>
        <time>2022-11-26 10:51:52</time>
      </trkpt>
      <trkpt lat="38.16344" lon="-3.99414">
        <ele>154.6</ele>
        <time>2022-11-26 10:51:56</time>
      </trkpt>
      <trkpt lat="38.16336" lon="-3.99425">
        <ele>155.8</ele>
        <time>2022-11-26 10:52:00</time>
      </trkpt>
      <trkpt lat="38.16331" lon="-3.99438">
        <ele>156.8</ele>
        <time>2022-11-26 10:52:04</time>
      </trkpt>
      <trkpt lat="38.16324" lon="-3.99448">
        <ele>157.8</ele>
        <time>2022-11-26 10:52:08</time>
      </trkpt>
      <trkpt lat="38.16313" lon="-3.99452">
        <ele>158.6</ele>
        <time>2022-11-26 10:52:12</time>
      </trkpt>
      <trkpt lat="38.16303" lon="-3.9945">
        <ele>160</ele>
        <time>2022-11-26 10:52:16</time>
      </trkpt>
      <trkpt lat="38.16294" lon="-3.99444">
        <ele>161.2</ele>
        <time>2022-11-26 10:52:20</time>
      </trkpt>
      <trkpt lat="38.16284" lon="-3.99442">
        <ele>162</ele>
        <time>2022-11-26 10:52:24</time>
      </trkpt>
      <trkpt lat="38.16256" lon="-3.99451">
        <ele>161.4</ele>
        <time>2022-11-26 10:52:28</time>
      </trkpt>
      <trkpt lat="38.16248" lon="-3.99452">
        <ele>162.2</ele>
        <time>2022-11-26 10:52:32</time>
      </trkpt>
      <trkpt lat="38.1624" lon="-3.99451">
        <ele>163.8</ele>
        <time>2022-11-26 10:52:36</time>
      </trkpt>
      <trkpt lat="38.16233" lon="-3.99452">
        <ele>165</ele>
        <time>2022-11-26 10:52:40</time>
      </trkpt>
      <trkpt lat="38.16227" lon="-3.99453">
        <ele>167.6</ele>
        <time>2022-11-26 10:52:44</time>
      </trkpt>
      <trkpt lat="38.16223" lon="-3.99455">
        <ele>169.8</ele>
        <time>2022-11-26 10:52:48</time>
      </trkpt>
      <trkpt lat="38.16217" lon="-3.99458">
        <ele>171.8</ele>
        <time>2022-11-26 10:52:52</time>
      </trkpt>
      <trkpt lat="38.16205" lon="-3.99463">
        <ele>170.6</ele>
        <time>2022-11-26 10:52:56</time>
      </trkpt>
      <trkpt lat="38.16194" lon="-3.99459">
        <ele>170.2</ele>
        <time>2022-11-26 10:53:00</time>
      </trkpt>
      <trkpt lat="38.16187" lon="-3.99452">
        <ele>170.2</ele>
        <time>2022-11-26 10:53:04</time>
      </trkpt>
      <trkpt lat="38.16179" lon="-3.99445">
        <ele>170.8</ele>
        <time>2022-11-26 10:53:08</time>
      </trkpt>
      <trkpt lat="38.16172" lon="-3.99439">
        <ele>171</ele>
        <time>2022-11-26 10:53:12</time>
      </trkpt>
      <trkpt lat="38.16166" lon="-3.99435">
        <ele>172</ele>
        <time>2022-11-26 10:53:16</time>
      </trkpt>
      <trkpt lat="38.16161" lon="-3.99433">
        <ele>174.4</ele>
        <time>2022-11-26 10:53:20</time>
      </trkpt>
      <trkpt lat="38.16155" lon="-3.99429">
        <ele>176</ele>
        <time>2022-11-26 10:53:24</time>
      </trkpt>
      <trkpt lat="38.16151" lon="-3.99424">
        <ele>176.8</ele>
        <time>2022-11-26 10:53:28</time>
      </trkpt>
      <trkpt lat="38.16145" lon="-3.9942">
        <ele>178.2</ele>
        <time>2022-11-26 10:53:32</time>
      </trkpt>
      <trkpt lat="38.16139" lon="-3.99416">
        <ele>179</ele>
        <time>2022-11-26 10:53:36</time>
      </trkpt>
      <trkpt lat="38.16126" lon="-3.99411">
        <ele>177.6</ele>
        <time>2022-11-26 10:53:40</time>
      </trkpt>
      <trkpt lat="38.16104" lon="-3.99412">
        <ele>172.8</ele>
        <time>2022-11-26 10:55:59</time>
      </trkpt>
      <trkpt lat="38.16079" lon="-3.9941">
        <ele>167</ele>
        <time>2022-11-26 10:56:03</time>
      </trkpt>
      <trkpt lat="38.16055" lon="-3.99412">
        <ele>165.2</ele>
        <time>2022-11-26 10:56:07</time>
      </trkpt>
      <trkpt lat="38.16029" lon="-3.99426">
        <ele>163.2</ele>
        <time>2022-11-26 10:56:11</time>
      </trkpt>
      <trkpt lat="38.16001" lon="-3.99441">
        <ele>162</ele>
        <time>2022-11-26 10:56:15</time>
      </trkpt>
      <trkpt lat="38.15975" lon="-3.99456">
        <ele>161.2</ele>
        <time>2022-11-26 10:56:19</time>
      </trkpt>
      <trkpt lat="38.15948" lon="-3.9947">
        <ele>161.2</ele>
        <time>2022-11-26 10:56:23</time>
      </trkpt>
      <trkpt lat="38.15924" lon="-3.99481">
        <ele>161.4</ele>
        <time>2022-11-26 10:56:27</time>
      </trkpt>
      <trkpt lat="38.15906" lon="-3.99491">
        <ele>163</ele>
        <time>2022-11-26 10:56:31</time>
      </trkpt>
      <trkpt lat="38.15892" lon="-3.99498">
        <ele>163.6</ele>
        <time>2022-11-26 10:56:35</time>
      </trkpt>
      <trkpt lat="38.15878" lon="-3.99506">
        <ele>164.8</ele>
        <time>2022-11-26 10:56:39</time>
      </trkpt>
      <trkpt lat="38.15865" lon="-3.99512">
        <ele>165.4</ele>
        <time>2022-11-26 10:56:43</time>
      </trkpt>
      <trkpt lat="38.15853" lon="-3.99518">
        <ele>166.6</ele>
        <time>2022-11-26 10:56:47</time>
      </trkpt>
      <trkpt lat="38.15843" lon="-3.99524">
        <ele>168</ele>
        <time>2022-11-26 10:56:51</time>
      </trkpt>
      <trkpt lat="38.15831" lon="-3.9953">
        <ele>168.6</ele>
        <time>2022-11-26 10:56:55</time>
      </trkpt>
      <trkpt lat="38.15819" lon="-3.99538">
        <ele>169</ele>
        <time>2022-11-26 10:56:59</time>
      </trkpt>
      <trkpt lat="38.15808" lon="-3.99547">
        <ele>170.2</ele>
        <time>2022-11-26 10:57:03</time>
      </trkpt>
      <trkpt lat="38.15798" lon="-3.99555">
        <ele>170.2</ele>
        <time>2022-11-26 10:57:07</time>
      </trkpt>
      <trkpt lat="38.15789" lon="-3.99563">
        <ele>170</ele>
        <time>2022-11-26 10:57:11</time>
      </trkpt>
      <trkpt lat="38.1578" lon="-3.99575">
        <ele>170</ele>
        <time>2022-11-26 10:57:15</time>
      </trkpt>
      <trkpt lat="38.15771" lon="-3.99584">
        <ele>169.6</ele>
        <time>2022-11-26 10:57:19</time>
      </trkpt>
      <trkpt lat="38.1576" lon="-3.99582">
        <ele>168.6</ele>
        <time>2022-11-26 10:57:23</time>
      </trkpt>
      <trkpt lat="38.15749" lon="-3.99579">
        <ele>167.4</ele>
        <time>2022-11-26 10:57:27</time>
      </trkpt>
      <trkpt lat="38.15738" lon="-3.99578">
        <ele>167.4</ele>
        <time>2022-11-26 10:57:31</time>
      </trkpt>
      <trkpt lat="38.15727" lon="-3.99575">
        <ele>166.4</ele>
        <time>2022-11-26 10:57:35</time>
      </trkpt>
      <trkpt lat="38.15715" lon="-3.99572">
        <ele>166</ele>
        <time>2022-11-26 10:57:39</time>
      </trkpt>
      <trkpt lat="38.15702" lon="-3.99569">
        <ele>164.8</ele>
        <time>2022-11-26 10:57:43</time>
      </trkpt>
      <trkpt lat="38.1569" lon="-3.99566">
        <ele>165.4</ele>
        <time>2022-11-26 10:57:47</time>
      </trkpt>
      <trkpt lat="38.1568" lon="-3.99562">
        <ele>165.2</ele>
        <time>2022-11-26 10:57:51</time>
      </trkpt>
      <trkpt lat="38.15669" lon="-3.99556">
        <ele>165.2</ele>
        <time>2022-11-26 10:57:55</time>
      </trkpt>
      <trkpt lat="38.1566" lon="-3.99548">
        <ele>166.2</ele>
        <time>2022-11-26 10:57:59</time>
      </trkpt>
      <trkpt lat="38.15651" lon="-3.9954">
        <ele>166.4</ele>
        <time>2022-11-26 10:58:03</time>
      </trkpt>
      <trkpt lat="38.15643" lon="-3.99531">
        <ele>166.6</ele>
        <time>2022-11-26 10:58:07</time>
      </trkpt>
      <trkpt lat="38.15636" lon="-3.99525">
        <ele>166.2</ele>
        <time>2022-11-26 10:58:11</time>
      </trkpt>
      <trkpt lat="38.15626" lon="-3.9952">
        <ele>167</ele>
        <time>2022-11-26 10:58:15</time>
      </trkpt>
      <trkpt lat="38.15614" lon="-3.99524">
        <ele>166.6</ele>
        <time>2022-11-26 10:58:19</time>
      </trkpt>
      <trkpt lat="38.15601" lon="-3.9953">
        <ele>165.6</ele>
        <time>2022-11-26 10:58:23</time>
      </trkpt>
      <trkpt lat="38.15582" lon="-3.99535">
        <ele>164.2</ele>
        <time>2022-11-26 10:58:27</time>
      </trkpt>
      <trkpt lat="38.15566" lon="-3.99547">
        <ele>164</ele>
        <time>2022-11-26 10:58:31</time>
      </trkpt>
      <trkpt lat="38.15556" lon="-3.99556">
        <ele>163.6</ele>
        <time>2022-11-26 10:58:35</time>
      </trkpt>
      <trkpt lat="38.15543" lon="-3.9957">
        <ele>161.2</ele>
        <time>2022-11-26 10:58:39</time>
      </trkpt>
      <trkpt lat="38.15529" lon="-3.99586">
        <ele>161.4</ele>
        <time>2022-11-26 10:58:43</time>
      </trkpt>
      <trkpt lat="38.15516" lon="-3.99598">
        <ele>161.4</ele>
        <time>2022-11-26 10:58:47</time>
      </trkpt>
      <trkpt lat="38.15504" lon="-3.99611">
        <ele>162.4</ele>
        <time>2022-11-26 10:58:51</time>
      </trkpt>
      <trkpt lat="38.15497" lon="-3.99621">
        <ele>163</ele>
        <time>2022-11-26 10:58:55</time>
      </trkpt>
      <trkpt lat="38.15478" lon="-3.99635">
        <ele>160.4</ele>
        <time>2022-11-26 10:58:59</time>
      </trkpt>
      <trkpt lat="38.15457" lon="-3.99635">
        <ele>158.2</ele>
        <time>2022-11-26 10:59:03</time>
      </trkpt>
      <trkpt lat="38.15444" lon="-3.99637">
        <ele>159.2</ele>
        <time>2022-11-26 10:59:07</time>
      </trkpt>
      <trkpt lat="38.15431" lon="-3.99642">
        <ele>158.6</ele>
        <time>2022-11-26 10:59:11</time>
      </trkpt>
      <trkpt lat="38.15406" lon="-3.99649">
        <ele>153.6</ele>
        <time>2022-11-26 10:59:15</time>
      </trkpt>
      <trkpt lat="38.15388" lon="-3.99651">
        <ele>152.8</ele>
        <time>2022-11-26 10:59:19</time>
      </trkpt>
      <trkpt lat="38.15372" lon="-3.99665">
        <ele>151.2</ele>
        <time>2022-11-26 10:59:23</time>
      </trkpt>
      <trkpt lat="38.1536" lon="-3.99667">
        <ele>153.2</ele>
        <time>2022-11-26 10:59:27</time>
      </trkpt>
      <trkpt lat="38.15348" lon="-3.99658">
        <ele>153.2</ele>
        <time>2022-11-26 10:59:31</time>
      </trkpt>
      <trkpt lat="38.15335" lon="-3.99654">
        <ele>153.2</ele>
        <time>2022-11-26 10:59:35</time>
      </trkpt>
      <trkpt lat="38.15325" lon="-3.99651">
        <ele>154.8</ele>
        <time>2022-11-26 10:59:39</time>
      </trkpt>
      <trkpt lat="38.15317" lon="-3.9965">
        <ele>156</ele>
        <time>2022-11-26 10:59:43</time>
      </trkpt>
      <trkpt lat="38.15306" lon="-3.99649">
        <ele>156.6</ele>
        <time>2022-11-26 10:59:47</time>
      </trkpt>
      <trkpt lat="38.15295" lon="-3.99652">
        <ele>156.6</ele>
        <time>2022-11-26 10:59:51</time>
      </trkpt>
      <trkpt lat="38.15286" lon="-3.99663">
        <ele>157</ele>
        <time>2022-11-26 10:59:55</time>
      </trkpt>
      <trkpt lat="38.1528" lon="-3.99677">
        <ele>157.8</ele>
        <time>2022-11-26 10:59:59</time>
      </trkpt>
      <trkpt lat="38.15273" lon="-3.99687">
        <ele>158.4</ele>
        <time>2022-11-26 11:00:03</time>
      </trkpt>
      <trkpt lat="38.15263" lon="-3.99694">
        <ele>159.2</ele>
        <time>2022-11-26 11:00:07</time>
      </trkpt>
      <trkpt lat="38.15255" lon="-3.99699">
        <ele>160.2</ele>
        <time>2022-11-26 11:00:11</time>
      </trkpt>
      <trkpt lat="38.15246" lon="-3.99706">
        <ele>161.2</ele>
        <time>2022-11-26 11:00:15</time>
      </trkpt>
      <trkpt lat="38.15238" lon="-3.99713">
        <ele>161.6</ele>
        <time>2022-11-26 11:00:19</time>
      </trkpt>
      <trkpt lat="38.15231" lon="-3.99719">
        <ele>162.6</ele>
        <time>2022-11-26 11:00:23</time>
      </trkpt>
      <trkpt lat="38.15224" lon="-3.99728">
        <ele>163.2</ele>
        <time>2022-11-26 11:00:27</time>
      </trkpt>
      <trkpt lat="38.15219" lon="-3.99735">
        <ele>164</ele>
        <time>2022-11-26 11:00:31</time>
      </trkpt>
      <trkpt lat="38.15211" lon="-3.99741">
        <ele>164.8</ele>
        <time>2022-11-26 11:00:35</time>
      </trkpt>
      <trkpt lat="38.15203" lon="-3.99745">
        <ele>164.8</ele>
        <time>2022-11-26 11:00:39</time>
      </trkpt>
      <trkpt lat="38.15195" lon="-3.99749">
        <ele>165.6</ele>
        <time>2022-11-26 11:00:43</time>
      </trkpt>
      <trkpt lat="38.15187" lon="-3.99753">
        <ele>166.6</ele>
        <time>2022-11-26 11:00:47</time>
      </trkpt>
      <trkpt lat="38.1518" lon="-3.99759">
        <ele>167.6</ele>
        <time>2022-11-26 11:00:51</time>
      </trkpt>
      <trkpt lat="38.15172" lon="-3.99769">
        <ele>166.6</ele>
        <time>2022-11-26 11:00:55</time>
      </trkpt>
      <trkpt lat="38.15164" lon="-3.99779">
        <ele>167.2</ele>
        <time>2022-11-26 11:00:59</time>
      </trkpt>
      <trkpt lat="38.15157" lon="-3.99788">
        <ele>168.8</ele>
        <time>2022-11-26 11:01:03</time>
      </trkpt>
      <trkpt lat="38.15151" lon="-3.99795">
        <ele>170</ele>
        <time>2022-11-26 11:01:07</time>
      </trkpt>
      <trkpt lat="38.15143" lon="-3.99801">
        <ele>170.8</ele>
        <time>2022-11-26 11:01:11</time>
      </trkpt>
      <trkpt lat="38.15135" lon="-3.99807">
        <ele>172.2</ele>
        <time>2022-11-26 11:01:15</time>
      </trkpt>
      <trkpt lat="38.15127" lon="-3.99813">
        <ele>172.8</ele>
        <time>2022-11-26 11:01:19</time>
      </trkpt>
      <trkpt lat="38.15121" lon="-3.99818">
        <ele>173.8</ele>
        <time>2022-11-26 11:01:23</time>
      </trkpt>
      <trkpt lat="38.15116" lon="-3.99824">
        <ele>173.8</ele>
        <time>2022-11-26 11:01:27</time>
      </trkpt>
      <trkpt lat="38.1511" lon="-3.99832">
        <ele>174.8</ele>
        <time>2022-11-26 11:01:31</time>
      </trkpt>
      <trkpt lat="38.15103" lon="-3.99844">
        <ele>174</ele>
        <time>2022-11-26 11:01:35</time>
      </trkpt>
      <trkpt lat="38.15096" lon="-3.99857">
        <ele>175</ele>
        <time>2022-11-26 11:01:39</time>
      </trkpt>
      <trkpt lat="38.1509" lon="-3.99867">
        <ele>176</ele>
        <time>2022-11-26 11:01:43</time>
      </trkpt>
      <trkpt lat="38.15082" lon="-3.99876">
        <ele>177</ele>
        <time>2022-11-26 11:01:47</time>
      </trkpt>
      <trkpt lat="38.15074" lon="-3.99883">
        <ele>177.6</ele>
        <time>2022-11-26 11:01:51</time>
      </trkpt>
      <trkpt lat="38.15066" lon="-3.9989">
        <ele>178</ele>
        <time>2022-11-26 11:01:55</time>
      </trkpt>
      <trkpt lat="38.15058" lon="-3.99897">
        <ele>179</ele>
        <time>2022-11-26 11:01:59</time>
      </trkpt>
      <trkpt lat="38.1505" lon="-3.99904">
        <ele>179.6</ele>
        <time>2022-11-26 11:02:03</time>
      </trkpt>
      <trkpt lat="38.15042" lon="-3.99911">
        <ele>180.4</ele>
        <time>2022-11-26 11:02:07</time>
      </trkpt>
      <trkpt lat="38.15034" lon="-3.99921">
        <ele>181.2</ele>
        <time>2022-11-26 11:02:11</time>
      </trkpt>
      <trkpt lat="38.15029" lon="-3.99932">
        <ele>181.8</ele>
        <time>2022-11-26 11:02:15</time>
      </trkpt>
      <trkpt lat="38.15023" lon="-3.99944">
        <ele>181.8</ele>
        <time>2022-11-26 11:02:19</time>
      </trkpt>
      <trkpt lat="38.15019" lon="-3.99956">
        <ele>182.4</ele>
        <time>2022-11-26 11:02:23</time>
      </trkpt>
      <trkpt lat="38.15014" lon="-3.99968">
        <ele>182.6</ele>
        <time>2022-11-26 11:02:27</time>
      </trkpt>
      <trkpt lat="38.15009" lon="-3.9998">
        <ele>184</ele>
        <time>2022-11-26 11:02:31</time>
      </trkpt>
      <trkpt lat="38.15005" lon="-3.9999">
        <ele>185</ele>
        <time>2022-11-26 11:02:35</time>
      </trkpt>
      <trkpt lat="38.15002" lon="-4">
        <ele>186.2</ele>
        <time>2022-11-26 11:02:39</time>
      </trkpt>
      <trkpt lat="38.14999" lon="-4.0001">
        <ele>186.8</ele>
        <time>2022-11-26 11:02:43</time>
      </trkpt>
      <trkpt lat="38.14995" lon="-4.00021">
        <ele>188.2</ele>
        <time>2022-11-26 11:02:47</time>
      </trkpt>
      <trkpt lat="38.14991" lon="-4.00033">
        <ele>188.8</ele>
        <time>2022-11-26 11:02:51</time>
      </trkpt>
      <trkpt lat="38.14986" lon="-4.00044">
        <ele>189.2</ele>
        <time>2022-11-26 11:02:55</time>
      </trkpt>
      <trkpt lat="38.14981" lon="-4.00056">
        <ele>189.2</ele>
        <time>2022-11-26 11:02:59</time>
      </trkpt>
      <trkpt lat="38.14975" lon="-4.00067">
        <ele>189.8</ele>
        <time>2022-11-26 11:03:03</time>
      </trkpt>
      <trkpt lat="38.14967" lon="-4.00081">
        <ele>189.2</ele>
        <time>2022-11-26 11:03:07</time>
      </trkpt>
      <trkpt lat="38.14958" lon="-4.00101">
        <ele>188.8</ele>
        <time>2022-11-26 11:03:11</time>
      </trkpt>
      <trkpt lat="38.14947" lon="-4.00125">
        <ele>186.4</ele>
        <time>2022-11-26 11:03:15</time>
      </trkpt>
      <trkpt lat="38.14922" lon="-4.0014">
        <ele>182</ele>
        <time>2022-11-26 11:03:19</time>
      </trkpt>
      <trkpt lat="38.14896" lon="-4.00157">
        <ele>181</ele>
        <time>2022-11-26 11:03:23</time>
      </trkpt>
      <trkpt lat="38.14876" lon="-4.0018">
        <ele>181.8</ele>
        <time>2022-11-26 11:03:27</time>
      </trkpt>
      <trkpt lat="38.14864" lon="-4.00206">
        <ele>182</ele>
        <time>2022-11-26 11:03:31</time>
      </trkpt>
      <trkpt lat="38.14848" lon="-4.00228">
        <ele>179.2</ele>
        <time>2022-11-26 11:03:35</time>
      </trkpt>
      <trkpt lat="38.14823" lon="-4.00242">
        <ele>178</ele>
        <time>2022-11-26 11:03:39</time>
      </trkpt>
      <trkpt lat="38.14801" lon="-4.00258">
        <ele>178.6</ele>
        <time>2022-11-26 11:03:43</time>
      </trkpt>
      <trkpt lat="38.1479" lon="-4.00284">
        <ele>178.8</ele>
        <time>2022-11-26 11:03:47</time>
      </trkpt>
      <trkpt lat="38.14784" lon="-4.00302">
        <ele>179.8</ele>
        <time>2022-11-26 11:03:51</time>
      </trkpt>
      <trkpt lat="38.14778" lon="-4.0032">
        <ele>179.8</ele>
        <time>2022-11-26 11:03:55</time>
      </trkpt>
      <trkpt lat="38.14759" lon="-4.00342">
        <ele>176.2</ele>
        <time>2022-11-26 11:03:59</time>
      </trkpt>
      <trkpt lat="38.14744" lon="-4.00365">
        <ele>175.2</ele>
        <time>2022-11-26 11:04:03</time>
      </trkpt>
      <trkpt lat="38.14728" lon="-4.0039">
        <ele>174.2</ele>
        <time>2022-11-26 11:04:07</time>
      </trkpt>
      <trkpt lat="38.1471" lon="-4.00416">
        <ele>172.2</ele>
        <time>2022-11-26 11:04:11</time>
      </trkpt>
      <trkpt lat="38.1469" lon="-4.00439">
        <ele>170.6</ele>
        <time>2022-11-26 11:04:15</time>
      </trkpt>
      <trkpt lat="38.14673" lon="-4.00452">
        <ele>169.4</ele>
        <time>2022-11-26 11:04:19</time>
      </trkpt>
      <trkpt lat="38.14669" lon="-4.00463">
        <ele>168.8</ele>
        <time>2022-11-26 11:04:23</time>
      </trkpt>
      <trkpt lat="38.14664" lon="-4.00472">
        <ele>168.2</ele>
        <time>2022-11-26 11:04:27</time>
      </trkpt>
      <trkpt lat="38.14656" lon="-4.00466">
        <ele>167.6</ele>
        <time>2022-11-26 11:04:31</time>
      </trkpt>
      <trkpt lat="38.1465" lon="-4.00461">
        <ele>168</ele>
        <time>2022-11-26 11:04:35</time>
      </trkpt>
      <trkpt lat="38.14649" lon="-4.0046">
        <ele>168.2</ele>
        <time>2022-11-26 11:04:39</time>
      </trkpt>
      <trkpt lat="38.14643" lon="-4.00465">
        <ele>167.8</ele>
        <time>2022-11-26 11:04:43</time>
      </trkpt>
      <trkpt lat="38.14637" lon="-4.00473">
        <ele>168</ele>
        <time>2022-11-26 11:04:47</time>
      </trkpt>
      <trkpt lat="38.1463" lon="-4.00484">
        <ele>168.8</ele>
        <time>2022-11-26 11:04:51</time>
      </trkpt>
      <trkpt lat="38.14622" lon="-4.00492">
        <ele>168.6</ele>
        <time>2022-11-26 11:04:55</time>
      </trkpt>
      <trkpt lat="38.14611" lon="-4.00495">
        <ele>169.2</ele>
        <time>2022-11-26 11:04:59</time>
      </trkpt>
      <trkpt lat="38.14603" lon="-4.00497">
        <ele>169.4</ele>
        <time>2022-11-26 11:05:03</time>
      </trkpt>
      <trkpt lat="38.14595" lon="-4.00505">
        <ele>168.8</ele>
        <time>2022-11-26 11:05:07</time>
      </trkpt>
      <trkpt lat="38.14585" lon="-4.00514">
        <ele>167.8</ele>
        <time>2022-11-26 11:05:11</time>
      </trkpt>
      <trkpt lat="38.14577" lon="-4.00526">
        <ele>166.8</ele>
        <time>2022-11-26 11:05:15</time>
      </trkpt>
      <trkpt lat="38.14563" lon="-4.00532">
        <ele>167</ele>
        <time>2022-11-26 11:05:19</time>
      </trkpt>
      <trkpt lat="38.14555" lon="-4.00544">
        <ele>167.6</ele>
        <time>2022-11-26 11:05:23</time>
      </trkpt>
      <trkpt lat="38.14549" lon="-4.00553">
        <ele>166.4</ele>
        <time>2022-11-26 11:05:27</time>
      </trkpt>
      <trkpt lat="38.14535" lon="-4.00565">
        <ele>166</ele>
        <time>2022-11-26 11:05:31</time>
      </trkpt>
      <trkpt lat="38.14519" lon="-4.00576">
        <ele>166</ele>
        <time>2022-11-26 11:05:35</time>
      </trkpt>
      <trkpt lat="38.14505" lon="-4.00584">
        <ele>166.2</ele>
        <time>2022-11-26 11:05:39</time>
      </trkpt>
      <trkpt lat="38.1449" lon="-4.00593">
        <ele>166.2</ele>
        <time>2022-11-26 11:05:43</time>
      </trkpt>
      <trkpt lat="38.14478" lon="-4.00609">
        <ele>165.8</ele>
        <time>2022-11-26 11:05:47</time>
      </trkpt>
      <trkpt lat="38.14468" lon="-4.00624">
        <ele>165.2</ele>
        <time>2022-11-26 11:05:51</time>
      </trkpt>
      <trkpt lat="38.14455" lon="-4.00636">
        <ele>165.4</ele>
        <time>2022-11-26 11:05:55</time>
      </trkpt>
      <trkpt lat="38.1444" lon="-4.00645">
        <ele>165.4</ele>
        <time>2022-11-26 11:05:59</time>
      </trkpt>
      <trkpt lat="38.14423" lon="-4.00652">
        <ele>165.4</ele>
        <time>2022-11-26 11:06:40</time>
      </trkpt>
      <trkpt lat="38.14407" lon="-4.00656">
        <ele>165.2</ele>
        <time>2022-11-26 11:06:44</time>
      </trkpt>
      <trkpt lat="38.1439" lon="-4.00658">
        <ele>165.2</ele>
        <time>2022-11-26 11:06:48</time>
      </trkpt>
      <trkpt lat="38.14372" lon="-4.00661">
        <ele>164.4</ele>
        <time>2022-11-26 11:06:52</time>
      </trkpt>
      <trkpt lat="38.14356" lon="-4.0066">
        <ele>165</ele>
        <time>2022-11-26 11:06:56</time>
      </trkpt>
      <trkpt lat="38.14342" lon="-4.00658">
        <ele>166.6</ele>
        <time>2022-11-26 11:07:00</time>
      </trkpt>
      <trkpt lat="38.14333" lon="-4.00657">
        <ele>167.6</ele>
        <time>2022-11-26 11:07:04</time>
      </trkpt>
      <trkpt lat="38.14323" lon="-4.00651">
        <ele>168.6</ele>
        <time>2022-11-26 11:07:08</time>
      </trkpt>
      <trkpt lat="38.1431" lon="-4.00645">
        <ele>169.2</ele>
        <time>2022-11-26 11:07:12</time>
      </trkpt>
      <trkpt lat="38.14299" lon="-4.0064">
        <ele>169.2</ele>
        <time>2022-11-26 11:07:16</time>
      </trkpt>
      <trkpt lat="38.14288" lon="-4.00632">
        <ele>168.4</ele>
        <time>2022-11-26 11:07:20</time>
      </trkpt>
      <trkpt lat="38.14275" lon="-4.00616">
        <ele>168.8</ele>
        <time>2022-11-26 11:07:24</time>
      </trkpt>
      <trkpt lat="38.14261" lon="-4.006">
        <ele>169.2</ele>
        <time>2022-11-26 11:07:28</time>
      </trkpt>
      <trkpt lat="38.1425" lon="-4.00582">
        <ele>170.2</ele>
        <time>2022-11-26 11:07:32</time>
      </trkpt>
      <trkpt lat="38.1424" lon="-4.00572">
        <ele>170.6</ele>
        <time>2022-11-26 11:07:36</time>
      </trkpt>
      <trkpt lat="38.14226" lon="-4.00566">
        <ele>171.2</ele>
        <time>2022-11-26 11:07:40</time>
      </trkpt>
      <trkpt lat="38.14216" lon="-4.00558">
        <ele>171.8</ele>
        <time>2022-11-26 11:07:44</time>
      </trkpt>
      <trkpt lat="38.14206" lon="-4.00553">
        <ele>173.2</ele>
        <time>2022-11-26 11:07:48</time>
      </trkpt>
      <trkpt lat="38.14198" lon="-4.00544">
        <ele>174.6</ele>
        <time>2022-11-26 11:07:52</time>
      </trkpt>
      <trkpt lat="38.1419" lon="-4.00537">
        <ele>176</ele>
        <time>2022-11-26 11:07:56</time>
      </trkpt>
      <trkpt lat="38.14184" lon="-4.0053">
        <ele>177</ele>
        <time>2022-11-26 11:08:00</time>
      </trkpt>
      <trkpt lat="38.14178" lon="-4.00525">
        <ele>177.6</ele>
        <time>2022-11-26 11:08:04</time>
      </trkpt>
      <trkpt lat="38.14173" lon="-4.0052">
        <ele>178.6</ele>
        <time>2022-11-26 11:08:08</time>
      </trkpt>
      <trkpt lat="38.14165" lon="-4.00513">
        <ele>179.4</ele>
        <time>2022-11-26 11:08:12</time>
      </trkpt>
      <trkpt lat="38.14156" lon="-4.00505">
        <ele>180.4</ele>
        <time>2022-11-26 11:08:16</time>
      </trkpt>
      <trkpt lat="38.14149" lon="-4.00498">
        <ele>181.4</ele>
        <time>2022-11-26 11:08:20</time>
      </trkpt>
      <trkpt lat="38.14142" lon="-4.00491">
        <ele>182.4</ele>
        <time>2022-11-26 11:08:24</time>
      </trkpt>
      <trkpt lat="38.14136" lon="-4.00485">
        <ele>182.6</ele>
        <time>2022-11-26 11:08:28</time>
      </trkpt>
      <trkpt lat="38.1413" lon="-4.00481">
        <ele>183</ele>
        <time>2022-11-26 11:08:32</time>
      </trkpt>
      <trkpt lat="38.14122" lon="-4.00477">
        <ele>183.8</ele>
        <time>2022-11-26 11:08:36</time>
      </trkpt>
      <trkpt lat="38.14113" lon="-4.00471">
        <ele>182.6</ele>
        <time>2022-11-26 11:08:40</time>
      </trkpt>
      <trkpt lat="38.14096" lon="-4.00466">
        <ele>181</ele>
        <time>2022-11-26 11:08:44</time>
      </trkpt>
      <trkpt lat="38.14076" lon="-4.00466">
        <ele>178.2</ele>
        <time>2022-11-26 11:08:48</time>
      </trkpt>
      <trkpt lat="38.14053" lon="-4.00475">
        <ele>174.6</ele>
        <time>2022-11-26 11:08:52</time>
      </trkpt>
      <trkpt lat="38.14037" lon="-4.00504">
        <ele>173.4</ele>
        <time>2022-11-26 11:08:56</time>
      </trkpt>
      <trkpt lat="38.14035" lon="-4.00536">
        <ele>171.4</ele>
        <time>2022-11-26 11:09:00</time>
      </trkpt>
      <trkpt lat="38.14029" lon="-4.00561">
        <ele>171.4</ele>
        <time>2022-11-26 11:09:04</time>
      </trkpt>
      <trkpt lat="38.14017" lon="-4.00587">
        <ele>171.8</ele>
        <time>2022-11-26 11:09:08</time>
      </trkpt>
      <trkpt lat="38.14011" lon="-4.00588">
        <ele>171.2</ele>
        <time>2022-11-26 11:09:12</time>
      </trkpt>
      <trkpt lat="38.14002" lon="-4.00584">
        <ele>171.6</ele>
        <time>2022-11-26 11:09:16</time>
      </trkpt>
      <trkpt lat="38.13996" lon="-4.0058">
        <ele>172.2</ele>
        <time>2022-11-26 11:09:20</time>
      </trkpt>
      <trkpt lat="38.13989" lon="-4.00573">
        <ele>173.2</ele>
        <time>2022-11-26 11:09:24</time>
      </trkpt>
      <trkpt lat="38.13982" lon="-4.00566">
        <ele>174.2</ele>
        <time>2022-11-26 11:09:28</time>
      </trkpt>
      <trkpt lat="38.13974" lon="-4.00559">
        <ele>174.8</ele>
        <time>2022-11-26 11:09:32</time>
      </trkpt>
      <trkpt lat="38.13963" lon="-4.00551">
        <ele>175.4</ele>
        <time>2022-11-26 11:09:36</time>
      </trkpt>
      <trkpt lat="38.13953" lon="-4.00544">
        <ele>176.6</ele>
        <time>2022-11-26 11:09:40</time>
      </trkpt>
      <trkpt lat="38.13942" lon="-4.00541">
        <ele>177</ele>
        <time>2022-11-26 11:09:44</time>
      </trkpt>
      <trkpt lat="38.13932" lon="-4.00537">
        <ele>177.8</ele>
        <time>2022-11-26 11:09:48</time>
      </trkpt>
      <trkpt lat="38.13921" lon="-4.00533">
        <ele>178.8</ele>
        <time>2022-11-26 11:09:52</time>
      </trkpt>
      <trkpt lat="38.1391" lon="-4.00527">
        <ele>180.2</ele>
        <time>2022-11-26 11:09:56</time>
      </trkpt>
      <trkpt lat="38.139" lon="-4.00523">
        <ele>180.8</ele>
        <time>2022-11-26 11:10:00</time>
      </trkpt>
      <trkpt lat="38.13889" lon="-4.00517">
        <ele>180.8</ele>
        <time>2022-11-26 11:10:04</time>
      </trkpt>
      <trkpt lat="38.13878" lon="-4.00511">
        <ele>181</ele>
        <time>2022-11-26 11:10:08</time>
      </trkpt>
      <trkpt lat="38.13866" lon="-4.00504">
        <ele>181.4</ele>
        <time>2022-11-26 11:10:12</time>
      </trkpt>
      <trkpt lat="38.13857" lon="-4.00498">
        <ele>182</ele>
        <time>2022-11-26 11:10:16</time>
      </trkpt>
      <trkpt lat="38.13845" lon="-4.00491">
        <ele>182.4</ele>
        <time>2022-11-26 11:10:20</time>
      </trkpt>
      <trkpt lat="38.13835" lon="-4.00483">
        <ele>182.8</ele>
        <time>2022-11-26 11:10:24</time>
      </trkpt>
      <trkpt lat="38.13823" lon="-4.00474">
        <ele>182.6</ele>
        <time>2022-11-26 11:10:28</time>
      </trkpt>
      <trkpt lat="38.13812" lon="-4.00467">
        <ele>183.4</ele>
        <time>2022-11-26 11:11:11</time>
      </trkpt>
      <trkpt lat="38.13802" lon="-4.00459">
        <ele>183.4</ele>
        <time>2022-11-26 11:11:15</time>
      </trkpt>
      <trkpt lat="38.13791" lon="-4.00451">
        <ele>184</ele>
        <time>2022-11-26 11:11:19</time>
      </trkpt>
      <trkpt lat="38.13778" lon="-4.00441">
        <ele>184.4</ele>
        <time>2022-11-26 11:11:23</time>
      </trkpt>
      <trkpt lat="38.13768" lon="-4.00432">
        <ele>185.2</ele>
        <time>2022-11-26 11:11:27</time>
      </trkpt>
      <trkpt lat="38.13758" lon="-4.00423">
        <ele>185.6</ele>
        <time>2022-11-26 11:11:31</time>
      </trkpt>
      <trkpt lat="38.13736" lon="-4.00425">
        <ele>186.6</ele>
        <time>2022-11-26 11:11:35</time>
      </trkpt>
      <trkpt lat="38.13731" lon="-4.00428">
        <ele>187.2</ele>
        <time>2022-11-26 11:11:39</time>
      </trkpt>
      <trkpt lat="38.13723" lon="-4.00426">
        <ele>186.2</ele>
        <time>2022-11-26 11:11:43</time>
      </trkpt>
      <trkpt lat="38.13711" lon="-4.00423">
        <ele>185.8</ele>
        <time>2022-11-26 11:11:47</time>
      </trkpt>
      <trkpt lat="38.13695" lon="-4.00427">
        <ele>184.8</ele>
        <time>2022-11-26 11:11:51</time>
      </trkpt>
      <trkpt lat="38.13676" lon="-4.00428">
        <ele>184.4</ele>
        <time>2022-11-26 11:11:55</time>
      </trkpt>
      <trkpt lat="38.13658" lon="-4.0042">
        <ele>184.4</ele>
        <time>2022-11-26 11:11:59</time>
      </trkpt>
      <trkpt lat="38.13645" lon="-4.00407">
        <ele>183.8</ele>
        <time>2022-11-26 11:12:03</time>
      </trkpt>
      <trkpt lat="38.13631" lon="-4.00395">
        <ele>184.2</ele>
        <time>2022-11-26 11:12:07</time>
      </trkpt>
      <trkpt lat="38.13622" lon="-4.00384">
        <ele>183.8</ele>
        <time>2022-11-26 11:12:11</time>
      </trkpt>
      <trkpt lat="38.13609" lon="-4.00373">
        <ele>184</ele>
        <time>2022-11-26 11:12:15</time>
      </trkpt>
      <trkpt lat="38.13593" lon="-4.00369">
        <ele>184.8</ele>
        <time>2022-11-26 11:12:19</time>
      </trkpt>
      <trkpt lat="38.13582" lon="-4.00363">
        <ele>185</ele>
        <time>2022-11-26 11:12:23</time>
      </trkpt>
      <trkpt lat="38.13571" lon="-4.00353">
        <ele>185.4</ele>
        <time>2022-11-26 11:12:27</time>
      </trkpt>
      <trkpt lat="38.13557" lon="-4.00343">
        <ele>186</ele>
        <time>2022-11-26 11:12:31</time>
      </trkpt>
      <trkpt lat="38.13545" lon="-4.00335">
        <ele>186.6</ele>
        <time>2022-11-26 11:12:35</time>
      </trkpt>
      <trkpt lat="38.13531" lon="-4.00328">
        <ele>186.8</ele>
        <time>2022-11-26 11:12:39</time>
      </trkpt>
      <trkpt lat="38.13518" lon="-4.0032">
        <ele>187.4</ele>
        <time>2022-11-26 11:12:43</time>
      </trkpt>
      <trkpt lat="38.13504" lon="-4.00314">
        <ele>187.8</ele>
        <time>2022-11-26 11:12:47</time>
      </trkpt>
      <trkpt lat="38.1349" lon="-4.00309">
        <ele>187.4</ele>
        <time>2022-11-26 11:12:51</time>
      </trkpt>
      <trkpt lat="38.13476" lon="-4.00302">
        <ele>188</ele>
        <time>2022-11-26 11:12:55</time>
      </trkpt>
      <trkpt lat="38.13466" lon="-4.00293">
        <ele>189.6</ele>
        <time>2022-11-26 11:12:59</time>
      </trkpt>
      <trkpt lat="38.13457" lon="-4.00288">
        <ele>190</ele>
        <time>2022-11-26 11:14:11</time>
      </trkpt>
      <trkpt lat="38.13449" lon="-4.00282">
        <ele>191.4</ele>
        <time>2022-11-26 11:14:15</time>
      </trkpt>
      <trkpt lat="38.13439" lon="-4.00278">
        <ele>191.2</ele>
        <time>2022-11-26 11:14:19</time>
      </trkpt>
      <trkpt lat="38.13429" lon="-4.00274">
        <ele>189.8</ele>
        <time>2022-11-26 11:14:23</time>
      </trkpt>
      <trkpt lat="38.13412" lon="-4.0027">
        <ele>190.8</ele>
        <time>2022-11-26 11:14:27</time>
      </trkpt>
      <trkpt lat="38.134" lon="-4.00263">
        <ele>191.2</ele>
        <time>2022-11-26 11:14:31</time>
      </trkpt>
      <trkpt lat="38.13387" lon="-4.00254">
        <ele>190.2</ele>
        <time>2022-11-26 11:14:35</time>
      </trkpt>
      <trkpt lat="38.13374" lon="-4.00245">
        <ele>190.2</ele>
        <time>2022-11-26 11:14:39</time>
      </trkpt>
      <trkpt lat="38.13357" lon="-4.00244">
        <ele>189.6</ele>
        <time>2022-11-26 11:14:43</time>
      </trkpt>
      <trkpt lat="38.1334" lon="-4.00246">
        <ele>190.6</ele>
        <time>2022-11-26 11:14:47</time>
      </trkpt>
      <trkpt lat="38.13327" lon="-4.00248">
        <ele>191.4</ele>
        <time>2022-11-26 11:14:51</time>
      </trkpt>
      <trkpt lat="38.13315" lon="-4.0025">
        <ele>192.2</ele>
        <time>2022-11-26 11:14:55</time>
      </trkpt>
      <trkpt lat="38.13303" lon="-4.00251">
        <ele>192.8</ele>
        <time>2022-11-26 11:14:59</time>
      </trkpt>
      <trkpt lat="38.13291" lon="-4.00253">
        <ele>193.4</ele>
        <time>2022-11-26 11:15:03</time>
      </trkpt>
      <trkpt lat="38.13279" lon="-4.00253">
        <ele>193.4</ele>
        <time>2022-11-26 11:15:07</time>
      </trkpt>
      <trkpt lat="38.13269" lon="-4.00253">
        <ele>194.2</ele>
        <time>2022-11-26 11:15:11</time>
      </trkpt>
      <trkpt lat="38.13261" lon="-4.00256">
        <ele>193.6</ele>
        <time>2022-11-26 11:15:15</time>
      </trkpt>
      <trkpt lat="38.1325" lon="-4.00261">
        <ele>193</ele>
        <time>2022-11-26 11:15:19</time>
      </trkpt>
      <trkpt lat="38.13242" lon="-4.00275">
        <ele>195.6</ele>
        <time>2022-11-26 11:15:23</time>
      </trkpt>
      <trkpt lat="38.13237" lon="-4.00287">
        <ele>196.8</ele>
        <time>2022-11-26 11:15:27</time>
      </trkpt>
      <trkpt lat="38.13231" lon="-4.00295">
        <ele>197.2</ele>
        <time>2022-11-26 11:15:31</time>
      </trkpt>
      <trkpt lat="38.13223" lon="-4.00303">
        <ele>197.8</ele>
        <time>2022-11-26 11:15:35</time>
      </trkpt>
      <trkpt lat="38.13214" lon="-4.00307">
        <ele>199</ele>
        <time>2022-11-26 11:15:39</time>
      </trkpt>
      <trkpt lat="38.13206" lon="-4.00308">
        <ele>199.6</ele>
        <time>2022-11-26 11:15:43</time>
      </trkpt>
      <trkpt lat="38.13198" lon="-4.00306">
        <ele>199.8</ele>
        <time>2022-11-26 11:15:47</time>
      </trkpt>
      <trkpt lat="38.13189" lon="-4.00307">
        <ele>201</ele>
        <time>2022-11-26 11:15:51</time>
      </trkpt>
      <trkpt lat="38.1318" lon="-4.00309">
        <ele>201.2</ele>
        <time>2022-11-26 11:15:55</time>
      </trkpt>
      <trkpt lat="38.1317" lon="-4.00313">
        <ele>201.2</ele>
        <time>2022-11-26 11:15:59</time>
      </trkpt>
      <trkpt lat="38.13157" lon="-4.00318">
        <ele>201</ele>
        <time>2022-11-26 11:16:03</time>
      </trkpt>
      <trkpt lat="38.13145" lon="-4.00324">
        <ele>202.2</ele>
        <time>2022-11-26 11:16:07</time>
      </trkpt>
      <trkpt lat="38.13136" lon="-4.00333">
        <ele>202</ele>
        <time>2022-11-26 11:16:11</time>
      </trkpt>
      <trkpt lat="38.13129" lon="-4.00343">
        <ele>203.2</ele>
        <time>2022-11-26 11:16:15</time>
      </trkpt>
      <trkpt lat="38.13123" lon="-4.00351">
        <ele>203.6</ele>
        <time>2022-11-26 11:16:19</time>
      </trkpt>
      <trkpt lat="38.13115" lon="-4.00357">
        <ele>203.6</ele>
        <time>2022-11-26 11:16:23</time>
      </trkpt>
      <trkpt lat="38.13106" lon="-4.00361">
        <ele>204.6</ele>
        <time>2022-11-26 11:16:27</time>
      </trkpt>
      <trkpt lat="38.131" lon="-4.00363">
        <ele>204.4</ele>
        <time>2022-11-26 11:16:31</time>
      </trkpt>
      <trkpt lat="38.13095" lon="-4.00361">
        <ele>205.4</ele>
        <time>2022-11-26 11:16:35</time>
      </trkpt>
      <trkpt lat="38.13091" lon="-4.00353">
        <ele>206.8</ele>
        <time>2022-11-26 11:16:39</time>
      </trkpt>
      <trkpt lat="38.13088" lon="-4.00348">
        <ele>207.6</ele>
        <time>2022-11-26 11:16:43</time>
      </trkpt>
      <trkpt lat="38.13082" lon="-4.00345">
        <ele>208.2</ele>
        <time>2022-11-26 11:16:47</time>
      </trkpt>
      <trkpt lat="38.13077" lon="-4.00343">
        <ele>208.6</ele>
        <time>2022-11-26 11:16:51</time>
      </trkpt>
      <trkpt lat="38.13072" lon="-4.0034">
        <ele>210.6</ele>
        <time>2022-11-26 11:16:55</time>
      </trkpt>
      <trkpt lat="38.13067" lon="-4.00337">
        <ele>211</ele>
        <time>2022-11-26 11:16:59</time>
      </trkpt>
      <trkpt lat="38.13061" lon="-4.00333">
        <ele>212.6</ele>
        <time>2022-11-26 11:17:03</time>
      </trkpt>
      <trkpt lat="38.13054" lon="-4.00331">
        <ele>213.4</ele>
        <time>2022-11-26 11:17:07</time>
      </trkpt>
      <trkpt lat="38.13048" lon="-4.00326">
        <ele>214.4</ele>
        <time>2022-11-26 11:17:11</time>
      </trkpt>
      <trkpt lat="38.13043" lon="-4.0032">
        <ele>214.2</ele>
        <time>2022-11-26 11:17:15</time>
      </trkpt>
      <trkpt lat="38.1304" lon="-4.00315">
        <ele>215</ele>
        <time>2022-11-26 11:17:19</time>
      </trkpt>
      <trkpt lat="38.13035" lon="-4.00311">
        <ele>215.8</ele>
        <time>2022-11-26 11:17:23</time>
      </trkpt>
      <trkpt lat="38.1303" lon="-4.00308">
        <ele>217</ele>
        <time>2022-11-26 11:17:27</time>
      </trkpt>
      <trkpt lat="38.13026" lon="-4.00302">
        <ele>218.2</ele>
        <time>2022-11-26 11:17:31</time>
      </trkpt>
      <trkpt lat="38.13022" lon="-4.00297">
        <ele>219.4</ele>
        <time>2022-11-26 11:17:35</time>
      </trkpt>
      <trkpt lat="38.13017" lon="-4.00294">
        <ele>221.2</ele>
        <time>2022-11-26 11:17:39</time>
      </trkpt>
      <trkpt lat="38.1301" lon="-4.00291">
        <ele>222.6</ele>
        <time>2022-11-26 11:17:43</time>
      </trkpt>
      <trkpt lat="38.13006" lon="-4.00289">
        <ele>223.4</ele>
        <time>2022-11-26 11:17:47</time>
      </trkpt>
      <trkpt lat="38.13002" lon="-4.00285">
        <ele>224.6</ele>
        <time>2022-11-26 11:17:51</time>
      </trkpt>
      <trkpt lat="38.13" lon="-4.00283">
        <ele>224.6</ele>
        <time>2022-11-26 11:17:55</time>
      </trkpt>
      <trkpt lat="38.12996" lon="-4.00279">
        <ele>225</ele>
        <time>2022-11-26 11:17:59</time>
      </trkpt>
      <trkpt lat="38.12994" lon="-4.00277">
        <ele>224.8</ele>
        <time>2022-11-26 11:18:03</time>
      </trkpt>
      <trkpt lat="38.12989" lon="-4.00275">
        <ele>225</ele>
        <time>2022-11-26 11:18:07</time>
      </trkpt>
      <trkpt lat="38.1298" lon="-4.00275">
        <ele>225.6</ele>
        <time>2022-11-26 11:18:11</time>
      </trkpt>
      <trkpt lat="38.12972" lon="-4.00274">
        <ele>225.8</ele>
        <time>2022-11-26 11:18:15</time>
      </trkpt>
      <trkpt lat="38.12962" lon="-4.00276">
        <ele>226.2</ele>
        <time>2022-11-26 11:18:19</time>
      </trkpt>
      <trkpt lat="38.12949" lon="-4.00285">
        <ele>224.4</ele>
        <time>2022-11-26 11:18:23</time>
      </trkpt>
      <trkpt lat="38.12939" lon="-4.00303">
        <ele>223.2</ele>
        <time>2022-11-26 11:18:27</time>
      </trkpt>
      <trkpt lat="38.12925" lon="-4.0032">
        <ele>223.4</ele>
        <time>2022-11-26 11:18:31</time>
      </trkpt>
      <trkpt lat="38.12909" lon="-4.00327">
        <ele>218.2</ele>
        <time>2022-11-26 11:18:35</time>
      </trkpt>
      <trkpt lat="38.12884" lon="-4.00337">
        <ele>221.4</ele>
        <time>2022-11-26 11:18:39</time>
      </trkpt>
      <trkpt lat="38.12871" lon="-4.00346">
        <ele>221.4</ele>
        <time>2022-11-26 11:18:43</time>
      </trkpt>
      <trkpt lat="38.12856" lon="-4.00355">
        <ele>220.8</ele>
        <time>2022-11-26 11:18:47</time>
      </trkpt>
      <trkpt lat="38.12849" lon="-4.00367">
        <ele>220.4</ele>
        <time>2022-11-26 11:18:51</time>
      </trkpt>
      <trkpt lat="38.12839" lon="-4.00381">
        <ele>221.8</ele>
        <time>2022-11-26 11:18:55</time>
      </trkpt>
      <trkpt lat="38.12834" lon="-4.00391">
        <ele>224.2</ele>
        <time>2022-11-26 11:18:59</time>
      </trkpt>
      <trkpt lat="38.12824" lon="-4.00396">
        <ele>222</ele>
        <time>2022-11-26 11:19:03</time>
      </trkpt>
      <trkpt lat="38.12808" lon="-4.00401">
        <ele>222.6</ele>
        <time>2022-11-26 11:19:07</time>
      </trkpt>
      <trkpt lat="38.12799" lon="-4.00408">
        <ele>223.4</ele>
        <time>2022-11-26 11:19:11</time>
      </trkpt>
      <trkpt lat="38.12791" lon="-4.00409">
        <ele>222.8</ele>
        <time>2022-11-26 11:19:15</time>
      </trkpt>
      <trkpt lat="38.12765" lon="-4.00411">
        <ele>223</ele>
        <time>2022-11-26 11:19:19</time>
      </trkpt>
      <trkpt lat="38.12759" lon="-4.00415">
        <ele>223.6</ele>
        <time>2022-11-26 11:19:23</time>
      </trkpt>
      <trkpt lat="38.1275" lon="-4.00419">
        <ele>224</ele>
        <time>2022-11-26 11:19:27</time>
      </trkpt>
      <trkpt lat="38.12742" lon="-4.00424">
        <ele>225</ele>
        <time>2022-11-26 11:19:31</time>
      </trkpt>
      <trkpt lat="38.12734" lon="-4.00425">
        <ele>226.2</ele>
        <time>2022-11-26 11:19:35</time>
      </trkpt>
      <trkpt lat="38.12728" lon="-4.00429">
        <ele>226.2</ele>
        <time>2022-11-26 11:19:39</time>
      </trkpt>
      <trkpt lat="38.12721" lon="-4.00432">
        <ele>227.6</ele>
        <time>2022-11-26 11:19:43</time>
      </trkpt>
      <trkpt lat="38.12715" lon="-4.00435">
        <ele>227.8</ele>
        <time>2022-11-26 11:19:47</time>
      </trkpt>
      <trkpt lat="38.12706" lon="-4.0044">
        <ele>227.8</ele>
        <time>2022-11-26 11:19:51</time>
      </trkpt>
      <trkpt lat="38.12699" lon="-4.00442">
        <ele>229.2</ele>
        <time>2022-11-26 11:19:55</time>
      </trkpt>
      <trkpt lat="38.12696" lon="-4.00444">
        <ele>229.8</ele>
        <time>2022-11-26 11:19:59</time>
      </trkpt>
      <trkpt lat="38.12692" lon="-4.00446">
        <ele>229.4</ele>
        <time>2022-11-26 11:20:03</time>
      </trkpt>
      <trkpt lat="38.12649" lon="-4.00473">
        <ele>238.8</ele>
        <time>2022-11-26 11:20:07</time>
      </trkpt>
      <trkpt lat="38.12645" lon="-4.00477">
        <ele>238.8</ele>
        <time>2022-11-26 11:20:11</time>
      </trkpt>
      <trkpt lat="38.12638" lon="-4.00481">
        <ele>239.6</ele>
        <time>2022-11-26 11:20:15</time>
      </trkpt>
      <trkpt lat="38.12634" lon="-4.00483">
        <ele>240.2</ele>
        <time>2022-11-26 11:20:19</time>
      </trkpt>
      <trkpt lat="38.1263" lon="-4.00483">
        <ele>240.4</ele>
        <time>2022-11-26 11:20:23</time>
      </trkpt>
      <trkpt lat="38.12628" lon="-4.00479">
        <ele>239.6</ele>
        <time>2022-11-26 11:20:27</time>
      </trkpt>
      <trkpt lat="38.12618" lon="-4.00479">
        <ele>243.6</ele>
        <time>2022-11-26 11:20:31</time>
      </trkpt>
      <trkpt lat="38.12613" lon="-4.00483">
        <ele>243.8</ele>
        <time>2022-11-26 11:20:35</time>
      </trkpt>
      <trkpt lat="38.12607" lon="-4.00485">
        <ele>243.8</ele>
        <time>2022-11-26 11:20:39</time>
      </trkpt>
      <trkpt lat="38.12601" lon="-4.00491">
        <ele>244.4</ele>
        <time>2022-11-26 11:20:43</time>
      </trkpt>
      <trkpt lat="38.12596" lon="-4.00496">
        <ele>245.6</ele>
        <time>2022-11-26 11:20:47</time>
      </trkpt>
      <trkpt lat="38.12592" lon="-4.00499">
        <ele>246.6</ele>
        <time>2022-11-26 11:21:15</time>
      </trkpt>
      <trkpt lat="38.12588" lon="-4.00501">
        <ele>245.2</ele>
        <time>2022-11-26 11:21:19</time>
      </trkpt>
      <trkpt lat="38.12581" lon="-4.0051">
        <ele>243.6</ele>
        <time>2022-11-26 11:21:23</time>
      </trkpt>
      <trkpt lat="38.12568" lon="-4.0051">
        <ele>240.8</ele>
        <time>2022-11-26 11:21:27</time>
      </trkpt>
      <trkpt lat="38.12554" lon="-4.00498">
        <ele>241</ele>
        <time>2022-11-26 11:21:31</time>
      </trkpt>
      <trkpt lat="38.12535" lon="-4.00489">
        <ele>242</ele>
        <time>2022-11-26 11:21:35</time>
      </trkpt>
      <trkpt lat="38.12524" lon="-4.00482">
        <ele>243.8</ele>
        <time>2022-11-26 11:21:39</time>
      </trkpt>
      <trkpt lat="38.12515" lon="-4.0048">
        <ele>244.6</ele>
        <time>2022-11-26 11:21:43</time>
      </trkpt>
      <trkpt lat="38.12506" lon="-4.00482">
        <ele>245</ele>
        <time>2022-11-26 11:21:47</time>
      </trkpt>
      <trkpt lat="38.125" lon="-4.0049">
        <ele>243</ele>
        <time>2022-11-26 11:21:51</time>
      </trkpt>
      <trkpt lat="38.12489" lon="-4.00502">
        <ele>243.8</ele>
        <time>2022-11-26 11:21:55</time>
      </trkpt>
      <trkpt lat="38.1248" lon="-4.00509">
        <ele>244.2</ele>
        <time>2022-11-26 11:21:59</time>
      </trkpt>
      <trkpt lat="38.12457" lon="-4.00556">
        <ele>247</ele>
        <time>2022-11-26 11:22:03</time>
      </trkpt>
      <trkpt lat="38.12455" lon="-4.00558">
        <ele>246.8</ele>
        <time>2022-11-26 11:22:57</time>
      </trkpt>
      <trkpt lat="38.12451" lon="-4.00565">
        <ele>248</ele>
        <time>2022-11-26 11:23:01</time>
      </trkpt>
      <trkpt lat="38.12445" lon="-4.00573">
        <ele>248.6</ele>
        <time>2022-11-26 11:23:05</time>
      </trkpt>
      <trkpt lat="38.12442" lon="-4.00582">
        <ele>250</ele>
        <time>2022-11-26 11:23:09</time>
      </trkpt>
      <trkpt lat="38.12439" lon="-4.00594">
        <ele>250.6</ele>
        <time>2022-11-26 11:23:13</time>
      </trkpt>
      <trkpt lat="38.12436" lon="-4.00604">
        <ele>251</ele>
        <time>2022-11-26 11:23:17</time>
      </trkpt>
      <trkpt lat="38.12433" lon="-4.00615">
        <ele>251.2</ele>
        <time>2022-11-26 11:23:21</time>
      </trkpt>
      <trkpt lat="38.12432" lon="-4.00626">
        <ele>251.8</ele>
        <time>2022-11-26 11:23:48</time>
      </trkpt>
      <trkpt lat="38.12433" lon="-4.00633">
        <ele>252.6</ele>
        <time>2022-11-26 11:23:52</time>
      </trkpt>
      <trkpt lat="38.12433" lon="-4.00644">
        <ele>252.8</ele>
        <time>2022-11-26 11:23:56</time>
      </trkpt>
      <trkpt lat="38.12435" lon="-4.00654">
        <ele>253.2</ele>
        <time>2022-11-26 11:24:00</time>
      </trkpt>
      <trkpt lat="38.12435" lon="-4.00663">
        <ele>253.6</ele>
        <time>2022-11-26 11:24:04</time>
      </trkpt>
      <trkpt lat="38.12436" lon="-4.00672">
        <ele>254.4</ele>
        <time>2022-11-26 11:24:08</time>
      </trkpt>
      <trkpt lat="38.12436" lon="-4.00682">
        <ele>255</ele>
        <time>2022-11-26 11:24:12</time>
      </trkpt>
      <trkpt lat="38.12436" lon="-4.0069">
        <ele>255.4</ele>
        <time>2022-11-26 11:24:16</time>
      </trkpt>
      <trkpt lat="38.12433" lon="-4.00699">
        <ele>256</ele>
        <time>2022-11-26 11:24:20</time>
      </trkpt>
      <trkpt lat="38.12431" lon="-4.00708">
        <ele>256.4</ele>
        <time>2022-11-26 11:24:24</time>
      </trkpt>
      <trkpt lat="38.1243" lon="-4.00716">
        <ele>256.8</ele>
        <time>2022-11-26 11:24:28</time>
      </trkpt>
      <trkpt lat="38.12429" lon="-4.00725">
        <ele>257.8</ele>
        <time>2022-11-26 11:24:32</time>
      </trkpt>
      <trkpt lat="38.12428" lon="-4.00735">
        <ele>258</ele>
        <time>2022-11-26 11:24:36</time>
      </trkpt>
      <trkpt lat="38.12425" lon="-4.00746">
        <ele>258.4</ele>
        <time>2022-11-26 11:24:40</time>
      </trkpt>
      <trkpt lat="38.12425" lon="-4.00756">
        <ele>259.2</ele>
        <time>2022-11-26 11:24:44</time>
      </trkpt>
      <trkpt lat="38.12424" lon="-4.00765">
        <ele>260</ele>
        <time>2022-11-26 11:24:48</time>
      </trkpt>
      <trkpt lat="38.12421" lon="-4.00777">
        <ele>260</ele>
        <time>2022-11-26 11:24:52</time>
      </trkpt>
      <trkpt lat="38.12422" lon="-4.00788">
        <ele>260.8</ele>
        <time>2022-11-26 11:24:56</time>
      </trkpt>
      <trkpt lat="38.12421" lon="-4.00797">
        <ele>262</ele>
        <time>2022-11-26 11:25:35</time>
      </trkpt>
      <trkpt lat="38.12417" lon="-4.00802">
        <ele>262.2</ele>
        <time>2022-11-26 11:25:39</time>
      </trkpt>
      <trkpt lat="38.12413" lon="-4.0081">
        <ele>263.2</ele>
        <time>2022-11-26 11:25:43</time>
      </trkpt>
      <trkpt lat="38.12411" lon="-4.00819">
        <ele>263.4</ele>
        <time>2022-11-26 11:25:47</time>
      </trkpt>
      <trkpt lat="38.1241" lon="-4.0083">
        <ele>264.4</ele>
        <time>2022-11-26 11:25:51</time>
      </trkpt>
      <trkpt lat="38.12408" lon="-4.00841">
        <ele>265</ele>
        <time>2022-11-26 11:25:55</time>
      </trkpt>
      <trkpt lat="38.12408" lon="-4.00851">
        <ele>266.4</ele>
        <time>2022-11-26 11:25:59</time>
      </trkpt>
      <trkpt lat="38.12407" lon="-4.00859">
        <ele>266.6</ele>
        <time>2022-11-26 11:26:03</time>
      </trkpt>
      <trkpt lat="38.12404" lon="-4.00862">
        <ele>268.2</ele>
        <time>2022-11-26 11:26:07</time>
      </trkpt>
      <trkpt lat="38.12399" lon="-4.00873">
        <ele>267.4</ele>
        <time>2022-11-26 11:26:11</time>
      </trkpt>
      <trkpt lat="38.12394" lon="-4.00881">
        <ele>268.6</ele>
        <time>2022-11-26 11:26:15</time>
      </trkpt>
      <trkpt lat="38.12388" lon="-4.00886">
        <ele>268.6</ele>
        <time>2022-11-26 11:26:19</time>
      </trkpt>
      <trkpt lat="38.12383" lon="-4.00893">
        <ele>269.8</ele>
        <time>2022-11-26 11:26:23</time>
      </trkpt>
      <trkpt lat="38.1238" lon="-4.00897">
        <ele>270.8</ele>
        <time>2022-11-26 11:26:27</time>
      </trkpt>
      <trkpt lat="38.12376" lon="-4.00903">
        <ele>271.4</ele>
        <time>2022-11-26 11:26:31</time>
      </trkpt>
      <trkpt lat="38.1237" lon="-4.00908">
        <ele>271.8</ele>
        <time>2022-11-26 11:26:35</time>
      </trkpt>
      <trkpt lat="38.12366" lon="-4.00915">
        <ele>271.8</ele>
        <time>2022-11-26 11:26:39</time>
      </trkpt>
      <trkpt lat="38.12362" lon="-4.00922">
        <ele>272.4</ele>
        <time>2022-11-26 11:26:43</time>
      </trkpt>
      <trkpt lat="38.12356" lon="-4.00935">
        <ele>272.8</ele>
        <time>2022-11-26 11:26:47</time>
      </trkpt>
      <trkpt lat="38.12354" lon="-4.00943">
        <ele>272.4</ele>
        <time>2022-11-26 11:26:51</time>
      </trkpt>
      <trkpt lat="38.1235" lon="-4.00957">
        <ele>272.4</ele>
        <time>2022-11-26 11:26:55</time>
      </trkpt>
      <trkpt lat="38.12351" lon="-4.00972">
        <ele>274.6</ele>
        <time>2022-11-26 11:26:59</time>
      </trkpt>
      <trkpt lat="38.12351" lon="-4.0098">
        <ele>275.4</ele>
        <time>2022-11-26 11:27:03</time>
      </trkpt>
      <trkpt lat="38.1235" lon="-4.00989">
        <ele>274.8</ele>
        <time>2022-11-26 11:27:07</time>
      </trkpt>
      <trkpt lat="38.1235" lon="-4.01">
        <ele>277.4</ele>
        <time>2022-11-26 11:27:11</time>
      </trkpt>
      <trkpt lat="38.12348" lon="-4.01007">
        <ele>278</ele>
        <time>2022-11-26 11:27:15</time>
      </trkpt>
      <trkpt lat="38.12353" lon="-4.01025">
        <ele>279.2</ele>
        <time>2022-11-26 11:27:19</time>
      </trkpt>
      <trkpt lat="38.12354" lon="-4.0103">
        <ele>278.8</ele>
        <time>2022-11-26 11:27:23</time>
      </trkpt>
      <trkpt lat="38.12353" lon="-4.01036">
        <ele>279</ele>
        <time>2022-11-26 11:27:27</time>
      </trkpt>
      <trkpt lat="38.12352" lon="-4.01043">
        <ele>280.4</ele>
        <time>2022-11-26 11:27:31</time>
      </trkpt>
      <trkpt lat="38.12354" lon="-4.01052">
        <ele>281.6</ele>
        <time>2022-11-26 11:27:35</time>
      </trkpt>
      <trkpt lat="38.12357" lon="-4.01058">
        <ele>282.4</ele>
        <time>2022-11-26 11:27:39</time>
      </trkpt>
      <trkpt lat="38.12356" lon="-4.01064">
        <ele>283.6</ele>
        <time>2022-11-26 11:27:43</time>
      </trkpt>
      <trkpt lat="38.12356" lon="-4.0107">
        <ele>284</ele>
        <time>2022-11-26 11:27:47</time>
      </trkpt>
      <trkpt lat="38.12356" lon="-4.01077">
        <ele>284.2</ele>
        <time>2022-11-26 11:27:51</time>
      </trkpt>
      <trkpt lat="38.12358" lon="-4.01086">
        <ele>284.2</ele>
        <time>2022-11-26 11:27:55</time>
      </trkpt>
      <trkpt lat="38.12358" lon="-4.01093">
        <ele>284.6</ele>
        <time>2022-11-26 11:27:59</time>
      </trkpt>
      <trkpt lat="38.12358" lon="-4.01099">
        <ele>285.8</ele>
        <time>2022-11-26 11:28:03</time>
      </trkpt>
      <trkpt lat="38.12356" lon="-4.01106">
        <ele>286.4</ele>
        <time>2022-11-26 11:28:07</time>
      </trkpt>
      <trkpt lat="38.12358" lon="-4.01117">
        <ele>287</ele>
        <time>2022-11-26 11:28:11</time>
      </trkpt>
      <trkpt lat="38.12362" lon="-4.01123">
        <ele>287</ele>
        <time>2022-11-26 11:28:15</time>
      </trkpt>
      <trkpt lat="38.12366" lon="-4.01131">
        <ele>288.6</ele>
        <time>2022-11-26 11:28:19</time>
      </trkpt>
      <trkpt lat="38.12366" lon="-4.01136">
        <ele>289.6</ele>
        <time>2022-11-26 11:28:23</time>
      </trkpt>
      <trkpt lat="38.12365" lon="-4.01142">
        <ele>290.2</ele>
        <time>2022-11-26 11:28:27</time>
      </trkpt>
      <trkpt lat="38.12353" lon="-4.01228">
        <ele>305.2</ele>
        <time>2022-11-26 11:28:31</time>
      </trkpt>
      <trkpt lat="38.12351" lon="-4.0123">
        <ele>305.6</ele>
        <time>2022-11-26 11:28:35</time>
      </trkpt>
      <trkpt lat="38.12346" lon="-4.01236">
        <ele>306.6</ele>
        <time>2022-11-26 11:28:39</time>
      </trkpt>
      <trkpt lat="38.12342" lon="-4.01241">
        <ele>307.6</ele>
        <time>2022-11-26 11:28:43</time>
      </trkpt>
      <trkpt lat="38.12335" lon="-4.01248">
        <ele>307.4</ele>
        <time>2022-11-26 11:28:47</time>
      </trkpt>
      <trkpt lat="38.12328" lon="-4.01251">
        <ele>309.6</ele>
        <time>2022-11-26 11:28:51</time>
      </trkpt>
      <trkpt lat="38.12277" lon="-4.0127">
        <ele>328.4</ele>
        <time>2022-11-26 11:28:55</time>
      </trkpt>
      <trkpt lat="38.12276" lon="-4.01267">
        <ele>328.4</ele>
        <time>2022-11-26 11:28:59</time>
      </trkpt>
      <trkpt lat="38.12273" lon="-4.0126">
        <ele>329</ele>
        <time>2022-11-26 11:29:03</time>
      </trkpt>
      <trkpt lat="38.12243" lon="-4.0121">
        <ele>350</ele>
        <time>2022-11-26 11:29:14</time>
      </trkpt>
      <trkpt lat="38.12239" lon="-4.01216">
        <ele>351.4</ele>
        <time>2022-11-26 11:29:18</time>
      </trkpt>
      <trkpt lat="38.12187" lon="-4.01282">
        <ele>374.2</ele>
        <time>2022-11-26 11:29:22</time>
      </trkpt>
      <trkpt lat="38.12185" lon="-4.01284">
        <ele>374.2</ele>
        <time>2022-11-26 11:29:26</time>
      </trkpt>
      <trkpt lat="38.12178" lon="-4.01285">
        <ele>374</ele>
        <time>2022-11-26 11:29:30</time>
      </trkpt>
      <trkpt lat="38.12172" lon="-4.01285">
        <ele>374.8</ele>
        <time>2022-11-26 11:29:34</time>
      </trkpt>
      <trkpt lat="38.12099" lon="-4.01325">
        <ele>400.6</ele>
        <time>2022-11-26 11:29:38</time>
      </trkpt>
      <trkpt lat="38.12095" lon="-4.01325">
        <ele>400.8</ele>
        <time>2022-11-26 11:29:42</time>
      </trkpt>
      <trkpt lat="38.12091" lon="-4.01323">
        <ele>400.8</ele>
        <time>2022-11-26 11:29:46</time>
      </trkpt>
      <trkpt lat="38.12074" lon="-4.01318">
        <ele>400.6</ele>
        <time>2022-11-26 11:29:50</time>
      </trkpt>
      <trkpt lat="38.12063" lon="-4.0131">
        <ele>400.6</ele>
        <time>2022-11-26 11:29:54</time>
      </trkpt>
      <trkpt lat="38.12064" lon="-4.01303">
        <ele>401.2</ele>
        <time>2022-11-26 11:29:58</time>
      </trkpt>
      <trkpt lat="38.12064" lon="-4.01294">
        <ele>401.4</ele>
        <time>2022-11-26 11:30:02</time>
      </trkpt>
      <trkpt lat="38.12059" lon="-4.01283">
        <ele>401.4</ele>
        <time>2022-11-26 11:30:06</time>
      </trkpt>
      <trkpt lat="38.12057" lon="-4.01275">
        <ele>401.8</ele>
        <time>2022-11-26 11:30:10</time>
      </trkpt>
      <trkpt lat="38.12056" lon="-4.01265">
        <ele>402.6</ele>
        <time>2022-11-26 11:30:14</time>
      </trkpt>
      <trkpt lat="38.12056" lon="-4.01253">
        <ele>403.2</ele>
        <time>2022-11-26 11:30:18</time>
      </trkpt>
      <trkpt lat="38.12055" lon="-4.01242">
        <ele>403.2</ele>
        <time>2022-11-26 11:30:22</time>
      </trkpt>
      <trkpt lat="38.12053" lon="-4.01229">
        <ele>403.4</ele>
        <time>2022-11-26 11:30:26</time>
      </trkpt>
      <trkpt lat="38.12048" lon="-4.01218">
        <ele>403</ele>
        <time>2022-11-26 11:32:07</time>
      </trkpt>
      <trkpt lat="38.12045" lon="-4.01207">
        <ele>404.2</ele>
        <time>2022-11-26 11:32:11</time>
      </trkpt>
      <trkpt lat="38.12039" lon="-4.01198">
        <ele>404.2</ele>
        <time>2022-11-26 11:32:15</time>
      </trkpt>
      <trkpt lat="38.12031" lon="-4.01197">
        <ele>404.8</ele>
        <time>2022-11-26 11:32:19</time>
      </trkpt>
      <trkpt lat="38.12021" lon="-4.01199">
        <ele>404.4</ele>
        <time>2022-11-26 11:32:23</time>
      </trkpt>
      <trkpt lat="38.12014" lon="-4.01199">
        <ele>404.8</ele>
        <time>2022-11-26 11:32:27</time>
      </trkpt>
      <trkpt lat="38.12008" lon="-4.01193">
        <ele>405.2</ele>
        <time>2022-11-26 11:32:31</time>
      </trkpt>
      <trkpt lat="38.12009" lon="-4.01181">
        <ele>406</ele>
        <time>2022-11-26 11:34:40</time>
      </trkpt>
      <trkpt lat="38.12012" lon="-4.01172">
        <ele>406.4</ele>
        <time>2022-11-26 11:34:44</time>
      </trkpt>
      <trkpt lat="38.12012" lon="-4.0116">
        <ele>406.2</ele>
        <time>2022-11-26 11:34:48</time>
      </trkpt>
      <trkpt lat="38.12011" lon="-4.01149">
        <ele>406.8</ele>
        <time>2022-11-26 11:34:52</time>
      </trkpt>
      <trkpt lat="38.12012" lon="-4.01139">
        <ele>407</ele>
        <time>2022-11-26 11:39:12</time>
      </trkpt>
      <trkpt lat="38.1201" lon="-4.01127">
        <ele>407.8</ele>
        <time>2022-11-26 11:39:16</time>
      </trkpt>
      <trkpt lat="38.12004" lon="-4.01117">
        <ele>408</ele>
        <time>2022-11-26 11:39:20</time>
      </trkpt>
      <trkpt lat="38.11994" lon="-4.01112">
        <ele>408</ele>
        <time>2022-11-26 11:41:27</time>
      </trkpt>
      <trkpt lat="38.11982" lon="-4.0111">
        <ele>408</ele>
        <time>2022-11-26 11:41:31</time>
      </trkpt>
      <trkpt lat="38.11915" lon="-4.01071">
        <ele>428</ele>
        <time>2022-11-26 11:41:35</time>
      </trkpt>
      <trkpt lat="38.11906" lon="-4.0106">
        <ele>428.8</ele>
        <time>2022-11-26 11:41:39</time>
      </trkpt>
      <trkpt lat="38.11903" lon="-4.01055">
        <ele>429.4</ele>
        <time>2022-11-26 11:41:43</time>
      </trkpt>
      <trkpt lat="38.11901" lon="-4.01053">
        <ele>429.8</ele>
        <time>2022-11-26 11:44:14</time>
      </trkpt>
      <trkpt lat="38.11895" lon="-4.01054">
        <ele>430.4</ele>
        <time>2022-11-26 11:44:18</time>
      </trkpt>
      <trkpt lat="38.11889" lon="-4.01056">
        <ele>431.2</ele>
        <time>2022-11-26 11:44:22</time>
      </trkpt>
      <trkpt lat="38.11884" lon="-4.01055">
        <ele>431.4</ele>
        <time>2022-11-26 11:44:26</time>
      </trkpt>
      <trkpt lat="38.11882" lon="-4.0105">
        <ele>431.6</ele>
        <time>2022-11-26 11:46:44</time>
      </trkpt>
      <trkpt lat="38.11882" lon="-4.01043">
        <ele>432.4</ele>
        <time>2022-11-26 11:46:48</time>
      </trkpt>
      <trkpt lat="38.11876" lon="-4.01043">
        <ele>433</ele>
        <time>2022-11-26 11:46:52</time>
      </trkpt>
      <trkpt lat="38.1186" lon="-4.01047">
        <ele>433.2</ele>
        <time>2022-11-26 11:46:56</time>
      </trkpt>
      <trkpt lat="38.1186" lon="-4.01047">
        <ele>433.2</ele>
        <time>2022-11-26 11:47:00</time>
      </trkpt>
      <trkpt lat="38.11855" lon="-4.01044">
        <ele>432.4</ele>
        <time>2022-11-26 11:47:04</time>
      </trkpt>
      <trkpt lat="38.11839" lon="-4.01033">
        <ele>429.2</ele>
        <time>2022-11-26 11:47:08</time>
      </trkpt>
      <trkpt lat="38.11833" lon="-4.01014">
        <ele>427.6</ele>
        <time>2022-11-26 11:47:12</time>
      </trkpt>
      <trkpt lat="38.11819" lon="-4.00994">
        <ele>424.6</ele>
        <time>2022-11-26 11:47:16</time>
      </trkpt>
      <trkpt lat="38.11801" lon="-4.00974">
        <ele>421.4</ele>
        <time>2022-11-26 11:47:20</time>
      </trkpt>
      <trkpt lat="38.11789" lon="-4.00951">
        <ele>420.6</ele>
        <time>2022-11-26 11:47:24</time>
      </trkpt>
      <trkpt lat="38.11776" lon="-4.00945">
        <ele>423.4</ele>
        <time>2022-11-26 11:47:28</time>
      </trkpt>
      <trkpt lat="38.11765" lon="-4.00943">
        <ele>424.2</ele>
        <time>2022-11-26 11:47:32</time>
      </trkpt>
      <trkpt lat="38.11757" lon="-4.00945">
        <ele>424.8</ele>
        <time>2022-11-26 11:47:36</time>
      </trkpt>
      <trkpt lat="38.11746" lon="-4.00948">
        <ele>424.8</ele>
        <time>2022-11-26 11:47:40</time>
      </trkpt>
      <trkpt lat="38.11738" lon="-4.00954">
        <ele>425.4</ele>
        <time>2022-11-26 11:47:44</time>
      </trkpt>
      <trkpt lat="38.1173" lon="-4.00961">
        <ele>426.6</ele>
        <time>2022-11-26 11:47:48</time>
      </trkpt>
      <trkpt lat="38.11723" lon="-4.0097">
        <ele>427.6</ele>
        <time>2022-11-26 11:47:52</time>
      </trkpt>
      <trkpt lat="38.11718" lon="-4.00979">
        <ele>428.8</ele>
        <time>2022-11-26 11:47:56</time>
      </trkpt>
      <trkpt lat="38.11714" lon="-4.00988">
        <ele>430</ele>
        <time>2022-11-26 11:48:00</time>
      </trkpt>
      <trkpt lat="38.11711" lon="-4.00995">
        <ele>430.4</ele>
        <time>2022-11-26 11:48:04</time>
      </trkpt>
      <trkpt lat="38.11708" lon="-4.01003">
        <ele>430.8</ele>
        <time>2022-11-26 11:48:08</time>
      </trkpt>
      <trkpt lat="38.11705" lon="-4.01011">
        <ele>431.4</ele>
        <time>2022-11-26 11:48:12</time>
      </trkpt>
      <trkpt lat="38.11701" lon="-4.0102">
        <ele>432.6</ele>
        <time>2022-11-26 11:48:16</time>
      </trkpt>
      <trkpt lat="38.117" lon="-4.01028">
        <ele>433.4</ele>
        <time>2022-11-26 11:48:20</time>
      </trkpt>
      <trkpt lat="38.11698" lon="-4.01036">
        <ele>435.6</ele>
        <time>2022-11-26 11:48:24</time>
      </trkpt>
      <trkpt lat="38.11694" lon="-4.01044">
        <ele>435.6</ele>
        <time>2022-11-26 11:48:28</time>
      </trkpt>
      <trkpt lat="38.11688" lon="-4.01049">
        <ele>436.4</ele>
        <time>2022-11-26 11:50:25</time>
      </trkpt>
      <trkpt lat="38.11681" lon="-4.0105">
        <ele>436.4</ele>
        <time>2022-11-26 11:50:29</time>
      </trkpt>
      <trkpt lat="38.11675" lon="-4.01051">
        <ele>437.2</ele>
        <time>2022-11-26 11:50:39</time>
      </trkpt>
      <trkpt lat="38.11668" lon="-4.01052">
        <ele>438.2</ele>
        <time>2022-11-26 11:50:43</time>
      </trkpt>
      <trkpt lat="38.11664" lon="-4.01059">
        <ele>439.4</ele>
        <time>2022-11-26 11:50:47</time>
      </trkpt>
      <trkpt lat="38.11661" lon="-4.01066">
        <ele>440</ele>
        <time>2022-11-26 11:50:51</time>
      </trkpt>
      <trkpt lat="38.11659" lon="-4.0107">
        <ele>441.4</ele>
        <time>2022-11-26 11:50:55</time>
      </trkpt>
      <trkpt lat="38.11654" lon="-4.01074">
        <ele>442.6</ele>
        <time>2022-11-26 11:50:59</time>
      </trkpt>
      <trkpt lat="38.1165" lon="-4.01079">
        <ele>443.6</ele>
        <time>2022-11-26 11:51:03</time>
      </trkpt>
      <trkpt lat="38.11643" lon="-4.01086">
        <ele>443</ele>
        <time>2022-11-26 11:51:07</time>
      </trkpt>
      <trkpt lat="38.11635" lon="-4.01091">
        <ele>442.8</ele>
        <time>2022-11-26 11:51:11</time>
      </trkpt>
      <trkpt lat="38.11622" lon="-4.01101">
        <ele>441.6</ele>
        <time>2022-11-26 11:51:15</time>
      </trkpt>
      <trkpt lat="38.11611" lon="-4.01119">
        <ele>440.2</ele>
        <time>2022-11-26 11:52:01</time>
      </trkpt>
      <trkpt lat="38.116" lon="-4.01141">
        <ele>442.4</ele>
        <time>2022-11-26 11:52:05</time>
      </trkpt>
      <trkpt lat="38.11596" lon="-4.01149">
        <ele>443.4</ele>
        <time>2022-11-26 11:52:09</time>
      </trkpt>
      <trkpt lat="38.11589" lon="-4.0116">
        <ele>444</ele>
        <time>2022-11-26 11:52:13</time>
      </trkpt>
      <trkpt lat="38.11584" lon="-4.01168">
        <ele>445.2</ele>
        <time>2022-11-26 11:52:17</time>
      </trkpt>
      <trkpt lat="38.11578" lon="-4.01174">
        <ele>445.2</ele>
        <time>2022-11-26 11:52:21</time>
      </trkpt>
      <trkpt lat="38.11572" lon="-4.01184">
        <ele>444.4</ele>
        <time>2022-11-26 11:52:25</time>
      </trkpt>
      <trkpt lat="38.11563" lon="-4.01198">
        <ele>444.8</ele>
        <time>2022-11-26 11:52:29</time>
      </trkpt>
      <trkpt lat="38.11557" lon="-4.01206">
        <ele>447.2</ele>
        <time>2022-11-26 11:52:33</time>
      </trkpt>
      <trkpt lat="38.11555" lon="-4.01215">
        <ele>449</ele>
        <time>2022-11-26 11:52:37</time>
      </trkpt>
      <trkpt lat="38.11551" lon="-4.01222">
        <ele>450.2</ele>
        <time>2022-11-26 11:52:41</time>
      </trkpt>
      <trkpt lat="38.11544" lon="-4.01225">
        <ele>451.6</ele>
        <time>2022-11-26 11:52:45</time>
      </trkpt>
      <trkpt lat="38.11542" lon="-4.01231">
        <ele>452.8</ele>
        <time>2022-11-26 11:52:49</time>
      </trkpt>
      <trkpt lat="38.11539" lon="-4.01236">
        <ele>454.6</ele>
        <time>2022-11-26 11:52:53</time>
      </trkpt>
      <trkpt lat="38.11538" lon="-4.01241">
        <ele>455.2</ele>
        <time>2022-11-26 11:52:57</time>
      </trkpt>
      <trkpt lat="38.11534" lon="-4.01248">
        <ele>455.2</ele>
        <time>2022-11-26 11:53:01</time>
      </trkpt>
      <trkpt lat="38.11531" lon="-4.01257">
        <ele>456</ele>
        <time>2022-11-26 11:53:05</time>
      </trkpt>
      <trkpt lat="38.11528" lon="-4.01269">
        <ele>456.6</ele>
        <time>2022-11-26 11:53:09</time>
      </trkpt>
      <trkpt lat="38.11522" lon="-4.01279">
        <ele>457.4</ele>
        <time>2022-11-26 11:53:13</time>
      </trkpt>
      <trkpt lat="38.11516" lon="-4.01286">
        <ele>457.6</ele>
        <time>2022-11-26 11:53:17</time>
      </trkpt>
      <trkpt lat="38.11512" lon="-4.01296">
        <ele>458.4</ele>
        <time>2022-11-26 11:53:21</time>
      </trkpt>
      <trkpt lat="38.11505" lon="-4.01303">
        <ele>459.4</ele>
        <time>2022-11-26 11:53:25</time>
      </trkpt>
      <trkpt lat="38.11499" lon="-4.01311">
        <ele>460.6</ele>
        <time>2022-11-26 11:53:29</time>
      </trkpt>
      <trkpt lat="38.11494" lon="-4.01317">
        <ele>460.6</ele>
        <time>2022-11-26 11:53:33</time>
      </trkpt>
      <trkpt lat="38.11486" lon="-4.01327">
        <ele>461</ele>
        <time>2022-11-26 11:53:37</time>
      </trkpt>
      <trkpt lat="38.11478" lon="-4.01336">
        <ele>461.8</ele>
        <time>2022-11-26 11:53:41</time>
      </trkpt>
      <trkpt lat="38.11473" lon="-4.01343">
        <ele>462.8</ele>
        <time>2022-11-26 11:53:45</time>
      </trkpt>
      <trkpt lat="38.11468" lon="-4.01349">
        <ele>464.4</ele>
        <time>2022-11-26 11:53:49</time>
      </trkpt>
      <trkpt lat="38.11461" lon="-4.01355">
        <ele>465.8</ele>
        <time>2022-11-26 11:53:53</time>
      </trkpt>
      <trkpt lat="38.11453" lon="-4.01363">
        <ele>466.2</ele>
        <time>2022-11-26 11:53:57</time>
      </trkpt>
      <trkpt lat="38.11444" lon="-4.01369">
        <ele>466.8</ele>
        <time>2022-11-26 11:54:01</time>
      </trkpt>
      <trkpt lat="38.11435" lon="-4.0137">
        <ele>467.2</ele>
        <time>2022-11-26 11:54:05</time>
      </trkpt>
      <trkpt lat="38.11428" lon="-4.0137">
        <ele>468.4</ele>
        <time>2022-11-26 11:54:09</time>
      </trkpt>
      <trkpt lat="38.11085" lon="-4.01442">
        <time>2022-11-26 12:02:31</time>
      </trkpt>
      <trkpt lat="38.11081" lon="-4.01442"/>
      <trkpt lat="38.11078" lon="-4.01444">
        <time>2022-11-26 12:02:32</time>
      </trkpt>
      <trkpt lat="38.11077" lon="-4.01446"/>
      <trkpt lat="38.11077" lon="-4.01446">
        <time>2022-11-26 12:02:33</time>
      </trkpt>
      <trkpt lat="38.11076" lon="-4.01447"/>
      <trkpt lat="38.11077" lon="-4.01448">
        <time>2022-11-26 12:02:34</time>
      </trkpt>
      <trkpt lat="38.11079" lon="-4.0145"/>
      <trkpt lat="38.11079" lon="-4.01451">
        <time>2022-11-26 12:02:35</time>
      </trkpt>
      <trkpt lat="38.11078" lon="-4.01451"/>
      <trkpt lat="38.11078" lon="-4.01451">
        <time>2022-11-26 12:02:36</time>
      </trkpt>
      <trkpt lat="38.11077" lon="-4.01451"/>
      <trkpt lat="38.11077" lon="-4.01451">
        <time>2022-11-26 12:02:37</time>
      </trkpt>
      <trkpt lat="38.11077" lon="-4.01452"/>
      <trkpt lat="38.11077" lon="-4.01452">
        <time>2022-11-26 12:02:38</time>
      </trkpt>
      <trkpt lat="38.11077" lon="-4.01452"/>
      <trkpt lat="38.11077" lon="-4.01453">
        <time>2022-11-26 12:02:39</time>
      </trkpt>
      <trkpt lat="38.11077" lon="-4.01453"/>
      <trkpt lat="38.11078" lon="-4.01453">
        <time>2022-11-26 12:02:40</time>
      </trkpt>
      <trkpt lat="38.11078" lon="-4.01453"/>
      <trkpt lat="38.11079" lon="-4.01453">
        <time>2022-11-26 12:02:41</time>
      </trkpt>
      <trkpt lat="38.1108" lon="-4.01453"/>
      <trkpt lat="38.11081" lon="-4.01453">
        <time>2022-11-26 12:02:42</time>
      </trkpt>
      <trkpt lat="38.11082" lon="-4.01454"/>
      <trkpt lat="38.11083" lon="-4.01454">
        <time>2022-11-26 12:02:43</time>
      </trkpt>
      <trkpt lat="38.11083" lon="-4.01454"/>
      <trkpt lat="38.11084" lon="-4.01454">
        <time>2022-11-26 12:02:44</time>
      </trkpt>
      <trkpt lat="38.11085" lon="-4.01454"/>
      <trkpt lat="38.11085" lon="-4.01455">
        <time>2022-11-26 12:02:45</time>
      </trkpt>
      <trkpt lat="38.11086" lon="-4.01455"/>
      <trkpt lat="38.11086" lon="-4.01455">
        <time>2022-11-26 12:02:46</time>
      </trkpt>
      <trkpt lat="38.11086" lon="-4.01455"/>
      <trkpt lat="38.11086" lon="-4.01455">
        <time>2022-11-26 12:02:47</time>
      </trkpt>
      <trkpt lat="38.11086" lon="-4.01456"/>
      <trkpt lat="38.11087" lon="-4.01456">
        <time>2022-11-26 12:02:49</time>
      </trkpt>
      <trkpt lat="38.11087" lon="-4.01456"/>
      <trkpt lat="38.11087" lon="-4.01455">
        <time>2022-11-26 12:02:50</time>
      </trkpt>
      <trkpt lat="38.11087" lon="-4.01455"/>
      <trkpt lat="38.11087" lon="-4.01455">
        <time>2022-11-26 12:02:51</time>
      </trkpt>
      <trkpt lat="38.11087" lon="-4.01455"/>
      <trkpt lat="38.11087" lon="-4.01455">
        <time>2022-11-26 12:02:52</time>
      </trkpt>
      <trkpt lat="38.11087" lon="-4.01455"/>
      <trkpt lat="38.11087" lon="-4.01455">
        <time>2022-11-26 12:02:54</time>
      </trkpt>
      <trkpt lat="38.11087" lon="-4.01455"/>
      <trkpt lat="38.11087" lon="-4.01455">
        <time>2022-11-26 12:02:55</time>
      </trkpt>
      <trkpt lat="38.11087" lon="-4.01455"/>
      <trkpt lat="38.11087" lon="-4.01455">
        <time>2022-11-26 12:02:56</time>
      </trkpt>
      <trkpt lat="38.11087" lon="-4.01455"/>
      <trkpt lat="38.11087" lon="-4.01455">
        <time>2022-11-26 12:02:57</time>
      </trkpt>
      <trkpt lat="38.11087" lon="-4.01455"/>
      <trkpt lat="38.11087" lon="-4.01455">
        <time>2022-11-26 12:02:58</time>
      </trkpt>
      <trkpt lat="38.11087" lon="-4.01455"/>
      <trkpt lat="38.11087" lon="-4.01455">
        <time>2022-11-26 12:02:59</time>
      </trkpt>
      <trkpt lat="38.11087" lon="-4.01455"/>
      <trkpt lat="38.11087" lon="-4.01455">
        <time>2022-11-26 12:03:00</time>
      </trkpt>
      <trkpt lat="38.11087" lon="-4.01455"/>
      <trkpt lat="38.11087" lon="-4.01455">
        <time>2022-11-26 12:03:01</time>
      </trkpt>
      <trkpt lat="38.11087" lon="-4.01455"/>
      <trkpt lat="38.11087" lon="-4.01455">
        <time>2022-11-26 12:03:02</time>
      </trkpt>
      <trkpt lat="38.11087" lon="-4.01455"/>
      <trkpt lat="38.11087" lon="-4.01455">
        <time>2022-11-26 12:03:03</time>
      </trkpt>
      <trkpt lat="38.11087" lon="-4.01455"/>
      <trkpt lat="38.11087" lon="-4.01455">
        <time>2022-11-26 12:03:04</time>
      </trkpt>
      <trkpt lat="38.11087" lon="-4.01455"/>
      <trkpt lat="38.11087" lon="-4.01455">
        <time>2022-11-26 12:03:05</time>
      </trkpt>
      <trkpt lat="38.11087" lon="-4.01455"/>
      <trkpt lat="38.11087" lon="-4.01455">
        <time>2022-11-26 12:03:06</time>
      </trkpt>
      <trkpt lat="38.11087" lon="-4.01455"/>
      <trkpt lat="38.11087" lon="-4.01455">
        <time>2022-11-26 12:03:07</time>
      </trkpt>
      <trkpt lat="38.11087" lon="-4.01455"/>
      <trkpt lat="38.11087" lon="-4.01455">
        <time>2022-11-26 12:03:08</time>
      </trkpt>
      <trkpt lat="38.11087" lon="-4.01455"/>
      <trkpt lat="38.11087" lon="-4.01455">
        <time>2022-11-26 12:03:09</time>
      </trkpt>
      <trkpt lat="38.11087" lon="-4.01455"/>
      <trkpt lat="38.11087" lon="-4.01455">
        <time>2022-11-26 12:03:10</time>
      </trkpt>
      <trkpt lat="38.11087" lon="-4.01455"/>
      <trkpt lat="38.11088" lon="-4.01456">
        <time>2022-11-26 12:03:11</time>
      </trkpt>
      <trkpt lat="38.11089" lon="-4.01456"/>
      <trkpt lat="38.11089" lon="-4.01456">
        <time>2022-11-26 12:03:12</time>
      </trkpt>
      <trkpt lat="38.11089" lon="-4.01457"/>
      <trkpt lat="38.11088" lon="-4.01458">
        <time>2022-11-26 12:03:13</time>
      </trkpt>
      <trkpt lat="38.11088" lon="-4.01458"/>
      <trkpt lat="38.11088" lon="-4.01459">
        <time>2022-11-26 12:03:14</time>
      </trkpt>
      <trkpt lat="38.11088" lon="-4.01461"/>
      <trkpt lat="38.11088" lon="-4.01464">
        <time>2022-11-26 12:03:15</time>
      </trkpt>
      <trkpt lat="38.11087" lon="-4.01466"/>
      <trkpt lat="38.11087" lon="-4.01469">
        <time>2022-11-26 12:03:16</time>
      </trkpt>
      <trkpt lat="38.11087" lon="-4.01473"/>
      <trkpt lat="38.11088" lon="-4.01476">
        <time>2022-11-26 12:03:17</time>
      </trkpt>
      <trkpt lat="38.11088" lon="-4.0148"/>
      <trkpt lat="38.11088" lon="-4.01483">
        <time>2022-11-26 12:03:18</time>
      </trkpt>
      <trkpt lat="38.11089" lon="-4.01487"/>
      <trkpt lat="38.11089" lon="-4.0149">
        <time>2022-11-26 12:03:19</time>
      </trkpt>
      <trkpt lat="38.11088" lon="-4.01491"/>
      <trkpt lat="38.11088" lon="-4.01492">
        <time>2022-11-26 12:03:20</time>
      </trkpt>
      <trkpt lat="38.11088" lon="-4.01493"/>
      <trkpt lat="38.11088" lon="-4.01494">
        <time>2022-11-26 12:03:21</time>
      </trkpt>
      <trkpt lat="38.11088" lon="-4.01495"/>
      <trkpt lat="38.11088" lon="-4.01497">
        <time>2022-11-26 12:03:22</time>
      </trkpt>
      <trkpt lat="38.11087" lon="-4.015"/>
      <trkpt lat="38.11087" lon="-4.01504">
        <time>2022-11-26 12:03:23</time>
      </trkpt>
      <trkpt lat="38.11088" lon="-4.01508"/>
      <trkpt lat="38.11089" lon="-4.01515">
        <time>2022-11-26 12:03:24</time>
      </trkpt>
      <trkpt lat="38.1109" lon="-4.01522"/>
      <trkpt lat="38.1109" lon="-4.0153">
        <time>2022-11-26 12:03:25</time>
      </trkpt>
      <trkpt lat="38.11091" lon="-4.01536"/>
      <trkpt lat="38.11092" lon="-4.01541">
        <time>2022-11-26 12:03:26</time>
      </trkpt>
      <trkpt lat="38.11092" lon="-4.01545"/>
      <trkpt lat="38.11092" lon="-4.01547">
        <time>2022-11-26 12:03:27</time>
      </trkpt>
      <trkpt lat="38.11092" lon="-4.01551"/>
      <trkpt lat="38.11092" lon="-4.01555">
        <time>2022-11-26 12:03:28</time>
      </trkpt>
      <trkpt lat="38.11093" lon="-4.0156"/>
      <trkpt lat="38.11095" lon="-4.01567">
        <time>2022-11-26 12:03:29</time>
      </trkpt>
      <trkpt lat="38.11095" lon="-4.01572"/>
      <trkpt lat="38.11095" lon="-4.01577">
        <time>2022-11-26 12:03:30</time>
      </trkpt>
      <trkpt lat="38.11094" lon="-4.01581"/>
      <trkpt lat="38.11092" lon="-4.01586">
        <time>2022-11-26 12:03:31</time>
      </trkpt>
      <trkpt lat="38.11092" lon="-4.0159"/>
      <trkpt lat="38.11091" lon="-4.01595">
        <time>2022-11-26 12:03:32</time>
      </trkpt>
      <trkpt lat="38.11091" lon="-4.016"/>
      <trkpt lat="38.11092" lon="-4.01606">
        <time>2022-11-26 12:03:33</time>
      </trkpt>
      <trkpt lat="38.11092" lon="-4.01611"/>
      <trkpt lat="38.11093" lon="-4.01618">
        <time>2022-11-26 12:03:34</time>
      </trkpt>
      <trkpt lat="38.11094" lon="-4.01627"/>
      <trkpt lat="38.11096" lon="-4.01635">
        <time>2022-11-26 12:03:35</time>
      </trkpt>
      <trkpt lat="38.11096" lon="-4.01644"/>
      <trkpt lat="38.11097" lon="-4.01655">
        <time>2022-11-26 12:03:36</time>
      </trkpt>
      <trkpt lat="38.11099" lon="-4.0167"/>
      <trkpt lat="38.11099" lon="-4.01676">
        <time>2022-11-26 12:03:37</time>
      </trkpt>
      <trkpt lat="38.11099" lon="-4.01681"/>
      <trkpt lat="38.11097" lon="-4.01682">
        <time>2022-11-26 12:03:38</time>
      </trkpt>
      <trkpt lat="38.111" lon="-4.01691"/>
      <trkpt lat="38.11104" lon="-4.01702">
        <time>2022-11-26 12:03:39</time>
      </trkpt>
      <trkpt lat="38.11105" lon="-4.01709"/>
      <trkpt lat="38.11106" lon="-4.01716">
        <time>2022-11-26 12:03:40</time>
      </trkpt>
      <trkpt lat="38.11107" lon="-4.0172"/>
      <trkpt lat="38.11108" lon="-4.01726">
        <time>2022-11-26 12:03:41</time>
      </trkpt>
      <trkpt lat="38.11108" lon="-4.01729"/>
      <trkpt lat="38.11108" lon="-4.01732">
        <time>2022-11-26 12:03:42</time>
      </trkpt>
      <trkpt lat="38.11109" lon="-4.01739"/>
      <trkpt lat="38.11109" lon="-4.01744">
        <time>2022-11-26 12:03:43</time>
      </trkpt>
      <trkpt lat="38.1111" lon="-4.01747"/>
      <trkpt lat="38.11112" lon="-4.01752">
        <time>2022-11-26 12:03:44</time>
      </trkpt>
      <trkpt lat="38.11115" lon="-4.01757"/>
      <trkpt lat="38.11117" lon="-4.01761">
        <time>2022-11-26 12:03:45</time>
      </trkpt>
      <trkpt lat="38.11118" lon="-4.01765"/>
      <trkpt lat="38.11121" lon="-4.01772">
        <time>2022-11-26 12:03:46</time>
      </trkpt>
      <trkpt lat="38.11124" lon="-4.01777"/>
      <trkpt lat="38.11127" lon="-4.01781">
        <time>2022-11-26 12:03:47</time>
      </trkpt>
      <trkpt lat="38.11131" lon="-4.01789"/>
      <trkpt lat="38.11135" lon="-4.01793">
        <time>2022-11-26 12:03:48</time>
      </trkpt>
      <trkpt lat="38.11139" lon="-4.01797"/>
      <trkpt lat="38.1114" lon="-4.018">
        <time>2022-11-26 12:03:49</time>
      </trkpt>
      <trkpt lat="38.11141" lon="-4.01804"/>
      <trkpt lat="38.11144" lon="-4.01809">
        <time>2022-11-26 12:03:50</time>
      </trkpt>
      <trkpt lat="38.11146" lon="-4.01815"/>
      <trkpt lat="38.11147" lon="-4.01818">
        <time>2022-11-26 12:03:51</time>
      </trkpt>
      <trkpt lat="38.11148" lon="-4.01822"/>
      <trkpt lat="38.11149" lon="-4.01828">
        <time>2022-11-26 12:03:52</time>
      </trkpt>
      <trkpt lat="38.11152" lon="-4.01833"/>
      <trkpt lat="38.11155" lon="-4.01842">
        <time>2022-11-26 12:03:53</time>
      </trkpt>
      <trkpt lat="38.11158" lon="-4.01849"/>
      <trkpt lat="38.11162" lon="-4.01859">
        <time>2022-11-26 12:03:54</time>
      </trkpt>
      <trkpt lat="38.11164" lon="-4.01875"/>
      <trkpt lat="38.11164" lon="-4.01888">
        <time>2022-11-26 12:03:55</time>
      </trkpt>
      <trkpt lat="38.11164" lon="-4.01897"/>
      <trkpt lat="38.11164" lon="-4.01906">
        <time>2022-11-26 12:03:56</time>
      </trkpt>
      <trkpt lat="38.11164" lon="-4.01912"/>
      <trkpt lat="38.11163" lon="-4.01917">
        <time>2022-11-26 12:03:57</time>
      </trkpt>
      <trkpt lat="38.11162" lon="-4.01923"/>
      <trkpt lat="38.11161" lon="-4.01929">
        <time>2022-11-26 12:03:58</time>
      </trkpt>
      <trkpt lat="38.1116" lon="-4.01935"/>
      <trkpt lat="38.1116" lon="-4.01944">
        <time>2022-11-26 12:03:59</time>
      </trkpt>
      <trkpt lat="38.1116" lon="-4.0195"/>
      <trkpt lat="38.11161" lon="-4.01959">
        <time>2022-11-26 12:04:00</time>
      </trkpt>
      <trkpt lat="38.1116" lon="-4.01967"/>
      <trkpt lat="38.11159" lon="-4.01974">
        <time>2022-11-26 12:04:01</time>
      </trkpt>
      <trkpt lat="38.1116" lon="-4.01986"/>
      <trkpt lat="38.11161" lon="-4.01994">
        <time>2022-11-26 12:04:02</time>
      </trkpt>
      <trkpt lat="38.11161" lon="-4.02001"/>
      <trkpt lat="38.11162" lon="-4.02006">
        <time>2022-11-26 12:04:03</time>
      </trkpt>
      <trkpt lat="38.1116" lon="-4.02011"/>
      <trkpt lat="38.11165" lon="-4.02024">
        <time>2022-11-26 12:04:05</time>
      </trkpt>
      <trkpt lat="38.11167" lon="-4.0203"/>
      <trkpt lat="38.11168" lon="-4.02038">
        <time>2022-11-26 12:04:06</time>
      </trkpt>
      <trkpt lat="38.1117" lon="-4.02043"/>
      <trkpt lat="38.11171" lon="-4.02049">
        <time>2022-11-26 12:04:08</time>
      </trkpt>
      <trkpt lat="38.11171" lon="-4.02055"/>
      <trkpt lat="38.11173" lon="-4.02061">
        <time>2022-11-26 12:04:09</time>
      </trkpt>
      <trkpt lat="38.11175" lon="-4.02068"/>
      <trkpt lat="38.11176" lon="-4.02075">
        <time>2022-11-26 12:04:10</time>
      </trkpt>
      <trkpt lat="38.11179" lon="-4.02082"/>
      <trkpt lat="38.11182" lon="-4.02089">
        <time>2022-11-26 12:04:11</time>
      </trkpt>
      <trkpt lat="38.11183" lon="-4.02095"/>
      <trkpt lat="38.11185" lon="-4.02101">
        <time>2022-11-26 12:04:12</time>
      </trkpt>
      <trkpt lat="38.11187" lon="-4.02105"/>
      <trkpt lat="38.11189" lon="-4.02108">
        <time>2022-11-26 12:04:13</time>
      </trkpt>
      <trkpt lat="38.1119" lon="-4.0211"/>
      <trkpt lat="38.1119" lon="-4.02114">
        <time>2022-11-26 12:04:14</time>
      </trkpt>
      <trkpt lat="38.11191" lon="-4.02116"/>
      <trkpt lat="38.11191" lon="-4.02119">
        <time>2022-11-26 12:04:15</time>
      </trkpt>
      <trkpt lat="38.11192" lon="-4.02125"/>
      <trkpt lat="38.11194" lon="-4.0213">
        <time>2022-11-26 12:04:16</time>
      </trkpt>
      <trkpt lat="38.11197" lon="-4.02141"/>
      <trkpt lat="38.11199" lon="-4.02146">
        <time>2022-11-26 12:04:17</time>
      </trkpt>
      <trkpt lat="38.11201" lon="-4.0215"/>
      <trkpt lat="38.11202" lon="-4.02154">
        <time>2022-11-26 12:04:19</time>
      </trkpt>
      <trkpt lat="38.11204" lon="-4.0216"/>
      <trkpt lat="38.11205" lon="-4.02165">
        <time>2022-11-26 12:04:20</time>
      </trkpt>
      <trkpt lat="38.11206" lon="-4.0217"/>
      <trkpt lat="38.11207" lon="-4.02172">
        <time>2022-11-26 12:04:22</time>
      </trkpt>
      <trkpt lat="38.11207" lon="-4.02176"/>
      <trkpt lat="38.11208" lon="-4.0218">
        <time>2022-11-26 12:04:23</time>
      </trkpt>
      <trkpt lat="38.1121" lon="-4.02186"/>
      <trkpt lat="38.11212" lon="-4.02191">
        <time>2022-11-26 12:04:24</time>
      </trkpt>
      <trkpt lat="38.11213" lon="-4.02195"/>
      <trkpt lat="38.11215" lon="-4.02202">
        <time>2022-11-26 12:04:25</time>
      </trkpt>
      <trkpt lat="38.11216" lon="-4.02204"/>
      <trkpt lat="38.11218" lon="-4.02208">
        <time>2022-11-26 12:04:26</time>
      </trkpt>
      <trkpt lat="38.11219" lon="-4.02214"/>
      <trkpt lat="38.11221" lon="-4.02218">
        <time>2022-11-26 12:04:27</time>
      </trkpt>
      <trkpt lat="38.11221" lon="-4.02221"/>
      <trkpt lat="38.11222" lon="-4.02226">
        <time>2022-11-26 12:04:28</time>
      </trkpt>
      <trkpt lat="38.11223" lon="-4.02228"/>
      <trkpt lat="38.11224" lon="-4.02231">
        <time>2022-11-26 12:04:29</time>
      </trkpt>
      <trkpt lat="38.11226" lon="-4.02239"/>
      <trkpt lat="38.11228" lon="-4.02246">
        <time>2022-11-26 12:04:31</time>
      </trkpt>
      <trkpt lat="38.1123" lon="-4.02253"/>
      <trkpt lat="38.11231" lon="-4.02259">
        <time>2022-11-26 12:04:32</time>
      </trkpt>
      <trkpt lat="38.11232" lon="-4.02262"/>
      <trkpt lat="38.11234" lon="-4.02268">
        <time>2022-11-26 12:04:33</time>
      </trkpt>
      <trkpt lat="38.11236" lon="-4.02274"/>
      <trkpt lat="38.11237" lon="-4.02279">
        <time>2022-11-26 12:04:35</time>
      </trkpt>
      <trkpt lat="38.11237" lon="-4.02283"/>
      <trkpt lat="38.1124" lon="-4.02292">
        <time>2022-11-26 12:04:36</time>
      </trkpt>
      <trkpt lat="38.11242" lon="-4.02299"/>
      <trkpt lat="38.11244" lon="-4.02302">
        <time>2022-11-26 12:04:37</time>
      </trkpt>
      <trkpt lat="38.11246" lon="-4.0231"/>
      <trkpt lat="38.11249" lon="-4.02317">
        <time>2022-11-26 12:04:38</time>
      </trkpt>
      <trkpt lat="38.1125" lon="-4.02322"/>
      <trkpt lat="38.1125" lon="-4.02326">
        <time>2022-11-26 12:04:39</time>
      </trkpt>
      <trkpt lat="38.11251" lon="-4.02328"/>
      <trkpt lat="38.11251" lon="-4.02331">
        <time>2022-11-26 12:04:40</time>
      </trkpt>
      <trkpt lat="38.11252" lon="-4.02338"/>
      <trkpt lat="38.11253" lon="-4.02345">
        <time>2022-11-26 12:04:41</time>
      </trkpt>
      <trkpt lat="38.11254" lon="-4.02351"/>
      <trkpt lat="38.11255" lon="-4.02357">
        <time>2022-11-26 12:04:42</time>
      </trkpt>
      <trkpt lat="38.11256" lon="-4.02362"/>
      <trkpt lat="38.11258" lon="-4.02368">
        <time>2022-11-26 12:04:43</time>
      </trkpt>
      <trkpt lat="38.11259" lon="-4.02378"/>
      <trkpt lat="38.11259" lon="-4.02383">
        <time>2022-11-26 12:04:44</time>
      </trkpt>
      <trkpt lat="38.11259" lon="-4.02385"/>
      <trkpt lat="38.1126" lon="-4.02389">
        <time>2022-11-26 12:04:45</time>
      </trkpt>
      <trkpt lat="38.11261" lon="-4.02394"/>
      <trkpt lat="38.11261" lon="-4.02398">
        <time>2022-11-26 12:04:47</time>
      </trkpt>
      <trkpt lat="38.11262" lon="-4.02402"/>
      <trkpt lat="38.11263" lon="-4.02406">
        <time>2022-11-26 12:04:48</time>
      </trkpt>
      <trkpt lat="38.11263" lon="-4.02409"/>
      <trkpt lat="38.11264" lon="-4.02411">
        <time>2022-11-26 12:04:49</time>
      </trkpt>
      <trkpt lat="38.11264" lon="-4.02413"/>
      <trkpt lat="38.11266" lon="-4.02417">
        <time>2022-11-26 12:04:50</time>
      </trkpt>
      <trkpt lat="38.11269" lon="-4.02426"/>
      <trkpt lat="38.1127" lon="-4.02431">
        <time>2022-11-26 12:04:51</time>
      </trkpt>
      <trkpt lat="38.11272" lon="-4.02436"/>
      <trkpt lat="38.11274" lon="-4.0244">
        <time>2022-11-26 12:04:52</time>
      </trkpt>
      <trkpt lat="38.11276" lon="-4.02446"/>
      <trkpt lat="38.11277" lon="-4.0245">
        <time>2022-11-26 12:04:54</time>
      </trkpt>
      <trkpt lat="38.11279" lon="-4.02454"/>
      <trkpt lat="38.11283" lon="-4.02462">
        <time>2022-11-26 12:04:55</time>
      </trkpt>
      <trkpt lat="38.11285" lon="-4.02468"/>
      <trkpt lat="38.11288" lon="-4.02472">
        <time>2022-11-26 12:04:57</time>
      </trkpt>
      <trkpt lat="38.1129" lon="-4.02478"/>
      <trkpt lat="38.11292" lon="-4.02484">
        <time>2022-11-26 12:04:58</time>
      </trkpt>
      <trkpt lat="38.11293" lon="-4.02491"/>
      <trkpt lat="38.11294" lon="-4.02496">
        <time>2022-11-26 12:04:59</time>
      </trkpt>
      <trkpt lat="38.11295" lon="-4.02499"/>
      <trkpt lat="38.11295" lon="-4.02507">
        <time>2022-11-26 12:05:00</time>
      </trkpt>
      <trkpt lat="38.11296" lon="-4.02512"/>
      <trkpt lat="38.11295" lon="-4.02518">
        <time>2022-11-26 12:05:01</time>
      </trkpt>
      <trkpt lat="38.11294" lon="-4.02525"/>
      <trkpt lat="38.11293" lon="-4.02533">
        <time>2022-11-26 12:05:03</time>
      </trkpt>
      <trkpt lat="38.11292" lon="-4.02538"/>
      <trkpt lat="38.11291" lon="-4.02543">
        <time>2022-11-26 12:05:04</time>
      </trkpt>
      <trkpt lat="38.1129" lon="-4.02548"/>
      <trkpt lat="38.11289" lon="-4.02554">
        <time>2022-11-26 12:05:06</time>
      </trkpt>
      <trkpt lat="38.11288" lon="-4.02559"/>
      <trkpt lat="38.11287" lon="-4.02563">
        <time>2022-11-26 12:05:07</time>
      </trkpt>
      <trkpt lat="38.11287" lon="-4.02568"/>
      <trkpt lat="38.11287" lon="-4.02574">
        <time>2022-11-26 12:05:08</time>
      </trkpt>
      <trkpt lat="38.11289" lon="-4.02576"/>
      <trkpt lat="38.11291" lon="-4.02578">
        <time>2022-11-26 12:05:09</time>
      </trkpt>
      <trkpt lat="38.11292" lon="-4.02581"/>
      <trkpt lat="38.11294" lon="-4.02583">
        <time>2022-11-26 12:05:10</time>
      </trkpt>
      <trkpt lat="38.11296" lon="-4.02587"/>
      <trkpt lat="38.11298" lon="-4.02591">
        <time>2022-11-26 12:05:12</time>
      </trkpt>
      <trkpt lat="38.113" lon="-4.02594"/>
      <trkpt lat="38.11302" lon="-4.02598">
        <time>2022-11-26 12:05:13</time>
      </trkpt>
      <trkpt lat="38.11305" lon="-4.026"/>
      <trkpt lat="38.11307" lon="-4.02603">
        <time>2022-11-26 12:05:14</time>
      </trkpt>
      <trkpt lat="38.11312" lon="-4.02611"/>
      <trkpt lat="38.11315" lon="-4.02616">
        <time>2022-11-26 12:05:16</time>
      </trkpt>
      <trkpt lat="38.11318" lon="-4.02619"/>
      <trkpt lat="38.11321" lon="-4.02622">
        <time>2022-11-26 12:05:17</time>
      </trkpt>
      <trkpt lat="38.11325" lon="-4.02624"/>
      <trkpt lat="38.11327" lon="-4.02625">
        <time>2022-11-26 12:05:18</time>
      </trkpt>
      <trkpt lat="38.1133" lon="-4.02627"/>
      <trkpt lat="38.11333" lon="-4.02629">
        <time>2022-11-26 12:05:19</time>
      </trkpt>
      <trkpt lat="38.11337" lon="-4.02634"/>
      <trkpt lat="38.1134" lon="-4.02639">
        <time>2022-11-26 12:05:21</time>
      </trkpt>
      <trkpt lat="38.11344" lon="-4.02645"/>
      <trkpt lat="38.11351" lon="-4.02654">
        <time>2022-11-26 12:05:22</time>
      </trkpt>
      <trkpt lat="38.11357" lon="-4.02662"/>
      <trkpt lat="38.11362" lon="-4.02667">
        <time>2022-11-26 12:05:23</time>
      </trkpt>
      <trkpt lat="38.11366" lon="-4.02673"/>
      <trkpt lat="38.11369" lon="-4.02678">
        <time>2022-11-26 12:05:24</time>
      </trkpt>
      <trkpt lat="38.11372" lon="-4.02681"/>
      <trkpt lat="38.11375" lon="-4.02685">
        <time>2022-11-26 12:05:25</time>
      </trkpt>
      <trkpt lat="38.11381" lon="-4.02691"/>
      <trkpt lat="38.11384" lon="-4.02696">
        <time>2022-11-26 12:05:26</time>
      </trkpt>
      <trkpt lat="38.11389" lon="-4.02702"/>
      <trkpt lat="38.11393" lon="-4.02708">
        <time>2022-11-26 12:05:27</time>
      </trkpt>
      <trkpt lat="38.11398" lon="-4.02714"/>
      <trkpt lat="38.11402" lon="-4.02718">
        <time>2022-11-26 12:05:28</time>
      </trkpt>
      <trkpt lat="38.11406" lon="-4.02721"/>
      <trkpt lat="38.1141" lon="-4.02725">
        <time>2022-11-26 12:05:30</time>
      </trkpt>
      <trkpt lat="38.11413" lon="-4.02729"/>
      <trkpt lat="38.11417" lon="-4.02732">
        <time>2022-11-26 12:05:31</time>
      </trkpt>
      <trkpt lat="38.1142" lon="-4.02735"/>
      <trkpt lat="38.11426" lon="-4.02741">
        <time>2022-11-26 12:05:32</time>
      </trkpt>
      <trkpt lat="38.11429" lon="-4.02745"/>
      <trkpt lat="38.11433" lon="-4.02749">
        <time>2022-11-26 12:05:34</time>
      </trkpt>
      <trkpt lat="38.11435" lon="-4.02752"/>
      <trkpt lat="38.1144" lon="-4.02759">
        <time>2022-11-26 12:05:35</time>
      </trkpt>
      <trkpt lat="38.11443" lon="-4.02763"/>
      <trkpt lat="38.11446" lon="-4.02767">
        <time>2022-11-26 12:05:36</time>
      </trkpt>
      <trkpt lat="38.11448" lon="-4.02771"/>
      <trkpt lat="38.1145" lon="-4.02776">
        <time>2022-11-26 12:05:37</time>
      </trkpt>
      <trkpt lat="38.11452" lon="-4.02779"/>
      <trkpt lat="38.11454" lon="-4.02782">
        <time>2022-11-26 12:05:38</time>
      </trkpt>
      <trkpt lat="38.11455" lon="-4.02785"/>
      <trkpt lat="38.11457" lon="-4.02789">
        <time>2022-11-26 12:05:39</time>
      </trkpt>
      <trkpt lat="38.11459" lon="-4.02792"/>
      <trkpt lat="38.11461" lon="-4.02796">
        <time>2022-11-26 12:05:40</time>
      </trkpt>
      <trkpt lat="38.11464" lon="-4.02801"/>
      <trkpt lat="38.11467" lon="-4.02806">
        <time>2022-11-26 12:05:41</time>
      </trkpt>
      <trkpt lat="38.1147" lon="-4.02814"/>
      <trkpt lat="38.11472" lon="-4.02819">
        <time>2022-11-26 12:05:42</time>
      </trkpt>
      <trkpt lat="38.11474" lon="-4.02824"/>
      <trkpt lat="38.11476" lon="-4.02832">
        <time>2022-11-26 12:05:44</time>
      </trkpt>
      <trkpt lat="38.11478" lon="-4.02837"/>
      <trkpt lat="38.11479" lon="-4.02841">
        <time>2022-11-26 12:05:45</time>
      </trkpt>
      <trkpt lat="38.11481" lon="-4.02845"/>
      <trkpt lat="38.11483" lon="-4.02851">
        <time>2022-11-26 12:05:46</time>
      </trkpt>
      <trkpt lat="38.11485" lon="-4.02857"/>
      <trkpt lat="38.11487" lon="-4.02864">
        <time>2022-11-26 12:05:47</time>
      </trkpt>
      <trkpt lat="38.11489" lon="-4.0287"/>
      <trkpt lat="38.11491" lon="-4.02875">
        <time>2022-11-26 12:05:49</time>
      </trkpt>
      <trkpt lat="38.11493" lon="-4.02879"/>
      <trkpt lat="38.11494" lon="-4.02884">
        <time>2022-11-26 12:05:50</time>
      </trkpt>
      <trkpt lat="38.11497" lon="-4.02891"/>
      <trkpt lat="38.11499" lon="-4.02896">
        <time>2022-11-26 12:05:51</time>
      </trkpt>
      <trkpt lat="38.11501" lon="-4.029"/>
      <trkpt lat="38.11504" lon="-4.02906">
        <time>2022-11-26 12:05:52</time>
      </trkpt>
      <trkpt lat="38.11506" lon="-4.02911"/>
      <trkpt lat="38.11507" lon="-4.02916">
        <time>2022-11-26 12:05:54</time>
      </trkpt>
      <trkpt lat="38.11509" lon="-4.02922"/>
      <trkpt lat="38.11511" lon="-4.02927">
        <time>2022-11-26 12:05:55</time>
      </trkpt>
      <trkpt lat="38.11512" lon="-4.02934"/>
      <trkpt lat="38.11514" lon="-4.02943">
        <time>2022-11-26 12:05:56</time>
      </trkpt>
      <trkpt lat="38.11517" lon="-4.02951"/>
      <trkpt lat="38.11519" lon="-4.02958">
        <time>2022-11-26 12:05:58</time>
      </trkpt>
      <trkpt lat="38.11521" lon="-4.02963"/>
      <trkpt lat="38.11522" lon="-4.02968">
        <time>2022-11-26 12:05:59</time>
      </trkpt>
      <trkpt lat="38.11525" lon="-4.02975"/>
      <trkpt lat="38.11528" lon="-4.02981">
        <time>2022-11-26 12:06:00</time>
      </trkpt>
      <trkpt lat="38.1153" lon="-4.02987"/>
      <trkpt lat="38.11533" lon="-4.02992">
        <time>2022-11-26 12:06:01</time>
      </trkpt>
      <trkpt lat="38.11535" lon="-4.02997"/>
      <trkpt lat="38.11537" lon="-4.03001">
        <time>2022-11-26 12:06:02</time>
      </trkpt>
      <trkpt lat="38.1154" lon="-4.03008"/>
      <trkpt lat="38.11543" lon="-4.03014">
        <time>2022-11-26 12:06:03</time>
      </trkpt>
      <trkpt lat="38.11546" lon="-4.03019"/>
      <trkpt lat="38.11548" lon="-4.03022">
        <time>2022-11-26 12:06:04</time>
      </trkpt>
      <trkpt lat="38.11551" lon="-4.03026"/>
      <trkpt lat="38.11555" lon="-4.03034">
        <time>2022-11-26 12:06:05</time>
      </trkpt>
      <trkpt lat="38.11558" lon="-4.03039"/>
      <trkpt lat="38.1156" lon="-4.03043">
        <time>2022-11-26 12:06:06</time>
      </trkpt>
      <trkpt lat="38.11564" lon="-4.03049"/>
      <trkpt lat="38.11567" lon="-4.03055">
        <time>2022-11-26 12:06:08</time>
      </trkpt>
      <trkpt lat="38.11568" lon="-4.03058"/>
      <trkpt lat="38.1157" lon="-4.03062">
        <time>2022-11-26 12:06:09</time>
      </trkpt>
      <trkpt lat="38.11573" lon="-4.03065"/>
      <trkpt lat="38.11576" lon="-4.03069">
        <time>2022-11-26 12:06:11</time>
      </trkpt>
      <trkpt lat="38.11579" lon="-4.03072"/>
      <trkpt lat="38.11584" lon="-4.03076">
        <time>2022-11-26 12:06:12</time>
      </trkpt>
      <trkpt lat="38.11587" lon="-4.03078"/>
      <trkpt lat="38.1159" lon="-4.0308">
        <time>2022-11-26 12:06:13</time>
      </trkpt>
      <trkpt lat="38.11595" lon="-4.03083"/>
      <trkpt lat="38.11598" lon="-4.03085">
        <time>2022-11-26 12:06:14</time>
      </trkpt>
      <trkpt lat="38.11602" lon="-4.03087"/>
      <trkpt lat="38.11605" lon="-4.03088">
        <time>2022-11-26 12:06:16</time>
      </trkpt>
      <trkpt lat="38.1161" lon="-4.0309"/>
      <trkpt lat="38.11614" lon="-4.0309">
        <time>2022-11-26 12:06:17</time>
      </trkpt>
      <trkpt lat="38.11617" lon="-4.0309"/>
      <trkpt lat="38.1162" lon="-4.0309">
        <time>2022-11-26 12:06:18</time>
      </trkpt>
      <trkpt lat="38.11624" lon="-4.0309"/>
      <trkpt lat="38.11629" lon="-4.03089">
        <time>2022-11-26 12:06:20</time>
      </trkpt>
      <trkpt lat="38.11632" lon="-4.0309"/>
      <trkpt lat="38.11636" lon="-4.03091">
        <time>2022-11-26 12:06:21</time>
      </trkpt>
      <trkpt lat="38.11641" lon="-4.03091"/>
      <trkpt lat="38.11645" lon="-4.03091">
        <time>2022-11-26 12:06:22</time>
      </trkpt>
      <trkpt lat="38.11648" lon="-4.03091"/>
      <trkpt lat="38.11654" lon="-4.03091">
        <time>2022-11-26 12:06:24</time>
      </trkpt>
      <trkpt lat="38.1166" lon="-4.03089"/>
      <trkpt lat="38.11665" lon="-4.03086">
        <time>2022-11-26 12:06:25</time>
      </trkpt>
      <trkpt lat="38.11673" lon="-4.03082"/>
      <trkpt lat="38.11677" lon="-4.0308">
        <time>2022-11-26 12:06:26</time>
      </trkpt>
      <trkpt lat="38.1168" lon="-4.03077"/>
      <trkpt lat="38.11686" lon="-4.03074">
        <time>2022-11-26 12:06:27</time>
      </trkpt>
      <trkpt lat="38.11691" lon="-4.03071"/>
      <trkpt lat="38.11695" lon="-4.03069">
        <time>2022-11-26 12:06:29</time>
      </trkpt>
      <trkpt lat="38.11702" lon="-4.03066"/>
      <trkpt lat="38.11707" lon="-4.03063">
        <time>2022-11-26 12:06:30</time>
      </trkpt>
      <trkpt lat="38.11712" lon="-4.0306"/>
      <trkpt lat="38.11718" lon="-4.03057">
        <time>2022-11-26 12:06:31</time>
      </trkpt>
      <trkpt lat="38.11723" lon="-4.03053"/>
      <trkpt lat="38.11729" lon="-4.0305">
        <time>2022-11-26 12:06:32</time>
      </trkpt>
      <trkpt lat="38.11735" lon="-4.03046"/>
      <trkpt lat="38.11741" lon="-4.03042">
        <time>2022-11-26 12:06:33</time>
      </trkpt>
      <trkpt lat="38.11748" lon="-4.03038"/>
      <trkpt lat="38.11755" lon="-4.03033">
        <time>2022-11-26 12:06:35</time>
      </trkpt>
      <trkpt lat="38.11761" lon="-4.03028"/>
      <trkpt lat="38.11769" lon="-4.03025">
        <time>2022-11-26 12:06:36</time>
      </trkpt>
      <trkpt lat="38.11776" lon="-4.03022"/>
      <trkpt lat="38.11784" lon="-4.0302">
        <time>2022-11-26 12:06:37</time>
      </trkpt>
      <trkpt lat="38.11792" lon="-4.03018"/>
      <trkpt lat="38.11801" lon="-4.03017">
        <time>2022-11-26 12:06:38</time>
      </trkpt>
      <trkpt lat="38.11809" lon="-4.03018"/>
      <trkpt lat="38.11818" lon="-4.03021">
        <time>2022-11-26 12:06:39</time>
      </trkpt>
      <trkpt lat="38.11825" lon="-4.03024"/>
      <trkpt lat="38.11833" lon="-4.03029">
        <time>2022-11-26 12:06:40</time>
      </trkpt>
      <trkpt lat="38.1184" lon="-4.03035"/>
      <trkpt lat="38.11845" lon="-4.03043">
        <time>2022-11-26 12:06:41</time>
      </trkpt>
      <trkpt lat="38.11856" lon="-4.03057"/>
      <trkpt lat="38.1186" lon="-4.03067">
        <time>2022-11-26 12:06:42</time>
      </trkpt>
      <trkpt lat="38.11865" lon="-4.03077"/>
      <trkpt lat="38.1187" lon="-4.03086">
        <time>2022-11-26 12:06:43</time>
      </trkpt>
      <trkpt lat="38.11876" lon="-4.03094"/>
      <trkpt lat="38.11881" lon="-4.03104">
        <time>2022-11-26 12:06:45</time>
      </trkpt>
      <trkpt lat="38.11887" lon="-4.03114"/>
      <trkpt lat="38.11893" lon="-4.03124">
        <time>2022-11-26 12:06:46</time>
      </trkpt>
      <trkpt lat="38.11901" lon="-4.03132"/>
      <trkpt lat="38.11909" lon="-4.03139">
        <time>2022-11-26 12:06:47</time>
      </trkpt>
      <trkpt lat="38.11919" lon="-4.03144"/>
      <trkpt lat="38.11928" lon="-4.03148">
        <time>2022-11-26 12:06:48</time>
      </trkpt>
      <trkpt lat="38.11937" lon="-4.03153"/>
      <trkpt lat="38.11946" lon="-4.03157">
        <time>2022-11-26 12:06:50</time>
      </trkpt>
      <trkpt lat="38.11956" lon="-4.03162"/>
      <trkpt lat="38.11966" lon="-4.03166">
        <time>2022-11-26 12:06:51</time>
      </trkpt>
      <trkpt lat="38.11976" lon="-4.0317"/>
      <trkpt lat="38.11985" lon="-4.03175">
        <time>2022-11-26 12:06:53</time>
      </trkpt>
      <trkpt lat="38.11994" lon="-4.0318"/>
      <trkpt lat="38.12003" lon="-4.03184">
        <time>2022-11-26 12:06:54</time>
      </trkpt>
      <trkpt lat="38.12011" lon="-4.03188"/>
      <trkpt lat="38.12019" lon="-4.03191">
        <time>2022-11-26 12:06:55</time>
      </trkpt>
      <trkpt lat="38.12027" lon="-4.03194"/>
      <trkpt lat="38.12034" lon="-4.03197">
        <time>2022-11-26 12:06:56</time>
      </trkpt>
      <trkpt lat="38.12042" lon="-4.032"/>
      <trkpt lat="38.12049" lon="-4.03203">
        <time>2022-11-26 12:06:58</time>
      </trkpt>
      <trkpt lat="38.12056" lon="-4.03206"/>
      <trkpt lat="38.12062" lon="-4.0321">
        <time>2022-11-26 12:06:59</time>
      </trkpt>
      <trkpt lat="38.12067" lon="-4.03212"/>
      <trkpt lat="38.12071" lon="-4.03214">
        <time>2022-11-26 12:07:00</time>
      </trkpt>
      <trkpt lat="38.12073" lon="-4.03217"/>
      <trkpt lat="38.12074" lon="-4.03222">
        <time>2022-11-26 12:07:02</time>
      </trkpt>
      <trkpt lat="38.12073" lon="-4.03226"/>
      <trkpt lat="38.12071" lon="-4.03232"/>
      <trkpt lat="38.12068" lon="-4.03238"/>
      <trkpt lat="38.12063" lon="-4.03244">
        <time>2022-11-26 12:07:04</time>
      </trkpt>
      <trkpt lat="38.12059" lon="-4.03249"/>
      <trkpt lat="38.12055" lon="-4.03255">
        <time>2022-11-26 12:07:05</time>
      </trkpt>
      <trkpt lat="38.12051" lon="-4.03261"/>
      <trkpt lat="38.12047" lon="-4.03266">
        <time>2022-11-26 12:07:06</time>
      </trkpt>
      <trkpt lat="38.12043" lon="-4.03271"/>
      <trkpt lat="38.1204" lon="-4.03276">
        <time>2022-11-26 12:07:07</time>
      </trkpt>
      <trkpt lat="38.12036" lon="-4.03281"/>
      <trkpt lat="38.12032" lon="-4.03286">
        <time>2022-11-26 12:07:08</time>
      </trkpt>
      <trkpt lat="38.12028" lon="-4.03291"/>
      <trkpt lat="38.12024" lon="-4.03296">
        <time>2022-11-26 12:07:10</time>
      </trkpt>
      <trkpt lat="38.1202" lon="-4.033"/>
      <trkpt lat="38.12017" lon="-4.03304">
        <time>2022-11-26 12:07:12</time>
      </trkpt>
      <trkpt lat="38.12015" lon="-4.03307"/>
      <trkpt lat="38.12011" lon="-4.03313">
        <time>2022-11-26 12:07:13</time>
      </trkpt>
      <trkpt lat="38.12007" lon="-4.03318"/>
      <trkpt lat="38.12003" lon="-4.03323">
        <time>2022-11-26 12:07:14</time>
      </trkpt>
      <trkpt lat="38.11999" lon="-4.03328"/>
      <trkpt lat="38.11995" lon="-4.03333">
        <time>2022-11-26 12:07:15</time>
      </trkpt>
      <trkpt lat="38.11992" lon="-4.03337"/>
      <trkpt lat="38.11989" lon="-4.0334">
        <time>2022-11-26 12:07:16</time>
      </trkpt>
      <trkpt lat="38.11986" lon="-4.03346"/>
      <trkpt lat="38.11981" lon="-4.03352">
        <time>2022-11-26 12:07:17</time>
      </trkpt>
      <trkpt lat="38.11977" lon="-4.03357"/>
      <trkpt lat="38.11974" lon="-4.03362">
        <time>2022-11-26 12:07:19</time>
      </trkpt>
      <trkpt lat="38.1197" lon="-4.03367"/>
      <trkpt lat="38.11967" lon="-4.03372">
        <time>2022-11-26 12:07:20</time>
      </trkpt>
      <trkpt lat="38.11963" lon="-4.03378"/>
      <trkpt lat="38.1196" lon="-4.03383">
        <time>2022-11-26 12:07:21</time>
      </trkpt>
      <trkpt lat="38.11956" lon="-4.03389"/>
      <trkpt lat="38.11953" lon="-4.03395">
        <time>2022-11-26 12:07:22</time>
      </trkpt>
      <trkpt lat="38.1195" lon="-4.034"/>
      <trkpt lat="38.11947" lon="-4.03406">
        <time>2022-11-26 12:07:23</time>
      </trkpt>
      <trkpt lat="38.11944" lon="-4.03411"/>
      <trkpt lat="38.11941" lon="-4.03417">
        <time>2022-11-26 12:07:24</time>
      </trkpt>
      <trkpt lat="38.11938" lon="-4.03423"/>
      <trkpt lat="38.11935" lon="-4.03429">
        <time>2022-11-26 12:07:25</time>
      </trkpt>
      <trkpt lat="38.11931" lon="-4.03435"/>
      <trkpt lat="38.11928" lon="-4.0344">
        <time>2022-11-26 12:07:26</time>
      </trkpt>
      <trkpt lat="38.11926" lon="-4.03446"/>
      <trkpt lat="38.11923" lon="-4.03451">
        <time>2022-11-26 12:07:27</time>
      </trkpt>
      <trkpt lat="38.1192" lon="-4.03457"/>
      <trkpt lat="38.11918" lon="-4.03462">
        <time>2022-11-26 12:07:28</time>
      </trkpt>
      <trkpt lat="38.11915" lon="-4.03467"/>
      <trkpt lat="38.11913" lon="-4.03472">
        <time>2022-11-26 12:07:29</time>
      </trkpt>
      <trkpt lat="38.1191" lon="-4.03477"/>
      <trkpt lat="38.11908" lon="-4.03481">
        <time>2022-11-26 12:07:31</time>
      </trkpt>
      <trkpt lat="38.11906" lon="-4.03486"/>
      <trkpt lat="38.11903" lon="-4.03491">
        <time>2022-11-26 12:07:32</time>
      </trkpt>
      <trkpt lat="38.11902" lon="-4.03494"/>
      <trkpt lat="38.11899" lon="-4.03501">
        <time>2022-11-26 12:07:33</time>
      </trkpt>
      <trkpt lat="38.11896" lon="-4.03505"/>
      <trkpt lat="38.11894" lon="-4.03511">
        <time>2022-11-26 12:07:34</time>
      </trkpt>
      <trkpt lat="38.11891" lon="-4.03516"/>
      <trkpt lat="38.11889" lon="-4.03521">
        <time>2022-11-26 12:07:35</time>
      </trkpt>
      <trkpt lat="38.11886" lon="-4.03526"/>
      <trkpt lat="38.11883" lon="-4.03531">
        <time>2022-11-26 12:07:36</time>
      </trkpt>
      <trkpt lat="38.1188" lon="-4.03536"/>
      <trkpt lat="38.11877" lon="-4.0354">
        <time>2022-11-26 12:07:37</time>
      </trkpt>
      <trkpt lat="38.11873" lon="-4.03545"/>
      <trkpt lat="38.1187" lon="-4.0355">
        <time>2022-11-26 12:07:39</time>
      </trkpt>
      <trkpt lat="38.11866" lon="-4.03555"/>
      <trkpt lat="38.11862" lon="-4.03559">
        <time>2022-11-26 12:07:40</time>
      </trkpt>
      <trkpt lat="38.11858" lon="-4.03564"/>
      <trkpt lat="38.11853" lon="-4.03569">
        <time>2022-11-26 12:07:41</time>
      </trkpt>
      <trkpt lat="38.11848" lon="-4.03574"/>
      <trkpt lat="38.11844" lon="-4.03579">
        <time>2022-11-26 12:07:42</time>
      </trkpt>
      <trkpt lat="38.11838" lon="-4.03585"/>
      <trkpt lat="38.11833" lon="-4.0359">
        <time>2022-11-26 12:07:44</time>
      </trkpt>
      <trkpt lat="38.11827" lon="-4.03596"/>
      <trkpt lat="38.11821" lon="-4.03603">
        <time>2022-11-26 12:07:45</time>
      </trkpt>
      <trkpt lat="38.11815" lon="-4.03609"/>
      <trkpt lat="38.11809" lon="-4.03616">
        <time>2022-11-26 12:07:46</time>
      </trkpt>
      <trkpt lat="38.11803" lon="-4.03623"/>
      <trkpt lat="38.11796" lon="-4.03631">
        <time>2022-11-26 12:07:47</time>
      </trkpt>
      <trkpt lat="38.1179" lon="-4.03639"/>
      <trkpt lat="38.11782" lon="-4.03648">
        <time>2022-11-26 12:07:48</time>
      </trkpt>
      <trkpt lat="38.11775" lon="-4.03656"/>
      <trkpt lat="38.11767" lon="-4.03664">
        <time>2022-11-26 12:07:49</time>
      </trkpt>
      <trkpt lat="38.1176" lon="-4.03672"/>
      <trkpt lat="38.11753" lon="-4.0368">
        <time>2022-11-26 12:07:51</time>
      </trkpt>
      <trkpt lat="38.11745" lon="-4.03688"/>
      <trkpt lat="38.11737" lon="-4.03695">
        <time>2022-11-26 12:07:52</time>
      </trkpt>
      <trkpt lat="38.11729" lon="-4.03702"/>
      <trkpt lat="38.1172" lon="-4.03709">
        <time>2022-11-26 12:07:54</time>
      </trkpt>
      <trkpt lat="38.11711" lon="-4.03714"/>
      <trkpt lat="38.11702" lon="-4.03718">
        <time>2022-11-26 12:07:55</time>
      </trkpt>
      <trkpt lat="38.11692" lon="-4.03722"/>
      <trkpt lat="38.11681" lon="-4.03724">
        <time>2022-11-26 12:07:56</time>
      </trkpt>
      <trkpt lat="38.11671" lon="-4.03726"/>
      <trkpt lat="38.11661" lon="-4.03728">
        <time>2022-11-26 12:07:57</time>
      </trkpt>
      <trkpt lat="38.1165" lon="-4.03729"/>
      <trkpt lat="38.11639" lon="-4.0373">
        <time>2022-11-26 12:07:58</time>
      </trkpt>
      <trkpt lat="38.11629" lon="-4.0373"/>
      <trkpt lat="38.11618" lon="-4.03731">
        <time>2022-11-26 12:08:00</time>
      </trkpt>
      <trkpt lat="38.11608" lon="-4.03731"/>
      <trkpt lat="38.11597" lon="-4.0373">
        <time>2022-11-26 12:08:01</time>
      </trkpt>
      <trkpt lat="38.11586" lon="-4.03729"/>
      <trkpt lat="38.11575" lon="-4.03726">
        <time>2022-11-26 12:08:02</time>
      </trkpt>
      <trkpt lat="38.11565" lon="-4.03724"/>
      <trkpt lat="38.11554" lon="-4.03721">
        <time>2022-11-26 12:08:04</time>
      </trkpt>
      <trkpt lat="38.11544" lon="-4.03718"/>
      <trkpt lat="38.11533" lon="-4.03716">
        <time>2022-11-26 12:08:05</time>
      </trkpt>
      <trkpt lat="38.11523" lon="-4.03714"/>
      <trkpt lat="38.11513" lon="-4.03712">
        <time>2022-11-26 12:08:06</time>
      </trkpt>
      <trkpt lat="38.11502" lon="-4.03713"/>
      <trkpt lat="38.11492" lon="-4.03716">
        <time>2022-11-26 12:08:07</time>
      </trkpt>
      <trkpt lat="38.11482" lon="-4.03719"/>
      <trkpt lat="38.11472" lon="-4.03724">
        <time>2022-11-26 12:08:08</time>
      </trkpt>
      <trkpt lat="38.11462" lon="-4.03729"/>
      <trkpt lat="38.11454" lon="-4.03736">
        <time>2022-11-26 12:08:10</time>
      </trkpt>
      <trkpt lat="38.11446" lon="-4.03743"/>
      <trkpt lat="38.11438" lon="-4.03751">
        <time>2022-11-26 12:08:11</time>
      </trkpt>
      <trkpt lat="38.1143" lon="-4.03758"/>
      <trkpt lat="38.11422" lon="-4.03765">
        <time>2022-11-26 12:08:12</time>
      </trkpt>
      <trkpt lat="38.11413" lon="-4.03772"/>
      <trkpt lat="38.11405" lon="-4.03778">
        <time>2022-11-26 12:08:13</time>
      </trkpt>
      <trkpt lat="38.11397" lon="-4.03786"/>
      <trkpt lat="38.1139" lon="-4.03794">
        <time>2022-11-26 12:08:15</time>
      </trkpt>
      <trkpt lat="38.11384" lon="-4.03803"/>
      <trkpt lat="38.11377" lon="-4.03813">
        <time>2022-11-26 12:08:16</time>
      </trkpt>
      <trkpt lat="38.11371" lon="-4.03823"/>
      <trkpt lat="38.11365" lon="-4.03833">
        <time>2022-11-26 12:08:18</time>
      </trkpt>
      <trkpt lat="38.11359" lon="-4.03843"/>
      <trkpt lat="38.11355" lon="-4.03855">
        <time>2022-11-26 12:08:19</time>
      </trkpt>
      <trkpt lat="38.1135" lon="-4.03866"/>
      <trkpt lat="38.11345" lon="-4.03877">
        <time>2022-11-26 12:08:20</time>
      </trkpt>
      <trkpt lat="38.1134" lon="-4.03887"/>
      <trkpt lat="38.11335" lon="-4.03897">
        <time>2022-11-26 12:08:21</time>
      </trkpt>
      <trkpt lat="38.11329" lon="-4.03908"/>
      <trkpt lat="38.11324" lon="-4.03918">
        <time>2022-11-26 12:08:23</time>
      </trkpt>
      <trkpt lat="38.11318" lon="-4.03928"/>
      <trkpt lat="38.11312" lon="-4.03938">
        <time>2022-11-26 12:08:24</time>
      </trkpt>
      <trkpt lat="38.11306" lon="-4.03949"/>
      <trkpt lat="38.113" lon="-4.03959">
        <time>2022-11-26 12:08:25</time>
      </trkpt>
      <trkpt lat="38.11294" lon="-4.0397"/>
      <trkpt lat="38.11289" lon="-4.0398">
        <time>2022-11-26 12:08:26</time>
      </trkpt>
      <trkpt lat="38.11285" lon="-4.03989"/>
      <trkpt lat="38.11281" lon="-4.03999">
        <time>2022-11-26 12:08:27</time>
      </trkpt>
      <trkpt lat="38.11278" lon="-4.04008"/>
      <trkpt lat="38.11275" lon="-4.04016">
        <time>2022-11-26 12:08:28</time>
      </trkpt>
      <trkpt lat="38.11272" lon="-4.04025"/>
      <trkpt lat="38.11269" lon="-4.04033">
        <time>2022-11-26 12:08:29</time>
      </trkpt>
      <trkpt lat="38.11266" lon="-4.04041"/>
      <trkpt lat="38.11262" lon="-4.0405">
        <time>2022-11-26 12:08:30</time>
      </trkpt>
      <trkpt lat="38.11259" lon="-4.04058"/>
      <trkpt lat="38.11256" lon="-4.04067">
        <time>2022-11-26 12:08:32</time>
      </trkpt>
      <trkpt lat="38.11255" lon="-4.04076"/>
      <trkpt lat="38.11253" lon="-4.04086">
        <time>2022-11-26 12:08:33</time>
      </trkpt>
      <trkpt lat="38.11252" lon="-4.04095"/>
      <trkpt lat="38.11251" lon="-4.04105">
        <time>2022-11-26 12:08:34</time>
      </trkpt>
      <trkpt lat="38.1125" lon="-4.04114"/>
      <trkpt lat="38.11249" lon="-4.04123">
        <time>2022-11-26 12:08:35</time>
      </trkpt>
      <trkpt lat="38.11248" lon="-4.04132"/>
      <trkpt lat="38.11246" lon="-4.0414">
        <time>2022-11-26 12:08:36</time>
      </trkpt>
      <trkpt lat="38.11243" lon="-4.04148"/>
      <trkpt lat="38.11239" lon="-4.04157">
        <time>2022-11-26 12:08:37</time>
      </trkpt>
      <trkpt lat="38.11235" lon="-4.04166"/>
      <trkpt lat="38.11232" lon="-4.04175">
        <time>2022-11-26 12:08:39</time>
      </trkpt>
      <trkpt lat="38.11229" lon="-4.04183"/>
      <trkpt lat="38.11226" lon="-4.04192">
        <time>2022-11-26 12:08:40</time>
      </trkpt>
      <trkpt lat="38.11223" lon="-4.04199"/>
      <trkpt lat="38.11221" lon="-4.04206">
        <time>2022-11-26 12:08:41</time>
      </trkpt>
      <trkpt lat="38.11219" lon="-4.04212"/>
      <trkpt lat="38.11217" lon="-4.04218">
        <time>2022-11-26 12:08:43</time>
      </trkpt>
      <trkpt lat="38.11216" lon="-4.04222"/>
      <trkpt lat="38.11215" lon="-4.04227">
        <time>2022-11-26 12:08:44</time>
      </trkpt>
      <trkpt lat="38.11214" lon="-4.04233"/>
      <trkpt lat="38.11213" lon="-4.04239">
        <time>2022-11-26 12:08:45</time>
      </trkpt>
      <trkpt lat="38.11211" lon="-4.04246"/>
      <trkpt lat="38.1121" lon="-4.04253">
        <time>2022-11-26 12:08:46</time>
      </trkpt>
      <trkpt lat="38.11209" lon="-4.0426"/>
      <trkpt lat="38.11208" lon="-4.04268">
        <time>2022-11-26 12:08:47</time>
      </trkpt>
      <trkpt lat="38.11206" lon="-4.04276"/>
      <trkpt lat="38.11204" lon="-4.04283">
        <time>2022-11-26 12:08:48</time>
      </trkpt>
      <trkpt lat="38.11202" lon="-4.04291"/>
      <trkpt lat="38.11199" lon="-4.04299">
        <time>2022-11-26 12:08:49</time>
      </trkpt>
      <trkpt lat="38.11196" lon="-4.04307"/>
      <trkpt lat="38.11193" lon="-4.04314">
        <time>2022-11-26 12:08:50</time>
      </trkpt>
      <trkpt lat="38.1119" lon="-4.04322"/>
      <trkpt lat="38.11186" lon="-4.04331">
        <time>2022-11-26 12:08:52</time>
      </trkpt>
      <trkpt lat="38.11182" lon="-4.0434"/>
      <trkpt lat="38.11178" lon="-4.0435">
        <time>2022-11-26 12:08:53</time>
      </trkpt>
      <trkpt lat="38.11173" lon="-4.04361"/>
      <trkpt lat="38.11167" lon="-4.04371">
        <time>2022-11-26 12:08:54</time>
      </trkpt>
      <trkpt lat="38.11161" lon="-4.04381"/>
      <trkpt lat="38.11152" lon="-4.0439">
        <time>2022-11-26 12:08:55</time>
      </trkpt>
      <trkpt lat="38.11143" lon="-4.044"/>
      <trkpt lat="38.11134" lon="-4.04409">
        <time>2022-11-26 12:08:57</time>
      </trkpt>
      <trkpt lat="38.11125" lon="-4.04418"/>
      <trkpt lat="38.11116" lon="-4.04427">
        <time>2022-11-26 12:08:58</time>
      </trkpt>
      <trkpt lat="38.11107" lon="-4.04436"/>
      <trkpt lat="38.111" lon="-4.04447">
        <time>2022-11-26 12:08:59</time>
      </trkpt>
      <trkpt lat="38.11094" lon="-4.04456"/>
      <trkpt lat="38.11088" lon="-4.04463">
        <time>2022-11-26 12:09:00</time>
      </trkpt>
      <trkpt lat="38.11082" lon="-4.0447"/>
      <trkpt lat="38.11075" lon="-4.04475">
        <time>2022-11-26 12:09:02</time>
      </trkpt>
      <trkpt lat="38.11068" lon="-4.04478"/>
      <trkpt lat="38.11061" lon="-4.0448">
        <time>2022-11-26 12:09:03</time>
      </trkpt>
      <trkpt lat="38.11053" lon="-4.04482"/>
      <trkpt lat="38.11045" lon="-4.04482">
        <time>2022-11-26 12:09:04</time>
      </trkpt>
      <trkpt lat="38.11038" lon="-4.0448"/>
      <trkpt lat="38.11031" lon="-4.04476">
        <time>2022-11-26 12:09:05</time>
      </trkpt>
      <trkpt lat="38.11025" lon="-4.04471"/>
      <trkpt lat="38.1102" lon="-4.04468">
        <time>2022-11-26 12:09:06</time>
      </trkpt>
      <trkpt lat="38.11018" lon="-4.04467"/>
      <trkpt lat="38.11013" lon="-4.04467">
        <time>2022-11-26 12:09:07</time>
      </trkpt>
      <trkpt lat="38.11008" lon="-4.04468"/>
      <trkpt lat="38.11003" lon="-4.0447">
        <time>2022-11-26 12:09:08</time>
      </trkpt>
      <trkpt lat="38.10997" lon="-4.04473"/>
      <trkpt lat="38.1099" lon="-4.04472">
        <time>2022-11-26 12:09:09</time>
      </trkpt>
      <trkpt lat="38.10985" lon="-4.04474"/>
      <trkpt lat="38.1098" lon="-4.04476">
        <time>2022-11-26 12:09:10</time>
      </trkpt>
      <trkpt lat="38.10975" lon="-4.04482"/>
      <trkpt lat="38.10968" lon="-4.04485">
        <time>2022-11-26 12:09:12</time>
      </trkpt>
      <trkpt lat="38.10961" lon="-4.04486"/>
      <trkpt lat="38.10954" lon="-4.04487">
        <time>2022-11-26 12:09:13</time>
      </trkpt>
      <trkpt lat="38.10948" lon="-4.0449"/>
      <trkpt lat="38.10942" lon="-4.04491">
        <time>2022-11-26 12:09:14</time>
      </trkpt>
      <trkpt lat="38.10937" lon="-4.04494"/>
      <trkpt lat="38.10933" lon="-4.04498">
        <time>2022-11-26 12:09:16</time>
      </trkpt>
      <trkpt lat="38.10928" lon="-4.04504"/>
      <trkpt lat="38.10924" lon="-4.04511">
        <time>2022-11-26 12:09:17</time>
      </trkpt>
      <trkpt lat="38.10921" lon="-4.04518"/>
      <trkpt lat="38.10917" lon="-4.04525">
        <time>2022-11-26 12:09:18</time>
      </trkpt>
      <trkpt lat="38.10914" lon="-4.04529"/>
      <trkpt lat="38.1091" lon="-4.04533">
        <time>2022-11-26 12:09:19</time>
      </trkpt>
      <trkpt lat="38.10906" lon="-4.04533"/>
      <trkpt lat="38.10903" lon="-4.04531">
        <time>2022-11-26 12:09:20</time>
      </trkpt>
      <trkpt lat="38.10899" lon="-4.04529"/>
      <trkpt lat="38.10895" lon="-4.04526">
        <time>2022-11-26 12:09:22</time>
      </trkpt>
      <trkpt lat="38.10891" lon="-4.04524"/>
      <trkpt lat="38.10888" lon="-4.04524">
        <time>2022-11-26 12:09:24</time>
      </trkpt>
      <trkpt lat="38.10882" lon="-4.04521"/>
      <trkpt lat="38.10879" lon="-4.04523">
        <time>2022-11-26 12:09:25</time>
      </trkpt>
      <trkpt lat="38.10877" lon="-4.04523"/>
      <trkpt lat="38.10875" lon="-4.04523">
        <time>2022-11-26 12:09:26</time>
      </trkpt>
      <trkpt lat="38.10873" lon="-4.04523"/>
      <trkpt lat="38.10869" lon="-4.04523">
        <time>2022-11-26 12:09:27</time>
      </trkpt>
      <trkpt lat="38.10866" lon="-4.04522"/>
      <trkpt lat="38.10863" lon="-4.04522">
        <time>2022-11-26 12:09:28</time>
      </trkpt>
      <trkpt lat="38.10858" lon="-4.04521"/>
      <trkpt lat="38.10851" lon="-4.04523">
        <time>2022-11-26 12:09:30</time>
      </trkpt>
      <trkpt lat="38.10846" lon="-4.04523"/>
      <trkpt lat="38.10842" lon="-4.04523">
        <time>2022-11-26 12:09:31</time>
      </trkpt>
      <trkpt lat="38.10835" lon="-4.04524"/>
      <trkpt lat="38.10827" lon="-4.04527">
        <time>2022-11-26 12:09:32</time>
      </trkpt>
      <trkpt lat="38.10822" lon="-4.04528"/>
      <trkpt lat="38.10816" lon="-4.04528">
        <time>2022-11-26 12:09:33</time>
      </trkpt>
      <trkpt lat="38.10811" lon="-4.04527"/>
      <trkpt lat="38.10807" lon="-4.04528">
        <time>2022-11-26 12:09:35</time>
      </trkpt>
      <trkpt lat="38.10802" lon="-4.0453"/>
      <trkpt lat="38.10797" lon="-4.04532">
        <time>2022-11-26 12:09:36</time>
      </trkpt>
      <trkpt lat="38.10793" lon="-4.04535"/>
      <trkpt lat="38.10789" lon="-4.04538">
        <time>2022-11-26 12:09:37</time>
      </trkpt>
      <trkpt lat="38.10784" lon="-4.04541"/>
      <trkpt lat="38.10779" lon="-4.04545">
        <time>2022-11-26 12:09:38</time>
      </trkpt>
      <trkpt lat="38.10774" lon="-4.04548"/>
      <trkpt lat="38.10768" lon="-4.04552">
        <time>2022-11-26 12:09:39</time>
      </trkpt>
      <trkpt lat="38.10763" lon="-4.04557"/>
      <trkpt lat="38.10759" lon="-4.04562">
        <time>2022-11-26 12:09:40</time>
      </trkpt>
      <trkpt lat="38.10755" lon="-4.04567"/>
      <trkpt lat="38.10752" lon="-4.04571">
        <time>2022-11-26 12:09:42</time>
      </trkpt>
      <trkpt lat="38.10748" lon="-4.04574"/>
      <trkpt lat="38.10746" lon="-4.04579">
        <time>2022-11-26 12:09:43</time>
      </trkpt>
      <trkpt lat="38.10744" lon="-4.04584"/>
      <trkpt lat="38.10742" lon="-4.0459">
        <time>2022-11-26 12:09:44</time>
      </trkpt>
      <trkpt lat="38.10738" lon="-4.04596"/>
      <trkpt lat="38.10733" lon="-4.04602">
        <time>2022-11-26 12:09:45</time>
      </trkpt>
      <trkpt lat="38.10727" lon="-4.04607"/>
      <trkpt lat="38.1072" lon="-4.04613">
        <time>2022-11-26 12:09:46</time>
      </trkpt>
      <trkpt lat="38.10713" lon="-4.04618"/>
      <trkpt lat="38.10706" lon="-4.04621">
        <time>2022-11-26 12:09:48</time>
      </trkpt>
      <trkpt lat="38.10699" lon="-4.04622"/>
      <trkpt lat="38.10691" lon="-4.04622">
        <time>2022-11-26 12:09:50</time>
      </trkpt>
      <trkpt lat="38.10684" lon="-4.04622"/>
      <trkpt lat="38.10677" lon="-4.04623">
        <time>2022-11-26 12:09:51</time>
      </trkpt>
      <trkpt lat="38.10671" lon="-4.04625"/>
      <trkpt lat="38.10666" lon="-4.04626">
        <time>2022-11-26 12:09:52</time>
      </trkpt>
      <trkpt lat="38.10664" lon="-4.04626"/>
      <trkpt lat="38.10658" lon="-4.04625">
        <time>2022-11-26 12:09:53</time>
      </trkpt>
      <trkpt lat="38.10651" lon="-4.04624"/>
      <trkpt lat="38.10645" lon="-4.04624">
        <time>2022-11-26 12:09:54</time>
      </trkpt>
      <trkpt lat="38.10637" lon="-4.04624"/>
      <trkpt lat="38.10628" lon="-4.04625">
        <time>2022-11-26 12:09:56</time>
      </trkpt>
      <trkpt lat="38.10619" lon="-4.04626"/>
      <trkpt lat="38.1061" lon="-4.04629">
        <time>2022-11-26 12:09:57</time>
      </trkpt>
      <trkpt lat="38.10601" lon="-4.04632"/>
      <trkpt lat="38.10594" lon="-4.04635">
        <time>2022-11-26 12:09:58</time>
      </trkpt>
      <trkpt lat="38.10587" lon="-4.04636"/>
      <trkpt lat="38.10581" lon="-4.04637">
        <time>2022-11-26 12:09:59</time>
      </trkpt>
      <trkpt lat="38.10576" lon="-4.04637"/>
      <trkpt lat="38.10571" lon="-4.04639">
        <time>2022-11-26 12:10:01</time>
      </trkpt>
      <trkpt lat="38.10568" lon="-4.0464"/>
      <trkpt lat="38.10564" lon="-4.0464">
        <time>2022-11-26 12:10:02</time>
      </trkpt>
      <trkpt lat="38.1056" lon="-4.04641"/>
      <trkpt lat="38.10556" lon="-4.04642">
        <time>2022-11-26 12:10:03</time>
      </trkpt>
      <trkpt lat="38.10551" lon="-4.04643"/>
      <trkpt lat="38.10549" lon="-4.04642">
        <time>2022-11-26 12:10:04</time>
      </trkpt>
      <trkpt lat="38.10547" lon="-4.04642"/>
      <trkpt lat="38.10537" lon="-4.04637">
        <time>2022-11-26 12:10:06</time>
      </trkpt>
      <trkpt lat="38.10534" lon="-4.0463"/>
      <trkpt lat="38.10531" lon="-4.04629">
        <time>2022-11-26 12:10:07</time>
      </trkpt>
      <trkpt lat="38.10525" lon="-4.04631"/>
      <trkpt lat="38.1052" lon="-4.04633">
        <time>2022-11-26 12:10:08</time>
      </trkpt>
      <trkpt lat="38.10515" lon="-4.04636"/>
      <trkpt lat="38.10512" lon="-4.0464">
        <time>2022-11-26 12:10:09</time>
      </trkpt>
      <trkpt lat="38.10509" lon="-4.04642"/>
      <trkpt lat="38.10505" lon="-4.04642">
        <time>2022-11-26 12:10:10</time>
      </trkpt>
      <trkpt lat="38.10501" lon="-4.04644"/>
      <trkpt lat="38.10494" lon="-4.04645">
        <time>2022-11-26 12:10:11</time>
      </trkpt>
      <trkpt lat="38.10489" lon="-4.04647"/>
      <trkpt lat="38.10485" lon="-4.0465">
        <time>2022-11-26 12:10:13</time>
      </trkpt>
      <trkpt lat="38.10481" lon="-4.04654"/>
      <trkpt lat="38.10478" lon="-4.04657">
        <time>2022-11-26 12:10:14</time>
      </trkpt>
      <trkpt lat="38.10475" lon="-4.04661"/>
      <trkpt lat="38.10471" lon="-4.04661">
        <time>2022-11-26 12:10:15</time>
      </trkpt>
      <trkpt lat="38.10467" lon="-4.04663"/>
      <trkpt lat="38.10462" lon="-4.04667">
        <time>2022-11-26 12:10:17</time>
      </trkpt>
      <trkpt lat="38.10453" lon="-4.0467"/>
      <trkpt lat="38.10447" lon="-4.04671">
        <time>2022-11-26 12:10:18</time>
      </trkpt>
      <trkpt lat="38.10442" lon="-4.04674"/>
      <trkpt lat="38.10436" lon="-4.0468">
        <time>2022-11-26 12:10:19</time>
      </trkpt>
      <trkpt lat="38.10432" lon="-4.04687"/>
      <trkpt lat="38.1043" lon="-4.04695">
        <time>2022-11-26 12:10:20</time>
      </trkpt>
      <trkpt lat="38.10428" lon="-4.04702"/>
      <trkpt lat="38.10426" lon="-4.04708">
        <time>2022-11-26 12:10:22</time>
      </trkpt>
      <trkpt lat="38.10423" lon="-4.04715"/>
      <trkpt lat="38.1042" lon="-4.04721">
        <time>2022-11-26 12:10:23</time>
      </trkpt>
      <trkpt lat="38.10415" lon="-4.04721"/>
      <trkpt lat="38.10408" lon="-4.04727">
        <time>2022-11-26 12:10:24</time>
      </trkpt>
      <trkpt lat="38.10402" lon="-4.04733"/>
      <trkpt lat="38.10397" lon="-4.04739">
        <time>2022-11-26 12:10:25</time>
      </trkpt>
      <trkpt lat="38.10393" lon="-4.04746"/>
      <trkpt lat="38.1039" lon="-4.04754">
        <time>2022-11-26 12:10:26</time>
      </trkpt>
      <trkpt lat="38.10387" lon="-4.04762"/>
      <trkpt lat="38.10383" lon="-4.04768">
        <time>2022-11-26 12:10:28</time>
      </trkpt>
      <trkpt lat="38.10379" lon="-4.04773"/>
      <trkpt lat="38.10375" lon="-4.0478">
        <time>2022-11-26 12:10:29</time>
      </trkpt>
      <trkpt lat="38.10371" lon="-4.04785"/>
      <trkpt lat="38.10367" lon="-4.04789">
        <time>2022-11-26 12:10:30</time>
      </trkpt>
      <trkpt lat="38.10363" lon="-4.04795"/>
      <trkpt lat="38.10359" lon="-4.04802">
        <time>2022-11-26 12:10:32</time>
      </trkpt>
      <trkpt lat="38.10356" lon="-4.04809"/>
      <trkpt lat="38.10354" lon="-4.04815">
        <time>2022-11-26 12:10:33</time>
      </trkpt>
      <trkpt lat="38.10353" lon="-4.04822"/>
      <trkpt lat="38.10351" lon="-4.04828">
        <time>2022-11-26 12:10:34</time>
      </trkpt>
      <trkpt lat="38.10348" lon="-4.04835"/>
      <trkpt lat="38.10346" lon="-4.04842">
        <time>2022-11-26 12:10:35</time>
      </trkpt>
      <trkpt lat="38.10344" lon="-4.04849"/>
      <trkpt lat="38.10342" lon="-4.04856">
        <time>2022-11-26 12:10:36</time>
      </trkpt>
      <trkpt lat="38.1034" lon="-4.04863"/>
      <trkpt lat="38.10335" lon="-4.04872">
        <time>2022-11-26 12:10:38</time>
      </trkpt>
      <trkpt lat="38.10329" lon="-4.0488"/>
      <trkpt lat="38.10322" lon="-4.04888">
        <time>2022-11-26 12:10:39</time>
      </trkpt>
      <trkpt lat="38.10315" lon="-4.04897"/>
      <trkpt lat="38.10307" lon="-4.04907">
        <time>2022-11-26 12:10:40</time>
      </trkpt>
      <trkpt lat="38.10299" lon="-4.04919"/>
      <trkpt lat="38.10292" lon="-4.04931">
        <time>2022-11-26 12:10:41</time>
      </trkpt>
      <trkpt lat="38.10285" lon="-4.04944"/>
      <trkpt lat="38.10278" lon="-4.04955">
        <time>2022-11-26 12:10:42</time>
      </trkpt>
      <trkpt lat="38.10272" lon="-4.04965"/>
      <trkpt lat="38.10267" lon="-4.04974">
        <time>2022-11-26 12:10:43</time>
      </trkpt>
      <trkpt lat="38.10264" lon="-4.04984"/>
      <trkpt lat="38.10263" lon="-4.04992">
        <time>2022-11-26 12:10:44</time>
      </trkpt>
      <trkpt lat="38.10263" lon="-4.05001"/>
      <trkpt lat="38.10265" lon="-4.05011">
        <time>2022-11-26 12:10:45</time>
      </trkpt>
      <trkpt lat="38.10267" lon="-4.0502"/>
      <trkpt lat="38.10267" lon="-4.05028">
        <time>2022-11-26 12:10:46</time>
      </trkpt>
      <trkpt lat="38.10267" lon="-4.05033"/>
      <trkpt lat="38.10268" lon="-4.05036">
        <time>2022-11-26 12:10:47</time>
      </trkpt>
      <trkpt lat="38.10269" lon="-4.05039"/>
      <trkpt lat="38.1027" lon="-4.05042">
        <time>2022-11-26 12:10:48</time>
      </trkpt>
      <trkpt lat="38.10272" lon="-4.05044"/>
      <trkpt lat="38.10273" lon="-4.05046">
        <time>2022-11-26 12:10:49</time>
      </trkpt>
      <trkpt lat="38.10275" lon="-4.05048"/>
      <trkpt lat="38.10277" lon="-4.05051">
        <time>2022-11-26 12:10:50</time>
      </trkpt>
      <trkpt lat="38.10277" lon="-4.05053"/>
      <trkpt lat="38.10278" lon="-4.05058">
        <time>2022-11-26 12:10:51</time>
      </trkpt>
      <trkpt lat="38.10278" lon="-4.05063"/>
      <trkpt lat="38.1028" lon="-4.05071">
        <time>2022-11-26 12:10:52</time>
      </trkpt>
      <trkpt lat="38.10281" lon="-4.05077"/>
      <trkpt lat="38.10282" lon="-4.05083">
        <time>2022-11-26 12:10:53</time>
      </trkpt>
      <trkpt lat="38.10282" lon="-4.05092"/>
      <trkpt lat="38.10277" lon="-4.05102">
        <time>2022-11-26 12:10:54</time>
      </trkpt>
      <trkpt lat="38.10274" lon="-4.05108"/>
      <trkpt lat="38.10271" lon="-4.05114">
        <time>2022-11-26 12:10:55</time>
      </trkpt>
      <trkpt lat="38.10266" lon="-4.05118"/>
      <trkpt lat="38.1026" lon="-4.05123">
        <time>2022-11-26 12:10:56</time>
      </trkpt>
      <trkpt lat="38.10256" lon="-4.05127"/>
      <trkpt lat="38.10251" lon="-4.05131">
        <time>2022-11-26 12:10:57</time>
      </trkpt>
      <trkpt lat="38.10246" lon="-4.05134"/>
      <trkpt lat="38.1024" lon="-4.05137">
        <time>2022-11-26 12:10:58</time>
      </trkpt>
      <trkpt lat="38.10235" lon="-4.0514"/>
      <trkpt lat="38.1023" lon="-4.05144">
        <time>2022-11-26 12:10:59</time>
      </trkpt>
      <trkpt lat="38.10226" lon="-4.05149"/>
      <trkpt lat="38.10222" lon="-4.05153">
        <time>2022-11-26 12:11:00</time>
      </trkpt>
      <trkpt lat="38.10219" lon="-4.05156"/>
      <trkpt lat="38.10216" lon="-4.05158">
        <time>2022-11-26 12:11:01</time>
      </trkpt>
      <trkpt lat="38.10214" lon="-4.05159"/>
      <trkpt lat="38.10211" lon="-4.05162">
        <time>2022-11-26 12:11:02</time>
      </trkpt>
      <trkpt lat="38.10208" lon="-4.05165"/>
      <trkpt lat="38.10205" lon="-4.05169">
        <time>2022-11-26 12:11:03</time>
      </trkpt>
      <trkpt lat="38.10201" lon="-4.05174"/>
      <trkpt lat="38.10197" lon="-4.05179">
        <time>2022-11-26 12:11:04</time>
      </trkpt>
      <trkpt lat="38.10193" lon="-4.05185"/>
      <trkpt lat="38.10191" lon="-4.05192">
        <time>2022-11-26 12:11:05</time>
      </trkpt>
      <trkpt lat="38.1019" lon="-4.05198"/>
      <trkpt lat="38.10192" lon="-4.052">
        <time>2022-11-26 12:11:06</time>
      </trkpt>
      <trkpt lat="38.10191" lon="-4.05206"/>
      <trkpt lat="38.10187" lon="-4.05217">
        <time>2022-11-26 12:11:08</time>
      </trkpt>
      <trkpt lat="38.10185" lon="-4.05225"/>
      <trkpt lat="38.10181" lon="-4.05232">
        <time>2022-11-26 12:11:09</time>
      </trkpt>
      <trkpt lat="38.10178" lon="-4.05238"/>
      <trkpt lat="38.10174" lon="-4.05244">
        <time>2022-11-26 12:11:10</time>
      </trkpt>
      <trkpt lat="38.10171" lon="-4.05249"/>
      <trkpt lat="38.10166" lon="-4.05253">
        <time>2022-11-26 12:11:11</time>
      </trkpt>
      <trkpt lat="38.1016" lon="-4.0526"/>
      <trkpt lat="38.10155" lon="-4.05267">
        <time>2022-11-26 12:11:12</time>
      </trkpt>
      <trkpt lat="38.1015" lon="-4.05276"/>
      <trkpt lat="38.10146" lon="-4.05285">
        <time>2022-11-26 12:11:13</time>
      </trkpt>
      <trkpt lat="38.10142" lon="-4.05293"/>
      <trkpt lat="38.10139" lon="-4.05301">
        <time>2022-11-26 12:11:14</time>
      </trkpt>
      <trkpt lat="38.10137" lon="-4.05309"/>
      <trkpt lat="38.10134" lon="-4.05317">
        <time>2022-11-26 12:11:15</time>
      </trkpt>
      <trkpt lat="38.10132" lon="-4.05326"/>
      <trkpt lat="38.10131" lon="-4.05334">
        <time>2022-11-26 12:11:16</time>
      </trkpt>
      <trkpt lat="38.1013" lon="-4.05344"/>
      <trkpt lat="38.10128" lon="-4.05353">
        <time>2022-11-26 12:11:17</time>
      </trkpt>
      <trkpt lat="38.10126" lon="-4.05363"/>
      <trkpt lat="38.10124" lon="-4.05373">
        <time>2022-11-26 12:11:18</time>
      </trkpt>
      <trkpt lat="38.10123" lon="-4.05383"/>
      <trkpt lat="38.10122" lon="-4.05393">
        <time>2022-11-26 12:11:19</time>
      </trkpt>
      <trkpt lat="38.10121" lon="-4.05403"/>
      <trkpt lat="38.10121" lon="-4.05412">
        <time>2022-11-26 12:11:20</time>
      </trkpt>
      <trkpt lat="38.10121" lon="-4.05419"/>
      <trkpt lat="38.1012" lon="-4.05426">
        <time>2022-11-26 12:11:21</time>
      </trkpt>
      <trkpt lat="38.1012" lon="-4.05434"/>
      <trkpt lat="38.1012" lon="-4.05442">
        <time>2022-11-26 12:11:22</time>
      </trkpt>
      <trkpt lat="38.10119" lon="-4.05451"/>
      <trkpt lat="38.10118" lon="-4.05458">
        <time>2022-11-26 12:11:23</time>
      </trkpt>
      <trkpt lat="38.10116" lon="-4.05466"/>
      <trkpt lat="38.10115" lon="-4.05473">
        <time>2022-11-26 12:11:24</time>
      </trkpt>
      <trkpt lat="38.10114" lon="-4.05479"/>
      <trkpt lat="38.10115" lon="-4.05485">
        <time>2022-11-26 12:11:25</time>
      </trkpt>
      <trkpt lat="38.10117" lon="-4.05488"/>
      <trkpt lat="38.10121" lon="-4.05494">
        <time>2022-11-26 12:11:26</time>
      </trkpt>
      <trkpt lat="38.10122" lon="-4.055"/>
      <trkpt lat="38.10121" lon="-4.05507">
        <time>2022-11-26 12:11:27</time>
      </trkpt>
      <trkpt lat="38.10121" lon="-4.05514"/>
      <trkpt lat="38.10122" lon="-4.0552">
        <time>2022-11-26 12:11:28</time>
      </trkpt>
      <trkpt lat="38.10123" lon="-4.05525"/>
      <trkpt lat="38.10123" lon="-4.0553">
        <time>2022-11-26 12:11:29</time>
      </trkpt>
      <trkpt lat="38.10124" lon="-4.05535"/>
      <trkpt lat="38.10124" lon="-4.05544">
        <time>2022-11-26 12:11:30</time>
      </trkpt>
      <trkpt lat="38.10123" lon="-4.05552"/>
      <trkpt lat="38.10123" lon="-4.05559">
        <time>2022-11-26 12:11:31</time>
      </trkpt>
      <trkpt lat="38.10122" lon="-4.05565"/>
      <trkpt lat="38.10121" lon="-4.05566">
        <time>2022-11-26 12:11:32</time>
      </trkpt>
      <trkpt lat="38.10117" lon="-4.05573"/>
      <trkpt lat="38.10112" lon="-4.05584">
        <time>2022-11-26 12:11:33</time>
      </trkpt>
      <trkpt lat="38.1011" lon="-4.0559"/>
      <trkpt lat="38.10109" lon="-4.05597">
        <time>2022-11-26 12:11:34</time>
      </trkpt>
      <trkpt lat="38.1011" lon="-4.05602"/>
      <trkpt lat="38.1011" lon="-4.05609">
        <time>2022-11-26 12:11:35</time>
      </trkpt>
      <trkpt lat="38.1011" lon="-4.05615"/>
      <trkpt lat="38.1011" lon="-4.05622">
        <time>2022-11-26 12:11:36</time>
      </trkpt>
      <trkpt lat="38.10112" lon="-4.05629"/>
      <trkpt lat="38.10114" lon="-4.05636">
        <time>2022-11-26 12:11:37</time>
      </trkpt>
      <trkpt lat="38.10114" lon="-4.05643"/>
      <trkpt lat="38.10113" lon="-4.05649">
        <time>2022-11-26 12:11:38</time>
      </trkpt>
      <trkpt lat="38.10111" lon="-4.05655"/>
      <trkpt lat="38.10108" lon="-4.05663">
        <time>2022-11-26 12:11:39</time>
      </trkpt>
      <trkpt lat="38.10105" lon="-4.05672"/>
      <trkpt lat="38.10103" lon="-4.05681">
        <time>2022-11-26 12:11:40</time>
      </trkpt>
      <trkpt lat="38.10102" lon="-4.0569"/>
      <trkpt lat="38.101" lon="-4.05696">
        <time>2022-11-26 12:11:41</time>
      </trkpt>
      <trkpt lat="38.10098" lon="-4.05702"/>
      <trkpt lat="38.10096" lon="-4.05708">
        <time>2022-11-26 12:11:42</time>
      </trkpt>
      <trkpt lat="38.10093" lon="-4.05714"/>
      <trkpt lat="38.1009" lon="-4.05721">
        <time>2022-11-26 12:11:43</time>
      </trkpt>
      <trkpt lat="38.10087" lon="-4.05729"/>
      <trkpt lat="38.10084" lon="-4.05737">
        <time>2022-11-26 12:11:44</time>
      </trkpt>
      <trkpt lat="38.10081" lon="-4.05746"/>
      <trkpt lat="38.10078" lon="-4.05754">
        <time>2022-11-26 12:11:45</time>
      </trkpt>
      <trkpt lat="38.10075" lon="-4.05763"/>
      <trkpt lat="38.10071" lon="-4.05771">
        <time>2022-11-26 12:11:46</time>
      </trkpt>
      <trkpt lat="38.10066" lon="-4.05777"/>
      <trkpt lat="38.10063" lon="-4.05784">
        <time>2022-11-26 12:11:47</time>
      </trkpt>
      <trkpt lat="38.10061" lon="-4.05792"/>
      <trkpt lat="38.10057" lon="-4.05799">
        <time>2022-11-26 12:11:48</time>
      </trkpt>
      <trkpt lat="38.10053" lon="-4.05802"/>
      <trkpt lat="38.10048" lon="-4.05805">
        <time>2022-11-26 12:11:49</time>
      </trkpt>
      <trkpt lat="38.10044" lon="-4.05809"/>
      <trkpt lat="38.10042" lon="-4.05812">
        <time>2022-11-26 12:11:50</time>
      </trkpt>
      <trkpt lat="38.10039" lon="-4.05815"/>
      <trkpt lat="38.10036" lon="-4.05819">
        <time>2022-11-26 12:11:51</time>
      </trkpt>
      <trkpt lat="38.10031" lon="-4.05826"/>
      <trkpt lat="38.10026" lon="-4.05833">
        <time>2022-11-26 12:11:52</time>
      </trkpt>
      <trkpt lat="38.10021" lon="-4.05837"/>
      <trkpt lat="38.10015" lon="-4.05841">
        <time>2022-11-26 12:11:53</time>
      </trkpt>
      <trkpt lat="38.10008" lon="-4.05846"/>
      <trkpt lat="38.10002" lon="-4.05852">
        <time>2022-11-26 12:11:54</time>
      </trkpt>
      <trkpt lat="38.09998" lon="-4.0586"/>
      <trkpt lat="38.09994" lon="-4.05867">
        <time>2022-11-26 12:11:55</time>
      </trkpt>
      <trkpt lat="38.0999" lon="-4.05875"/>
      <trkpt lat="38.09985" lon="-4.05882">
        <time>2022-11-26 12:11:56</time>
      </trkpt>
      <trkpt lat="38.09979" lon="-4.05888"/>
      <trkpt lat="38.09973" lon="-4.05895">
        <time>2022-11-26 12:11:57</time>
      </trkpt>
      <trkpt lat="38.09967" lon="-4.05901"/>
      <trkpt lat="38.09962" lon="-4.05909">
        <time>2022-11-26 12:11:58</time>
      </trkpt>
      <trkpt lat="38.09956" lon="-4.05917"/>
      <trkpt lat="38.0995" lon="-4.05924">
        <time>2022-11-26 12:11:59</time>
      </trkpt>
      <trkpt lat="38.09945" lon="-4.0593"/>
      <trkpt lat="38.09939" lon="-4.05937">
        <time>2022-11-26 12:12:00</time>
      </trkpt>
      <trkpt lat="38.09934" lon="-4.05944"/>
      <trkpt lat="38.09929" lon="-4.05951">
        <time>2022-11-26 12:12:01</time>
      </trkpt>
      <trkpt lat="38.09925" lon="-4.05959"/>
      <trkpt lat="38.09921" lon="-4.05964">
        <time>2022-11-26 12:12:02</time>
      </trkpt>
      <trkpt lat="38.09917" lon="-4.05969"/>
      <trkpt lat="38.09914" lon="-4.05975">
        <time>2022-11-26 12:12:03</time>
      </trkpt>
      <trkpt lat="38.09911" lon="-4.05981"/>
      <trkpt lat="38.09907" lon="-4.05985">
        <time>2022-11-26 12:12:04</time>
      </trkpt>
      <trkpt lat="38.09903" lon="-4.0599"/>
      <trkpt lat="38.09899" lon="-4.05996">
        <time>2022-11-26 12:12:05</time>
      </trkpt>
      <trkpt lat="38.09894" lon="-4.06002"/>
      <trkpt lat="38.0989" lon="-4.06009">
        <time>2022-11-26 12:12:06</time>
      </trkpt>
      <trkpt lat="38.09887" lon="-4.06016"/>
      <trkpt lat="38.09883" lon="-4.06022">
        <time>2022-11-26 12:12:07</time>
      </trkpt>
      <trkpt lat="38.09878" lon="-4.06029"/>
      <trkpt lat="38.09873" lon="-4.06035">
        <time>2022-11-26 12:12:08</time>
      </trkpt>
      <trkpt lat="38.09868" lon="-4.06039"/>
      <trkpt lat="38.09862" lon="-4.06043">
        <time>2022-11-26 12:12:09</time>
      </trkpt>
      <trkpt lat="38.09856" lon="-4.06046"/>
      <trkpt lat="38.09851" lon="-4.06049">
        <time>2022-11-26 12:12:10</time>
      </trkpt>
      <trkpt lat="38.09847" lon="-4.06051"/>
      <trkpt lat="38.09844" lon="-4.06054">
        <time>2022-11-26 12:12:11</time>
      </trkpt>
      <trkpt lat="38.09843" lon="-4.06057"/>
      <trkpt lat="38.09842" lon="-4.06059">
        <time>2022-11-26 12:12:12</time>
      </trkpt>
      <trkpt lat="38.09842" lon="-4.06062"/>
      <trkpt lat="38.09843" lon="-4.06065">
        <time>2022-11-26 12:12:13</time>
      </trkpt>
      <trkpt lat="38.09842" lon="-4.06068"/>
      <trkpt lat="38.09842" lon="-4.0607">
        <time>2022-11-26 12:12:14</time>
      </trkpt>
      <trkpt lat="38.0984" lon="-4.06071"/>
      <trkpt lat="38.09837" lon="-4.06078">
        <time>2022-11-26 12:12:15</time>
      </trkpt>
      <trkpt lat="38.09833" lon="-4.06081"/>
      <trkpt lat="38.09829" lon="-4.06084">
        <time>2022-11-26 12:12:16</time>
      </trkpt>
      <trkpt lat="38.09822" lon="-4.06087"/>
      <trkpt lat="38.09818" lon="-4.06089">
        <time>2022-11-26 12:12:17</time>
      </trkpt>
      <trkpt lat="38.09813" lon="-4.06095"/>
      <trkpt lat="38.09808" lon="-4.06098">
        <time>2022-11-26 12:12:18</time>
      </trkpt>
      <trkpt lat="38.09803" lon="-4.06098"/>
      <trkpt lat="38.09797" lon="-4.06099">
        <time>2022-11-26 12:12:19</time>
      </trkpt>
      <trkpt lat="38.09792" lon="-4.06102"/>
      <trkpt lat="38.09787" lon="-4.06106">
        <time>2022-11-26 12:12:20</time>
      </trkpt>
      <trkpt lat="38.09783" lon="-4.06111"/>
      <trkpt lat="38.09777" lon="-4.06115">
        <time>2022-11-26 12:12:21</time>
      </trkpt>
      <trkpt lat="38.09772" lon="-4.0612"/>
      <trkpt lat="38.09767" lon="-4.06126">
        <time>2022-11-26 12:12:22</time>
      </trkpt>
      <trkpt lat="38.09762" lon="-4.06131"/>
      <trkpt lat="38.09757" lon="-4.06137">
        <time>2022-11-26 12:12:23</time>
      </trkpt>
      <trkpt lat="38.09753" lon="-4.06144"/>
      <trkpt lat="38.0975" lon="-4.0615">
        <time>2022-11-26 12:12:24</time>
      </trkpt>
      <trkpt lat="38.09747" lon="-4.06157"/>
      <trkpt lat="38.09746" lon="-4.06163">
        <time>2022-11-26 12:12:25</time>
      </trkpt>
      <trkpt lat="38.09746" lon="-4.06168"/>
      <trkpt lat="38.09748" lon="-4.06171">
        <time>2022-11-26 12:12:26</time>
      </trkpt>
      <trkpt lat="38.09749" lon="-4.06175"/>
      <trkpt lat="38.09752" lon="-4.06177">
        <time>2022-11-26 12:12:27</time>
      </trkpt>
      <trkpt lat="38.09755" lon="-4.06179"/>
      <trkpt lat="38.09757" lon="-4.06183">
        <time>2022-11-26 12:12:28</time>
      </trkpt>
      <trkpt lat="38.09758" lon="-4.06186"/>
      <trkpt lat="38.09761" lon="-4.06191">
        <time>2022-11-26 12:12:29</time>
      </trkpt>
      <trkpt lat="38.09763" lon="-4.06194"/>
      <trkpt lat="38.09765" lon="-4.06198">
        <time>2022-11-26 12:12:30</time>
      </trkpt>
      <trkpt lat="38.09766" lon="-4.06202"/>
      <trkpt lat="38.09768" lon="-4.06207">
        <time>2022-11-26 12:12:31</time>
      </trkpt>
      <trkpt lat="38.09769" lon="-4.0622"/>
      <trkpt lat="38.09768" lon="-4.06227">
        <time>2022-11-26 12:12:32</time>
      </trkpt>
      <trkpt lat="38.09766" lon="-4.06234"/>
      <trkpt lat="38.09764" lon="-4.0624">
        <time>2022-11-26 12:12:33</time>
      </trkpt>
      <trkpt lat="38.0976" lon="-4.06244"/>
      <trkpt lat="38.09755" lon="-4.06248">
        <time>2022-11-26 12:12:34</time>
      </trkpt>
      <trkpt lat="38.0975" lon="-4.06252"/>
      <trkpt lat="38.09746" lon="-4.06256">
        <time>2022-11-26 12:12:35</time>
      </trkpt>
      <trkpt lat="38.09743" lon="-4.0626"/>
      <trkpt lat="38.0974" lon="-4.06261">
        <time>2022-11-26 12:12:36</time>
      </trkpt>
      <trkpt lat="38.09731" lon="-4.06269"/>
      <trkpt lat="38.09726" lon="-4.06273">
        <time>2022-11-26 12:12:37</time>
      </trkpt>
      <trkpt lat="38.09721" lon="-4.06277"/>
      <trkpt lat="38.09717" lon="-4.0628">
        <time>2022-11-26 12:12:38</time>
      </trkpt>
      <trkpt lat="38.09713" lon="-4.06284"/>
      <trkpt lat="38.09712" lon="-4.06284">
        <time>2022-11-26 12:12:39</time>
      </trkpt>
      <trkpt lat="38.09706" lon="-4.06291"/>
      <trkpt lat="38.09699" lon="-4.06291">
        <time>2022-11-26 12:12:40</time>
      </trkpt>
      <trkpt lat="38.09693" lon="-4.06291"/>
      <trkpt lat="38.09686" lon="-4.06291">
        <time>2022-11-26 12:12:41</time>
      </trkpt>
      <trkpt lat="38.09679" lon="-4.06291"/>
      <trkpt lat="38.09674" lon="-4.06291">
        <time>2022-11-26 12:12:42</time>
      </trkpt>
      <trkpt lat="38.09671" lon="-4.0629"/>
      <trkpt lat="38.09669" lon="-4.0629">
        <time>2022-11-26 12:12:43</time>
      </trkpt>
      <trkpt lat="38.09669" lon="-4.06289"/>
      <trkpt lat="38.09668" lon="-4.06286">
        <time>2022-11-26 12:12:44</time>
      </trkpt>
      <trkpt lat="38.09667" lon="-4.0628"/>
      <trkpt lat="38.09662" lon="-4.06271">
        <time>2022-11-26 12:12:45</time>
      </trkpt>
      <trkpt lat="38.09657" lon="-4.06265"/>
      <trkpt lat="38.09651" lon="-4.06262">
        <time>2022-11-26 12:12:46</time>
      </trkpt>
      <trkpt lat="38.09646" lon="-4.06263"/>
      <trkpt lat="38.09641" lon="-4.06267">
        <time>2022-11-26 12:12:47</time>
      </trkpt>
      <trkpt lat="38.09638" lon="-4.06272"/>
      <trkpt lat="38.09636" lon="-4.06275">
        <time>2022-11-26 12:12:48</time>
      </trkpt>
      <trkpt lat="38.09635" lon="-4.06279"/>
      <trkpt lat="38.09631" lon="-4.06283">
        <time>2022-11-26 12:12:49</time>
      </trkpt>
      <trkpt lat="38.09625" lon="-4.06284"/>
      <trkpt lat="38.09618" lon="-4.06285">
        <time>2022-11-26 12:12:50</time>
      </trkpt>
      <trkpt lat="38.09612" lon="-4.06287"/>
      <trkpt lat="38.09607" lon="-4.06291">
        <time>2022-11-26 12:12:51</time>
      </trkpt>
      <trkpt lat="38.09602" lon="-4.06294"/>
      <trkpt lat="38.09598" lon="-4.06296">
        <time>2022-11-26 12:12:52</time>
      </trkpt>
      <trkpt lat="38.09595" lon="-4.06296"/>
      <trkpt lat="38.09589" lon="-4.06295">
        <time>2022-11-26 12:12:53</time>
      </trkpt>
      <trkpt lat="38.09583" lon="-4.06294"/>
      <trkpt lat="38.09578" lon="-4.06293">
        <time>2022-11-26 12:12:54</time>
      </trkpt>
      <trkpt lat="38.09573" lon="-4.0629"/>
      <trkpt lat="38.09568" lon="-4.06286">
        <time>2022-11-26 12:12:55</time>
      </trkpt>
      <trkpt lat="38.09563" lon="-4.06283"/>
      <trkpt lat="38.09559" lon="-4.0628">
        <time>2022-11-26 12:12:56</time>
      </trkpt>
      <trkpt lat="38.09555" lon="-4.06275"/>
      <trkpt lat="38.09551" lon="-4.06271">
        <time>2022-11-26 12:12:57</time>
      </trkpt>
      <trkpt lat="38.09546" lon="-4.06267"/>
      <trkpt lat="38.09541" lon="-4.06262">
        <time>2022-11-26 12:12:58</time>
      </trkpt>
      <trkpt lat="38.09535" lon="-4.0626"/>
      <trkpt lat="38.09528" lon="-4.0626">
        <time>2022-11-26 12:12:59</time>
      </trkpt>
      <trkpt lat="38.09522" lon="-4.06258"/>
      <trkpt lat="38.09516" lon="-4.06254">
        <time>2022-11-26 12:13:00</time>
      </trkpt>
      <trkpt lat="38.09512" lon="-4.0625"/>
      <trkpt lat="38.09507" lon="-4.06247">
        <time>2022-11-26 12:13:01</time>
      </trkpt>
      <trkpt lat="38.09502" lon="-4.06246"/>
      <trkpt lat="38.095" lon="-4.06248">
        <time>2022-11-26 12:13:02</time>
      </trkpt>
      <trkpt lat="38.09497" lon="-4.06253"/>
      <trkpt lat="38.09492" lon="-4.06257">
        <time>2022-11-26 12:13:03</time>
      </trkpt>
      <trkpt lat="38.09486" lon="-4.06261"/>
      <trkpt lat="38.09483" lon="-4.06267">
        <time>2022-11-26 12:13:04</time>
      </trkpt>
      <trkpt lat="38.0948" lon="-4.06273"/>
      <trkpt lat="38.09477" lon="-4.06279">
        <time>2022-11-26 12:13:05</time>
      </trkpt>
      <trkpt lat="38.09474" lon="-4.06283"/>
      <trkpt lat="38.09471" lon="-4.06285">
        <time>2022-11-26 12:13:06</time>
      </trkpt>
      <trkpt lat="38.09466" lon="-4.06285"/>
      <trkpt lat="38.0946" lon="-4.06287">
        <time>2022-11-26 12:13:07</time>
      </trkpt>
      <trkpt lat="38.09454" lon="-4.06292"/>
      <trkpt lat="38.09449" lon="-4.06295">
        <time>2022-11-26 12:13:08</time>
      </trkpt>
      <trkpt lat="38.09444" lon="-4.06298"/>
      <trkpt lat="38.0944" lon="-4.06299">
        <time>2022-11-26 12:13:09</time>
      </trkpt>
      <trkpt lat="38.09435" lon="-4.06299"/>
      <trkpt lat="38.0943" lon="-4.06297">
        <time>2022-11-26 12:13:10</time>
      </trkpt>
      <trkpt lat="38.09426" lon="-4.06297"/>
      <trkpt lat="38.09419" lon="-4.06295">
        <time>2022-11-26 12:13:11</time>
      </trkpt>
      <trkpt lat="38.09415" lon="-4.06294"/>
      <trkpt lat="38.09411" lon="-4.06293">
        <time>2022-11-26 12:13:12</time>
      </trkpt>
      <trkpt lat="38.09404" lon="-4.06292"/>
      <trkpt lat="38.09397" lon="-4.06292">
        <time>2022-11-26 12:13:13</time>
      </trkpt>
      <trkpt lat="38.09388" lon="-4.0629"/>
      <trkpt lat="38.0938" lon="-4.06289">
        <time>2022-11-26 12:13:14</time>
      </trkpt>
      <trkpt lat="38.09372" lon="-4.06286"/>
      <trkpt lat="38.09366" lon="-4.06284">
        <time>2022-11-26 12:13:15</time>
      </trkpt>
      <trkpt lat="38.0936" lon="-4.06282"/>
      <trkpt lat="38.09354" lon="-4.06279">
        <time>2022-11-26 12:13:16</time>
      </trkpt>
      <trkpt lat="38.09349" lon="-4.06276"/>
      <trkpt lat="38.09345" lon="-4.06271">
        <time>2022-11-26 12:13:17</time>
      </trkpt>
      <trkpt lat="38.09344" lon="-4.0627"/>
      <trkpt lat="38.09343" lon="-4.06262">
        <time>2022-11-26 12:13:18</time>
      </trkpt>
      <trkpt lat="38.09341" lon="-4.06256"/>
      <trkpt lat="38.09341" lon="-4.06247">
        <time>2022-11-26 12:13:19</time>
      </trkpt>
      <trkpt lat="38.09342" lon="-4.06239"/>
      <trkpt lat="38.09343" lon="-4.06235">
        <time>2022-11-26 12:13:20</time>
      </trkpt>
      <trkpt lat="38.09342" lon="-4.06232"/>
      <trkpt lat="38.09338" lon="-4.06229">
        <time>2022-11-26 12:13:21</time>
      </trkpt>
      <trkpt lat="38.09335" lon="-4.06226"/>
      <trkpt lat="38.0933" lon="-4.06224">
        <time>2022-11-26 12:13:22</time>
      </trkpt>
      <trkpt lat="38.09322" lon="-4.06222"/>
      <trkpt lat="38.09317" lon="-4.06221">
        <time>2022-11-26 12:13:23</time>
      </trkpt>
      <trkpt lat="38.09313" lon="-4.06217"/>
      <trkpt lat="38.09312" lon="-4.06214">
        <time>2022-11-26 12:13:24</time>
      </trkpt>
      <trkpt lat="38.09307" lon="-4.06209"/>
      <trkpt lat="38.09303" lon="-4.06204">
        <time>2022-11-26 12:13:25</time>
      </trkpt>
      <trkpt lat="38.093" lon="-4.062"/>
      <trkpt lat="38.09298" lon="-4.06196">
        <time>2022-11-26 12:13:26</time>
      </trkpt>
      <trkpt lat="38.09296" lon="-4.0619"/>
      <trkpt lat="38.09295" lon="-4.06186">
        <time>2022-11-26 12:13:27</time>
      </trkpt>
      <trkpt lat="38.09291" lon="-4.06183"/>
      <trkpt lat="38.09289" lon="-4.06182">
        <time>2022-11-26 12:13:28</time>
      </trkpt>
      <trkpt lat="38.09286" lon="-4.0618"/>
      <trkpt lat="38.09282" lon="-4.06177">
        <time>2022-11-26 12:13:29</time>
      </trkpt>
      <trkpt lat="38.09278" lon="-4.06174"/>
      <trkpt lat="38.09274" lon="-4.06175">
        <time>2022-11-26 12:13:30</time>
      </trkpt>
      <trkpt lat="38.09269" lon="-4.06178"/>
      <trkpt lat="38.09264" lon="-4.06181">
        <time>2022-11-26 12:13:31</time>
      </trkpt>
      <trkpt lat="38.09257" lon="-4.06184"/>
      <trkpt lat="38.09249" lon="-4.0618">
        <time>2022-11-26 12:13:32</time>
      </trkpt>
      <trkpt lat="38.09244" lon="-4.06178"/>
      <trkpt lat="38.09242" lon="-4.06178">
        <time>2022-11-26 12:13:33</time>
      </trkpt>
      <trkpt lat="38.09237" lon="-4.06179"/>
      <trkpt lat="38.0923" lon="-4.0618">
        <time>2022-11-26 12:13:34</time>
      </trkpt>
      <trkpt lat="38.09224" lon="-4.06181"/>
      <trkpt lat="38.09219" lon="-4.06179">
        <time>2022-11-26 12:13:35</time>
      </trkpt>
      <trkpt lat="38.09214" lon="-4.06178"/>
      <trkpt lat="38.0921" lon="-4.06177">
        <time>2022-11-26 12:13:36</time>
      </trkpt>
      <trkpt lat="38.09205" lon="-4.06178"/>
      <trkpt lat="38.09201" lon="-4.06181">
        <time>2022-11-26 12:13:37</time>
      </trkpt>
      <trkpt lat="38.09196" lon="-4.06183"/>
      <trkpt lat="38.09192" lon="-4.06184">
        <time>2022-11-26 12:13:38</time>
      </trkpt>
      <trkpt lat="38.09186" lon="-4.06184"/>
      <trkpt lat="38.0918" lon="-4.06184">
        <time>2022-11-26 12:13:39</time>
      </trkpt>
      <trkpt lat="38.09175" lon="-4.06185"/>
      <trkpt lat="38.09169" lon="-4.06186">
        <time>2022-11-26 12:13:40</time>
      </trkpt>
      <trkpt lat="38.09164" lon="-4.06187"/>
      <trkpt lat="38.09159" lon="-4.06186">
        <time>2022-11-26 12:13:41</time>
      </trkpt>
      <trkpt lat="38.09155" lon="-4.06186"/>
      <trkpt lat="38.09152" lon="-4.06186">
        <time>2022-11-26 12:13:42</time>
      </trkpt>
      <trkpt lat="38.09149" lon="-4.06186"/>
      <trkpt lat="38.09142" lon="-4.06192">
        <time>2022-11-26 12:13:43</time>
      </trkpt>
      <trkpt lat="38.09137" lon="-4.06195"/>
      <trkpt lat="38.09132" lon="-4.06198">
        <time>2022-11-26 12:13:44</time>
      </trkpt>
      <trkpt lat="38.09127" lon="-4.06201"/>
      <trkpt lat="38.09122" lon="-4.06203">
        <time>2022-11-26 12:13:45</time>
      </trkpt>
      <trkpt lat="38.09117" lon="-4.06205"/>
      <trkpt lat="38.09113" lon="-4.06208">
        <time>2022-11-26 12:13:46</time>
      </trkpt>
      <trkpt lat="38.09112" lon="-4.0621"/>
      <trkpt lat="38.09109" lon="-4.06213">
        <time>2022-11-26 12:13:47</time>
      </trkpt>
      <trkpt lat="38.09107" lon="-4.06214"/>
      <trkpt lat="38.09105" lon="-4.06213">
        <time>2022-11-26 12:13:48</time>
      </trkpt>
      <trkpt lat="38.09106" lon="-4.06212"/>
      <trkpt lat="38.09106" lon="-4.06212">
        <time>2022-11-26 12:13:49</time>
      </trkpt>
      <trkpt lat="38.09106" lon="-4.06211"/>
      <trkpt lat="38.09107" lon="-4.06211">
        <time>2022-11-26 12:13:50</time>
      </trkpt>
      <trkpt lat="38.09107" lon="-4.06211"/>
      <trkpt lat="38.09107" lon="-4.06212">
        <time>2022-11-26 12:13:51</time>
      </trkpt>
      <trkpt lat="38.09108" lon="-4.06212"/>
      <trkpt lat="38.09108" lon="-4.06212">
        <time>2022-11-26 12:13:52</time>
      </trkpt>
      <trkpt lat="38.09108" lon="-4.06212"/>
      <trkpt lat="38.09108" lon="-4.06212">
        <time>2022-11-26 12:13:53</time>
      </trkpt>
      <trkpt lat="38.09108" lon="-4.06212"/>
      <trkpt lat="38.09109" lon="-4.06212">
        <time>2022-11-26 12:13:54</time>
      </trkpt>
      <trkpt lat="38.09109" lon="-4.06212"/>
      <trkpt lat="38.09108" lon="-4.06212">
        <time>2022-11-26 12:13:55</time>
      </trkpt>
      <trkpt lat="38.09108" lon="-4.06212"/>
      <trkpt lat="38.09108" lon="-4.06212">
        <time>2022-11-26 12:13:56</time>
      </trkpt>
      <trkpt lat="38.09108" lon="-4.06212"/>
      <trkpt lat="38.09108" lon="-4.06212">
        <time>2022-11-26 12:13:57</time>
      </trkpt>
      <trkpt lat="38.09108" lon="-4.06212"/>
      <trkpt lat="38.09108" lon="-4.06212">
        <time>2022-11-26 12:13:58</time>
      </trkpt>
      <trkpt lat="38.09108" lon="-4.06211"/>
      <trkpt lat="38.09108" lon="-4.06211">
        <time>2022-11-26 12:13:59</time>
      </trkpt>
      <trkpt lat="38.09108" lon="-4.06211"/>
      <trkpt lat="38.09109" lon="-4.06211">
        <time>2022-11-26 12:14:00</time>
      </trkpt>
      <trkpt lat="38.09109" lon="-4.06211"/>
      <trkpt lat="38.09109" lon="-4.06211">
        <time>2022-11-26 12:14:01</time>
      </trkpt>
      <trkpt lat="38.09109" lon="-4.06211"/>
      <trkpt lat="38.09108" lon="-4.06211">
        <time>2022-11-26 12:14:02</time>
      </trkpt>
      <trkpt lat="38.09108" lon="-4.06211"/>
      <trkpt lat="38.09108" lon="-4.06211">
        <time>2022-11-26 12:14:03</time>
      </trkpt>
      <trkpt lat="38.09108" lon="-4.06211"/>
      <trkpt lat="38.09108" lon="-4.06211">
        <time>2022-11-26 12:14:04</time>
      </trkpt>
      <trkpt lat="38.09108" lon="-4.06211"/>
      <trkpt lat="38.09108" lon="-4.06211">
        <time>2022-11-26 12:14:05</time>
      </trkpt>
      <trkpt lat="38.09108" lon="-4.06211"/>
      <trkpt lat="38.09108" lon="-4.06211">
        <time>2022-11-26 12:14:06</time>
      </trkpt>
      <trkpt lat="38.09108" lon="-4.06211"/>
      <trkpt lat="38.09108" lon="-4.06211">
        <time>2022-11-26 12:14:07</time>
      </trkpt>
      <trkpt lat="38.09108" lon="-4.06211"/>
      <trkpt lat="38.09108" lon="-4.06211">
        <time>2022-11-26 12:14:08</time>
      </trkpt>
      <trkpt lat="38.09108" lon="-4.06211"/>
      <trkpt lat="38.09108" lon="-4.06211">
        <time>2022-11-26 12:14:09</time>
      </trkpt>
      <trkpt lat="38.09108" lon="-4.06212"/>
      <trkpt lat="38.09108" lon="-4.06212">
        <time>2022-11-26 12:14:10</time>
      </trkpt>
      <trkpt lat="38.09108" lon="-4.06212"/>
      <trkpt lat="38.09108" lon="-4.06212">
        <time>2022-11-26 12:14:11</time>
      </trkpt>
      <trkpt lat="38.09108" lon="-4.06212"/>
      <trkpt lat="38.09108" lon="-4.06212">
        <time>2022-11-26 12:14:12</time>
      </trkpt>
      <trkpt lat="38.09108" lon="-4.06212"/>
      <trkpt lat="38.09108" lon="-4.06212">
        <time>2022-11-26 12:14:13</time>
      </trkpt>
      <trkpt lat="38.09108" lon="-4.06212"/>
      <trkpt lat="38.09108" lon="-4.06211">
        <time>2022-11-26 12:14:14</time>
      </trkpt>
      <trkpt lat="38.09108" lon="-4.06212"/>
      <trkpt lat="38.09108" lon="-4.06212">
        <time>2022-11-26 12:14:15</time>
      </trkpt>
      <trkpt lat="38.09108" lon="-4.06212"/>
      <trkpt lat="38.09108" lon="-4.06212">
        <time>2022-11-26 12:14:16</time>
      </trkpt>
      <trkpt lat="38.09107" lon="-4.06212"/>
      <trkpt lat="38.09107" lon="-4.06212">
        <time>2022-11-26 12:14:17</time>
      </trkpt>
      <trkpt lat="38.09106" lon="-4.06212"/>
      <trkpt lat="38.09104" lon="-4.06211">
        <time>2022-11-26 12:14:18</time>
      </trkpt>
      <trkpt lat="38.09104" lon="-4.06212"/>
      <trkpt lat="38.09104" lon="-4.06212">
        <time>2022-11-26 12:14:19</time>
      </trkpt>
      <trkpt lat="38.09103" lon="-4.06212"/>
      <trkpt lat="38.09102" lon="-4.06212">
        <time>2022-11-26 12:14:20</time>
      </trkpt>
      <trkpt lat="38.09101" lon="-4.06213"/>
      <trkpt lat="38.091" lon="-4.06213">
        <time>2022-11-26 12:14:21</time>
      </trkpt>
      <trkpt lat="38.09099" lon="-4.06213"/>
      <trkpt lat="38.091" lon="-4.06214">
        <time>2022-11-26 12:14:22</time>
      </trkpt>
      <trkpt lat="38.091" lon="-4.06215"/>
      <trkpt lat="38.091" lon="-4.06215">
        <time>2022-11-26 12:14:23</time>
      </trkpt>
      <trkpt lat="38.091" lon="-4.06215"/>
      <trkpt lat="38.09099" lon="-4.06215">
        <time>2022-11-26 12:14:24</time>
      </trkpt>
      <trkpt lat="38.09098" lon="-4.06216"/>
      <trkpt lat="38.09097" lon="-4.06216">
        <time>2022-11-26 12:14:25</time>
      </trkpt>
      <trkpt lat="38.09096" lon="-4.06216"/>
      <trkpt lat="38.09095" lon="-4.06217">
        <time>2022-11-26 12:14:26</time>
      </trkpt>
      <trkpt lat="38.09093" lon="-4.06218"/>
      <trkpt lat="38.0909" lon="-4.06219">
        <time>2022-11-26 12:14:27</time>
      </trkpt>
      <trkpt lat="38.09087" lon="-4.0622"/>
      <trkpt lat="38.09083" lon="-4.06221">
        <time>2022-11-26 12:14:28</time>
      </trkpt>
      <trkpt lat="38.09078" lon="-4.06221"/>
      <trkpt lat="38.09073" lon="-4.0622">
        <time>2022-11-26 12:14:29</time>
      </trkpt>
      <trkpt lat="38.09069" lon="-4.0622"/>
      <trkpt lat="38.09066" lon="-4.06221">
        <time>2022-11-26 12:14:30</time>
      </trkpt>
      <trkpt lat="38.09062" lon="-4.06221"/>
      <trkpt lat="38.09058" lon="-4.06221">
        <time>2022-11-26 12:14:31</time>
      </trkpt>
      <trkpt lat="38.09048" lon="-4.0622"/>
      <trkpt lat="38.09041" lon="-4.06219">
        <time>2022-11-26 12:14:32</time>
      </trkpt>
      <trkpt lat="38.09035" lon="-4.06216"/>
      <trkpt lat="38.0903" lon="-4.06213">
        <time>2022-11-26 12:14:33</time>
      </trkpt>
      <trkpt lat="38.09026" lon="-4.0621"/>
      <trkpt lat="38.09021" lon="-4.06206">
        <time>2022-11-26 12:14:34</time>
      </trkpt>
      <trkpt lat="38.09017" lon="-4.06206"/>
      <trkpt lat="38.09011" lon="-4.06213">
        <time>2022-11-26 12:14:35</time>
      </trkpt>
      <trkpt lat="38.09007" lon="-4.06216"/>
      <trkpt lat="38.09001" lon="-4.06217">
        <time>2022-11-26 12:14:36</time>
      </trkpt>
      <trkpt lat="38.08997" lon="-4.06217"/>
      <trkpt lat="38.08993" lon="-4.06219">
        <time>2022-11-26 12:14:37</time>
      </trkpt>
      <trkpt lat="38.08991" lon="-4.06222"/>
      <trkpt lat="38.0899" lon="-4.06225">
        <time>2022-11-26 12:14:38</time>
      </trkpt>
      <trkpt lat="38.08984" lon="-4.0623"/>
      <trkpt lat="38.08979" lon="-4.06233">
        <time>2022-11-26 12:14:39</time>
      </trkpt>
      <trkpt lat="38.08974" lon="-4.06235"/>
      <trkpt lat="38.0897" lon="-4.06238">
        <time>2022-11-26 12:14:40</time>
      </trkpt>
      <trkpt lat="38.08965" lon="-4.06239"/>
      <trkpt lat="38.0896" lon="-4.0624">
        <time>2022-11-26 12:14:41</time>
      </trkpt>
      <trkpt lat="38.08955" lon="-4.06242"/>
      <trkpt lat="38.08949" lon="-4.06243">
        <time>2022-11-26 12:14:42</time>
      </trkpt>
      <trkpt lat="38.08944" lon="-4.06244"/>
      <trkpt lat="38.08938" lon="-4.06245">
        <time>2022-11-26 12:14:43</time>
      </trkpt>
      <trkpt lat="38.08933" lon="-4.06245"/>
      <trkpt lat="38.08927" lon="-4.06244">
        <time>2022-11-26 12:14:44</time>
      </trkpt>
      <trkpt lat="38.08922" lon="-4.0624"/>
      <trkpt lat="38.08918" lon="-4.06236">
        <time>2022-11-26 12:14:45</time>
      </trkpt>
      <trkpt lat="38.08914" lon="-4.06233"/>
      <trkpt lat="38.08909" lon="-4.0623">
        <time>2022-11-26 12:14:46</time>
      </trkpt>
      <trkpt lat="38.08904" lon="-4.06228"/>
      <trkpt lat="38.089" lon="-4.06226">
        <time>2022-11-26 12:14:47</time>
      </trkpt>
      <trkpt lat="38.08898" lon="-4.06225"/>
      <trkpt lat="38.08896" lon="-4.06226">
        <time>2022-11-26 12:14:48</time>
      </trkpt>
      <trkpt lat="38.08893" lon="-4.06226"/>
      <trkpt lat="38.0889" lon="-4.06226">
        <time>2022-11-26 12:14:49</time>
      </trkpt>
      <trkpt lat="38.08887" lon="-4.06225"/>
      <trkpt lat="38.08882" lon="-4.06223">
        <time>2022-11-26 12:14:50</time>
      </trkpt>
      <trkpt lat="38.08877" lon="-4.06221"/>
      <trkpt lat="38.08872" lon="-4.0622">
        <time>2022-11-26 12:14:51</time>
      </trkpt>
      <trkpt lat="38.08868" lon="-4.0622"/>
      <trkpt lat="38.08864" lon="-4.06224">
        <time>2022-11-26 12:14:52</time>
      </trkpt>
      <trkpt lat="38.08859" lon="-4.0623"/>
      <trkpt lat="38.08854" lon="-4.06234">
        <time>2022-11-26 12:14:53</time>
      </trkpt>
      <trkpt lat="38.0885" lon="-4.06236"/>
      <trkpt lat="38.08848" lon="-4.06236">
        <time>2022-11-26 12:14:54</time>
      </trkpt>
      <trkpt lat="38.08843" lon="-4.0624"/>
      <trkpt lat="38.08838" lon="-4.06243">
        <time>2022-11-26 12:14:55</time>
      </trkpt>
      <trkpt lat="38.08832" lon="-4.06245"/>
      <trkpt lat="38.08827" lon="-4.06245">
        <time>2022-11-26 12:14:56</time>
      </trkpt>
      <trkpt lat="38.08821" lon="-4.06243"/>
      <trkpt lat="38.08817" lon="-4.06242">
        <time>2022-11-26 12:14:57</time>
      </trkpt>
      <trkpt lat="38.08814" lon="-4.06242"/>
      <trkpt lat="38.08808" lon="-4.06242">
        <time>2022-11-26 12:14:58</time>
      </trkpt>
      <trkpt lat="38.08803" lon="-4.0624"/>
      <trkpt lat="38.08798" lon="-4.06239">
        <time>2022-11-26 12:14:59</time>
      </trkpt>
      <trkpt lat="38.08793" lon="-4.06238"/>
      <trkpt lat="38.08787" lon="-4.06237">
        <time>2022-11-26 12:15:00</time>
      </trkpt>
      <trkpt lat="38.08784" lon="-4.06233"/>
      <trkpt lat="38.08782" lon="-4.06231">
        <time>2022-11-26 12:15:01</time>
      </trkpt>
      <trkpt lat="38.08779" lon="-4.06229"/>
      <trkpt lat="38.08773" lon="-4.06225">
        <time>2022-11-26 12:15:02</time>
      </trkpt>
      <trkpt lat="38.08767" lon="-4.06226"/>
      <trkpt lat="38.08761" lon="-4.06221">
        <time>2022-11-26 12:15:03</time>
      </trkpt>
      <trkpt lat="38.08756" lon="-4.06214"/>
      <trkpt lat="38.08751" lon="-4.06208">
        <time>2022-11-26 12:15:04</time>
      </trkpt>
      <trkpt lat="38.08745" lon="-4.06202"/>
      <trkpt lat="38.08739" lon="-4.06198">
        <time>2022-11-26 12:15:05</time>
      </trkpt>
      <trkpt lat="38.08733" lon="-4.06194"/>
      <trkpt lat="38.08727" lon="-4.06191">
        <time>2022-11-26 12:15:06</time>
      </trkpt>
      <trkpt lat="38.08721" lon="-4.06189"/>
      <trkpt lat="38.08715" lon="-4.06188">
        <time>2022-11-26 12:15:07</time>
      </trkpt>
      <trkpt lat="38.08709" lon="-4.06184"/>
      <trkpt lat="38.08704" lon="-4.06179">
        <time>2022-11-26 12:15:08</time>
      </trkpt>
      <trkpt lat="38.08698" lon="-4.06174"/>
      <trkpt lat="38.08693" lon="-4.06168">
        <time>2022-11-26 12:15:09</time>
      </trkpt>
      <trkpt lat="38.08687" lon="-4.06163"/>
      <trkpt lat="38.08682" lon="-4.0616">
        <time>2022-11-26 12:15:10</time>
      </trkpt>
      <trkpt lat="38.08677" lon="-4.06159"/>
      <trkpt lat="38.08673" lon="-4.06158">
        <time>2022-11-26 12:15:11</time>
      </trkpt>
      <trkpt lat="38.08669" lon="-4.06158"/>
      <trkpt lat="38.08664" lon="-4.0616">
        <time>2022-11-26 12:15:12</time>
      </trkpt>
      <trkpt lat="38.0866" lon="-4.06162"/>
      <trkpt lat="38.08654" lon="-4.06164">
        <time>2022-11-26 12:15:13</time>
      </trkpt>
      <trkpt lat="38.08649" lon="-4.06163"/>
      <trkpt lat="38.08644" lon="-4.06162">
        <time>2022-11-26 12:15:14</time>
      </trkpt>
      <trkpt lat="38.0864" lon="-4.06161"/>
      <trkpt lat="38.08637" lon="-4.06161">
        <time>2022-11-26 12:15:15</time>
      </trkpt>
      <trkpt lat="38.08634" lon="-4.06161"/>
      <trkpt lat="38.0863" lon="-4.06161">
        <time>2022-11-26 12:15:16</time>
      </trkpt>
      <trkpt lat="38.08626" lon="-4.06161"/>
      <trkpt lat="38.0862" lon="-4.06158">
        <time>2022-11-26 12:15:17</time>
      </trkpt>
      <trkpt lat="38.08617" lon="-4.06156"/>
      <trkpt lat="38.08612" lon="-4.06156">
        <time>2022-11-26 12:15:18</time>
      </trkpt>
      <trkpt lat="38.08608" lon="-4.06154"/>
      <trkpt lat="38.08602" lon="-4.06155">
        <time>2022-11-26 12:15:19</time>
      </trkpt>
      <trkpt lat="38.08597" lon="-4.06154"/>
      <trkpt lat="38.08593" lon="-4.06152">
        <time>2022-11-26 12:15:20</time>
      </trkpt>
      <trkpt lat="38.08589" lon="-4.06152"/>
      <trkpt lat="38.08585" lon="-4.0615">
        <time>2022-11-26 12:15:21</time>
      </trkpt>
      <trkpt lat="38.0858" lon="-4.06151"/>
      <trkpt lat="38.08573" lon="-4.06156">
        <time>2022-11-26 12:15:22</time>
      </trkpt>
      <trkpt lat="38.08569" lon="-4.06158"/>
      <trkpt lat="38.08567" lon="-4.06159">
        <time>2022-11-26 12:15:23</time>
      </trkpt>
      <trkpt lat="38.08564" lon="-4.06161"/>
      <trkpt lat="38.08559" lon="-4.06163">
        <time>2022-11-26 12:15:24</time>
      </trkpt>
      <trkpt lat="38.08553" lon="-4.06167"/>
      <trkpt lat="38.08548" lon="-4.06169">
        <time>2022-11-26 12:15:25</time>
      </trkpt>
      <trkpt lat="38.08542" lon="-4.06172"/>
      <trkpt lat="38.08535" lon="-4.06174">
        <time>2022-11-26 12:15:26</time>
      </trkpt>
      <trkpt lat="38.08529" lon="-4.06176"/>
      <trkpt lat="38.08523" lon="-4.06178">
        <time>2022-11-26 12:15:27</time>
      </trkpt>
      <trkpt lat="38.08518" lon="-4.06178"/>
      <trkpt lat="38.08513" lon="-4.06178">
        <time>2022-11-26 12:15:28</time>
      </trkpt>
      <trkpt lat="38.08508" lon="-4.06179"/>
      <trkpt lat="38.08503" lon="-4.06179">
        <time>2022-11-26 12:15:29</time>
      </trkpt>
      <trkpt lat="38.08499" lon="-4.06183"/>
      <trkpt lat="38.08495" lon="-4.06188">
        <time>2022-11-26 12:15:30</time>
      </trkpt>
      <trkpt lat="38.08493" lon="-4.06194"/>
      <trkpt lat="38.08491" lon="-4.06201">
        <time>2022-11-26 12:15:31</time>
      </trkpt>
      <trkpt lat="38.08488" lon="-4.06208"/>
      <trkpt lat="38.08485" lon="-4.06215">
        <time>2022-11-26 12:15:32</time>
      </trkpt>
      <trkpt lat="38.0848" lon="-4.06221"/>
      <trkpt lat="38.08476" lon="-4.06227">
        <time>2022-11-26 12:15:33</time>
      </trkpt>
      <trkpt lat="38.08473" lon="-4.06232"/>
      <trkpt lat="38.08469" lon="-4.06236">
        <time>2022-11-26 12:15:34</time>
      </trkpt>
      <trkpt lat="38.08464" lon="-4.06238"/>
      <trkpt lat="38.0846" lon="-4.06236">
        <time>2022-11-26 12:15:35</time>
      </trkpt>
      <trkpt lat="38.08456" lon="-4.06234"/>
      <trkpt lat="38.08453" lon="-4.06233">
        <time>2022-11-26 12:15:37</time>
      </trkpt>
      <trkpt lat="38.08448" lon="-4.06232"/>
      <trkpt lat="38.08443" lon="-4.06232">
        <time>2022-11-26 12:15:38</time>
      </trkpt>
      <trkpt lat="38.08437" lon="-4.06232"/>
      <trkpt lat="38.08432" lon="-4.06235">
        <time>2022-11-26 12:15:39</time>
      </trkpt>
      <trkpt lat="38.08427" lon="-4.06238"/>
      <trkpt lat="38.08425" lon="-4.06239">
        <time>2022-11-26 12:15:40</time>
      </trkpt>
      <trkpt lat="38.08421" lon="-4.06241"/>
      <trkpt lat="38.08413" lon="-4.06246">
        <time>2022-11-26 12:15:41</time>
      </trkpt>
      <trkpt lat="38.08407" lon="-4.06249"/>
      <trkpt lat="38.084" lon="-4.06252">
        <time>2022-11-26 12:15:42</time>
      </trkpt>
      <trkpt lat="38.08394" lon="-4.06254"/>
      <trkpt lat="38.08387" lon="-4.06255">
        <time>2022-11-26 12:15:43</time>
      </trkpt>
      <trkpt lat="38.08381" lon="-4.06255"/>
      <trkpt lat="38.08377" lon="-4.06253">
        <time>2022-11-26 12:15:44</time>
      </trkpt>
      <trkpt lat="38.08374" lon="-4.06252"/>
      <trkpt lat="38.08364" lon="-4.06257">
        <time>2022-11-26 12:15:46</time>
      </trkpt>
      <trkpt lat="38.08358" lon="-4.06259"/>
      <trkpt lat="38.08352" lon="-4.06262">
        <time>2022-11-26 12:15:48</time>
      </trkpt>
      <trkpt lat="38.08346" lon="-4.06262"/>
      <trkpt lat="38.08337" lon="-4.06261">
        <time>2022-11-26 12:15:49</time>
      </trkpt>
      <trkpt lat="38.08328" lon="-4.06259"/>
      <trkpt lat="38.08319" lon="-4.06258">
        <time>2022-11-26 12:15:50</time>
      </trkpt>
      <trkpt lat="38.0831" lon="-4.06256"/>
      <trkpt lat="38.08301" lon="-4.06255">
        <time>2022-11-26 12:15:51</time>
      </trkpt>
      <trkpt lat="38.08291" lon="-4.06253"/>
      <trkpt lat="38.08283" lon="-4.06252">
        <time>2022-11-26 12:15:53</time>
      </trkpt>
      <trkpt lat="38.08275" lon="-4.0625"/>
      <trkpt lat="38.08267" lon="-4.06247">
        <time>2022-11-26 12:15:54</time>
      </trkpt>
      <trkpt lat="38.08262" lon="-4.06244"/>
      <trkpt lat="38.08257" lon="-4.06244">
        <time>2022-11-26 12:15:55</time>
      </trkpt>
      <trkpt lat="38.08251" lon="-4.06246"/>
      <trkpt lat="38.08245" lon="-4.06248">
        <time>2022-11-26 12:15:56</time>
      </trkpt>
      <trkpt lat="38.08239" lon="-4.06249"/>
      <trkpt lat="38.08233" lon="-4.06251">
        <time>2022-11-26 12:15:57</time>
      </trkpt>
      <trkpt lat="38.08229" lon="-4.06256"/>
      <trkpt lat="38.08224" lon="-4.0626">
        <time>2022-11-26 12:15:58</time>
      </trkpt>
      <trkpt lat="38.08218" lon="-4.06262"/>
      <trkpt lat="38.08212" lon="-4.06264">
        <time>2022-11-26 12:15:59</time>
      </trkpt>
      <trkpt lat="38.08205" lon="-4.06266"/>
      <trkpt lat="38.08198" lon="-4.06266">
        <time>2022-11-26 12:16:00</time>
      </trkpt>
      <trkpt lat="38.0819" lon="-4.06263"/>
      <trkpt lat="38.08182" lon="-4.0626">
        <time>2022-11-26 12:16:01</time>
      </trkpt>
      <trkpt lat="38.08174" lon="-4.06258"/>
      <trkpt lat="38.08166" lon="-4.06257">
        <time>2022-11-26 12:16:02</time>
      </trkpt>
      <trkpt lat="38.08159" lon="-4.06256"/>
      <trkpt lat="38.08153" lon="-4.06254">
        <time>2022-11-26 12:16:03</time>
      </trkpt>
      <trkpt lat="38.08148" lon="-4.0625"/>
      <trkpt lat="38.08142" lon="-4.06248">
        <time>2022-11-26 12:16:04</time>
      </trkpt>
      <trkpt lat="38.08137" lon="-4.06248"/>
      <trkpt lat="38.08133" lon="-4.06246">
        <time>2022-11-26 12:16:05</time>
      </trkpt>
      <trkpt lat="38.08127" lon="-4.06246"/>
      <trkpt lat="38.0812" lon="-4.06247">
        <time>2022-11-26 12:16:06</time>
      </trkpt>
      <trkpt lat="38.08113" lon="-4.06246"/>
      <trkpt lat="38.08107" lon="-4.06244">
        <time>2022-11-26 12:16:07</time>
      </trkpt>
      <trkpt lat="38.08102" lon="-4.06239"/>
      <trkpt lat="38.08099" lon="-4.06234">
        <time>2022-11-26 12:16:08</time>
      </trkpt>
      <trkpt lat="38.08095" lon="-4.06231"/>
      <trkpt lat="38.08091" lon="-4.06229">
        <time>2022-11-26 12:16:09</time>
      </trkpt>
      <trkpt lat="38.08087" lon="-4.06227"/>
      <trkpt lat="38.08082" lon="-4.06225">
        <time>2022-11-26 12:16:10</time>
      </trkpt>
      <trkpt lat="38.08076" lon="-4.06224"/>
      <trkpt lat="38.08069" lon="-4.06222">
        <time>2022-11-26 12:16:11</time>
      </trkpt>
      <trkpt lat="38.08063" lon="-4.06217"/>
      <trkpt lat="38.08058" lon="-4.06212">
        <time>2022-11-26 12:16:12</time>
      </trkpt>
      <trkpt lat="38.08051" lon="-4.06206"/>
      <trkpt lat="38.08044" lon="-4.062">
        <time>2022-11-26 12:16:13</time>
      </trkpt>
      <trkpt lat="38.08036" lon="-4.06195"/>
      <trkpt lat="38.08028" lon="-4.0619">
        <time>2022-11-26 12:16:14</time>
      </trkpt>
      <trkpt lat="38.08021" lon="-4.06185"/>
      <trkpt lat="38.08014" lon="-4.06179">
        <time>2022-11-26 12:16:15</time>
      </trkpt>
      <trkpt lat="38.08007" lon="-4.06173"/>
      <trkpt lat="38.08001" lon="-4.06165">
        <time>2022-11-26 12:16:16</time>
      </trkpt>
      <trkpt lat="38.07994" lon="-4.06159"/>
      <trkpt lat="38.07987" lon="-4.06155">
        <time>2022-11-26 12:16:17</time>
      </trkpt>
      <trkpt lat="38.07979" lon="-4.0615"/>
      <trkpt lat="38.07971" lon="-4.06147">
        <time>2022-11-26 12:16:18</time>
      </trkpt>
      <trkpt lat="38.07964" lon="-4.06144"/>
      <trkpt lat="38.07956" lon="-4.06142">
        <time>2022-11-26 12:16:19</time>
      </trkpt>
      <trkpt lat="38.0795" lon="-4.06139"/>
      <trkpt lat="38.07945" lon="-4.06132">
        <time>2022-11-26 12:16:20</time>
      </trkpt>
      <trkpt lat="38.07941" lon="-4.06125"/>
      <trkpt lat="38.07936" lon="-4.06121">
        <time>2022-11-26 12:16:21</time>
      </trkpt>
      <trkpt lat="38.07931" lon="-4.06119"/>
      <trkpt lat="38.07926" lon="-4.0612">
        <time>2022-11-26 12:16:22</time>
      </trkpt>
      <trkpt lat="38.07921" lon="-4.06122"/>
      <trkpt lat="38.07916" lon="-4.06126">
        <time>2022-11-26 12:16:23</time>
      </trkpt>
      <trkpt lat="38.07911" lon="-4.06126"/>
      <trkpt lat="38.07908" lon="-4.06127">
        <time>2022-11-26 12:16:24</time>
      </trkpt>
      <trkpt lat="38.07904" lon="-4.06129"/>
      <trkpt lat="38.07901" lon="-4.0613">
        <time>2022-11-26 12:16:25</time>
      </trkpt>
      <trkpt lat="38.07895" lon="-4.06132"/>
      <trkpt lat="38.07889" lon="-4.06133">
        <time>2022-11-26 12:16:26</time>
      </trkpt>
      <trkpt lat="38.07882" lon="-4.06133"/>
      <trkpt lat="38.07876" lon="-4.06134">
        <time>2022-11-26 12:16:27</time>
      </trkpt>
      <trkpt lat="38.07869" lon="-4.06135"/>
      <trkpt lat="38.07863" lon="-4.06137">
        <time>2022-11-26 12:16:28</time>
      </trkpt>
      <trkpt lat="38.07858" lon="-4.0614"/>
      <trkpt lat="38.07852" lon="-4.06144">
        <time>2022-11-26 12:16:29</time>
      </trkpt>
      <trkpt lat="38.07847" lon="-4.06147"/>
      <trkpt lat="38.07841" lon="-4.0615">
        <time>2022-11-26 12:16:30</time>
      </trkpt>
      <trkpt lat="38.07836" lon="-4.06152"/>
      <trkpt lat="38.07831" lon="-4.06155">
        <time>2022-11-26 12:16:31</time>
      </trkpt>
      <trkpt lat="38.07827" lon="-4.06155"/>
      <trkpt lat="38.07821" lon="-4.06153">
        <time>2022-11-26 12:16:32</time>
      </trkpt>
      <trkpt lat="38.07816" lon="-4.06151"/>
      <trkpt lat="38.07811" lon="-4.06148">
        <time>2022-11-26 12:16:33</time>
      </trkpt>
      <trkpt lat="38.07806" lon="-4.06144"/>
      <trkpt lat="38.07802" lon="-4.06141">
        <time>2022-11-26 12:16:34</time>
      </trkpt>
      <trkpt lat="38.07799" lon="-4.06137"/>
      <trkpt lat="38.07796" lon="-4.06133">
        <time>2022-11-26 12:16:35</time>
      </trkpt>
      <trkpt lat="38.07795" lon="-4.06131"/>
      <trkpt lat="38.07793" lon="-4.06129">
        <time>2022-11-26 12:16:36</time>
      </trkpt>
      <trkpt lat="38.07791" lon="-4.06128"/>
      <trkpt lat="38.07788" lon="-4.06127">
        <time>2022-11-26 12:16:37</time>
      </trkpt>
      <trkpt lat="38.07785" lon="-4.06125"/>
      <trkpt lat="38.07779" lon="-4.06122">
        <time>2022-11-26 12:16:38</time>
      </trkpt>
      <trkpt lat="38.07774" lon="-4.06118"/>
      <trkpt lat="38.07769" lon="-4.06113">
        <time>2022-11-26 12:16:39</time>
      </trkpt>
      <trkpt lat="38.07765" lon="-4.06108"/>
      <trkpt lat="38.07759" lon="-4.06103">
        <time>2022-11-26 12:16:40</time>
      </trkpt>
      <trkpt lat="38.07753" lon="-4.06098"/>
      <trkpt lat="38.07747" lon="-4.06094">
        <time>2022-11-26 12:16:41</time>
      </trkpt>
      <trkpt lat="38.07743" lon="-4.06088"/>
      <trkpt lat="38.0774" lon="-4.06082">
        <time>2022-11-26 12:16:42</time>
      </trkpt>
      <trkpt lat="38.07738" lon="-4.06075"/>
      <trkpt lat="38.07736" lon="-4.06068">
        <time>2022-11-26 12:16:43</time>
      </trkpt>
      <trkpt lat="38.07733" lon="-4.06062"/>
      <trkpt lat="38.0773" lon="-4.06056">
        <time>2022-11-26 12:16:44</time>
      </trkpt>
      <trkpt lat="38.07726" lon="-4.06051"/>
      <trkpt lat="38.07721" lon="-4.06049">
        <time>2022-11-26 12:16:45</time>
      </trkpt>
      <trkpt lat="38.07715" lon="-4.06049"/>
      <trkpt lat="38.0771" lon="-4.0605">
        <time>2022-11-26 12:16:46</time>
      </trkpt>
      <trkpt lat="38.07705" lon="-4.06052"/>
      <trkpt lat="38.07699" lon="-4.06054">
        <time>2022-11-26 12:16:48</time>
      </trkpt>
      <trkpt lat="38.07694" lon="-4.06054"/>
      <trkpt lat="38.07688" lon="-4.06054"/>
      <trkpt lat="38.07683" lon="-4.06054"/>
      <trkpt lat="38.07678" lon="-4.06055">
        <time>2022-11-26 12:16:50</time>
      </trkpt>
      <trkpt lat="38.07677" lon="-4.06056"/>
      <trkpt lat="38.07676" lon="-4.06057">
        <time>2022-11-26 12:16:51</time>
      </trkpt>
      <trkpt lat="38.07675" lon="-4.06058"/>
      <trkpt lat="38.07674" lon="-4.06058">
        <time>2022-11-26 12:16:52</time>
      </trkpt>
      <trkpt lat="38.07671" lon="-4.0606"/>
      <trkpt lat="38.07668" lon="-4.06061">
        <time>2022-11-26 12:16:53</time>
      </trkpt>
      <trkpt lat="38.07663" lon="-4.06066"/>
      <trkpt lat="38.07662" lon="-4.06068">
        <time>2022-11-26 12:16:54</time>
      </trkpt>
      <trkpt lat="38.07661" lon="-4.0607"/>
      <trkpt lat="38.07658" lon="-4.06076">
        <time>2022-11-26 12:16:55</time>
      </trkpt>
      <trkpt lat="38.07653" lon="-4.06082"/>
      <trkpt lat="38.07647" lon="-4.06087">
        <time>2022-11-26 12:16:56</time>
      </trkpt>
      <trkpt lat="38.0764" lon="-4.06091"/>
      <trkpt lat="38.07632" lon="-4.06093">
        <time>2022-11-26 12:16:57</time>
      </trkpt>
      <trkpt lat="38.07623" lon="-4.06093"/>
      <trkpt lat="38.07613" lon="-4.06092">
        <time>2022-11-26 12:16:58</time>
      </trkpt>
      <trkpt lat="38.07603" lon="-4.06093"/>
      <trkpt lat="38.07592" lon="-4.06093">
        <time>2022-11-26 12:16:59</time>
      </trkpt>
      <trkpt lat="38.07581" lon="-4.06093"/>
      <trkpt lat="38.07571" lon="-4.06091">
        <time>2022-11-26 12:17:00</time>
      </trkpt>
      <trkpt lat="38.07561" lon="-4.06088"/>
      <trkpt lat="38.07552" lon="-4.06084">
        <time>2022-11-26 12:17:01</time>
      </trkpt>
      <trkpt lat="38.07543" lon="-4.06079"/>
      <trkpt lat="38.07534" lon="-4.06073">
        <time>2022-11-26 12:17:02</time>
      </trkpt>
      <trkpt lat="38.07525" lon="-4.06067"/>
      <trkpt lat="38.07517" lon="-4.0606">
        <time>2022-11-26 12:17:03</time>
      </trkpt>
      <trkpt lat="38.0751" lon="-4.06053"/>
      <trkpt lat="38.07503" lon="-4.06048">
        <time>2022-11-26 12:17:04</time>
      </trkpt>
      <trkpt lat="38.07494" lon="-4.06044"/>
      <trkpt lat="38.07486" lon="-4.06041">
        <time>2022-11-26 12:17:05</time>
      </trkpt>
      <trkpt lat="38.07479" lon="-4.06035"/>
      <trkpt lat="38.07474" lon="-4.06027">
        <time>2022-11-26 12:17:06</time>
      </trkpt>
      <trkpt lat="38.07469" lon="-4.06021"/>
      <trkpt lat="38.07463" lon="-4.06016">
        <time>2022-11-26 12:17:07</time>
      </trkpt>
      <trkpt lat="38.07455" lon="-4.0601"/>
      <trkpt lat="38.07447" lon="-4.06003">
        <time>2022-11-26 12:17:09</time>
      </trkpt>
      <trkpt lat="38.07439" lon="-4.05996"/>
      <trkpt lat="38.0743" lon="-4.05989">
        <time>2022-11-26 12:17:10</time>
      </trkpt>
      <trkpt lat="38.07422" lon="-4.05983"/>
      <trkpt lat="38.07415" lon="-4.05976">
        <time>2022-11-26 12:17:11</time>
      </trkpt>
      <trkpt lat="38.07406" lon="-4.05969"/>
      <trkpt lat="38.07398" lon="-4.05962">
        <time>2022-11-26 12:17:12</time>
      </trkpt>
      <trkpt lat="38.0739" lon="-4.05955"/>
      <trkpt lat="38.07382" lon="-4.05948">
        <time>2022-11-26 12:17:13</time>
      </trkpt>
      <trkpt lat="38.07374" lon="-4.05942"/>
      <trkpt lat="38.07366" lon="-4.05936">
        <time>2022-11-26 12:17:14</time>
      </trkpt>
      <trkpt lat="38.07358" lon="-4.0593"/>
      <trkpt lat="38.0735" lon="-4.05927">
        <time>2022-11-26 12:17:15</time>
      </trkpt>
      <trkpt lat="38.07343" lon="-4.05925"/>
      <trkpt lat="38.07335" lon="-4.05925">
        <time>2022-11-26 12:17:16</time>
      </trkpt>
      <trkpt lat="38.07326" lon="-4.05924"/>
      <trkpt lat="38.07316" lon="-4.05925">
        <time>2022-11-26 12:17:17</time>
      </trkpt>
      <trkpt lat="38.07305" lon="-4.05926"/>
      <trkpt lat="38.07294" lon="-4.05927">
        <time>2022-11-26 12:17:18</time>
      </trkpt>
      <trkpt lat="38.07283" lon="-4.05929"/>
      <trkpt lat="38.07273" lon="-4.05931">
        <time>2022-11-26 12:17:20</time>
      </trkpt>
      <trkpt lat="38.07263" lon="-4.05931"/>
      <trkpt lat="38.07253" lon="-4.05931">
        <time>2022-11-26 12:17:21</time>
      </trkpt>
      <trkpt lat="38.07243" lon="-4.05932"/>
      <trkpt lat="38.07234" lon="-4.05933">
        <time>2022-11-26 12:17:22</time>
      </trkpt>
      <trkpt lat="38.07224" lon="-4.05935"/>
      <trkpt lat="38.07215" lon="-4.05939">
        <time>2022-11-26 12:17:23</time>
      </trkpt>
      <trkpt lat="38.07206" lon="-4.05943"/>
      <trkpt lat="38.07197" lon="-4.05947">
        <time>2022-11-26 12:17:24</time>
      </trkpt>
      <trkpt lat="38.07188" lon="-4.05951"/>
      <trkpt lat="38.07178" lon="-4.05954">
        <time>2022-11-26 12:17:25</time>
      </trkpt>
      <trkpt lat="38.07169" lon="-4.05955"/>
      <trkpt lat="38.07161" lon="-4.05957">
        <time>2022-11-26 12:17:26</time>
      </trkpt>
      <trkpt lat="38.07152" lon="-4.05959"/>
      <trkpt lat="38.07143" lon="-4.05961">
        <time>2022-11-26 12:17:27</time>
      </trkpt>
      <trkpt lat="38.07134" lon="-4.05963"/>
      <trkpt lat="38.07125" lon="-4.05964">
        <time>2022-11-26 12:17:28</time>
      </trkpt>
      <trkpt lat="38.07116" lon="-4.05965"/>
      <trkpt lat="38.07106" lon="-4.05966">
        <time>2022-11-26 12:17:29</time>
      </trkpt>
      <trkpt lat="38.07097" lon="-4.05965"/>
      <trkpt lat="38.07088" lon="-4.05965">
        <time>2022-11-26 12:17:30</time>
      </trkpt>
      <trkpt lat="38.0708" lon="-4.05965"/>
      <trkpt lat="38.07073" lon="-4.05968">
        <time>2022-11-26 12:17:31</time>
      </trkpt>
      <trkpt lat="38.07065" lon="-4.05971"/>
      <trkpt lat="38.07058" lon="-4.05975">
        <time>2022-11-26 12:17:32</time>
      </trkpt>
      <trkpt lat="38.07052" lon="-4.05979"/>
      <trkpt lat="38.07045" lon="-4.05982">
        <time>2022-11-26 12:17:33</time>
      </trkpt>
      <trkpt lat="38.07039" lon="-4.05985"/>
      <trkpt lat="38.07034" lon="-4.05988">
        <time>2022-11-26 12:17:34</time>
      </trkpt>
      <trkpt lat="38.0703" lon="-4.0599"/>
      <trkpt lat="38.07026" lon="-4.05991">
        <time>2022-11-26 12:17:35</time>
      </trkpt>
      <trkpt lat="38.07024" lon="-4.05993"/>
      <trkpt lat="38.07023" lon="-4.05994">
        <time>2022-11-26 12:17:36</time>
      </trkpt>
      <trkpt lat="38.07023" lon="-4.05994"/>
      <trkpt lat="38.07023" lon="-4.05994">
        <time>2022-11-26 12:17:37</time>
      </trkpt>
      <trkpt lat="38.07023" lon="-4.05994"/>
      <trkpt lat="38.07023" lon="-4.05994">
        <time>2022-11-26 12:17:38</time>
      </trkpt>
      <trkpt lat="38.07023" lon="-4.05994"/>
      <trkpt lat="38.07023" lon="-4.05994">
        <time>2022-11-26 12:17:39</time>
      </trkpt>
      <trkpt lat="38.07023" lon="-4.05994"/>
      <trkpt lat="38.07022" lon="-4.05994">
        <time>2022-11-26 12:17:40</time>
      </trkpt>
      <trkpt lat="38.07022" lon="-4.05993"/>
      <trkpt lat="38.07021" lon="-4.05993">
        <time>2022-11-26 12:17:41</time>
      </trkpt>
      <trkpt lat="38.07021" lon="-4.05993"/>
      <trkpt lat="38.07021" lon="-4.05993">
        <time>2022-11-26 12:17:42</time>
      </trkpt>
      <trkpt lat="38.0702" lon="-4.05993"/>
      <trkpt lat="38.0702" lon="-4.05993">
        <time>2022-11-26 12:17:43</time>
      </trkpt>
      <trkpt lat="38.07019" lon="-4.05994"/>
      <trkpt lat="38.07019" lon="-4.05994">
        <time>2022-11-26 12:17:44</time>
      </trkpt>
      <trkpt lat="38.07019" lon="-4.05994"/>
      <trkpt lat="38.07019" lon="-4.05994">
        <time>2022-11-26 12:17:45</time>
      </trkpt>
      <trkpt lat="38.07019" lon="-4.05994"/>
      <trkpt lat="38.07019" lon="-4.05994">
        <time>2022-11-26 12:17:46</time>
      </trkpt>
      <trkpt lat="38.07019" lon="-4.05994"/>
      <trkpt lat="38.07019" lon="-4.05994">
        <time>2022-11-26 12:17:47</time>
      </trkpt>
      <trkpt lat="38.07019" lon="-4.05994"/>
      <trkpt lat="38.07019" lon="-4.05994">
        <time>2022-11-26 12:17:48</time>
      </trkpt>
      <trkpt lat="38.07019" lon="-4.05994"/>
      <trkpt lat="38.07019" lon="-4.05994">
        <time>2022-11-26 12:17:49</time>
      </trkpt>
      <trkpt lat="38.07019" lon="-4.05994"/>
      <trkpt lat="38.07019" lon="-4.05994">
        <time>2022-11-26 12:17:50</time>
      </trkpt>
      <trkpt lat="38.07019" lon="-4.05994"/>
      <trkpt lat="38.07019" lon="-4.05994">
        <time>2022-11-26 12:17:51</time>
      </trkpt>
      <trkpt lat="38.07019" lon="-4.05994"/>
      <trkpt lat="38.07019" lon="-4.05994">
        <time>2022-11-26 12:17:52</time>
      </trkpt>
      <trkpt lat="38.07019" lon="-4.05994"/>
      <trkpt lat="38.07019" lon="-4.05994">
        <time>2022-11-26 12:17:53</time>
      </trkpt>
      <trkpt lat="38.07019" lon="-4.05994"/>
      <trkpt lat="38.07019" lon="-4.05994">
        <time>2022-11-26 12:17:54</time>
      </trkpt>
      <trkpt lat="38.07019" lon="-4.05994"/>
      <trkpt lat="38.07019" lon="-4.05994">
        <time>2022-11-26 12:17:55</time>
      </trkpt>
      <trkpt lat="38.07019" lon="-4.05994"/>
      <trkpt lat="38.07019" lon="-4.05994">
        <time>2022-11-26 12:17:56</time>
      </trkpt>
      <trkpt lat="38.07019" lon="-4.05994"/>
      <trkpt lat="38.07017" lon="-4.05993">
        <time>2022-11-26 12:17:57</time>
      </trkpt>
      <trkpt lat="38.07014" lon="-4.05991"/>
      <trkpt lat="38.07012" lon="-4.05989">
        <time>2022-11-26 12:17:58</time>
      </trkpt>
      <trkpt lat="38.07009" lon="-4.05987"/>
      <trkpt lat="38.07006" lon="-4.05984">
        <time>2022-11-26 12:17:59</time>
      </trkpt>
      <trkpt lat="38.07002" lon="-4.05982"/>
      <trkpt lat="38.06998" lon="-4.05981">
        <time>2022-11-26 12:18:00</time>
      </trkpt>
      <trkpt lat="38.06988" lon="-4.05985"/>
      <trkpt lat="38.06982" lon="-4.05988">
        <time>2022-11-26 12:18:01</time>
      </trkpt>
      <trkpt lat="38.06977" lon="-4.05994"/>
      <trkpt lat="38.06971" lon="-4.06">
        <time>2022-11-26 12:18:02</time>
      </trkpt>
      <trkpt lat="38.06965" lon="-4.06005"/>
      <trkpt lat="38.06958" lon="-4.06009">
        <time>2022-11-26 12:18:03</time>
      </trkpt>
      <trkpt lat="38.06951" lon="-4.0601"/>
      <trkpt lat="38.06943" lon="-4.0601">
        <time>2022-11-26 12:18:04</time>
      </trkpt>
      <trkpt lat="38.06935" lon="-4.06009"/>
      <trkpt lat="38.06927" lon="-4.06009">
        <time>2022-11-26 12:18:05</time>
      </trkpt>
      <trkpt lat="38.06919" lon="-4.06008"/>
      <trkpt lat="38.0691" lon="-4.06008">
        <time>2022-11-26 12:18:06</time>
      </trkpt>
      <trkpt lat="38.06902" lon="-4.06007"/>
      <trkpt lat="38.06893" lon="-4.06007">
        <time>2022-11-26 12:18:07</time>
      </trkpt>
      <trkpt lat="38.06885" lon="-4.06008"/>
      <trkpt lat="38.06876" lon="-4.06011">
        <time>2022-11-26 12:18:08</time>
      </trkpt>
      <trkpt lat="38.06867" lon="-4.06014"/>
      <trkpt lat="38.06857" lon="-4.06016">
        <time>2022-11-26 12:18:09</time>
      </trkpt>
      <trkpt lat="38.06848" lon="-4.06016"/>
      <trkpt lat="38.0684" lon="-4.06015">
        <time>2022-11-26 12:18:10</time>
      </trkpt>
      <trkpt lat="38.06832" lon="-4.06013"/>
      <trkpt lat="38.06826" lon="-4.06011">
        <time>2022-11-26 12:18:12</time>
      </trkpt>
      <trkpt lat="38.06821" lon="-4.06009"/>
      <trkpt lat="38.06816" lon="-4.06007">
        <time>2022-11-26 12:18:13</time>
      </trkpt>
      <trkpt lat="38.06811" lon="-4.06005"/>
      <trkpt lat="38.06807" lon="-4.06003">
        <time>2022-11-26 12:18:14</time>
      </trkpt>
      <trkpt lat="38.06803" lon="-4.06002"/>
      <trkpt lat="38.06798" lon="-4.06">
        <time>2022-11-26 12:18:15</time>
      </trkpt>
      <trkpt lat="38.06795" lon="-4.05999"/>
      <trkpt lat="38.0679" lon="-4.05997">
        <time>2022-11-26 12:18:17</time>
      </trkpt>
      <trkpt lat="38.06785" lon="-4.05996"/>
      <trkpt lat="38.0678" lon="-4.05996">
        <time>2022-11-26 12:18:18</time>
      </trkpt>
      <trkpt lat="38.06775" lon="-4.05996"/>
      <trkpt lat="38.0677" lon="-4.05996">
        <time>2022-11-26 12:18:19</time>
      </trkpt>
      <trkpt lat="38.06766" lon="-4.05996"/>
      <trkpt lat="38.06761" lon="-4.05996">
        <time>2022-11-26 12:18:20</time>
      </trkpt>
      <trkpt lat="38.06756" lon="-4.05997"/>
      <trkpt lat="38.06751" lon="-4.05998">
        <time>2022-11-26 12:18:21</time>
      </trkpt>
      <trkpt lat="38.06746" lon="-4.05999"/>
      <trkpt lat="38.06741" lon="-4.06">
        <time>2022-11-26 12:18:22</time>
      </trkpt>
      <trkpt lat="38.06736" lon="-4.06001"/>
      <trkpt lat="38.06731" lon="-4.06001">
        <time>2022-11-26 12:18:23</time>
      </trkpt>
      <trkpt lat="38.06725" lon="-4.06002"/>
      <trkpt lat="38.0672" lon="-4.06004">
        <time>2022-11-26 12:18:24</time>
      </trkpt>
      <trkpt lat="38.06714" lon="-4.06006"/>
      <trkpt lat="38.06708" lon="-4.06008">
        <time>2022-11-26 12:18:25</time>
      </trkpt>
      <trkpt lat="38.06703" lon="-4.06011"/>
      <trkpt lat="38.06697" lon="-4.06015">
        <time>2022-11-26 12:18:26</time>
      </trkpt>
      <trkpt lat="38.06691" lon="-4.06019"/>
      <trkpt lat="38.06686" lon="-4.06022">
        <time>2022-11-26 12:18:27</time>
      </trkpt>
      <trkpt lat="38.0668" lon="-4.06025"/>
      <trkpt lat="38.06674" lon="-4.06027">
        <time>2022-11-26 12:18:28</time>
      </trkpt>
      <trkpt lat="38.06668" lon="-4.06028"/>
      <trkpt lat="38.06661" lon="-4.0603">
        <time>2022-11-26 12:18:29</time>
      </trkpt>
      <trkpt lat="38.06655" lon="-4.06031"/>
      <trkpt lat="38.06649" lon="-4.06032">
        <time>2022-11-26 12:18:30</time>
      </trkpt>
      <trkpt lat="38.06643" lon="-4.06032"/>
      <trkpt lat="38.06637" lon="-4.06033">
        <time>2022-11-26 12:18:31</time>
      </trkpt>
      <trkpt lat="38.06631" lon="-4.06034"/>
      <trkpt lat="38.06625" lon="-4.06035">
        <time>2022-11-26 12:18:32</time>
      </trkpt>
      <trkpt lat="38.06618" lon="-4.06035"/>
      <trkpt lat="38.06612" lon="-4.06036">
        <time>2022-11-26 12:18:33</time>
      </trkpt>
      <trkpt lat="38.06605" lon="-4.06037"/>
      <trkpt lat="38.06599" lon="-4.06037">
        <time>2022-11-26 12:18:34</time>
      </trkpt>
      <trkpt lat="38.06592" lon="-4.06038"/>
      <trkpt lat="38.06586" lon="-4.06039">
        <time>2022-11-26 12:18:35</time>
      </trkpt>
      <trkpt lat="38.06579" lon="-4.06039"/>
      <trkpt lat="38.06573" lon="-4.06039">
        <time>2022-11-26 12:18:36</time>
      </trkpt>
      <trkpt lat="38.06567" lon="-4.06039"/>
      <trkpt lat="38.0656" lon="-4.06039">
        <time>2022-11-26 12:18:37</time>
      </trkpt>
      <trkpt lat="38.06554" lon="-4.06039"/>
      <trkpt lat="38.06548" lon="-4.0604">
        <time>2022-11-26 12:18:38</time>
      </trkpt>
      <trkpt lat="38.06541" lon="-4.06041"/>
      <trkpt lat="38.06535" lon="-4.06042">
        <time>2022-11-26 12:18:39</time>
      </trkpt>
      <trkpt lat="38.06528" lon="-4.06044"/>
      <trkpt lat="38.06521" lon="-4.06045">
        <time>2022-11-26 12:18:40</time>
      </trkpt>
      <trkpt lat="38.06514" lon="-4.06047"/>
      <trkpt lat="38.06507" lon="-4.06049">
        <time>2022-11-26 12:18:41</time>
      </trkpt>
      <trkpt lat="38.065" lon="-4.0605"/>
      <trkpt lat="38.06492" lon="-4.06052">
        <time>2022-11-26 12:18:42</time>
      </trkpt>
      <trkpt lat="38.06485" lon="-4.06054"/>
      <trkpt lat="38.06477" lon="-4.06057">
        <time>2022-11-26 12:18:44</time>
      </trkpt>
      <trkpt lat="38.06469" lon="-4.06059"/>
      <trkpt lat="38.06461" lon="-4.06061">
        <time>2022-11-26 12:18:45</time>
      </trkpt>
      <trkpt lat="38.06452" lon="-4.06061"/>
      <trkpt lat="38.06444" lon="-4.06061">
        <time>2022-11-26 12:18:46</time>
      </trkpt>
      <trkpt lat="38.06435" lon="-4.06062"/>
      <trkpt lat="38.06427" lon="-4.06062">
        <time>2022-11-26 12:18:47</time>
      </trkpt>
      <trkpt lat="38.06419" lon="-4.06062"/>
      <trkpt lat="38.06411" lon="-4.06062">
        <time>2022-11-26 12:18:48</time>
      </trkpt>
      <trkpt lat="38.06403" lon="-4.06062"/>
      <trkpt lat="38.06396" lon="-4.06062">
        <time>2022-11-26 12:18:49</time>
      </trkpt>
      <trkpt lat="38.06389" lon="-4.06062"/>
      <trkpt lat="38.06382" lon="-4.06062">
        <time>2022-11-26 12:18:50</time>
      </trkpt>
      <trkpt lat="38.06376" lon="-4.06062"/>
      <trkpt lat="38.0637" lon="-4.06061">
        <time>2022-11-26 12:18:51</time>
      </trkpt>
      <trkpt lat="38.06364" lon="-4.06061"/>
      <trkpt lat="38.06357" lon="-4.06061">
        <time>2022-11-26 12:18:52</time>
      </trkpt>
      <trkpt lat="38.0635" lon="-4.06062"/>
      <trkpt lat="38.06343" lon="-4.06062">
        <time>2022-11-26 12:18:53</time>
      </trkpt>
      <trkpt lat="38.06336" lon="-4.06063"/>
      <trkpt lat="38.06329" lon="-4.06065">
        <time>2022-11-26 12:18:54</time>
      </trkpt>
      <trkpt lat="38.06322" lon="-4.06067"/>
      <trkpt lat="38.06315" lon="-4.0607">
        <time>2022-11-26 12:18:55</time>
      </trkpt>
      <trkpt lat="38.06307" lon="-4.06072"/>
      <trkpt lat="38.063" lon="-4.06075">
        <time>2022-11-26 12:18:56</time>
      </trkpt>
      <trkpt lat="38.06293" lon="-4.06079"/>
      <trkpt lat="38.06286" lon="-4.06082">
        <time>2022-11-26 12:18:57</time>
      </trkpt>
      <trkpt lat="38.06279" lon="-4.06085"/>
      <trkpt lat="38.06272" lon="-4.06088">
        <time>2022-11-26 12:18:58</time>
      </trkpt>
      <trkpt lat="38.06264" lon="-4.06091"/>
      <trkpt lat="38.06257" lon="-4.06094">
        <time>2022-11-26 12:18:59</time>
      </trkpt>
      <trkpt lat="38.0625" lon="-4.06097"/>
      <trkpt lat="38.06244" lon="-4.061">
        <time>2022-11-26 12:19:00</time>
      </trkpt>
      <trkpt lat="38.06237" lon="-4.06102"/>
      <trkpt lat="38.0623" lon="-4.06104">
        <time>2022-11-26 12:19:01</time>
      </trkpt>
      <trkpt lat="38.06223" lon="-4.06107"/>
      <trkpt lat="38.06216" lon="-4.06109">
        <time>2022-11-26 12:19:02</time>
      </trkpt>
      <trkpt lat="38.06208" lon="-4.06112"/>
      <trkpt lat="38.062" lon="-4.06115">
        <time>2022-11-26 12:19:03</time>
      </trkpt>
      <trkpt lat="38.06191" lon="-4.06119"/>
      <trkpt lat="38.06183" lon="-4.06122">
        <time>2022-11-26 12:19:04</time>
      </trkpt>
      <trkpt lat="38.06175" lon="-4.06125"/>
      <trkpt lat="38.06167" lon="-4.06128">
        <time>2022-11-26 12:19:05</time>
      </trkpt>
      <trkpt lat="38.06159" lon="-4.06133"/>
      <trkpt lat="38.06151" lon="-4.06139">
        <time>2022-11-26 12:19:06</time>
      </trkpt>
      <trkpt lat="38.06144" lon="-4.06144"/>
      <trkpt lat="38.06137" lon="-4.0615">
        <time>2022-11-26 12:19:07</time>
      </trkpt>
      <trkpt lat="38.06131" lon="-4.06155"/>
      <trkpt lat="38.06124" lon="-4.06159">
        <time>2022-11-26 12:19:08</time>
      </trkpt>
      <trkpt lat="38.06117" lon="-4.06161"/>
      <trkpt lat="38.06111" lon="-4.06162">
        <time>2022-11-26 12:19:09</time>
      </trkpt>
      <trkpt lat="38.06104" lon="-4.06162"/>
      <trkpt lat="38.06098" lon="-4.06161">
        <time>2022-11-26 12:19:10</time>
      </trkpt>
      <trkpt lat="38.06092" lon="-4.06159"/>
      <trkpt lat="38.06086" lon="-4.06157">
        <time>2022-11-26 12:19:11</time>
      </trkpt>
      <trkpt lat="38.0608" lon="-4.06155"/>
      <trkpt lat="38.06074" lon="-4.06152">
        <time>2022-11-26 12:19:12</time>
      </trkpt>
      <trkpt lat="38.06068" lon="-4.06151"/>
      <trkpt lat="38.06062" lon="-4.06149">
        <time>2022-11-26 12:19:13</time>
      </trkpt>
      <trkpt lat="38.06056" lon="-4.06148"/>
      <trkpt lat="38.06051" lon="-4.06147">
        <time>2022-11-26 12:19:14</time>
      </trkpt>
      <trkpt lat="38.06045" lon="-4.06146"/>
      <trkpt lat="38.06041" lon="-4.06145">
        <time>2022-11-26 12:19:15</time>
      </trkpt>
      <trkpt lat="38.06036" lon="-4.06146"/>
      <trkpt lat="38.06031" lon="-4.06147">
        <time>2022-11-26 12:19:16</time>
      </trkpt>
      <trkpt lat="38.06026" lon="-4.0615"/>
      <trkpt lat="38.06021" lon="-4.06153">
        <time>2022-11-26 12:19:17</time>
      </trkpt>
      <trkpt lat="38.06017" lon="-4.06156"/>
      <trkpt lat="38.06012" lon="-4.06159">
        <time>2022-11-26 12:19:18</time>
      </trkpt>
      <trkpt lat="38.06006" lon="-4.06162"/>
      <trkpt lat="38.06001" lon="-4.06165">
        <time>2022-11-26 12:19:19</time>
      </trkpt>
      <trkpt lat="38.05996" lon="-4.06168"/>
      <trkpt lat="38.0599" lon="-4.06171">
        <time>2022-11-26 12:19:20</time>
      </trkpt>
      <trkpt lat="38.05984" lon="-4.06173"/>
      <trkpt lat="38.05979" lon="-4.06174">
        <time>2022-11-26 12:19:21</time>
      </trkpt>
      <trkpt lat="38.05973" lon="-4.06174"/>
      <trkpt lat="38.05968" lon="-4.06173">
        <time>2022-11-26 12:19:22</time>
      </trkpt>
      <trkpt lat="38.05963" lon="-4.06172"/>
      <trkpt lat="38.05958" lon="-4.0617">
        <time>2022-11-26 12:19:23</time>
      </trkpt>
      <trkpt lat="38.05954" lon="-4.06168"/>
      <trkpt lat="38.0595" lon="-4.06166">
        <time>2022-11-26 12:19:24</time>
      </trkpt>
      <trkpt lat="38.05947" lon="-4.06164"/>
      <trkpt lat="38.05943" lon="-4.06161">
        <time>2022-11-26 12:19:25</time>
      </trkpt>
      <trkpt lat="38.05941" lon="-4.06159"/>
      <trkpt lat="38.05938" lon="-4.06156">
        <time>2022-11-26 12:19:26</time>
      </trkpt>
      <trkpt lat="38.05936" lon="-4.06153"/>
      <trkpt lat="38.05932" lon="-4.0615">
        <time>2022-11-26 12:19:27</time>
      </trkpt>
      <trkpt lat="38.05928" lon="-4.06146"/>
      <trkpt lat="38.05925" lon="-4.06144">
        <time>2022-11-26 12:19:28</time>
      </trkpt>
      <trkpt lat="38.05921" lon="-4.06141"/>
      <trkpt lat="38.05917" lon="-4.06139">
        <time>2022-11-26 12:19:29</time>
      </trkpt>
      <trkpt lat="38.05914" lon="-4.06138"/>
      <trkpt lat="38.05909" lon="-4.06136">
        <time>2022-11-26 12:19:30</time>
      </trkpt>
      <trkpt lat="38.05903" lon="-4.06135"/>
      <trkpt lat="38.05898" lon="-4.06134">
        <time>2022-11-26 12:19:31</time>
      </trkpt>
      <trkpt lat="38.05894" lon="-4.06132"/>
      <trkpt lat="38.05889" lon="-4.06131">
        <time>2022-11-26 12:19:32</time>
      </trkpt>
      <trkpt lat="38.05884" lon="-4.0613"/>
      <trkpt lat="38.05878" lon="-4.06129">
        <time>2022-11-26 12:19:34</time>
      </trkpt>
      <trkpt lat="38.05873" lon="-4.06128"/>
      <trkpt lat="38.05868" lon="-4.06127">
        <time>2022-11-26 12:19:35</time>
      </trkpt>
      <trkpt lat="38.05862" lon="-4.06125"/>
      <trkpt lat="38.05857" lon="-4.06124">
        <time>2022-11-26 12:19:36</time>
      </trkpt>
      <trkpt lat="38.05851" lon="-4.06123"/>
      <trkpt lat="38.05846" lon="-4.06122">
        <time>2022-11-26 12:19:37</time>
      </trkpt>
      <trkpt lat="38.05841" lon="-4.0612"/>
      <trkpt lat="38.05835" lon="-4.06119">
        <time>2022-11-26 12:19:38</time>
      </trkpt>
      <trkpt lat="38.0583" lon="-4.06118"/>
      <trkpt lat="38.05824" lon="-4.06116">
        <time>2022-11-26 12:19:39</time>
      </trkpt>
      <trkpt lat="38.05818" lon="-4.06115"/>
      <trkpt lat="38.05813" lon="-4.06114">
        <time>2022-11-26 12:19:40</time>
      </trkpt>
      <trkpt lat="38.05807" lon="-4.06113"/>
      <trkpt lat="38.05801" lon="-4.06112">
        <time>2022-11-26 12:19:41</time>
      </trkpt>
      <trkpt lat="38.05795" lon="-4.06112"/>
      <trkpt lat="38.05789" lon="-4.06111">
        <time>2022-11-26 12:19:42</time>
      </trkpt>
      <trkpt lat="38.05783" lon="-4.0611"/>
      <trkpt lat="38.05776" lon="-4.06109">
        <time>2022-11-26 12:19:43</time>
      </trkpt>
      <trkpt lat="38.0577" lon="-4.06108"/>
      <trkpt lat="38.05764" lon="-4.06107">
        <time>2022-11-26 12:19:44</time>
      </trkpt>
      <trkpt lat="38.05758" lon="-4.06106"/>
      <trkpt lat="38.05752" lon="-4.06105">
        <time>2022-11-26 12:19:45</time>
      </trkpt>
      <trkpt lat="38.05745" lon="-4.06104"/>
      <trkpt lat="38.05739" lon="-4.06103">
        <time>2022-11-26 12:19:46</time>
      </trkpt>
      <trkpt lat="38.05733" lon="-4.06102"/>
      <trkpt lat="38.05727" lon="-4.06101">
        <time>2022-11-26 12:19:47</time>
      </trkpt>
      <trkpt lat="38.0572" lon="-4.061"/>
      <trkpt lat="38.05713" lon="-4.06099">
        <time>2022-11-26 12:19:48</time>
      </trkpt>
      <trkpt lat="38.05707" lon="-4.06099"/>
      <trkpt lat="38.05701" lon="-4.06098">
        <time>2022-11-26 12:19:49</time>
      </trkpt>
      <trkpt lat="38.05694" lon="-4.06097"/>
      <trkpt lat="38.05688" lon="-4.06096">
        <time>2022-11-26 12:19:50</time>
      </trkpt>
      <trkpt lat="38.05681" lon="-4.06094"/>
      <trkpt lat="38.05675" lon="-4.06093">
        <time>2022-11-26 12:19:51</time>
      </trkpt>
      <trkpt lat="38.05668" lon="-4.06091"/>
      <trkpt lat="38.05661" lon="-4.06089">
        <time>2022-11-26 12:19:52</time>
      </trkpt>
      <trkpt lat="38.05655" lon="-4.06088"/>
      <trkpt lat="38.05648" lon="-4.06086">
        <time>2022-11-26 12:19:53</time>
      </trkpt>
      <trkpt lat="38.05642" lon="-4.06084"/>
      <trkpt lat="38.05635" lon="-4.06083">
        <time>2022-11-26 12:19:54</time>
      </trkpt>
      <trkpt lat="38.05628" lon="-4.06081"/>
      <trkpt lat="38.05621" lon="-4.0608">
        <time>2022-11-26 12:19:55</time>
      </trkpt>
      <trkpt lat="38.05614" lon="-4.06078"/>
      <trkpt lat="38.05607" lon="-4.06076">
        <time>2022-11-26 12:19:56</time>
      </trkpt>
      <trkpt lat="38.056" lon="-4.06076"/>
      <trkpt lat="38.05592" lon="-4.06077">
        <time>2022-11-26 12:19:57</time>
      </trkpt>
      <trkpt lat="38.05585" lon="-4.06077"/>
      <trkpt lat="38.05578" lon="-4.06077">
        <time>2022-11-26 12:19:58</time>
      </trkpt>
      <trkpt lat="38.05571" lon="-4.06076"/>
      <trkpt lat="38.05564" lon="-4.06076">
        <time>2022-11-26 12:19:59</time>
      </trkpt>
      <trkpt lat="38.05558" lon="-4.06076"/>
      <trkpt lat="38.05551" lon="-4.06075">
        <time>2022-11-26 12:20:00</time>
      </trkpt>
      <trkpt lat="38.05544" lon="-4.06074"/>
      <trkpt lat="38.05538" lon="-4.06072">
        <time>2022-11-26 12:20:01</time>
      </trkpt>
      <trkpt lat="38.05533" lon="-4.06071"/>
      <trkpt lat="38.05527" lon="-4.06069">
        <time>2022-11-26 12:20:02</time>
      </trkpt>
      <trkpt lat="38.05522" lon="-4.06066"/>
      <trkpt lat="38.05516" lon="-4.06064">
        <time>2022-11-26 12:20:03</time>
      </trkpt>
      <trkpt lat="38.05511" lon="-4.06061"/>
      <trkpt lat="38.05506" lon="-4.06058">
        <time>2022-11-26 12:20:04</time>
      </trkpt>
      <trkpt lat="38.05502" lon="-4.06054"/>
      <trkpt lat="38.05498" lon="-4.0605">
        <time>2022-11-26 12:20:05</time>
      </trkpt>
      <trkpt lat="38.05494" lon="-4.06046"/>
      <trkpt lat="38.0549" lon="-4.06041">
        <time>2022-11-26 12:20:06</time>
      </trkpt>
      <trkpt lat="38.05486" lon="-4.06035"/>
      <trkpt lat="38.05481" lon="-4.06031">
        <time>2022-11-26 12:20:07</time>
      </trkpt>
      <trkpt lat="38.05476" lon="-4.06026"/>
      <trkpt lat="38.05471" lon="-4.06022">
        <time>2022-11-26 12:20:08</time>
      </trkpt>
      <trkpt lat="38.05466" lon="-4.06019"/>
      <trkpt lat="38.05461" lon="-4.06015">
        <time>2022-11-26 12:20:09</time>
      </trkpt>
      <trkpt lat="38.05456" lon="-4.06011"/>
      <trkpt lat="38.05451" lon="-4.06008">
        <time>2022-11-26 12:20:10</time>
      </trkpt>
      <trkpt lat="38.05445" lon="-4.06005"/>
      <trkpt lat="38.0544" lon="-4.06002">
        <time>2022-11-26 12:20:11</time>
      </trkpt>
      <trkpt lat="38.05435" lon="-4.05998"/>
      <trkpt lat="38.0543" lon="-4.05995">
        <time>2022-11-26 12:20:12</time>
      </trkpt>
      <trkpt lat="38.05425" lon="-4.05992"/>
      <trkpt lat="38.0542" lon="-4.05988">
        <time>2022-11-26 12:20:13</time>
      </trkpt>
      <trkpt lat="38.05415" lon="-4.05985"/>
      <trkpt lat="38.0541" lon="-4.05982">
        <time>2022-11-26 12:20:14</time>
      </trkpt>
      <trkpt lat="38.05405" lon="-4.05979"/>
      <trkpt lat="38.054" lon="-4.05975">
        <time>2022-11-26 12:20:15</time>
      </trkpt>
      <trkpt lat="38.05395" lon="-4.05972"/>
      <trkpt lat="38.05389" lon="-4.05969">
        <time>2022-11-26 12:20:16</time>
      </trkpt>
      <trkpt lat="38.05384" lon="-4.05965"/>
      <trkpt lat="38.05379" lon="-4.05961">
        <time>2022-11-26 12:20:17</time>
      </trkpt>
      <trkpt lat="38.05374" lon="-4.05958"/>
      <trkpt lat="38.05369" lon="-4.05955">
        <time>2022-11-26 12:20:18</time>
      </trkpt>
      <trkpt lat="38.05364" lon="-4.05951"/>
      <trkpt lat="38.05359" lon="-4.05948">
        <time>2022-11-26 12:20:19</time>
      </trkpt>
      <trkpt lat="38.05353" lon="-4.05945"/>
      <trkpt lat="38.05348" lon="-4.05941">
        <time>2022-11-26 12:20:20</time>
      </trkpt>
      <trkpt lat="38.05343" lon="-4.05937"/>
      <trkpt lat="38.05337" lon="-4.05933">
        <time>2022-11-26 12:20:21</time>
      </trkpt>
      <trkpt lat="38.05331" lon="-4.05929"/>
      <trkpt lat="38.05326" lon="-4.05925">
        <time>2022-11-26 12:20:22</time>
      </trkpt>
      <trkpt lat="38.0532" lon="-4.05921"/>
      <trkpt lat="38.05314" lon="-4.05917">
        <time>2022-11-26 12:20:23</time>
      </trkpt>
      <trkpt lat="38.05309" lon="-4.05914"/>
      <trkpt lat="38.05303" lon="-4.0591">
        <time>2022-11-26 12:20:24</time>
      </trkpt>
      <trkpt lat="38.05298" lon="-4.05906"/>
      <trkpt lat="38.05293" lon="-4.05903">
        <time>2022-11-26 12:20:25</time>
      </trkpt>
      <trkpt lat="38.05287" lon="-4.05899"/>
      <trkpt lat="38.05281" lon="-4.05896">
        <time>2022-11-26 12:20:26</time>
      </trkpt>
      <trkpt lat="38.05276" lon="-4.05893"/>
      <trkpt lat="38.05271" lon="-4.05889">
        <time>2022-11-26 12:20:27</time>
      </trkpt>
      <trkpt lat="38.05266" lon="-4.05886"/>
      <trkpt lat="38.0526" lon="-4.05883">
        <time>2022-11-26 12:20:28</time>
      </trkpt>
      <trkpt lat="38.05255" lon="-4.0588"/>
      <trkpt lat="38.0525" lon="-4.05876">
        <time>2022-11-26 12:20:29</time>
      </trkpt>
      <trkpt lat="38.05245" lon="-4.05872"/>
      <trkpt lat="38.05241" lon="-4.05869">
        <time>2022-11-26 12:20:30</time>
      </trkpt>
      <trkpt lat="38.05236" lon="-4.05865"/>
      <trkpt lat="38.05231" lon="-4.05861">
        <time>2022-11-26 12:20:31</time>
      </trkpt>
      <trkpt lat="38.05226" lon="-4.05857"/>
      <trkpt lat="38.0522" lon="-4.05854">
        <time>2022-11-26 12:20:32</time>
      </trkpt>
      <trkpt lat="38.05214" lon="-4.0585"/>
      <trkpt lat="38.05208" lon="-4.05847">
        <time>2022-11-26 12:20:33</time>
      </trkpt>
      <trkpt lat="38.05203" lon="-4.05844"/>
      <trkpt lat="38.05197" lon="-4.05841">
        <time>2022-11-26 12:20:34</time>
      </trkpt>
      <trkpt lat="38.05191" lon="-4.05838"/>
      <trkpt lat="38.05185" lon="-4.05834">
        <time>2022-11-26 12:20:35</time>
      </trkpt>
      <trkpt lat="38.05179" lon="-4.05831"/>
      <trkpt lat="38.05173" lon="-4.05828">
        <time>2022-11-26 12:20:36</time>
      </trkpt>
      <trkpt lat="38.05167" lon="-4.05825"/>
      <trkpt lat="38.05161" lon="-4.05822">
        <time>2022-11-26 12:20:37</time>
      </trkpt>
      <trkpt lat="38.05155" lon="-4.0582"/>
      <trkpt lat="38.05149" lon="-4.05817">
        <time>2022-11-26 12:20:38</time>
      </trkpt>
      <trkpt lat="38.05143" lon="-4.05814"/>
      <trkpt lat="38.05136" lon="-4.05812">
        <time>2022-11-26 12:20:39</time>
      </trkpt>
      <trkpt lat="38.0513" lon="-4.0581"/>
      <trkpt lat="38.05124" lon="-4.05807">
        <time>2022-11-26 12:20:40</time>
      </trkpt>
      <trkpt lat="38.05118" lon="-4.05805"/>
      <trkpt lat="38.05111" lon="-4.05802">
        <time>2022-11-26 12:20:41</time>
      </trkpt>
      <trkpt lat="38.05105" lon="-4.058"/>
      <trkpt lat="38.05098" lon="-4.05797">
        <time>2022-11-26 12:20:42</time>
      </trkpt>
      <trkpt lat="38.05092" lon="-4.05795"/>
      <trkpt lat="38.05086" lon="-4.05792">
        <time>2022-11-26 12:20:43</time>
      </trkpt>
      <trkpt lat="38.05079" lon="-4.05791"/>
      <trkpt lat="38.05073" lon="-4.0579">
        <time>2022-11-26 12:20:44</time>
      </trkpt>
      <trkpt lat="38.05066" lon="-4.05788"/>
      <trkpt lat="38.0506" lon="-4.05787">
        <time>2022-11-26 12:20:45</time>
      </trkpt>
      <trkpt lat="38.05053" lon="-4.05785"/>
      <trkpt lat="38.05047" lon="-4.05784">
        <time>2022-11-26 12:20:46</time>
      </trkpt>
      <trkpt lat="38.05041" lon="-4.05783"/>
      <trkpt lat="38.05035" lon="-4.05782">
        <time>2022-11-26 12:20:47</time>
      </trkpt>
      <trkpt lat="38.05029" lon="-4.05779"/>
      <trkpt lat="38.05023" lon="-4.05776">
        <time>2022-11-26 12:20:48</time>
      </trkpt>
      <trkpt lat="38.05017" lon="-4.05773"/>
      <trkpt lat="38.05011" lon="-4.05768">
        <time>2022-11-26 12:20:49</time>
      </trkpt>
      <trkpt lat="38.05005" lon="-4.05764"/>
      <trkpt lat="38.04998" lon="-4.0576">
        <time>2022-11-26 12:20:50</time>
      </trkpt>
      <trkpt lat="38.04991" lon="-4.05755"/>
      <trkpt lat="38.04983" lon="-4.05752">
        <time>2022-11-26 12:20:51</time>
      </trkpt>
      <trkpt lat="38.04975" lon="-4.05749"/>
      <trkpt lat="38.04966" lon="-4.05747">
        <time>2022-11-26 12:20:52</time>
      </trkpt>
      <trkpt lat="38.04957" lon="-4.05746"/>
      <trkpt lat="38.04947" lon="-4.05745">
        <time>2022-11-26 12:20:53</time>
      </trkpt>
      <trkpt lat="38.04938" lon="-4.05744"/>
      <trkpt lat="38.04929" lon="-4.05743">
        <time>2022-11-26 12:20:54</time>
      </trkpt>
      <trkpt lat="38.0492" lon="-4.05742"/>
      <trkpt lat="38.04912" lon="-4.05741">
        <time>2022-11-26 12:20:55</time>
      </trkpt>
      <trkpt lat="38.04904" lon="-4.05741"/>
      <trkpt lat="38.04896" lon="-4.0574">
        <time>2022-11-26 12:20:56</time>
      </trkpt>
      <trkpt lat="38.0489" lon="-4.0574"/>
      <trkpt lat="38.04883" lon="-4.05739">
        <time>2022-11-26 12:20:57</time>
      </trkpt>
      <trkpt lat="38.04877" lon="-4.05739"/>
      <trkpt lat="38.04872" lon="-4.05739">
        <time>2022-11-26 12:20:58</time>
      </trkpt>
      <trkpt lat="38.04868" lon="-4.05739"/>
      <trkpt lat="38.04863" lon="-4.05739">
        <time>2022-11-26 12:21:00</time>
      </trkpt>
      <trkpt lat="38.04858" lon="-4.05739"/>
      <trkpt lat="38.04853" lon="-4.05739">
        <time>2022-11-26 12:21:01</time>
      </trkpt>
      <trkpt lat="38.04849" lon="-4.05739"/>
      <trkpt lat="38.04846" lon="-4.0574">
        <time>2022-11-26 12:21:02</time>
      </trkpt>
      <trkpt lat="38.04842" lon="-4.05741"/>
      <trkpt lat="38.04838" lon="-4.05741">
        <time>2022-11-26 12:21:03</time>
      </trkpt>
      <trkpt lat="38.04833" lon="-4.05741"/>
      <trkpt lat="38.04827" lon="-4.05742">
        <time>2022-11-26 12:21:04</time>
      </trkpt>
      <trkpt lat="38.04821" lon="-4.05742"/>
      <trkpt lat="38.04815" lon="-4.05742">
        <time>2022-11-26 12:21:06</time>
      </trkpt>
      <trkpt lat="38.04809" lon="-4.05742"/>
      <trkpt lat="38.04804" lon="-4.05743">
        <time>2022-11-26 12:21:07</time>
      </trkpt>
      <trkpt lat="38.04798" lon="-4.05743"/>
      <trkpt lat="38.04792" lon="-4.05743">
        <time>2022-11-26 12:21:08</time>
      </trkpt>
      <trkpt lat="38.04786" lon="-4.05743"/>
      <trkpt lat="38.0478" lon="-4.05744">
        <time>2022-11-26 12:21:09</time>
      </trkpt>
      <trkpt lat="38.04774" lon="-4.05744"/>
      <trkpt lat="38.04768" lon="-4.05744">
        <time>2022-11-26 12:21:10</time>
      </trkpt>
      <trkpt lat="38.04762" lon="-4.05744"/>
      <trkpt lat="38.04756" lon="-4.05744">
        <time>2022-11-26 12:21:11</time>
      </trkpt>
      <trkpt lat="38.0475" lon="-4.05744"/>
      <trkpt lat="38.04743" lon="-4.05745">
        <time>2022-11-26 12:21:12</time>
      </trkpt>
      <trkpt lat="38.04737" lon="-4.05745"/>
      <trkpt lat="38.0473" lon="-4.05745">
        <time>2022-11-26 12:21:13</time>
      </trkpt>
      <trkpt lat="38.04724" lon="-4.05745"/>
      <trkpt lat="38.04718" lon="-4.05745">
        <time>2022-11-26 12:21:14</time>
      </trkpt>
      <trkpt lat="38.04711" lon="-4.05746"/>
      <trkpt lat="38.04705" lon="-4.05746">
        <time>2022-11-26 12:21:15</time>
      </trkpt>
      <trkpt lat="38.04699" lon="-4.05746"/>
      <trkpt lat="38.04692" lon="-4.05746">
        <time>2022-11-26 12:21:16</time>
      </trkpt>
      <trkpt lat="38.04686" lon="-4.05747"/>
      <trkpt lat="38.04679" lon="-4.05746">
        <time>2022-11-26 12:21:17</time>
      </trkpt>
      <trkpt lat="38.04672" lon="-4.05746"/>
      <trkpt lat="38.04666" lon="-4.05746">
        <time>2022-11-26 12:21:18</time>
      </trkpt>
      <trkpt lat="38.04659" lon="-4.05746"/>
      <trkpt lat="38.04652" lon="-4.05745">
        <time>2022-11-26 12:21:19</time>
      </trkpt>
      <trkpt lat="38.04646" lon="-4.05744"/>
      <trkpt lat="38.04639" lon="-4.05744">
        <time>2022-11-26 12:21:20</time>
      </trkpt>
      <trkpt lat="38.04632" lon="-4.05743"/>
      <trkpt lat="38.04625" lon="-4.05743">
        <time>2022-11-26 12:21:21</time>
      </trkpt>
      <trkpt lat="38.04618" lon="-4.05742"/>
      <trkpt lat="38.04612" lon="-4.05741">
        <time>2022-11-26 12:21:22</time>
      </trkpt>
      <trkpt lat="38.04605" lon="-4.05739"/>
      <trkpt lat="38.04599" lon="-4.05737">
        <time>2022-11-26 12:21:23</time>
      </trkpt>
      <trkpt lat="38.04593" lon="-4.05734"/>
      <trkpt lat="38.04587" lon="-4.05732">
        <time>2022-11-26 12:21:24</time>
      </trkpt>
      <trkpt lat="38.0458" lon="-4.05731"/>
      <trkpt lat="38.04574" lon="-4.05732">
        <time>2022-11-26 12:21:25</time>
      </trkpt>
      <trkpt lat="38.04567" lon="-4.05732"/>
      <trkpt lat="38.04561" lon="-4.05733">
        <time>2022-11-26 12:21:26</time>
      </trkpt>
      <trkpt lat="38.04554" lon="-4.05733"/>
      <trkpt lat="38.04548" lon="-4.05732">
        <time>2022-11-26 12:21:27</time>
      </trkpt>
      <trkpt lat="38.04542" lon="-4.05732"/>
      <trkpt lat="38.04536" lon="-4.05732">
        <time>2022-11-26 12:21:28</time>
      </trkpt>
      <trkpt lat="38.0453" lon="-4.05732"/>
      <trkpt lat="38.04524" lon="-4.05732">
        <time>2022-11-26 12:21:29</time>
      </trkpt>
      <trkpt lat="38.04518" lon="-4.05732"/>
      <trkpt lat="38.04512" lon="-4.05733">
        <time>2022-11-26 12:21:30</time>
      </trkpt>
      <trkpt lat="38.04506" lon="-4.05733"/>
      <trkpt lat="38.045" lon="-4.05734">
        <time>2022-11-26 12:21:31</time>
      </trkpt>
      <trkpt lat="38.04495" lon="-4.05734"/>
      <trkpt lat="38.04489" lon="-4.05735">
        <time>2022-11-26 12:21:32</time>
      </trkpt>
      <trkpt lat="38.04483" lon="-4.05736"/>
      <trkpt lat="38.04476" lon="-4.05736">
        <time>2022-11-26 12:21:33</time>
      </trkpt>
      <trkpt lat="38.0447" lon="-4.05736"/>
      <trkpt lat="38.04465" lon="-4.05737">
        <time>2022-11-26 12:21:35</time>
      </trkpt>
      <trkpt lat="38.04459" lon="-4.05737"/>
      <trkpt lat="38.04453" lon="-4.05737">
        <time>2022-11-26 12:21:36</time>
      </trkpt>
      <trkpt lat="38.04447" lon="-4.05738"/>
      <trkpt lat="38.04441" lon="-4.05739">
        <time>2022-11-26 12:21:37</time>
      </trkpt>
      <trkpt lat="38.04435" lon="-4.0574"/>
      <trkpt lat="38.04429" lon="-4.05741">
        <time>2022-11-26 12:21:38</time>
      </trkpt>
      <trkpt lat="38.04423" lon="-4.05742"/>
      <trkpt lat="38.04417" lon="-4.05745">
        <time>2022-11-26 12:21:39</time>
      </trkpt>
      <trkpt lat="38.04411" lon="-4.05747"/>
      <trkpt lat="38.04405" lon="-4.05747">
        <time>2022-11-26 12:21:40</time>
      </trkpt>
      <trkpt lat="38.04399" lon="-4.05746"/>
      <trkpt lat="38.04393" lon="-4.05745">
        <time>2022-11-26 12:21:41</time>
      </trkpt>
      <trkpt lat="38.04388" lon="-4.05744"/>
      <trkpt lat="38.04383" lon="-4.05743">
        <time>2022-11-26 12:21:42</time>
      </trkpt>
      <trkpt lat="38.04378" lon="-4.05744"/>
      <trkpt lat="38.04373" lon="-4.05743">
        <time>2022-11-26 12:21:43</time>
      </trkpt>
      <trkpt lat="38.04367" lon="-4.05743"/>
      <trkpt lat="38.04362" lon="-4.05743">
        <time>2022-11-26 12:21:44</time>
      </trkpt>
      <trkpt lat="38.04356" lon="-4.05743"/>
      <trkpt lat="38.04351" lon="-4.05742">
        <time>2022-11-26 12:21:46</time>
      </trkpt>
      <trkpt lat="38.04347" lon="-4.05743"/>
      <trkpt lat="38.04342" lon="-4.05744">
        <time>2022-11-26 12:21:47</time>
      </trkpt>
      <trkpt lat="38.04338" lon="-4.05746"/>
      <trkpt lat="38.04335" lon="-4.05748">
        <time>2022-11-26 12:21:48</time>
      </trkpt>
      <trkpt lat="38.04333" lon="-4.05751"/>
      <trkpt lat="38.04331" lon="-4.05756">
        <time>2022-11-26 12:21:49</time>
      </trkpt>
      <trkpt lat="38.04331" lon="-4.05762"/>
      <trkpt lat="38.04332" lon="-4.05766">
        <time>2022-11-26 12:21:50</time>
      </trkpt>
      <trkpt lat="38.04331" lon="-4.05771"/>
      <trkpt lat="38.04331" lon="-4.05775">
        <time>2022-11-26 12:21:51</time>
      </trkpt>
      <trkpt lat="38.04329" lon="-4.05779"/>
      <trkpt lat="38.04327" lon="-4.05783">
        <time>2022-11-26 12:21:53</time>
      </trkpt>
      <trkpt lat="38.04322" lon="-4.05784"/>
      <trkpt lat="38.04317" lon="-4.05781">
        <time>2022-11-26 12:21:54</time>
      </trkpt>
      <trkpt lat="38.04314" lon="-4.05775"/>
      <trkpt lat="38.04312" lon="-4.05769">
        <time>2022-11-26 12:21:55</time>
      </trkpt>
      <trkpt lat="38.04312" lon="-4.05763"/>
      <trkpt lat="38.04313" lon="-4.05757">
        <time>2022-11-26 12:21:56</time>
      </trkpt>
      <trkpt lat="38.04313" lon="-4.05751"/>
      <trkpt lat="38.04317" lon="-4.05745">
        <time>2022-11-26 12:21:57</time>
      </trkpt>
      <trkpt lat="38.04318" lon="-4.05739"/>
      <trkpt lat="38.0432" lon="-4.05735">
        <time>2022-11-26 12:21:58</time>
      </trkpt>
      <trkpt lat="38.04324" lon="-4.05728"/>
      <trkpt lat="38.04326" lon="-4.05723">
        <time>2022-11-26 12:21:59</time>
      </trkpt>
      <trkpt lat="38.04328" lon="-4.05717"/>
      <trkpt lat="38.04329" lon="-4.05713">
        <time>2022-11-26 12:22:00</time>
      </trkpt>
      <trkpt lat="38.0433" lon="-4.05706"/>
      <trkpt lat="38.0433" lon="-4.05699">
        <time>2022-11-26 12:22:02</time>
      </trkpt>
      <trkpt lat="38.0433" lon="-4.05692"/>
      <trkpt lat="38.0433" lon="-4.05686">
        <time>2022-11-26 12:22:03</time>
      </trkpt>
      <trkpt lat="38.0433" lon="-4.0568"/>
      <trkpt lat="38.04329" lon="-4.05673">
        <time>2022-11-26 12:22:05</time>
      </trkpt>
      <trkpt lat="38.04329" lon="-4.05667"/>
      <trkpt lat="38.04329" lon="-4.0566">
        <time>2022-11-26 12:22:06</time>
      </trkpt>
      <trkpt lat="38.04328" lon="-4.05654"/>
      <trkpt lat="38.04327" lon="-4.05647">
        <time>2022-11-26 12:22:07</time>
      </trkpt>
      <trkpt lat="38.04326" lon="-4.05641"/>
      <trkpt lat="38.04325" lon="-4.05635">
        <time>2022-11-26 12:22:08</time>
      </trkpt>
      <trkpt lat="38.04324" lon="-4.05628"/>
      <trkpt lat="38.04323" lon="-4.05622">
        <time>2022-11-26 12:22:09</time>
      </trkpt>
      <trkpt lat="38.04322" lon="-4.05616"/>
      <trkpt lat="38.04321" lon="-4.0561">
        <time>2022-11-26 12:22:10</time>
      </trkpt>
      <trkpt lat="38.0432" lon="-4.05603"/>
      <trkpt lat="38.04319" lon="-4.05597">
        <time>2022-11-26 12:22:11</time>
      </trkpt>
      <trkpt lat="38.04318" lon="-4.05591"/>
      <trkpt lat="38.04317" lon="-4.05584">
        <time>2022-11-26 12:22:12</time>
      </trkpt>
      <trkpt lat="38.04316" lon="-4.05577"/>
      <trkpt lat="38.04315" lon="-4.05571">
        <time>2022-11-26 12:22:13</time>
      </trkpt>
      <trkpt lat="38.04314" lon="-4.05564"/>
      <trkpt lat="38.04314" lon="-4.05558">
        <time>2022-11-26 12:22:14</time>
      </trkpt>
      <trkpt lat="38.04313" lon="-4.05552"/>
      <trkpt lat="38.04313" lon="-4.05545">
        <time>2022-11-26 12:22:15</time>
      </trkpt>
      <trkpt lat="38.04312" lon="-4.05539"/>
      <trkpt lat="38.04312" lon="-4.05532">
        <time>2022-11-26 12:22:16</time>
      </trkpt>
      <trkpt lat="38.04312" lon="-4.05526"/>
      <trkpt lat="38.04312" lon="-4.0552">
        <time>2022-11-26 12:22:17</time>
      </trkpt>
      <trkpt lat="38.04312" lon="-4.05514"/>
      <trkpt lat="38.04313" lon="-4.05508">
        <time>2022-11-26 12:22:18</time>
      </trkpt>
      <trkpt lat="38.04314" lon="-4.05502"/>
      <trkpt lat="38.04315" lon="-4.05497">
        <time>2022-11-26 12:22:19</time>
      </trkpt>
      <trkpt lat="38.04317" lon="-4.05491"/>
      <trkpt lat="38.04318" lon="-4.05485">
        <time>2022-11-26 12:22:20</time>
      </trkpt>
      <trkpt lat="38.04319" lon="-4.05479"/>
      <trkpt lat="38.0432" lon="-4.05474">
        <time>2022-11-26 12:22:21</time>
      </trkpt>
      <trkpt lat="38.04321" lon="-4.05468"/>
      <trkpt lat="38.04322" lon="-4.05462">
        <time>2022-11-26 12:22:22</time>
      </trkpt>
      <trkpt lat="38.04323" lon="-4.05456"/>
      <trkpt lat="38.04324" lon="-4.0545">
        <time>2022-11-26 12:22:23</time>
      </trkpt>
      <trkpt lat="38.04326" lon="-4.05444"/>
      <trkpt lat="38.04327" lon="-4.05438">
        <time>2022-11-26 12:22:24</time>
      </trkpt>
      <trkpt lat="38.04328" lon="-4.05432"/>
      <trkpt lat="38.04328" lon="-4.05426">
        <time>2022-11-26 12:22:25</time>
      </trkpt>
      <trkpt lat="38.04329" lon="-4.0542"/>
      <trkpt lat="38.0433" lon="-4.05415">
        <time>2022-11-26 12:22:26</time>
      </trkpt>
      <trkpt lat="38.04332" lon="-4.05409"/>
      <trkpt lat="38.04332" lon="-4.05403">
        <time>2022-11-26 12:22:27</time>
      </trkpt>
      <trkpt lat="38.04333" lon="-4.05397"/>
      <trkpt lat="38.04334" lon="-4.05392">
        <time>2022-11-26 12:22:28</time>
      </trkpt>
      <trkpt lat="38.04335" lon="-4.05386"/>
      <trkpt lat="38.04335" lon="-4.0538">
        <time>2022-11-26 12:22:29</time>
      </trkpt>
      <trkpt lat="38.04334" lon="-4.05374"/>
      <trkpt lat="38.04333" lon="-4.05369">
        <time>2022-11-26 12:22:30</time>
      </trkpt>
      <trkpt lat="38.04333" lon="-4.05363"/>
      <trkpt lat="38.04332" lon="-4.05357">
        <time>2022-11-26 12:22:31</time>
      </trkpt>
      <trkpt lat="38.04331" lon="-4.05352"/>
      <trkpt lat="38.04331" lon="-4.05346">
        <time>2022-11-26 12:22:32</time>
      </trkpt>
      <trkpt lat="38.0433" lon="-4.0534"/>
      <trkpt lat="38.0433" lon="-4.05335">
        <time>2022-11-26 12:22:33</time>
      </trkpt>
      <trkpt lat="38.0433" lon="-4.05329"/>
      <trkpt lat="38.0433" lon="-4.05322">
        <time>2022-11-26 12:22:34</time>
      </trkpt>
      <trkpt lat="38.04329" lon="-4.05316"/>
      <trkpt lat="38.04328" lon="-4.05311">
        <time>2022-11-26 12:22:35</time>
      </trkpt>
      <trkpt lat="38.04327" lon="-4.05305"/>
      <trkpt lat="38.04326" lon="-4.05299">
        <time>2022-11-26 12:22:36</time>
      </trkpt>
      <trkpt lat="38.04325" lon="-4.05293"/>
      <trkpt lat="38.04323" lon="-4.05288">
        <time>2022-11-26 12:22:37</time>
      </trkpt>
      <trkpt lat="38.04322" lon="-4.05282"/>
      <trkpt lat="38.04321" lon="-4.05276">
        <time>2022-11-26 12:22:38</time>
      </trkpt>
      <trkpt lat="38.0432" lon="-4.0527"/>
      <trkpt lat="38.04318" lon="-4.05265">
        <time>2022-11-26 12:22:39</time>
      </trkpt>
      <trkpt lat="38.04317" lon="-4.05259"/>
      <trkpt lat="38.04315" lon="-4.05253">
        <time>2022-11-26 12:22:40</time>
      </trkpt>
      <trkpt lat="38.04314" lon="-4.05247"/>
      <trkpt lat="38.04313" lon="-4.05242">
        <time>2022-11-26 12:22:41</time>
      </trkpt>
      <trkpt lat="38.04312" lon="-4.05237"/>
      <trkpt lat="38.0431" lon="-4.05232">
        <time>2022-11-26 12:22:42</time>
      </trkpt>
      <trkpt lat="38.04309" lon="-4.05228"/>
      <trkpt lat="38.04309" lon="-4.05223">
        <time>2022-11-26 12:22:43</time>
      </trkpt>
      <trkpt lat="38.04308" lon="-4.05221"/>
      <trkpt lat="38.04307" lon="-4.05218">
        <time>2022-11-26 12:22:44</time>
      </trkpt>
      <trkpt lat="38.04306" lon="-4.05216"/>
      <trkpt lat="38.04304" lon="-4.05211">
        <time>2022-11-26 12:22:45</time>
      </trkpt>
      <trkpt lat="38.04303" lon="-4.05206"/>
      <trkpt lat="38.04301" lon="-4.05202">
        <time>2022-11-26 12:22:46</time>
      </trkpt>
      <trkpt lat="38.043" lon="-4.05198"/>
      <trkpt lat="38.04298" lon="-4.05195">
        <time>2022-11-26 12:22:47</time>
      </trkpt>
      <trkpt lat="38.04295" lon="-4.05192"/>
      <trkpt lat="38.04292" lon="-4.05189">
        <time>2022-11-26 12:22:48</time>
      </trkpt>
      <trkpt lat="38.04287" lon="-4.05185"/>
      <trkpt lat="38.04284" lon="-4.05182">
        <time>2022-11-26 12:22:49</time>
      </trkpt>
      <trkpt lat="38.04281" lon="-4.05179"/>
      <trkpt lat="38.04277" lon="-4.05176">
        <time>2022-11-26 12:22:50</time>
      </trkpt>
      <trkpt lat="38.04273" lon="-4.05172"/>
      <trkpt lat="38.0427" lon="-4.05168">
        <time>2022-11-26 12:22:52</time>
      </trkpt>
      <trkpt lat="38.04266" lon="-4.05165"/>
      <trkpt lat="38.04262" lon="-4.05161">
        <time>2022-11-26 12:22:53</time>
      </trkpt>
      <trkpt lat="38.04258" lon="-4.05158"/>
      <trkpt lat="38.04255" lon="-4.05153">
        <time>2022-11-26 12:22:54</time>
      </trkpt>
      <trkpt lat="38.04252" lon="-4.05148"/>
      <trkpt lat="38.0425" lon="-4.05143">
        <time>2022-11-26 12:22:55</time>
      </trkpt>
      <trkpt lat="38.04249" lon="-4.05138"/>
      <trkpt lat="38.04249" lon="-4.05134">
        <time>2022-11-26 12:22:56</time>
      </trkpt>
      <trkpt lat="38.04249" lon="-4.05131"/>
      <trkpt lat="38.04248" lon="-4.05131">
        <time>2022-11-26 12:22:57</time>
      </trkpt>
      <trkpt lat="38.04247" lon="-4.05131"/>
      <trkpt lat="38.04244" lon="-4.05131">
        <time>2022-11-26 12:22:58</time>
      </trkpt>
      <trkpt lat="38.0424" lon="-4.05132"/>
      <trkpt lat="38.04235" lon="-4.05131">
        <time>2022-11-26 12:23:00</time>
      </trkpt>
      <trkpt lat="38.04232" lon="-4.05132"/>
      <trkpt lat="38.04228" lon="-4.05132">
        <time>2022-11-26 12:23:01</time>
      </trkpt>
      <trkpt lat="38.04224" lon="-4.05133"/>
      <trkpt lat="38.0422" lon="-4.05135">
        <time>2022-11-26 12:23:02</time>
      </trkpt>
      <trkpt lat="38.04216" lon="-4.05136"/>
      <trkpt lat="38.04207" lon="-4.05138">
        <time>2022-11-26 12:23:03</time>
      </trkpt>
      <trkpt lat="38.04203" lon="-4.05139"/>
      <trkpt lat="38.042" lon="-4.0514">
        <time>2022-11-26 12:23:04</time>
      </trkpt>
      <trkpt lat="38.04197" lon="-4.0514"/>
      <trkpt lat="38.04193" lon="-4.0514">
        <time>2022-11-26 12:23:05</time>
      </trkpt>
      <trkpt lat="38.04189" lon="-4.05141"/>
      <trkpt lat="38.04184" lon="-4.05141">
        <time>2022-11-26 12:23:06</time>
      </trkpt>
      <trkpt lat="38.04178" lon="-4.05144"/>
      <trkpt lat="38.04174" lon="-4.05147">
        <time>2022-11-26 12:23:07</time>
      </trkpt>
      <trkpt lat="38.04171" lon="-4.05149"/>
      <trkpt lat="38.04167" lon="-4.0515">
        <time>2022-11-26 12:23:08</time>
      </trkpt>
      <trkpt lat="38.04162" lon="-4.05152"/>
      <trkpt lat="38.04158" lon="-4.05153">
        <time>2022-11-26 12:23:09</time>
      </trkpt>
      <trkpt lat="38.04154" lon="-4.05154"/>
      <trkpt lat="38.0415" lon="-4.05155">
        <time>2022-11-26 12:23:10</time>
      </trkpt>
      <trkpt lat="38.04145" lon="-4.05156"/>
      <trkpt lat="38.04141" lon="-4.05157">
        <time>2022-11-26 12:23:11</time>
      </trkpt>
      <trkpt lat="38.04138" lon="-4.05158"/>
      <trkpt lat="38.04133" lon="-4.05158">
        <time>2022-11-26 12:23:12</time>
      </trkpt>
      <trkpt lat="38.04127" lon="-4.05158"/>
      <trkpt lat="38.04122" lon="-4.05158">
        <time>2022-11-26 12:23:13</time>
      </trkpt>
      <trkpt lat="38.04119" lon="-4.05158"/>
      <trkpt lat="38.04117" lon="-4.05157">
        <time>2022-11-26 12:23:14</time>
      </trkpt>
      <trkpt lat="38.04109" lon="-4.05158"/>
      <trkpt lat="38.04103" lon="-4.0516">
        <time>2022-11-26 12:23:16</time>
      </trkpt>
      <trkpt lat="38.04099" lon="-4.05162"/>
      <trkpt lat="38.04096" lon="-4.05163">
        <time>2022-11-26 12:23:17</time>
      </trkpt>
      <trkpt lat="38.04095" lon="-4.05161"/>
      <trkpt lat="38.0409" lon="-4.05161">
        <time>2022-11-26 12:23:19</time>
      </trkpt>
      <trkpt lat="38.04085" lon="-4.05163"/>
      <trkpt lat="38.0408" lon="-4.05163">
        <time>2022-11-26 12:23:20</time>
      </trkpt>
      <trkpt lat="38.04076" lon="-4.05162"/>
      <trkpt lat="38.0407" lon="-4.05162">
        <time>2022-11-26 12:23:21</time>
      </trkpt>
      <trkpt lat="38.04066" lon="-4.05162"/>
      <trkpt lat="38.04062" lon="-4.05163">
        <time>2022-11-26 12:23:22</time>
      </trkpt>
      <trkpt lat="38.04059" lon="-4.05162"/>
      <trkpt lat="38.04056" lon="-4.05163">
        <time>2022-11-26 12:23:23</time>
      </trkpt>
      <trkpt lat="38.04052" lon="-4.05163"/>
      <trkpt lat="38.04049" lon="-4.05163">
        <time>2022-11-26 12:23:25</time>
      </trkpt>
      <trkpt lat="38.04046" lon="-4.05163"/>
      <trkpt lat="38.04041" lon="-4.05164">
        <time>2022-11-26 12:23:26</time>
      </trkpt>
      <trkpt lat="38.04037" lon="-4.05164"/>
      <trkpt lat="38.04034" lon="-4.05164">
        <time>2022-11-26 12:23:27</time>
      </trkpt>
      <trkpt lat="38.0403" lon="-4.05164"/>
      <trkpt lat="38.04025" lon="-4.05165">
        <time>2022-11-26 12:23:28</time>
      </trkpt>
      <trkpt lat="38.04021" lon="-4.05165"/>
      <trkpt lat="38.04017" lon="-4.05166">
        <time>2022-11-26 12:23:29</time>
      </trkpt>
      <trkpt lat="38.04013" lon="-4.05167"/>
      <trkpt lat="38.04009" lon="-4.05168">
        <time>2022-11-26 12:23:30</time>
      </trkpt>
      <trkpt lat="38.04005" lon="-4.05168"/>
      <trkpt lat="38.04" lon="-4.0517">
        <time>2022-11-26 12:23:31</time>
      </trkpt>
      <trkpt lat="38.03996" lon="-4.05171"/>
      <trkpt lat="38.03992" lon="-4.05172">
        <time>2022-11-26 12:23:33</time>
      </trkpt>
      <trkpt lat="38.03989" lon="-4.05173"/>
      <trkpt lat="38.03985" lon="-4.05174">
        <time>2022-11-26 12:23:34</time>
      </trkpt>
      <trkpt lat="38.0398" lon="-4.05174"/>
      <trkpt lat="38.03979" lon="-4.05176">
        <time>2022-11-26 12:23:36</time>
      </trkpt>
      <trkpt lat="38.03979" lon="-4.05178"/>
      <trkpt lat="38.03979" lon="-4.05178">
        <time>2022-11-26 12:23:37</time>
      </trkpt>
      <trkpt lat="38.03978" lon="-4.05179"/>
      <trkpt lat="38.03978" lon="-4.05177">
        <time>2022-11-26 12:23:38</time>
      </trkpt>
      <trkpt lat="38.03979" lon="-4.05173"/>
      <trkpt lat="38.03982" lon="-4.05169">
        <time>2022-11-26 12:23:39</time>
      </trkpt>
      <trkpt lat="38.03984" lon="-4.05163"/>
      <trkpt lat="38.03984" lon="-4.05158">
        <time>2022-11-26 12:23:40</time>
      </trkpt>
      <trkpt lat="38.03985" lon="-4.05151"/>
      <trkpt lat="38.03985" lon="-4.05146">
        <time>2022-11-26 12:23:41</time>
      </trkpt>
      <trkpt lat="38.03985" lon="-4.05139"/>
      <trkpt lat="38.03986" lon="-4.05132">
        <time>2022-11-26 12:23:42</time>
      </trkpt>
      <trkpt lat="38.03986" lon="-4.05126"/>
      <trkpt lat="38.03985" lon="-4.05121">
        <time>2022-11-26 12:23:43</time>
      </trkpt>
      <trkpt lat="38.03984" lon="-4.05114"/>
      <trkpt lat="38.03982" lon="-4.05107">
        <time>2022-11-26 12:23:45</time>
      </trkpt>
      <trkpt lat="38.0398" lon="-4.051"/>
      <trkpt lat="38.03979" lon="-4.05094">
        <time>2022-11-26 12:23:46</time>
      </trkpt>
      <trkpt lat="38.03978" lon="-4.05088"/>
      <trkpt lat="38.03977" lon="-4.0508">
        <time>2022-11-26 12:23:48</time>
      </trkpt>
      <trkpt lat="38.03976" lon="-4.05073"/>
      <trkpt lat="38.03975" lon="-4.05066">
        <time>2022-11-26 12:23:49</time>
      </trkpt>
      <trkpt lat="38.03974" lon="-4.0506"/>
      <trkpt lat="38.03974" lon="-4.05055">
        <time>2022-11-26 12:23:50</time>
      </trkpt>
      <trkpt lat="38.03973" lon="-4.05051"/>
      <trkpt lat="38.03972" lon="-4.05047">
        <time>2022-11-26 12:23:51</time>
      </trkpt>
      <trkpt lat="38.03972" lon="-4.05041"/>
      <trkpt lat="38.03972" lon="-4.05035">
        <time>2022-11-26 12:23:52</time>
      </trkpt>
      <trkpt lat="38.03971" lon="-4.0503"/>
      <trkpt lat="38.03971" lon="-4.05026">
        <time>2022-11-26 12:23:53</time>
      </trkpt>
      <trkpt lat="38.03969" lon="-4.05023"/>
      <trkpt lat="38.03967" lon="-4.05022">
        <time>2022-11-26 12:23:54</time>
      </trkpt>
      <trkpt lat="38.0396" lon="-4.05022"/>
      <trkpt lat="38.03957" lon="-4.05023">
        <time>2022-11-26 12:23:55</time>
      </trkpt>
      <trkpt lat="38.03954" lon="-4.05022"/>
      <trkpt lat="38.03948" lon="-4.05022">
        <time>2022-11-26 12:23:56</time>
      </trkpt>
      <trkpt lat="38.03945" lon="-4.05023"/>
      <trkpt lat="38.03942" lon="-4.05025">
        <time>2022-11-26 12:23:57</time>
      </trkpt>
      <trkpt lat="38.03936" lon="-4.05023"/>
      <trkpt lat="38.03931" lon="-4.05023">
        <time>2022-11-26 12:23:58</time>
      </trkpt>
      <trkpt lat="38.03926" lon="-4.05025"/>
      <trkpt lat="38.03919" lon="-4.05025">
        <time>2022-11-26 12:23:59</time>
      </trkpt>
      <trkpt lat="38.03914" lon="-4.05024"/>
      <trkpt lat="38.0391" lon="-4.05024">
        <time>2022-11-26 12:24:00</time>
      </trkpt>
      <trkpt lat="38.03906" lon="-4.05024"/>
      <trkpt lat="38.03901" lon="-4.05023">
        <time>2022-11-26 12:24:01</time>
      </trkpt>
      <trkpt lat="38.03896" lon="-4.05023"/>
      <trkpt lat="38.03893" lon="-4.05022">
        <time>2022-11-26 12:24:02</time>
      </trkpt>
      <trkpt lat="38.03891" lon="-4.05019"/>
      <trkpt lat="38.03886" lon="-4.05021">
        <time>2022-11-26 12:24:03</time>
      </trkpt>
      <trkpt lat="38.03881" lon="-4.05022"/>
      <trkpt lat="38.03877" lon="-4.05023">
        <time>2022-11-26 12:24:04</time>
      </trkpt>
      <trkpt lat="38.03874" lon="-4.05023"/>
      <trkpt lat="38.03871" lon="-4.05023">
        <time>2022-11-26 12:24:05</time>
      </trkpt>
      <trkpt lat="38.03867" lon="-4.05025"/>
      <trkpt lat="38.03861" lon="-4.05027">
        <time>2022-11-26 12:24:06</time>
      </trkpt>
      <trkpt lat="38.03853" lon="-4.05027"/>
      <trkpt lat="38.03849" lon="-4.05028">
        <time>2022-11-26 12:24:07</time>
      </trkpt>
      <trkpt lat="38.03844" lon="-4.05029"/>
      <trkpt lat="38.03836" lon="-4.0503">
        <time>2022-11-26 12:24:08</time>
      </trkpt>
      <trkpt lat="38.03833" lon="-4.0503"/>
      <trkpt lat="38.03828" lon="-4.0503">
        <time>2022-11-26 12:24:09</time>
      </trkpt>
      <trkpt lat="38.03825" lon="-4.05031"/>
      <trkpt lat="38.03821" lon="-4.05032">
        <time>2022-11-26 12:24:10</time>
      </trkpt>
      <trkpt lat="38.03818" lon="-4.05031"/>
      <trkpt lat="38.03814" lon="-4.0503">
        <time>2022-11-26 12:24:11</time>
      </trkpt>
      <trkpt lat="38.0381" lon="-4.05029"/>
      <trkpt lat="38.03805" lon="-4.05026">
        <time>2022-11-26 12:24:12</time>
      </trkpt>
      <trkpt lat="38.03802" lon="-4.05023"/>
      <trkpt lat="38.03798" lon="-4.05019">
        <time>2022-11-26 12:24:13</time>
      </trkpt>
      <trkpt lat="38.03796" lon="-4.05014"/>
      <trkpt lat="38.03794" lon="-4.0501">
        <time>2022-11-26 12:24:14</time>
      </trkpt>
      <trkpt lat="38.03792" lon="-4.05008"/>
      <trkpt lat="38.0379" lon="-4.05005">
        <time>2022-11-26 12:24:15</time>
      </trkpt>
      <trkpt lat="38.03789" lon="-4.05002"/>
      <trkpt lat="38.03786" lon="-4.05002">
        <time>2022-11-26 12:24:16</time>
      </trkpt>
      <trkpt lat="38.03779" lon="-4.05005"/>
      <trkpt lat="38.03773" lon="-4.05005">
        <time>2022-11-26 12:24:17</time>
      </trkpt>
      <trkpt lat="38.0377" lon="-4.05005"/>
      <trkpt lat="38.03767" lon="-4.05007">
        <time>2022-11-26 12:24:18</time>
      </trkpt>
      <trkpt lat="38.03763" lon="-4.05009"/>
      <trkpt lat="38.03759" lon="-4.05011">
        <time>2022-11-26 12:24:19</time>
      </trkpt>
      <trkpt lat="38.03754" lon="-4.05014"/>
      <trkpt lat="38.0375" lon="-4.05017">
        <time>2022-11-26 12:24:20</time>
      </trkpt>
      <trkpt lat="38.03746" lon="-4.0502"/>
      <trkpt lat="38.03742" lon="-4.05023">
        <time>2022-11-26 12:24:21</time>
      </trkpt>
      <trkpt lat="38.03738" lon="-4.05026"/>
      <trkpt lat="38.03735" lon="-4.05028">
        <time>2022-11-26 12:24:22</time>
      </trkpt>
      <trkpt lat="38.03731" lon="-4.05032"/>
      <trkpt lat="38.03726" lon="-4.05035">
        <time>2022-11-26 12:24:23</time>
      </trkpt>
      <trkpt lat="38.03722" lon="-4.05038"/>
      <trkpt lat="38.03718" lon="-4.0504">
        <time>2022-11-26 12:24:24</time>
      </trkpt>
      <trkpt lat="38.03714" lon="-4.05043"/>
      <trkpt lat="38.0371" lon="-4.05046">
        <time>2022-11-26 12:24:25</time>
      </trkpt>
      <trkpt lat="38.03706" lon="-4.05048"/>
      <trkpt lat="38.03701" lon="-4.05051">
        <time>2022-11-26 12:24:26</time>
      </trkpt>
      <trkpt lat="38.03697" lon="-4.05054"/>
      <trkpt lat="38.03694" lon="-4.05057">
        <time>2022-11-26 12:24:27</time>
      </trkpt>
      <trkpt lat="38.0369" lon="-4.05059"/>
      <trkpt lat="38.03688" lon="-4.0506">
        <time>2022-11-26 12:24:28</time>
      </trkpt>
      <trkpt lat="38.03687" lon="-4.0506"/>
      <trkpt lat="38.03686" lon="-4.0506">
        <time>2022-11-26 12:24:29</time>
      </trkpt>
      <trkpt lat="38.03685" lon="-4.0506"/>
      <trkpt lat="38.03683" lon="-4.05061">
        <time>2022-11-26 12:24:30</time>
      </trkpt>
      <trkpt lat="38.03682" lon="-4.0506"/>
      <trkpt lat="38.03681" lon="-4.05061">
        <time>2022-11-26 12:24:31</time>
      </trkpt>
      <trkpt lat="38.03681" lon="-4.05061"/>
      <trkpt lat="38.0368" lon="-4.05061">
        <time>2022-11-26 12:24:32</time>
      </trkpt>
      <trkpt lat="38.03681" lon="-4.05061"/>
      <trkpt lat="38.0368" lon="-4.05062">
        <time>2022-11-26 12:24:33</time>
      </trkpt>
      <trkpt lat="38.03679" lon="-4.05062"/>
      <trkpt lat="38.03677" lon="-4.05061">
        <time>2022-11-26 12:24:34</time>
      </trkpt>
      <trkpt lat="38.03674" lon="-4.05061"/>
      <trkpt lat="38.0367" lon="-4.0506">
        <time>2022-11-26 12:24:35</time>
      </trkpt>
      <trkpt lat="38.03666" lon="-4.0506"/>
      <trkpt lat="38.03662" lon="-4.0506">
        <time>2022-11-26 12:24:36</time>
      </trkpt>
      <trkpt lat="38.03657" lon="-4.05059"/>
      <trkpt lat="38.03653" lon="-4.05057">
        <time>2022-11-26 12:24:37</time>
      </trkpt>
      <trkpt lat="38.03647" lon="-4.05056"/>
      <trkpt lat="38.03642" lon="-4.05056">
        <time>2022-11-26 12:24:38</time>
      </trkpt>
      <trkpt lat="38.03638" lon="-4.05057"/>
      <trkpt lat="38.03633" lon="-4.05056">
        <time>2022-11-26 12:24:39</time>
      </trkpt>
      <trkpt lat="38.0363" lon="-4.05056"/>
      <trkpt lat="38.03627" lon="-4.05058">
        <time>2022-11-26 12:24:41</time>
      </trkpt>
      <trkpt lat="38.03624" lon="-4.05059"/>
      <trkpt lat="38.03623" lon="-4.05059">
        <time>2022-11-26 12:24:42</time>
      </trkpt>
      <trkpt lat="38.03622" lon="-4.05058"/>
      <trkpt lat="38.03622" lon="-4.05057">
        <time>2022-11-26 12:24:45</time>
      </trkpt>
      <trkpt lat="38.03621" lon="-4.05055"/>
      <trkpt lat="38.0362" lon="-4.05053">
        <time>2022-11-26 12:24:46</time>
      </trkpt>
      <trkpt lat="38.03617" lon="-4.05049"/>
      <trkpt lat="38.03616" lon="-4.0505">
        <time>2022-11-26 12:24:47</time>
      </trkpt>
      <trkpt lat="38.03611" lon="-4.0505"/>
      <trkpt lat="38.03604" lon="-4.05046">
        <time>2022-11-26 12:24:50</time>
      </trkpt>
      <trkpt lat="38.03594" lon="-4.05041"/>
      <trkpt lat="38.03589" lon="-4.05041">
        <time>2022-11-26 12:24:51</time>
      </trkpt>
      <trkpt lat="38.03585" lon="-4.05043"/>
      <trkpt lat="38.03582" lon="-4.05045">
        <time>2022-11-26 12:24:52</time>
      </trkpt>
      <trkpt lat="38.03581" lon="-4.05046"/>
      <trkpt lat="38.03581" lon="-4.05048">
        <time>2022-11-26 12:24:53</time>
      </trkpt>
      <trkpt lat="38.03581" lon="-4.0505"/>
      <trkpt lat="38.03581" lon="-4.05055">
        <time>2022-11-26 12:24:54</time>
      </trkpt>
      <trkpt lat="38.0358" lon="-4.05061"/>
      <trkpt lat="38.0358" lon="-4.05063">
        <time>2022-11-26 12:24:55</time>
      </trkpt>
      <trkpt lat="38.03581" lon="-4.05069"/>
      <trkpt lat="38.0358" lon="-4.05078">
        <time>2022-11-26 12:24:56</time>
      </trkpt>
      <trkpt lat="38.03579" lon="-4.05083"/>
      <trkpt lat="38.03578" lon="-4.05089">
        <time>2022-11-26 12:24:57</time>
      </trkpt>
      <trkpt lat="38.03576" lon="-4.05096"/>
      <trkpt lat="38.03576" lon="-4.05101">
        <time>2022-11-26 12:24:58</time>
      </trkpt>
      <trkpt lat="38.03577" lon="-4.05101"/>
      <trkpt lat="38.03578" lon="-4.05102">
        <time>2022-11-26 12:24:59</time>
      </trkpt>
      <trkpt lat="38.03578" lon="-4.05102"/>
      <trkpt lat="38.03578" lon="-4.05102">
        <time>2022-11-26 12:25:00</time>
      </trkpt>
      <trkpt lat="38.03578" lon="-4.051"/>
      <trkpt lat="38.03577" lon="-4.05099">
        <time>2022-11-26 12:25:02</time>
      </trkpt>
      <trkpt lat="38.03576" lon="-4.05098"/>
      <trkpt lat="38.03576" lon="-4.05099">
        <time>2022-11-26 12:25:03</time>
      </trkpt>
      <trkpt lat="38.03575" lon="-4.051"/>
      <trkpt lat="38.03574" lon="-4.05101">
        <time>2022-11-26 12:25:04</time>
      </trkpt>
      <trkpt lat="38.03574" lon="-4.05102"/>
      <trkpt lat="38.03574" lon="-4.05102">
        <time>2022-11-26 12:25:05</time>
      </trkpt>
      <trkpt lat="38.03573" lon="-4.05103"/>
      <trkpt lat="38.03573" lon="-4.05106">
        <time>2022-11-26 12:25:07</time>
      </trkpt>
      <trkpt lat="38.03573" lon="-4.05106"/>
      <trkpt lat="38.03573" lon="-4.05106">
        <time>2022-11-26 12:25:08</time>
      </trkpt>
    </trkseg>
  </trk>
</gpx>
